<?xml version="1.0" encoding="UTF-8" standalone="no" ?>
<gpx xmlns="http://www.topografix.com/GPX/1/1" xmlns:xsi="http://www.w3.org/2001/XMLSchema-instance" xsi:schemaLocation="http://www.topografix.com/GPX/1/1 http://www.topografix.com/GPX/1/1/gpx.xsd" version="1.1" creator="VisuGPX - https://www.visugpx.com">
  <metadata>
    <name>mrt  ,evaux les bains  bord la roche  le petit ternage</name>
    <desc><![CDATA[depart le camping,la grande combe,bord la roche,evaux les bains,le petit ternage,teillet d en bas,le camping]]></desc>
  </metadata>
  <trk>
    <name><![CDATA[mrt  ,evaux les bains  bord la roche  le petit ternage_1]]></name>
    <trkseg>
      <trkpt lat="46.17901" lon="2.48783">
        <ele>175</ele>
        <time>2016-04-04T12:03:54Z</time>
      </trkpt>
      <trkpt lat="46.17884" lon="2.48816">
        <ele>190</ele>
        <time>2016-04-04T12:04:10Z</time>
      </trkpt>
      <trkpt lat="46.17881" lon="2.48823">
        <ele>190</ele>
        <time>2016-04-04T12:04:13Z</time>
      </trkpt>
      <trkpt lat="46.17878" lon="2.48829">
        <ele>190</ele>
        <time>2016-04-04T12:04:16Z</time>
      </trkpt>
      <trkpt lat="46.17875" lon="2.48836">
        <ele>193</ele>
        <time>2016-04-04T12:04:19Z</time>
      </trkpt>
      <trkpt lat="46.17872" lon="2.48842">
        <ele>196</ele>
        <time>2016-04-04T12:04:22Z</time>
      </trkpt>
      <trkpt lat="46.17869" lon="2.48846">
        <ele>199</ele>
        <time>2016-04-04T12:04:25Z</time>
      </trkpt>
      <trkpt lat="46.17865" lon="2.48849">
        <ele>201</ele>
        <time>2016-04-04T12:04:29Z</time>
      </trkpt>
      <trkpt lat="46.17843" lon="2.48992">
        <ele>234</ele>
        <time>2016-04-04T12:04:32Z</time>
      </trkpt>
      <trkpt lat="46.17839" lon="2.49">
        <ele>301</ele>
        <time>2016-04-04T12:04:35Z</time>
      </trkpt>
      <trkpt lat="46.17835" lon="2.49004">
        <ele>350</ele>
        <time>2016-04-04T12:04:38Z</time>
      </trkpt>
      <trkpt lat="46.17831" lon="2.49006">
        <ele>382</ele>
        <time>2016-04-04T12:04:41Z</time>
      </trkpt>
      <trkpt lat="46.17827" lon="2.49008">
        <ele>403</ele>
        <time>2016-04-04T12:04:44Z</time>
      </trkpt>
      <trkpt lat="46.17823" lon="2.49008">
        <ele>416</ele>
        <time>2016-04-04T12:04:47Z</time>
      </trkpt>
      <trkpt lat="46.17818" lon="2.49007">
        <ele>424</ele>
        <time>2016-04-04T12:04:50Z</time>
      </trkpt>
      <trkpt lat="46.17814" lon="2.49005">
        <ele>430</ele>
        <time>2016-04-04T12:04:53Z</time>
      </trkpt>
      <trkpt lat="46.1781" lon="2.49001">
        <ele>433</ele>
        <time>2016-04-04T12:04:56Z</time>
      </trkpt>
      <trkpt lat="46.17805" lon="2.48997">
        <ele>437</ele>
        <time>2016-04-04T12:05:00Z</time>
      </trkpt>
      <trkpt lat="46.178" lon="2.48992">
        <ele>439</ele>
        <time>2016-04-04T12:05:03Z</time>
      </trkpt>
      <trkpt lat="46.17796" lon="2.48988">
        <ele>441</ele>
        <time>2016-04-04T12:05:06Z</time>
      </trkpt>
      <trkpt lat="46.17793" lon="2.48984">
        <ele>442</ele>
        <time>2016-04-04T12:05:09Z</time>
      </trkpt>
      <trkpt lat="46.17791" lon="2.48979">
        <ele>442</ele>
        <time>2016-04-04T12:05:12Z</time>
      </trkpt>
      <trkpt lat="46.17789" lon="2.48973">
        <ele>442</ele>
        <time>2016-04-04T12:05:16Z</time>
      </trkpt>
      <trkpt lat="46.17788" lon="2.48968">
        <ele>442</ele>
        <time>2016-04-04T12:05:19Z</time>
      </trkpt>
      <trkpt lat="46.17788" lon="2.48962">
        <ele>442</ele>
        <time>2016-04-04T12:05:22Z</time>
      </trkpt>
      <trkpt lat="46.17788" lon="2.48955">
        <ele>442</ele>
        <time>2016-04-04T12:05:25Z</time>
      </trkpt>
      <trkpt lat="46.17786" lon="2.48949">
        <ele>442</ele>
        <time>2016-04-04T12:05:28Z</time>
      </trkpt>
      <trkpt lat="46.17784" lon="2.48942">
        <ele>442</ele>
        <time>2016-04-04T12:05:31Z</time>
      </trkpt>
      <trkpt lat="46.17783" lon="2.48936">
        <ele>442</ele>
        <time>2016-04-04T12:05:34Z</time>
      </trkpt>
      <trkpt lat="46.17783" lon="2.4893">
        <ele>442</ele>
        <time>2016-04-04T12:05:38Z</time>
      </trkpt>
      <trkpt lat="46.17782" lon="2.48923">
        <ele>442</ele>
        <time>2016-04-04T12:05:41Z</time>
      </trkpt>
      <trkpt lat="46.17782" lon="2.48917">
        <ele>442</ele>
        <time>2016-04-04T12:05:44Z</time>
      </trkpt>
      <trkpt lat="46.17781" lon="2.4891">
        <ele>442</ele>
        <time>2016-04-04T12:05:47Z</time>
      </trkpt>
      <trkpt lat="46.17781" lon="2.48904">
        <ele>442</ele>
        <time>2016-04-04T12:05:50Z</time>
      </trkpt>
      <trkpt lat="46.1778" lon="2.48898">
        <ele>442</ele>
        <time>2016-04-04T12:05:53Z</time>
      </trkpt>
      <trkpt lat="46.17778" lon="2.48892">
        <ele>442</ele>
        <time>2016-04-04T12:05:56Z</time>
      </trkpt>
      <trkpt lat="46.17776" lon="2.48887">
        <ele>442</ele>
        <time>2016-04-04T12:05:59Z</time>
      </trkpt>
      <trkpt lat="46.17773" lon="2.48882">
        <ele>442</ele>
        <time>2016-04-04T12:06:02Z</time>
      </trkpt>
      <trkpt lat="46.1777" lon="2.48877">
        <ele>442</ele>
        <time>2016-04-04T12:06:06Z</time>
      </trkpt>
      <trkpt lat="46.17767" lon="2.48872">
        <ele>442</ele>
        <time>2016-04-04T12:06:09Z</time>
      </trkpt>
      <trkpt lat="46.17762" lon="2.48867">
        <ele>442</ele>
        <time>2016-04-04T12:06:13Z</time>
      </trkpt>
      <trkpt lat="46.17758" lon="2.48862">
        <ele>442</ele>
        <time>2016-04-04T12:06:16Z</time>
      </trkpt>
      <trkpt lat="46.17755" lon="2.48858">
        <ele>442</ele>
        <time>2016-04-04T12:06:19Z</time>
      </trkpt>
      <trkpt lat="46.17751" lon="2.48852">
        <ele>442</ele>
        <time>2016-04-04T12:06:23Z</time>
      </trkpt>
      <trkpt lat="46.17747" lon="2.48847">
        <ele>442</ele>
        <time>2016-04-04T12:06:27Z</time>
      </trkpt>
      <trkpt lat="46.17744" lon="2.48842">
        <ele>442</ele>
        <time>2016-04-04T12:06:31Z</time>
      </trkpt>
      <trkpt lat="46.17739" lon="2.48836">
        <ele>442</ele>
        <time>2016-04-04T12:06:35Z</time>
      </trkpt>
      <trkpt lat="46.17735" lon="2.48831">
        <ele>442</ele>
        <time>2016-04-04T12:06:39Z</time>
      </trkpt>
      <trkpt lat="46.17731" lon="2.48825">
        <ele>442</ele>
        <time>2016-04-04T12:06:43Z</time>
      </trkpt>
      <trkpt lat="46.17729" lon="2.48821">
        <ele>443</ele>
        <time>2016-04-04T12:06:46Z</time>
      </trkpt>
      <trkpt lat="46.17728" lon="2.48815">
        <ele>444</ele>
        <time>2016-04-04T12:06:49Z</time>
      </trkpt>
      <trkpt lat="46.17726" lon="2.48808">
        <ele>445</ele>
        <time>2016-04-04T12:06:52Z</time>
      </trkpt>
      <trkpt lat="46.17726" lon="2.48802">
        <ele>445</ele>
        <time>2016-04-04T12:06:55Z</time>
      </trkpt>
      <trkpt lat="46.17725" lon="2.48795">
        <ele>445</ele>
        <time>2016-04-04T12:06:58Z</time>
      </trkpt>
      <trkpt lat="46.17723" lon="2.48789">
        <ele>445</ele>
        <time>2016-04-04T12:07:01Z</time>
      </trkpt>
      <trkpt lat="46.17723" lon="2.48782">
        <ele>445</ele>
        <time>2016-04-04T12:07:04Z</time>
      </trkpt>
      <trkpt lat="46.17723" lon="2.48776">
        <ele>445</ele>
        <time>2016-04-04T12:07:07Z</time>
      </trkpt>
      <trkpt lat="46.17721" lon="2.48771">
        <ele>445</ele>
        <time>2016-04-04T12:07:10Z</time>
      </trkpt>
      <trkpt lat="46.1772" lon="2.48763">
        <ele>445</ele>
        <time>2016-04-04T12:07:13Z</time>
      </trkpt>
      <trkpt lat="46.17719" lon="2.48756">
        <ele>445</ele>
        <time>2016-04-04T12:07:16Z</time>
      </trkpt>
      <trkpt lat="46.17718" lon="2.48749">
        <ele>445</ele>
        <time>2016-04-04T12:07:19Z</time>
      </trkpt>
      <trkpt lat="46.17717" lon="2.48743">
        <ele>446</ele>
        <time>2016-04-04T12:07:22Z</time>
      </trkpt>
      <trkpt lat="46.17715" lon="2.48736">
        <ele>446</ele>
        <time>2016-04-04T12:07:25Z</time>
      </trkpt>
      <trkpt lat="46.17715" lon="2.48729">
        <ele>446</ele>
        <time>2016-04-04T12:07:28Z</time>
      </trkpt>
      <trkpt lat="46.17714" lon="2.48724">
        <ele>446</ele>
        <time>2016-04-04T12:07:31Z</time>
      </trkpt>
      <trkpt lat="46.17713" lon="2.48718">
        <ele>446</ele>
        <time>2016-04-04T12:07:34Z</time>
      </trkpt>
      <trkpt lat="46.17715" lon="2.48712">
        <ele>446</ele>
        <time>2016-04-04T12:07:37Z</time>
      </trkpt>
      <trkpt lat="46.17717" lon="2.48706">
        <ele>446</ele>
        <time>2016-04-04T12:07:40Z</time>
      </trkpt>
      <trkpt lat="46.17718" lon="2.487">
        <ele>446</ele>
        <time>2016-04-04T12:07:43Z</time>
      </trkpt>
      <trkpt lat="46.17719" lon="2.48693">
        <ele>446</ele>
        <time>2016-04-04T12:07:46Z</time>
      </trkpt>
      <trkpt lat="46.1772" lon="2.48688">
        <ele>446</ele>
        <time>2016-04-04T12:07:49Z</time>
      </trkpt>
      <trkpt lat="46.1772" lon="2.48681">
        <ele>446</ele>
        <time>2016-04-04T12:07:52Z</time>
      </trkpt>
      <trkpt lat="46.1772" lon="2.48675">
        <ele>446</ele>
        <time>2016-04-04T12:07:55Z</time>
      </trkpt>
      <trkpt lat="46.1772" lon="2.48669">
        <ele>446</ele>
        <time>2016-04-04T12:07:58Z</time>
      </trkpt>
      <trkpt lat="46.1772" lon="2.48663">
        <ele>446</ele>
        <time>2016-04-04T12:08:01Z</time>
      </trkpt>
      <trkpt lat="46.1772" lon="2.48656">
        <ele>446</ele>
        <time>2016-04-04T12:08:04Z</time>
      </trkpt>
      <trkpt lat="46.17721" lon="2.48651">
        <ele>446</ele>
        <time>2016-04-04T12:08:07Z</time>
      </trkpt>
      <trkpt lat="46.1772" lon="2.48644">
        <ele>446</ele>
        <time>2016-04-04T12:08:10Z</time>
      </trkpt>
      <trkpt lat="46.1772" lon="2.48638">
        <ele>446</ele>
        <time>2016-04-04T12:08:13Z</time>
      </trkpt>
      <trkpt lat="46.17719" lon="2.48632">
        <ele>446</ele>
        <time>2016-04-04T12:08:16Z</time>
      </trkpt>
      <trkpt lat="46.17717" lon="2.48626">
        <ele>446</ele>
        <time>2016-04-04T12:08:19Z</time>
      </trkpt>
      <trkpt lat="46.17716" lon="2.4862">
        <ele>446</ele>
        <time>2016-04-04T12:08:23Z</time>
      </trkpt>
      <trkpt lat="46.17716" lon="2.48611">
        <ele>446</ele>
        <time>2016-04-04T12:08:26Z</time>
      </trkpt>
      <trkpt lat="46.17716" lon="2.48604">
        <ele>446</ele>
        <time>2016-04-04T12:08:29Z</time>
      </trkpt>
      <trkpt lat="46.17717" lon="2.48598">
        <ele>446</ele>
        <time>2016-04-04T12:08:32Z</time>
      </trkpt>
      <trkpt lat="46.17717" lon="2.48592">
        <ele>446</ele>
        <time>2016-04-04T12:08:35Z</time>
      </trkpt>
      <trkpt lat="46.17718" lon="2.48586">
        <ele>446</ele>
        <time>2016-04-04T12:08:38Z</time>
      </trkpt>
      <trkpt lat="46.17718" lon="2.4858">
        <ele>446</ele>
        <time>2016-04-04T12:08:41Z</time>
      </trkpt>
      <trkpt lat="46.17719" lon="2.48573">
        <ele>446</ele>
        <time>2016-04-04T12:08:44Z</time>
      </trkpt>
      <trkpt lat="46.17719" lon="2.48567">
        <ele>446</ele>
        <time>2016-04-04T12:08:47Z</time>
      </trkpt>
      <trkpt lat="46.17719" lon="2.48561">
        <ele>446</ele>
        <time>2016-04-04T12:08:50Z</time>
      </trkpt>
      <trkpt lat="46.17719" lon="2.48553">
        <ele>446</ele>
        <time>2016-04-04T12:08:54Z</time>
      </trkpt>
      <trkpt lat="46.17719" lon="2.48547">
        <ele>446</ele>
        <time>2016-04-04T12:08:57Z</time>
      </trkpt>
      <trkpt lat="46.17719" lon="2.48541">
        <ele>446</ele>
        <time>2016-04-04T12:09:00Z</time>
      </trkpt>
      <trkpt lat="46.17719" lon="2.48535">
        <ele>446</ele>
        <time>2016-04-04T12:09:03Z</time>
      </trkpt>
      <trkpt lat="46.17718" lon="2.48529">
        <ele>446</ele>
        <time>2016-04-04T12:09:06Z</time>
      </trkpt>
      <trkpt lat="46.17717" lon="2.48524">
        <ele>447</ele>
        <time>2016-04-04T12:09:09Z</time>
      </trkpt>
      <trkpt lat="46.17717" lon="2.48518">
        <ele>447</ele>
        <time>2016-04-04T12:09:12Z</time>
      </trkpt>
      <trkpt lat="46.17716" lon="2.48512">
        <ele>448</ele>
        <time>2016-04-04T12:09:15Z</time>
      </trkpt>
      <trkpt lat="46.17716" lon="2.48506">
        <ele>448</ele>
        <time>2016-04-04T12:09:18Z</time>
      </trkpt>
      <trkpt lat="46.17715" lon="2.48501">
        <ele>448</ele>
        <time>2016-04-04T12:09:21Z</time>
      </trkpt>
      <trkpt lat="46.17715" lon="2.48495">
        <ele>448</ele>
        <time>2016-04-04T12:09:24Z</time>
      </trkpt>
      <trkpt lat="46.17714" lon="2.48489">
        <ele>448</ele>
        <time>2016-04-04T12:09:27Z</time>
      </trkpt>
      <trkpt lat="46.17713" lon="2.48484">
        <ele>448</ele>
        <time>2016-04-04T12:09:30Z</time>
      </trkpt>
      <trkpt lat="46.17712" lon="2.48479">
        <ele>448</ele>
        <time>2016-04-04T12:09:33Z</time>
      </trkpt>
      <trkpt lat="46.1771" lon="2.48474">
        <ele>449</ele>
        <time>2016-04-04T12:09:36Z</time>
      </trkpt>
      <trkpt lat="46.17707" lon="2.48469">
        <ele>449</ele>
        <time>2016-04-04T12:09:39Z</time>
      </trkpt>
      <trkpt lat="46.17704" lon="2.48465">
        <ele>449</ele>
        <time>2016-04-04T12:09:42Z</time>
      </trkpt>
      <trkpt lat="46.17701" lon="2.4846">
        <ele>449</ele>
        <time>2016-04-04T12:09:46Z</time>
      </trkpt>
      <trkpt lat="46.17698" lon="2.48455">
        <ele>449</ele>
        <time>2016-04-04T12:09:49Z</time>
      </trkpt>
      <trkpt lat="46.17697" lon="2.48449">
        <ele>449</ele>
        <time>2016-04-04T12:09:52Z</time>
      </trkpt>
      <trkpt lat="46.17697" lon="2.48443">
        <ele>449</ele>
        <time>2016-04-04T12:09:55Z</time>
      </trkpt>
      <trkpt lat="46.17697" lon="2.48436">
        <ele>449</ele>
        <time>2016-04-04T12:09:58Z</time>
      </trkpt>
      <trkpt lat="46.17697" lon="2.48431">
        <ele>449</ele>
        <time>2016-04-04T12:10:01Z</time>
      </trkpt>
      <trkpt lat="46.17698" lon="2.48425">
        <ele>449</ele>
        <time>2016-04-04T12:10:04Z</time>
      </trkpt>
      <trkpt lat="46.177" lon="2.4842">
        <ele>449</ele>
        <time>2016-04-04T12:10:07Z</time>
      </trkpt>
      <trkpt lat="46.17702" lon="2.48415">
        <ele>449</ele>
        <time>2016-04-04T12:10:10Z</time>
      </trkpt>
      <trkpt lat="46.17704" lon="2.4841">
        <ele>449</ele>
        <time>2016-04-04T12:10:13Z</time>
      </trkpt>
      <trkpt lat="46.17704" lon="2.48406">
        <ele>449</ele>
        <time>2016-04-04T12:10:16Z</time>
      </trkpt>
      <trkpt lat="46.17704" lon="2.484">
        <ele>449</ele>
        <time>2016-04-04T12:10:19Z</time>
      </trkpt>
      <trkpt lat="46.17702" lon="2.48392">
        <ele>449</ele>
        <time>2016-04-04T12:10:22Z</time>
      </trkpt>
      <trkpt lat="46.17703" lon="2.48385">
        <ele>449</ele>
        <time>2016-04-04T12:10:25Z</time>
      </trkpt>
      <trkpt lat="46.17704" lon="2.48379">
        <ele>449</ele>
        <time>2016-04-04T12:10:28Z</time>
      </trkpt>
      <trkpt lat="46.17707" lon="2.48373">
        <ele>449</ele>
        <time>2016-04-04T12:10:31Z</time>
      </trkpt>
      <trkpt lat="46.17709" lon="2.48367">
        <ele>449</ele>
        <time>2016-04-04T12:10:34Z</time>
      </trkpt>
      <trkpt lat="46.17711" lon="2.48361">
        <ele>449</ele>
        <time>2016-04-04T12:10:37Z</time>
      </trkpt>
      <trkpt lat="46.17714" lon="2.48356">
        <ele>449</ele>
        <time>2016-04-04T12:10:40Z</time>
      </trkpt>
      <trkpt lat="46.17717" lon="2.48351">
        <ele>449</ele>
        <time>2016-04-04T12:10:43Z</time>
      </trkpt>
      <trkpt lat="46.17721" lon="2.48346">
        <ele>449</ele>
        <time>2016-04-04T12:10:46Z</time>
      </trkpt>
      <trkpt lat="46.17724" lon="2.48342">
        <ele>449</ele>
        <time>2016-04-04T12:10:49Z</time>
      </trkpt>
      <trkpt lat="46.17728" lon="2.48339">
        <ele>449</ele>
        <time>2016-04-04T12:10:52Z</time>
      </trkpt>
      <trkpt lat="46.17732" lon="2.48334">
        <ele>449</ele>
        <time>2016-04-04T12:10:55Z</time>
      </trkpt>
      <trkpt lat="46.17735" lon="2.4833">
        <ele>449</ele>
        <time>2016-04-04T12:10:58Z</time>
      </trkpt>
      <trkpt lat="46.17739" lon="2.48326">
        <ele>449</ele>
        <time>2016-04-04T12:11:01Z</time>
      </trkpt>
      <trkpt lat="46.17743" lon="2.48323">
        <ele>449</ele>
        <time>2016-04-04T12:11:04Z</time>
      </trkpt>
      <trkpt lat="46.17746" lon="2.48319">
        <ele>449</ele>
        <time>2016-04-04T12:11:07Z</time>
      </trkpt>
      <trkpt lat="46.1775" lon="2.48314">
        <ele>449</ele>
        <time>2016-04-04T12:11:10Z</time>
      </trkpt>
      <trkpt lat="46.17754" lon="2.48311">
        <ele>449</ele>
        <time>2016-04-04T12:11:13Z</time>
      </trkpt>
      <trkpt lat="46.17757" lon="2.48307">
        <ele>449</ele>
        <time>2016-04-04T12:11:16Z</time>
      </trkpt>
      <trkpt lat="46.17761" lon="2.48304">
        <ele>449</ele>
        <time>2016-04-04T12:11:19Z</time>
      </trkpt>
      <trkpt lat="46.17765" lon="2.483">
        <ele>449</ele>
        <time>2016-04-04T12:11:22Z</time>
      </trkpt>
      <trkpt lat="46.1777" lon="2.48295">
        <ele>448</ele>
        <time>2016-04-04T12:11:26Z</time>
      </trkpt>
      <trkpt lat="46.17773" lon="2.48291">
        <ele>448</ele>
        <time>2016-04-04T12:11:29Z</time>
      </trkpt>
      <trkpt lat="46.17777" lon="2.48288">
        <ele>448</ele>
        <time>2016-04-04T12:11:32Z</time>
      </trkpt>
      <trkpt lat="46.1778" lon="2.48285">
        <ele>447</ele>
        <time>2016-04-04T12:11:35Z</time>
      </trkpt>
      <trkpt lat="46.17784" lon="2.48281">
        <ele>447</ele>
        <time>2016-04-04T12:11:38Z</time>
      </trkpt>
      <trkpt lat="46.17787" lon="2.48277">
        <ele>447</ele>
        <time>2016-04-04T12:11:41Z</time>
      </trkpt>
      <trkpt lat="46.17792" lon="2.48272">
        <ele>447</ele>
        <time>2016-04-04T12:11:45Z</time>
      </trkpt>
      <trkpt lat="46.17795" lon="2.48268">
        <ele>447</ele>
        <time>2016-04-04T12:11:48Z</time>
      </trkpt>
      <trkpt lat="46.17799" lon="2.48263">
        <ele>447</ele>
        <time>2016-04-04T12:11:51Z</time>
      </trkpt>
      <trkpt lat="46.17802" lon="2.48258">
        <ele>447</ele>
        <time>2016-04-04T12:11:55Z</time>
      </trkpt>
      <trkpt lat="46.17806" lon="2.48253">
        <ele>447</ele>
        <time>2016-04-04T12:11:59Z</time>
      </trkpt>
      <trkpt lat="46.1781" lon="2.48251">
        <ele>447</ele>
        <time>2016-04-04T12:12:02Z</time>
      </trkpt>
      <trkpt lat="46.17814" lon="2.48248">
        <ele>447</ele>
        <time>2016-04-04T12:12:05Z</time>
      </trkpt>
      <trkpt lat="46.17817" lon="2.48244">
        <ele>447</ele>
        <time>2016-04-04T12:12:08Z</time>
      </trkpt>
      <trkpt lat="46.17821" lon="2.48241">
        <ele>447</ele>
        <time>2016-04-04T12:12:11Z</time>
      </trkpt>
      <trkpt lat="46.17825" lon="2.48237">
        <ele>447</ele>
        <time>2016-04-04T12:12:14Z</time>
      </trkpt>
      <trkpt lat="46.17829" lon="2.48234">
        <ele>447</ele>
        <time>2016-04-04T12:12:17Z</time>
      </trkpt>
      <trkpt lat="46.17832" lon="2.4823">
        <ele>447</ele>
        <time>2016-04-04T12:12:20Z</time>
      </trkpt>
      <trkpt lat="46.17836" lon="2.48226">
        <ele>447</ele>
        <time>2016-04-04T12:12:23Z</time>
      </trkpt>
      <trkpt lat="46.1784" lon="2.48222">
        <ele>447</ele>
        <time>2016-04-04T12:12:26Z</time>
      </trkpt>
      <trkpt lat="46.17844" lon="2.48219">
        <ele>447</ele>
        <time>2016-04-04T12:12:29Z</time>
      </trkpt>
      <trkpt lat="46.17847" lon="2.48215">
        <ele>447</ele>
        <time>2016-04-04T12:12:32Z</time>
      </trkpt>
      <trkpt lat="46.17851" lon="2.48212">
        <ele>447</ele>
        <time>2016-04-04T12:12:35Z</time>
      </trkpt>
      <trkpt lat="46.17855" lon="2.4821">
        <ele>447</ele>
        <time>2016-04-04T12:12:38Z</time>
      </trkpt>
      <trkpt lat="46.17859" lon="2.48206">
        <ele>447</ele>
        <time>2016-04-04T12:12:41Z</time>
      </trkpt>
      <trkpt lat="46.17863" lon="2.48201">
        <ele>447</ele>
        <time>2016-04-04T12:12:45Z</time>
      </trkpt>
      <trkpt lat="46.17868" lon="2.48196">
        <ele>447</ele>
        <time>2016-04-04T12:12:49Z</time>
      </trkpt>
      <trkpt lat="46.17871" lon="2.48191">
        <ele>447</ele>
        <time>2016-04-04T12:12:52Z</time>
      </trkpt>
      <trkpt lat="46.17873" lon="2.48186">
        <ele>447</ele>
        <time>2016-04-04T12:12:55Z</time>
      </trkpt>
      <trkpt lat="46.17876" lon="2.48181">
        <ele>447</ele>
        <time>2016-04-04T12:12:58Z</time>
      </trkpt>
      <trkpt lat="46.17878" lon="2.48176">
        <ele>447</ele>
        <time>2016-04-04T12:13:01Z</time>
      </trkpt>
      <trkpt lat="46.17881" lon="2.48171">
        <ele>447</ele>
        <time>2016-04-04T12:13:04Z</time>
      </trkpt>
      <trkpt lat="46.17884" lon="2.48166">
        <ele>447</ele>
        <time>2016-04-04T12:13:07Z</time>
      </trkpt>
      <trkpt lat="46.17885" lon="2.4816">
        <ele>447</ele>
        <time>2016-04-04T12:13:10Z</time>
      </trkpt>
      <trkpt lat="46.17889" lon="2.48154">
        <ele>447</ele>
        <time>2016-04-04T12:13:14Z</time>
      </trkpt>
      <trkpt lat="46.17891" lon="2.48148">
        <ele>447</ele>
        <time>2016-04-04T12:13:17Z</time>
      </trkpt>
      <trkpt lat="46.17894" lon="2.48144">
        <ele>447</ele>
        <time>2016-04-04T12:13:20Z</time>
      </trkpt>
      <trkpt lat="46.17898" lon="2.4814">
        <ele>447</ele>
        <time>2016-04-04T12:13:23Z</time>
      </trkpt>
      <trkpt lat="46.179" lon="2.48135">
        <ele>447</ele>
        <time>2016-04-04T12:13:26Z</time>
      </trkpt>
      <trkpt lat="46.17903" lon="2.4813">
        <ele>447</ele>
        <time>2016-04-04T12:13:29Z</time>
      </trkpt>
      <trkpt lat="46.17905" lon="2.48124">
        <ele>447</ele>
        <time>2016-04-04T12:13:32Z</time>
      </trkpt>
      <trkpt lat="46.17906" lon="2.48118">
        <ele>447</ele>
        <time>2016-04-04T12:13:35Z</time>
      </trkpt>
      <trkpt lat="46.17907" lon="2.48113">
        <ele>447</ele>
        <time>2016-04-04T12:13:38Z</time>
      </trkpt>
      <trkpt lat="46.17908" lon="2.4811">
        <ele>447</ele>
        <time>2016-04-04T12:13:42Z</time>
      </trkpt>
      <trkpt lat="46.1791" lon="2.48107">
        <ele>447</ele>
        <time>2016-04-04T12:13:46Z</time>
      </trkpt>
      <trkpt lat="46.17909" lon="2.48108">
        <ele>447</ele>
        <time>2016-04-04T12:13:53Z</time>
      </trkpt>
      <trkpt lat="46.17911" lon="2.48107">
        <ele>447</ele>
        <time>2016-04-04T12:14:03Z</time>
      </trkpt>
      <trkpt lat="46.17912" lon="2.48101">
        <ele>447</ele>
        <time>2016-04-04T12:14:06Z</time>
      </trkpt>
      <trkpt lat="46.17914" lon="2.48096">
        <ele>447</ele>
        <time>2016-04-04T12:14:09Z</time>
      </trkpt>
      <trkpt lat="46.17916" lon="2.48091">
        <ele>447</ele>
        <time>2016-04-04T12:14:12Z</time>
      </trkpt>
      <trkpt lat="46.17918" lon="2.48086">
        <ele>447</ele>
        <time>2016-04-04T12:14:15Z</time>
      </trkpt>
      <trkpt lat="46.17919" lon="2.48081">
        <ele>447</ele>
        <time>2016-04-04T12:14:18Z</time>
      </trkpt>
      <trkpt lat="46.1792" lon="2.48076">
        <ele>447</ele>
        <time>2016-04-04T12:14:21Z</time>
      </trkpt>
      <trkpt lat="46.17921" lon="2.4807">
        <ele>447</ele>
        <time>2016-04-04T12:14:24Z</time>
      </trkpt>
      <trkpt lat="46.17923" lon="2.48064">
        <ele>447</ele>
        <time>2016-04-04T12:14:27Z</time>
      </trkpt>
      <trkpt lat="46.17924" lon="2.48058">
        <ele>447</ele>
        <time>2016-04-04T12:14:30Z</time>
      </trkpt>
      <trkpt lat="46.17925" lon="2.48052">
        <ele>447</ele>
        <time>2016-04-04T12:14:33Z</time>
      </trkpt>
      <trkpt lat="46.17926" lon="2.48046">
        <ele>447</ele>
        <time>2016-04-04T12:14:36Z</time>
      </trkpt>
      <trkpt lat="46.17927" lon="2.48039">
        <ele>447</ele>
        <time>2016-04-04T12:14:39Z</time>
      </trkpt>
      <trkpt lat="46.17928" lon="2.48032">
        <ele>447</ele>
        <time>2016-04-04T12:14:42Z</time>
      </trkpt>
      <trkpt lat="46.17928" lon="2.48025">
        <ele>447</ele>
        <time>2016-04-04T12:14:45Z</time>
      </trkpt>
      <trkpt lat="46.17929" lon="2.48019">
        <ele>447</ele>
        <time>2016-04-04T12:14:48Z</time>
      </trkpt>
      <trkpt lat="46.1793" lon="2.48013">
        <ele>447</ele>
        <time>2016-04-04T12:14:51Z</time>
      </trkpt>
      <trkpt lat="46.1793" lon="2.48006">
        <ele>447</ele>
        <time>2016-04-04T12:14:54Z</time>
      </trkpt>
      <trkpt lat="46.17931" lon="2.48">
        <ele>447</ele>
        <time>2016-04-04T12:14:57Z</time>
      </trkpt>
      <trkpt lat="46.17931" lon="2.47993">
        <ele>447</ele>
        <time>2016-04-04T12:15:00Z</time>
      </trkpt>
      <trkpt lat="46.17931" lon="2.47986">
        <ele>447</ele>
        <time>2016-04-04T12:15:03Z</time>
      </trkpt>
      <trkpt lat="46.17932" lon="2.47979">
        <ele>447</ele>
        <time>2016-04-04T12:15:06Z</time>
      </trkpt>
      <trkpt lat="46.17933" lon="2.47973">
        <ele>447</ele>
        <time>2016-04-04T12:15:09Z</time>
      </trkpt>
      <trkpt lat="46.17933" lon="2.47967">
        <ele>447</ele>
        <time>2016-04-04T12:15:12Z</time>
      </trkpt>
      <trkpt lat="46.17934" lon="2.4796">
        <ele>447</ele>
        <time>2016-04-04T12:15:15Z</time>
      </trkpt>
      <trkpt lat="46.17935" lon="2.47954">
        <ele>447</ele>
        <time>2016-04-04T12:15:18Z</time>
      </trkpt>
      <trkpt lat="46.17936" lon="2.47948">
        <ele>447</ele>
        <time>2016-04-04T12:15:21Z</time>
      </trkpt>
      <trkpt lat="46.17938" lon="2.47942">
        <ele>447</ele>
        <time>2016-04-04T12:15:24Z</time>
      </trkpt>
      <trkpt lat="46.17938" lon="2.47935">
        <ele>447</ele>
        <time>2016-04-04T12:15:27Z</time>
      </trkpt>
      <trkpt lat="46.17939" lon="2.47929">
        <ele>447</ele>
        <time>2016-04-04T12:15:30Z</time>
      </trkpt>
      <trkpt lat="46.17939" lon="2.47923">
        <ele>447</ele>
        <time>2016-04-04T12:15:33Z</time>
      </trkpt>
      <trkpt lat="46.17941" lon="2.47917">
        <ele>447</ele>
        <time>2016-04-04T12:15:36Z</time>
      </trkpt>
      <trkpt lat="46.17942" lon="2.47911">
        <ele>447</ele>
        <time>2016-04-04T12:15:39Z</time>
      </trkpt>
      <trkpt lat="46.17944" lon="2.47905">
        <ele>447</ele>
        <time>2016-04-04T12:15:42Z</time>
      </trkpt>
      <trkpt lat="46.17945" lon="2.47899">
        <ele>446</ele>
        <time>2016-04-04T12:15:45Z</time>
      </trkpt>
      <trkpt lat="46.17947" lon="2.47893">
        <ele>446</ele>
        <time>2016-04-04T12:15:48Z</time>
      </trkpt>
      <trkpt lat="46.17949" lon="2.47886">
        <ele>446</ele>
        <time>2016-04-04T12:15:51Z</time>
      </trkpt>
      <trkpt lat="46.1795" lon="2.47881">
        <ele>446</ele>
        <time>2016-04-04T12:15:54Z</time>
      </trkpt>
      <trkpt lat="46.17952" lon="2.47875">
        <ele>446</ele>
        <time>2016-04-04T12:15:57Z</time>
      </trkpt>
      <trkpt lat="46.17953" lon="2.47868">
        <ele>446</ele>
        <time>2016-04-04T12:16:00Z</time>
      </trkpt>
      <trkpt lat="46.17953" lon="2.47862">
        <ele>446</ele>
        <time>2016-04-04T12:16:03Z</time>
      </trkpt>
      <trkpt lat="46.17955" lon="2.47856">
        <ele>446</ele>
        <time>2016-04-04T12:16:06Z</time>
      </trkpt>
      <trkpt lat="46.17956" lon="2.4785">
        <ele>446</ele>
        <time>2016-04-04T12:16:09Z</time>
      </trkpt>
      <trkpt lat="46.17957" lon="2.47843">
        <ele>445</ele>
        <time>2016-04-04T12:16:12Z</time>
      </trkpt>
      <trkpt lat="46.17958" lon="2.47837">
        <ele>445</ele>
        <time>2016-04-04T12:16:15Z</time>
      </trkpt>
      <trkpt lat="46.17958" lon="2.47831">
        <ele>444</ele>
        <time>2016-04-04T12:16:18Z</time>
      </trkpt>
      <trkpt lat="46.17959" lon="2.47824">
        <ele>444</ele>
        <time>2016-04-04T12:16:21Z</time>
      </trkpt>
      <trkpt lat="46.1796" lon="2.47818">
        <ele>444</ele>
        <time>2016-04-04T12:16:24Z</time>
      </trkpt>
      <trkpt lat="46.1796" lon="2.47812">
        <ele>444</ele>
        <time>2016-04-04T12:16:27Z</time>
      </trkpt>
      <trkpt lat="46.17961" lon="2.47806">
        <ele>444</ele>
        <time>2016-04-04T12:16:30Z</time>
      </trkpt>
      <trkpt lat="46.17962" lon="2.47799">
        <ele>444</ele>
        <time>2016-04-04T12:16:33Z</time>
      </trkpt>
      <trkpt lat="46.17963" lon="2.47793">
        <ele>443</ele>
        <time>2016-04-04T12:16:36Z</time>
      </trkpt>
      <trkpt lat="46.17964" lon="2.47786">
        <ele>443</ele>
        <time>2016-04-04T12:16:39Z</time>
      </trkpt>
      <trkpt lat="46.17965" lon="2.4778">
        <ele>442</ele>
        <time>2016-04-04T12:16:42Z</time>
      </trkpt>
      <trkpt lat="46.17965" lon="2.47774">
        <ele>442</ele>
        <time>2016-04-04T12:16:45Z</time>
      </trkpt>
      <trkpt lat="46.17966" lon="2.47768">
        <ele>441</ele>
        <time>2016-04-04T12:16:48Z</time>
      </trkpt>
      <trkpt lat="46.17966" lon="2.47761">
        <ele>441</ele>
        <time>2016-04-04T12:16:51Z</time>
      </trkpt>
      <trkpt lat="46.17967" lon="2.47755">
        <ele>440</ele>
        <time>2016-04-04T12:16:54Z</time>
      </trkpt>
      <trkpt lat="46.17968" lon="2.47749">
        <ele>439</ele>
        <time>2016-04-04T12:16:57Z</time>
      </trkpt>
      <trkpt lat="46.17969" lon="2.47743">
        <ele>439</ele>
        <time>2016-04-04T12:17:00Z</time>
      </trkpt>
      <trkpt lat="46.1797" lon="2.47736">
        <ele>439</ele>
        <time>2016-04-04T12:17:03Z</time>
      </trkpt>
      <trkpt lat="46.17971" lon="2.47729">
        <ele>439</ele>
        <time>2016-04-04T12:17:06Z</time>
      </trkpt>
      <trkpt lat="46.17972" lon="2.47723">
        <ele>439</ele>
        <time>2016-04-04T12:17:09Z</time>
      </trkpt>
      <trkpt lat="46.17973" lon="2.47716">
        <ele>439</ele>
        <time>2016-04-04T12:17:12Z</time>
      </trkpt>
      <trkpt lat="46.17974" lon="2.4771">
        <ele>439</ele>
        <time>2016-04-04T12:17:15Z</time>
      </trkpt>
      <trkpt lat="46.17976" lon="2.47704">
        <ele>439</ele>
        <time>2016-04-04T12:17:18Z</time>
      </trkpt>
      <trkpt lat="46.17977" lon="2.47698">
        <ele>439</ele>
        <time>2016-04-04T12:17:21Z</time>
      </trkpt>
      <trkpt lat="46.17978" lon="2.47692">
        <ele>439</ele>
        <time>2016-04-04T12:17:24Z</time>
      </trkpt>
      <trkpt lat="46.17979" lon="2.47686">
        <ele>439</ele>
        <time>2016-04-04T12:17:27Z</time>
      </trkpt>
      <trkpt lat="46.1798" lon="2.47679">
        <ele>439</ele>
        <time>2016-04-04T12:17:30Z</time>
      </trkpt>
      <trkpt lat="46.17981" lon="2.47672">
        <ele>438</ele>
        <time>2016-04-04T12:17:33Z</time>
      </trkpt>
      <trkpt lat="46.17982" lon="2.47666">
        <ele>438</ele>
        <time>2016-04-04T12:17:36Z</time>
      </trkpt>
      <trkpt lat="46.17983" lon="2.4766">
        <ele>438</ele>
        <time>2016-04-04T12:17:39Z</time>
      </trkpt>
      <trkpt lat="46.17985" lon="2.47653">
        <ele>438</ele>
        <time>2016-04-04T12:17:42Z</time>
      </trkpt>
      <trkpt lat="46.17986" lon="2.47646">
        <ele>438</ele>
        <time>2016-04-04T12:17:45Z</time>
      </trkpt>
      <trkpt lat="46.17987" lon="2.4764">
        <ele>437</ele>
        <time>2016-04-04T12:17:48Z</time>
      </trkpt>
      <trkpt lat="46.17989" lon="2.47634">
        <ele>437</ele>
        <time>2016-04-04T12:17:51Z</time>
      </trkpt>
      <trkpt lat="46.1799" lon="2.47627">
        <ele>437</ele>
        <time>2016-04-04T12:17:54Z</time>
      </trkpt>
      <trkpt lat="46.17992" lon="2.47621">
        <ele>437</ele>
        <time>2016-04-04T12:17:57Z</time>
      </trkpt>
      <trkpt lat="46.17994" lon="2.47616">
        <ele>436</ele>
        <time>2016-04-04T12:18:00Z</time>
      </trkpt>
      <trkpt lat="46.17995" lon="2.47609">
        <ele>436</ele>
        <time>2016-04-04T12:18:03Z</time>
      </trkpt>
      <trkpt lat="46.17997" lon="2.47603">
        <ele>436</ele>
        <time>2016-04-04T12:18:06Z</time>
      </trkpt>
      <trkpt lat="46.17999" lon="2.47597">
        <ele>436</ele>
        <time>2016-04-04T12:18:09Z</time>
      </trkpt>
      <trkpt lat="46.18001" lon="2.47592">
        <ele>436</ele>
        <time>2016-04-04T12:18:12Z</time>
      </trkpt>
      <trkpt lat="46.18003" lon="2.47586">
        <ele>436</ele>
        <time>2016-04-04T12:18:15Z</time>
      </trkpt>
      <trkpt lat="46.18005" lon="2.4758">
        <ele>436</ele>
        <time>2016-04-04T12:18:18Z</time>
      </trkpt>
      <trkpt lat="46.18008" lon="2.47574">
        <ele>435</ele>
        <time>2016-04-04T12:18:21Z</time>
      </trkpt>
      <trkpt lat="46.1801" lon="2.47569">
        <ele>435</ele>
        <time>2016-04-04T12:18:24Z</time>
      </trkpt>
      <trkpt lat="46.18012" lon="2.47563">
        <ele>435</ele>
        <time>2016-04-04T12:18:27Z</time>
      </trkpt>
      <trkpt lat="46.18015" lon="2.47558">
        <ele>435</ele>
        <time>2016-04-04T12:18:30Z</time>
      </trkpt>
      <trkpt lat="46.18017" lon="2.47553">
        <ele>435</ele>
        <time>2016-04-04T12:18:33Z</time>
      </trkpt>
      <trkpt lat="46.1802" lon="2.47547">
        <ele>434</ele>
        <time>2016-04-04T12:18:36Z</time>
      </trkpt>
      <trkpt lat="46.18022" lon="2.47542">
        <ele>434</ele>
        <time>2016-04-04T12:18:39Z</time>
      </trkpt>
      <trkpt lat="46.18025" lon="2.47537">
        <ele>433</ele>
        <time>2016-04-04T12:18:42Z</time>
      </trkpt>
      <trkpt lat="46.18027" lon="2.47531">
        <ele>433</ele>
        <time>2016-04-04T12:18:45Z</time>
      </trkpt>
      <trkpt lat="46.18029" lon="2.47525">
        <ele>433</ele>
        <time>2016-04-04T12:18:48Z</time>
      </trkpt>
      <trkpt lat="46.18032" lon="2.4752">
        <ele>432</ele>
        <time>2016-04-04T12:18:51Z</time>
      </trkpt>
      <trkpt lat="46.18034" lon="2.47514">
        <ele>432</ele>
        <time>2016-04-04T12:18:54Z</time>
      </trkpt>
      <trkpt lat="46.18036" lon="2.47509">
        <ele>432</ele>
        <time>2016-04-04T12:18:57Z</time>
      </trkpt>
      <trkpt lat="46.18039" lon="2.47503">
        <ele>432</ele>
        <time>2016-04-04T12:19:00Z</time>
      </trkpt>
      <trkpt lat="46.18041" lon="2.47498">
        <ele>432</ele>
        <time>2016-04-04T12:19:03Z</time>
      </trkpt>
      <trkpt lat="46.18043" lon="2.47492">
        <ele>431</ele>
        <time>2016-04-04T12:19:06Z</time>
      </trkpt>
      <trkpt lat="46.18045" lon="2.47487">
        <ele>431</ele>
        <time>2016-04-04T12:19:09Z</time>
      </trkpt>
      <trkpt lat="46.18047" lon="2.47481">
        <ele>431</ele>
        <time>2016-04-04T12:19:12Z</time>
      </trkpt>
      <trkpt lat="46.1805" lon="2.47476">
        <ele>431</ele>
        <time>2016-04-04T12:19:15Z</time>
      </trkpt>
      <trkpt lat="46.18052" lon="2.47471">
        <ele>431</ele>
        <time>2016-04-04T12:19:18Z</time>
      </trkpt>
      <trkpt lat="46.18054" lon="2.47465">
        <ele>430</ele>
        <time>2016-04-04T12:19:21Z</time>
      </trkpt>
      <trkpt lat="46.18056" lon="2.4746">
        <ele>430</ele>
        <time>2016-04-04T12:19:24Z</time>
      </trkpt>
      <trkpt lat="46.18059" lon="2.47454">
        <ele>430</ele>
        <time>2016-04-04T12:19:27Z</time>
      </trkpt>
      <trkpt lat="46.18061" lon="2.47449">
        <ele>430</ele>
        <time>2016-04-04T12:19:30Z</time>
      </trkpt>
      <trkpt lat="46.18063" lon="2.47444">
        <ele>430</ele>
        <time>2016-04-04T12:19:33Z</time>
      </trkpt>
      <trkpt lat="46.18066" lon="2.47438">
        <ele>430</ele>
        <time>2016-04-04T12:19:36Z</time>
      </trkpt>
      <trkpt lat="46.18068" lon="2.47433">
        <ele>429</ele>
        <time>2016-04-04T12:19:39Z</time>
      </trkpt>
      <trkpt lat="46.1807" lon="2.47428">
        <ele>429</ele>
        <time>2016-04-04T12:19:42Z</time>
      </trkpt>
      <trkpt lat="46.18073" lon="2.47422">
        <ele>429</ele>
        <time>2016-04-04T12:19:45Z</time>
      </trkpt>
      <trkpt lat="46.18075" lon="2.47416">
        <ele>429</ele>
        <time>2016-04-04T12:19:48Z</time>
      </trkpt>
      <trkpt lat="46.18078" lon="2.47411">
        <ele>429</ele>
        <time>2016-04-04T12:19:51Z</time>
      </trkpt>
      <trkpt lat="46.1808" lon="2.47405">
        <ele>429</ele>
        <time>2016-04-04T12:19:54Z</time>
      </trkpt>
      <trkpt lat="46.18082" lon="2.474">
        <ele>429</ele>
        <time>2016-04-04T12:19:57Z</time>
      </trkpt>
      <trkpt lat="46.18085" lon="2.47394">
        <ele>429</ele>
        <time>2016-04-04T12:20:00Z</time>
      </trkpt>
      <trkpt lat="46.18087" lon="2.47389">
        <ele>429</ele>
        <time>2016-04-04T12:20:03Z</time>
      </trkpt>
      <trkpt lat="46.1809" lon="2.47383">
        <ele>429</ele>
        <time>2016-04-04T12:20:06Z</time>
      </trkpt>
      <trkpt lat="46.18092" lon="2.47378">
        <ele>428</ele>
        <time>2016-04-04T12:20:09Z</time>
      </trkpt>
      <trkpt lat="46.18094" lon="2.47372">
        <ele>428</ele>
        <time>2016-04-04T12:20:12Z</time>
      </trkpt>
      <trkpt lat="46.18097" lon="2.47366">
        <ele>428</ele>
        <time>2016-04-04T12:20:15Z</time>
      </trkpt>
      <trkpt lat="46.18099" lon="2.47361">
        <ele>428</ele>
        <time>2016-04-04T12:20:18Z</time>
      </trkpt>
      <trkpt lat="46.18101" lon="2.47356">
        <ele>428</ele>
        <time>2016-04-04T12:20:21Z</time>
      </trkpt>
      <trkpt lat="46.18103" lon="2.4735">
        <ele>428</ele>
        <time>2016-04-04T12:20:24Z</time>
      </trkpt>
      <trkpt lat="46.18106" lon="2.47344">
        <ele>427</ele>
        <time>2016-04-04T12:20:27Z</time>
      </trkpt>
      <trkpt lat="46.1811" lon="2.47337">
        <ele>426</ele>
        <time>2016-04-04T12:20:31Z</time>
      </trkpt>
      <trkpt lat="46.18113" lon="2.47329">
        <ele>426</ele>
        <time>2016-04-04T12:20:35Z</time>
      </trkpt>
      <trkpt lat="46.18116" lon="2.47322">
        <ele>426</ele>
        <time>2016-04-04T12:20:39Z</time>
      </trkpt>
      <trkpt lat="46.18119" lon="2.47315">
        <ele>426</ele>
        <time>2016-04-04T12:20:43Z</time>
      </trkpt>
      <trkpt lat="46.18122" lon="2.4731">
        <ele>426</ele>
        <time>2016-04-04T12:20:46Z</time>
      </trkpt>
      <trkpt lat="46.18124" lon="2.47304">
        <ele>425</ele>
        <time>2016-04-04T12:20:49Z</time>
      </trkpt>
      <trkpt lat="46.18126" lon="2.47299">
        <ele>425</ele>
        <time>2016-04-04T12:20:52Z</time>
      </trkpt>
      <trkpt lat="46.18129" lon="2.47293">
        <ele>425</ele>
        <time>2016-04-04T12:20:55Z</time>
      </trkpt>
      <trkpt lat="46.18132" lon="2.47288">
        <ele>425</ele>
        <time>2016-04-04T12:20:58Z</time>
      </trkpt>
      <trkpt lat="46.18134" lon="2.47283">
        <ele>424</ele>
        <time>2016-04-04T12:21:01Z</time>
      </trkpt>
      <trkpt lat="46.18137" lon="2.47277">
        <ele>424</ele>
        <time>2016-04-04T12:21:04Z</time>
      </trkpt>
      <trkpt lat="46.18139" lon="2.47271">
        <ele>423</ele>
        <time>2016-04-04T12:21:07Z</time>
      </trkpt>
      <trkpt lat="46.1814" lon="2.47266">
        <ele>423</ele>
        <time>2016-04-04T12:21:10Z</time>
      </trkpt>
      <trkpt lat="46.18142" lon="2.4726">
        <ele>423</ele>
        <time>2016-04-04T12:21:13Z</time>
      </trkpt>
      <trkpt lat="46.18144" lon="2.47254">
        <ele>423</ele>
        <time>2016-04-04T12:21:16Z</time>
      </trkpt>
      <trkpt lat="46.18146" lon="2.47247">
        <ele>423</ele>
        <time>2016-04-04T12:21:19Z</time>
      </trkpt>
      <trkpt lat="46.18148" lon="2.4724">
        <ele>423</ele>
        <time>2016-04-04T12:21:23Z</time>
      </trkpt>
      <trkpt lat="46.18148" lon="2.47234">
        <ele>422</ele>
        <time>2016-04-04T12:21:26Z</time>
      </trkpt>
      <trkpt lat="46.18149" lon="2.47229">
        <ele>422</ele>
        <time>2016-04-04T12:21:29Z</time>
      </trkpt>
      <trkpt lat="46.1815" lon="2.4722">
        <ele>422</ele>
        <time>2016-04-04T12:21:33Z</time>
      </trkpt>
      <trkpt lat="46.18151" lon="2.47215">
        <ele>421</ele>
        <time>2016-04-04T12:21:36Z</time>
      </trkpt>
      <trkpt lat="46.18152" lon="2.47209">
        <ele>421</ele>
        <time>2016-04-04T12:21:39Z</time>
      </trkpt>
      <trkpt lat="46.18153" lon="2.47203">
        <ele>421</ele>
        <time>2016-04-04T12:21:42Z</time>
      </trkpt>
      <trkpt lat="46.18154" lon="2.47195">
        <ele>420</ele>
        <time>2016-04-04T12:21:45Z</time>
      </trkpt>
      <trkpt lat="46.18154" lon="2.47189">
        <ele>420</ele>
        <time>2016-04-04T12:21:48Z</time>
      </trkpt>
      <trkpt lat="46.18155" lon="2.47183">
        <ele>419</ele>
        <time>2016-04-04T12:21:51Z</time>
      </trkpt>
      <trkpt lat="46.18154" lon="2.47177">
        <ele>419</ele>
        <time>2016-04-04T12:21:54Z</time>
      </trkpt>
      <trkpt lat="46.18153" lon="2.47171">
        <ele>419</ele>
        <time>2016-04-04T12:21:58Z</time>
      </trkpt>
      <trkpt lat="46.18154" lon="2.47163">
        <ele>419</ele>
        <time>2016-04-04T12:22:01Z</time>
      </trkpt>
      <trkpt lat="46.18155" lon="2.47157">
        <ele>419</ele>
        <time>2016-04-04T12:22:04Z</time>
      </trkpt>
      <trkpt lat="46.18156" lon="2.4715">
        <ele>419</ele>
        <time>2016-04-04T12:22:07Z</time>
      </trkpt>
      <trkpt lat="46.18158" lon="2.47145">
        <ele>418</ele>
        <time>2016-04-04T12:22:10Z</time>
      </trkpt>
      <trkpt lat="46.18159" lon="2.47139">
        <ele>418</ele>
        <time>2016-04-04T12:22:14Z</time>
      </trkpt>
      <trkpt lat="46.18161" lon="2.47131">
        <ele>417</ele>
        <time>2016-04-04T12:22:17Z</time>
      </trkpt>
      <trkpt lat="46.18164" lon="2.47125">
        <ele>417</ele>
        <time>2016-04-04T12:22:21Z</time>
      </trkpt>
      <trkpt lat="46.18166" lon="2.4712">
        <ele>416</ele>
        <time>2016-04-04T12:22:24Z</time>
      </trkpt>
      <trkpt lat="46.18169" lon="2.47112">
        <ele>416</ele>
        <time>2016-04-04T12:22:27Z</time>
      </trkpt>
      <trkpt lat="46.18171" lon="2.47107">
        <ele>415</ele>
        <time>2016-04-04T12:22:31Z</time>
      </trkpt>
      <trkpt lat="46.18173" lon="2.47101">
        <ele>415</ele>
        <time>2016-04-04T12:22:34Z</time>
      </trkpt>
      <trkpt lat="46.18176" lon="2.47096">
        <ele>414</ele>
        <time>2016-04-04T12:22:37Z</time>
      </trkpt>
      <trkpt lat="46.18179" lon="2.47092">
        <ele>414</ele>
        <time>2016-04-04T12:22:40Z</time>
      </trkpt>
      <trkpt lat="46.18182" lon="2.47088">
        <ele>414</ele>
        <time>2016-04-04T12:22:44Z</time>
      </trkpt>
      <trkpt lat="46.18185" lon="2.47082">
        <ele>413</ele>
        <time>2016-04-04T12:22:48Z</time>
      </trkpt>
      <trkpt lat="46.1819" lon="2.47077">
        <ele>413</ele>
        <time>2016-04-04T12:22:51Z</time>
      </trkpt>
      <trkpt lat="46.18193" lon="2.47074">
        <ele>412</ele>
        <time>2016-04-04T12:22:55Z</time>
      </trkpt>
      <trkpt lat="46.18198" lon="2.47071">
        <ele>411</ele>
        <time>2016-04-04T12:22:59Z</time>
      </trkpt>
      <trkpt lat="46.18202" lon="2.47067">
        <ele>410</ele>
        <time>2016-04-04T12:23:03Z</time>
      </trkpt>
      <trkpt lat="46.18206" lon="2.47064">
        <ele>409</ele>
        <time>2016-04-04T12:23:06Z</time>
      </trkpt>
      <trkpt lat="46.18209" lon="2.47058">
        <ele>408</ele>
        <time>2016-04-04T12:23:10Z</time>
      </trkpt>
      <trkpt lat="46.18212" lon="2.47054">
        <ele>408</ele>
        <time>2016-04-04T12:23:13Z</time>
      </trkpt>
      <trkpt lat="46.18214" lon="2.47048">
        <ele>408</ele>
        <time>2016-04-04T12:23:16Z</time>
      </trkpt>
      <trkpt lat="46.18216" lon="2.47043">
        <ele>407</ele>
        <time>2016-04-04T12:23:19Z</time>
      </trkpt>
      <trkpt lat="46.18218" lon="2.47038">
        <ele>406</ele>
        <time>2016-04-04T12:23:22Z</time>
      </trkpt>
      <trkpt lat="46.1822" lon="2.47032">
        <ele>406</ele>
        <time>2016-04-04T12:23:25Z</time>
      </trkpt>
      <trkpt lat="46.18222" lon="2.47026">
        <ele>405</ele>
        <time>2016-04-04T12:23:28Z</time>
      </trkpt>
      <trkpt lat="46.18224" lon="2.47021">
        <ele>405</ele>
        <time>2016-04-04T12:23:31Z</time>
      </trkpt>
      <trkpt lat="46.18226" lon="2.47015">
        <ele>404</ele>
        <time>2016-04-04T12:23:34Z</time>
      </trkpt>
      <trkpt lat="46.18227" lon="2.47009">
        <ele>404</ele>
        <time>2016-04-04T12:23:37Z</time>
      </trkpt>
      <trkpt lat="46.18228" lon="2.47003">
        <ele>404</ele>
        <time>2016-04-04T12:23:40Z</time>
      </trkpt>
      <trkpt lat="46.18226" lon="2.46995">
        <ele>404</ele>
        <time>2016-04-04T12:23:44Z</time>
      </trkpt>
      <trkpt lat="46.18224" lon="2.46988">
        <ele>404</ele>
        <time>2016-04-04T12:23:47Z</time>
      </trkpt>
      <trkpt lat="46.18222" lon="2.46981">
        <ele>404</ele>
        <time>2016-04-04T12:23:51Z</time>
      </trkpt>
      <trkpt lat="46.18219" lon="2.46976">
        <ele>404</ele>
        <time>2016-04-04T12:23:54Z</time>
      </trkpt>
      <trkpt lat="46.18217" lon="2.4697">
        <ele>404</ele>
        <time>2016-04-04T12:23:57Z</time>
      </trkpt>
      <trkpt lat="46.18215" lon="2.46965">
        <ele>404</ele>
        <time>2016-04-04T12:24:00Z</time>
      </trkpt>
      <trkpt lat="46.18212" lon="2.4696">
        <ele>404</ele>
        <time>2016-04-04T12:24:03Z</time>
      </trkpt>
      <trkpt lat="46.1821" lon="2.46955">
        <ele>404</ele>
        <time>2016-04-04T12:24:06Z</time>
      </trkpt>
      <trkpt lat="46.18208" lon="2.4695">
        <ele>404</ele>
        <time>2016-04-04T12:24:09Z</time>
      </trkpt>
      <trkpt lat="46.18206" lon="2.46944">
        <ele>404</ele>
        <time>2016-04-04T12:24:12Z</time>
      </trkpt>
      <trkpt lat="46.18203" lon="2.46939">
        <ele>404</ele>
        <time>2016-04-04T12:24:15Z</time>
      </trkpt>
      <trkpt lat="46.18201" lon="2.46934">
        <ele>404</ele>
        <time>2016-04-04T12:24:18Z</time>
      </trkpt>
      <trkpt lat="46.182" lon="2.46928">
        <ele>404</ele>
        <time>2016-04-04T12:24:21Z</time>
      </trkpt>
      <trkpt lat="46.18197" lon="2.46923">
        <ele>404</ele>
        <time>2016-04-04T12:24:24Z</time>
      </trkpt>
      <trkpt lat="46.18192" lon="2.46919">
        <ele>404</ele>
        <time>2016-04-04T12:24:27Z</time>
      </trkpt>
      <trkpt lat="46.18187" lon="2.46919">
        <ele>404</ele>
        <time>2016-04-04T12:24:30Z</time>
      </trkpt>
      <trkpt lat="46.18183" lon="2.46921">
        <ele>403</ele>
        <time>2016-04-04T12:24:34Z</time>
      </trkpt>
      <trkpt lat="46.18177" lon="2.46924">
        <ele>402</ele>
        <time>2016-04-04T12:24:37Z</time>
      </trkpt>
      <trkpt lat="46.18172" lon="2.46926">
        <ele>401</ele>
        <time>2016-04-04T12:24:40Z</time>
      </trkpt>
      <trkpt lat="46.18168" lon="2.46928">
        <ele>400</ele>
        <time>2016-04-04T12:24:43Z</time>
      </trkpt>
      <trkpt lat="46.18164" lon="2.4693">
        <ele>400</ele>
        <time>2016-04-04T12:24:46Z</time>
      </trkpt>
      <trkpt lat="46.18159" lon="2.46932">
        <ele>399</ele>
        <time>2016-04-04T12:24:50Z</time>
      </trkpt>
      <trkpt lat="46.18153" lon="2.46935">
        <ele>399</ele>
        <time>2016-04-04T12:24:53Z</time>
      </trkpt>
      <trkpt lat="46.18148" lon="2.46936">
        <ele>399</ele>
        <time>2016-04-04T12:24:56Z</time>
      </trkpt>
      <trkpt lat="46.18143" lon="2.46936">
        <ele>399</ele>
        <time>2016-04-04T12:24:59Z</time>
      </trkpt>
      <trkpt lat="46.18139" lon="2.46937">
        <ele>399</ele>
        <time>2016-04-04T12:25:02Z</time>
      </trkpt>
      <trkpt lat="46.18134" lon="2.46939">
        <ele>398</ele>
        <time>2016-04-04T12:25:05Z</time>
      </trkpt>
      <trkpt lat="46.1813" lon="2.46941">
        <ele>398</ele>
        <time>2016-04-04T12:25:08Z</time>
      </trkpt>
      <trkpt lat="46.18126" lon="2.46943">
        <ele>398</ele>
        <time>2016-04-04T12:25:11Z</time>
      </trkpt>
      <trkpt lat="46.18122" lon="2.46945">
        <ele>398</ele>
        <time>2016-04-04T12:25:15Z</time>
      </trkpt>
      <trkpt lat="46.18116" lon="2.46948">
        <ele>397</ele>
        <time>2016-04-04T12:25:18Z</time>
      </trkpt>
      <trkpt lat="46.18113" lon="2.46951">
        <ele>397</ele>
        <time>2016-04-04T12:25:21Z</time>
      </trkpt>
      <trkpt lat="46.18109" lon="2.46953">
        <ele>397</ele>
        <time>2016-04-04T12:25:24Z</time>
      </trkpt>
      <trkpt lat="46.18105" lon="2.46955">
        <ele>396</ele>
        <time>2016-04-04T12:25:27Z</time>
      </trkpt>
      <trkpt lat="46.181" lon="2.46957">
        <ele>396</ele>
        <time>2016-04-04T12:25:31Z</time>
      </trkpt>
      <trkpt lat="46.18095" lon="2.46961">
        <ele>396</ele>
        <time>2016-04-04T12:25:34Z</time>
      </trkpt>
      <trkpt lat="46.18091" lon="2.46964">
        <ele>396</ele>
        <time>2016-04-04T12:25:37Z</time>
      </trkpt>
      <trkpt lat="46.18087" lon="2.46966">
        <ele>395</ele>
        <time>2016-04-04T12:25:41Z</time>
      </trkpt>
      <trkpt lat="46.18082" lon="2.4697">
        <ele>395</ele>
        <time>2016-04-04T12:25:44Z</time>
      </trkpt>
      <trkpt lat="46.18078" lon="2.46972">
        <ele>395</ele>
        <time>2016-04-04T12:25:47Z</time>
      </trkpt>
      <trkpt lat="46.18074" lon="2.46975">
        <ele>394</ele>
        <time>2016-04-04T12:25:51Z</time>
      </trkpt>
      <trkpt lat="46.18068" lon="2.46978">
        <ele>394</ele>
        <time>2016-04-04T12:25:54Z</time>
      </trkpt>
      <trkpt lat="46.18064" lon="2.4698">
        <ele>393</ele>
        <time>2016-04-04T12:25:57Z</time>
      </trkpt>
      <trkpt lat="46.18061" lon="2.46982">
        <ele>393</ele>
        <time>2016-04-04T12:26:01Z</time>
      </trkpt>
      <trkpt lat="46.18055" lon="2.46985">
        <ele>393</ele>
        <time>2016-04-04T12:26:04Z</time>
      </trkpt>
      <trkpt lat="46.18051" lon="2.46987">
        <ele>392</ele>
        <time>2016-04-04T12:26:07Z</time>
      </trkpt>
      <trkpt lat="46.18047" lon="2.46989">
        <ele>392</ele>
        <time>2016-04-04T12:26:11Z</time>
      </trkpt>
      <trkpt lat="46.18041" lon="2.46993">
        <ele>392</ele>
        <time>2016-04-04T12:26:14Z</time>
      </trkpt>
      <trkpt lat="46.18037" lon="2.46996">
        <ele>391</ele>
        <time>2016-04-04T12:26:17Z</time>
      </trkpt>
      <trkpt lat="46.18033" lon="2.46998">
        <ele>391</ele>
        <time>2016-04-04T12:26:21Z</time>
      </trkpt>
      <trkpt lat="46.18027" lon="2.47002">
        <ele>391</ele>
        <time>2016-04-04T12:26:24Z</time>
      </trkpt>
      <trkpt lat="46.18023" lon="2.47005">
        <ele>391</ele>
        <time>2016-04-04T12:26:27Z</time>
      </trkpt>
      <trkpt lat="46.18019" lon="2.47007">
        <ele>391</ele>
        <time>2016-04-04T12:26:30Z</time>
      </trkpt>
      <trkpt lat="46.18015" lon="2.47009">
        <ele>391</ele>
        <time>2016-04-04T12:26:33Z</time>
      </trkpt>
      <trkpt lat="46.18012" lon="2.47012">
        <ele>391</ele>
        <time>2016-04-04T12:26:36Z</time>
      </trkpt>
      <trkpt lat="46.18008" lon="2.47014">
        <ele>391</ele>
        <time>2016-04-04T12:26:39Z</time>
      </trkpt>
      <trkpt lat="46.18005" lon="2.47011">
        <ele>390</ele>
        <time>2016-04-04T12:26:43Z</time>
      </trkpt>
      <trkpt lat="46.18008" lon="2.47007">
        <ele>389</ele>
        <time>2016-04-04T12:26:47Z</time>
      </trkpt>
      <trkpt lat="46.18012" lon="2.47005">
        <ele>388</ele>
        <time>2016-04-04T12:26:50Z</time>
      </trkpt>
      <trkpt lat="46.18016" lon="2.47002">
        <ele>386</ele>
        <time>2016-04-04T12:26:53Z</time>
      </trkpt>
      <trkpt lat="46.1802" lon="2.46997">
        <ele>385</ele>
        <time>2016-04-04T12:26:57Z</time>
      </trkpt>
      <trkpt lat="46.18023" lon="2.46994">
        <ele>384</ele>
        <time>2016-04-04T12:27:00Z</time>
      </trkpt>
      <trkpt lat="46.18027" lon="2.4699">
        <ele>383</ele>
        <time>2016-04-04T12:27:03Z</time>
      </trkpt>
      <trkpt lat="46.1803" lon="2.46987">
        <ele>382</ele>
        <time>2016-04-04T12:27:06Z</time>
      </trkpt>
      <trkpt lat="46.18034" lon="2.46983">
        <ele>381</ele>
        <time>2016-04-04T12:27:10Z</time>
      </trkpt>
      <trkpt lat="46.18039" lon="2.46979">
        <ele>380</ele>
        <time>2016-04-04T12:27:13Z</time>
      </trkpt>
      <trkpt lat="46.18042" lon="2.46976">
        <ele>379</ele>
        <time>2016-04-04T12:27:16Z</time>
      </trkpt>
      <trkpt lat="46.18045" lon="2.46972">
        <ele>378</ele>
        <time>2016-04-04T12:27:19Z</time>
      </trkpt>
      <trkpt lat="46.18048" lon="2.46968">
        <ele>377</ele>
        <time>2016-04-04T12:27:22Z</time>
      </trkpt>
      <trkpt lat="46.18052" lon="2.46963">
        <ele>377</ele>
        <time>2016-04-04T12:27:25Z</time>
      </trkpt>
      <trkpt lat="46.18056" lon="2.46958">
        <ele>376</ele>
        <time>2016-04-04T12:27:28Z</time>
      </trkpt>
      <trkpt lat="46.1806" lon="2.46954">
        <ele>376</ele>
        <time>2016-04-04T12:27:31Z</time>
      </trkpt>
      <trkpt lat="46.18064" lon="2.4695">
        <ele>376</ele>
        <time>2016-04-04T12:27:34Z</time>
      </trkpt>
      <trkpt lat="46.18067" lon="2.46946">
        <ele>376</ele>
        <time>2016-04-04T12:27:37Z</time>
      </trkpt>
      <trkpt lat="46.18071" lon="2.46941">
        <ele>376</ele>
        <time>2016-04-04T12:27:40Z</time>
      </trkpt>
      <trkpt lat="46.18075" lon="2.46937">
        <ele>376</ele>
        <time>2016-04-04T12:27:43Z</time>
      </trkpt>
      <trkpt lat="46.18078" lon="2.46933">
        <ele>376</ele>
        <time>2016-04-04T12:27:46Z</time>
      </trkpt>
      <trkpt lat="46.18083" lon="2.46927">
        <ele>376</ele>
        <time>2016-04-04T12:27:50Z</time>
      </trkpt>
      <trkpt lat="46.18086" lon="2.46923">
        <ele>375</ele>
        <time>2016-04-04T12:27:53Z</time>
      </trkpt>
      <trkpt lat="46.18089" lon="2.46918">
        <ele>375</ele>
        <time>2016-04-04T12:27:56Z</time>
      </trkpt>
      <trkpt lat="46.18091" lon="2.46912">
        <ele>375</ele>
        <time>2016-04-04T12:27:59Z</time>
      </trkpt>
      <trkpt lat="46.18094" lon="2.46906">
        <ele>375</ele>
        <time>2016-04-04T12:28:02Z</time>
      </trkpt>
      <trkpt lat="46.18096" lon="2.46902">
        <ele>375</ele>
        <time>2016-04-04T12:28:06Z</time>
      </trkpt>
      <trkpt lat="46.181" lon="2.46896">
        <ele>374</ele>
        <time>2016-04-04T12:28:09Z</time>
      </trkpt>
      <trkpt lat="46.18103" lon="2.4689">
        <ele>373</ele>
        <time>2016-04-04T12:28:13Z</time>
      </trkpt>
      <trkpt lat="46.18107" lon="2.46886">
        <ele>372</ele>
        <time>2016-04-04T12:28:16Z</time>
      </trkpt>
      <trkpt lat="46.1811" lon="2.46882">
        <ele>372</ele>
        <time>2016-04-04T12:28:19Z</time>
      </trkpt>
      <trkpt lat="46.18114" lon="2.46878">
        <ele>371</ele>
        <time>2016-04-04T12:28:22Z</time>
      </trkpt>
      <trkpt lat="46.18118" lon="2.46874">
        <ele>370</ele>
        <time>2016-04-04T12:28:25Z</time>
      </trkpt>
      <trkpt lat="46.18121" lon="2.46871">
        <ele>370</ele>
        <time>2016-04-04T12:28:28Z</time>
      </trkpt>
      <trkpt lat="46.18125" lon="2.46865">
        <ele>369</ele>
        <time>2016-04-04T12:28:32Z</time>
      </trkpt>
      <trkpt lat="46.18128" lon="2.4686">
        <ele>369</ele>
        <time>2016-04-04T12:28:35Z</time>
      </trkpt>
      <trkpt lat="46.1813" lon="2.46855">
        <ele>368</ele>
        <time>2016-04-04T12:28:38Z</time>
      </trkpt>
      <trkpt lat="46.18133" lon="2.46849">
        <ele>367</ele>
        <time>2016-04-04T12:28:41Z</time>
      </trkpt>
      <trkpt lat="46.18135" lon="2.46844">
        <ele>367</ele>
        <time>2016-04-04T12:28:44Z</time>
      </trkpt>
      <trkpt lat="46.18138" lon="2.46838">
        <ele>366</ele>
        <time>2016-04-04T12:28:47Z</time>
      </trkpt>
      <trkpt lat="46.1814" lon="2.46833">
        <ele>365</ele>
        <time>2016-04-04T12:28:50Z</time>
      </trkpt>
      <trkpt lat="46.18142" lon="2.46828">
        <ele>365</ele>
        <time>2016-04-04T12:28:53Z</time>
      </trkpt>
      <trkpt lat="46.18145" lon="2.46822">
        <ele>365</ele>
        <time>2016-04-04T12:28:56Z</time>
      </trkpt>
      <trkpt lat="46.18146" lon="2.46815">
        <ele>365</ele>
        <time>2016-04-04T12:28:59Z</time>
      </trkpt>
      <trkpt lat="46.18149" lon="2.4681">
        <ele>365</ele>
        <time>2016-04-04T12:29:02Z</time>
      </trkpt>
      <trkpt lat="46.18151" lon="2.46805">
        <ele>364</ele>
        <time>2016-04-04T12:29:05Z</time>
      </trkpt>
      <trkpt lat="46.18154" lon="2.46799">
        <ele>363</ele>
        <time>2016-04-04T12:29:08Z</time>
      </trkpt>
      <trkpt lat="46.18157" lon="2.46795">
        <ele>363</ele>
        <time>2016-04-04T12:29:11Z</time>
      </trkpt>
      <trkpt lat="46.1816" lon="2.4679">
        <ele>363</ele>
        <time>2016-04-04T12:29:14Z</time>
      </trkpt>
      <trkpt lat="46.18163" lon="2.46785">
        <ele>363</ele>
        <time>2016-04-04T12:29:17Z</time>
      </trkpt>
      <trkpt lat="46.18166" lon="2.46779">
        <ele>363</ele>
        <time>2016-04-04T12:29:20Z</time>
      </trkpt>
      <trkpt lat="46.18168" lon="2.46773">
        <ele>363</ele>
        <time>2016-04-04T12:29:23Z</time>
      </trkpt>
      <trkpt lat="46.1817" lon="2.46768">
        <ele>363</ele>
        <time>2016-04-04T12:29:26Z</time>
      </trkpt>
      <trkpt lat="46.18173" lon="2.46763">
        <ele>362</ele>
        <time>2016-04-04T12:29:29Z</time>
      </trkpt>
      <trkpt lat="46.18175" lon="2.46759">
        <ele>361</ele>
        <time>2016-04-04T12:29:32Z</time>
      </trkpt>
      <trkpt lat="46.18177" lon="2.46753">
        <ele>361</ele>
        <time>2016-04-04T12:29:35Z</time>
      </trkpt>
      <trkpt lat="46.1818" lon="2.46748">
        <ele>361</ele>
        <time>2016-04-04T12:29:38Z</time>
      </trkpt>
      <trkpt lat="46.18183" lon="2.46743">
        <ele>360</ele>
        <time>2016-04-04T12:29:41Z</time>
      </trkpt>
      <trkpt lat="46.18186" lon="2.46738">
        <ele>360</ele>
        <time>2016-04-04T12:29:44Z</time>
      </trkpt>
      <trkpt lat="46.18189" lon="2.46732">
        <ele>359</ele>
        <time>2016-04-04T12:29:47Z</time>
      </trkpt>
      <trkpt lat="46.18193" lon="2.46727">
        <ele>359</ele>
        <time>2016-04-04T12:29:51Z</time>
      </trkpt>
      <trkpt lat="46.18195" lon="2.46723">
        <ele>359</ele>
        <time>2016-04-04T12:29:54Z</time>
      </trkpt>
      <trkpt lat="46.18199" lon="2.4672">
        <ele>358</ele>
        <time>2016-04-04T12:29:57Z</time>
      </trkpt>
      <trkpt lat="46.18203" lon="2.46717">
        <ele>357</ele>
        <time>2016-04-04T12:30:00Z</time>
      </trkpt>
      <trkpt lat="46.18207" lon="2.46714">
        <ele>356</ele>
        <time>2016-04-04T12:30:04Z</time>
      </trkpt>
      <trkpt lat="46.18211" lon="2.46711">
        <ele>355</ele>
        <time>2016-04-04T12:30:07Z</time>
      </trkpt>
      <trkpt lat="46.18215" lon="2.46709">
        <ele>354</ele>
        <time>2016-04-04T12:30:11Z</time>
      </trkpt>
      <trkpt lat="46.1822" lon="2.46708">
        <ele>353</ele>
        <time>2016-04-04T12:30:14Z</time>
      </trkpt>
      <trkpt lat="46.18224" lon="2.46707">
        <ele>352</ele>
        <time>2016-04-04T12:30:17Z</time>
      </trkpt>
      <trkpt lat="46.18228" lon="2.46708">
        <ele>351</ele>
        <time>2016-04-04T12:30:20Z</time>
      </trkpt>
      <trkpt lat="46.18232" lon="2.46708">
        <ele>350</ele>
        <time>2016-04-04T12:30:23Z</time>
      </trkpt>
      <trkpt lat="46.18238" lon="2.46708">
        <ele>349</ele>
        <time>2016-04-04T12:30:26Z</time>
      </trkpt>
      <trkpt lat="46.18242" lon="2.46708">
        <ele>348</ele>
        <time>2016-04-04T12:30:29Z</time>
      </trkpt>
      <trkpt lat="46.18247" lon="2.46707">
        <ele>347</ele>
        <time>2016-04-04T12:30:32Z</time>
      </trkpt>
      <trkpt lat="46.18252" lon="2.46706">
        <ele>345</ele>
        <time>2016-04-04T12:30:35Z</time>
      </trkpt>
      <trkpt lat="46.18256" lon="2.46706">
        <ele>345</ele>
        <time>2016-04-04T12:30:38Z</time>
      </trkpt>
      <trkpt lat="46.1826" lon="2.46704">
        <ele>344</ele>
        <time>2016-04-04T12:30:41Z</time>
      </trkpt>
      <trkpt lat="46.18265" lon="2.46703">
        <ele>344</ele>
        <time>2016-04-04T12:30:44Z</time>
      </trkpt>
      <trkpt lat="46.18269" lon="2.46704">
        <ele>343</ele>
        <time>2016-04-04T12:30:47Z</time>
      </trkpt>
      <trkpt lat="46.18273" lon="2.46704">
        <ele>342</ele>
        <time>2016-04-04T12:30:50Z</time>
      </trkpt>
      <trkpt lat="46.18276" lon="2.46705">
        <ele>342</ele>
        <time>2016-04-04T12:30:53Z</time>
      </trkpt>
      <trkpt lat="46.1828" lon="2.46706">
        <ele>341</ele>
        <time>2016-04-04T12:30:56Z</time>
      </trkpt>
      <trkpt lat="46.18285" lon="2.46706">
        <ele>340</ele>
        <time>2016-04-04T12:30:59Z</time>
      </trkpt>
      <trkpt lat="46.18289" lon="2.46706">
        <ele>340</ele>
        <time>2016-04-04T12:31:02Z</time>
      </trkpt>
      <trkpt lat="46.18293" lon="2.46706">
        <ele>340</ele>
        <time>2016-04-04T12:31:05Z</time>
      </trkpt>
      <trkpt lat="46.18298" lon="2.46706">
        <ele>340</ele>
        <time>2016-04-04T12:31:08Z</time>
      </trkpt>
      <trkpt lat="46.18304" lon="2.46707">
        <ele>339</ele>
        <time>2016-04-04T12:31:11Z</time>
      </trkpt>
      <trkpt lat="46.18309" lon="2.46707">
        <ele>338</ele>
        <time>2016-04-04T12:31:14Z</time>
      </trkpt>
      <trkpt lat="46.18314" lon="2.46706">
        <ele>337</ele>
        <time>2016-04-04T12:31:17Z</time>
      </trkpt>
      <trkpt lat="46.18318" lon="2.46706">
        <ele>336</ele>
        <time>2016-04-04T12:31:20Z</time>
      </trkpt>
      <trkpt lat="46.18322" lon="2.46705">
        <ele>335</ele>
        <time>2016-04-04T12:31:23Z</time>
      </trkpt>
      <trkpt lat="46.18327" lon="2.46704">
        <ele>334</ele>
        <time>2016-04-04T12:31:26Z</time>
      </trkpt>
      <trkpt lat="46.18331" lon="2.46702">
        <ele>334</ele>
        <time>2016-04-04T12:31:29Z</time>
      </trkpt>
      <trkpt lat="46.18336" lon="2.467">
        <ele>333</ele>
        <time>2016-04-04T12:31:32Z</time>
      </trkpt>
      <trkpt lat="46.1834" lon="2.46697">
        <ele>333</ele>
        <time>2016-04-04T12:31:35Z</time>
      </trkpt>
      <trkpt lat="46.18344" lon="2.46696">
        <ele>333</ele>
        <time>2016-04-04T12:31:38Z</time>
      </trkpt>
      <trkpt lat="46.18349" lon="2.46697">
        <ele>333</ele>
        <time>2016-04-04T12:31:41Z</time>
      </trkpt>
      <trkpt lat="46.18353" lon="2.46698">
        <ele>333</ele>
        <time>2016-04-04T12:31:44Z</time>
      </trkpt>
      <trkpt lat="46.18358" lon="2.467">
        <ele>332</ele>
        <time>2016-04-04T12:31:47Z</time>
      </trkpt>
      <trkpt lat="46.18363" lon="2.46701">
        <ele>332</ele>
        <time>2016-04-04T12:31:50Z</time>
      </trkpt>
      <trkpt lat="46.18368" lon="2.46701">
        <ele>332</ele>
        <time>2016-04-04T12:31:54Z</time>
      </trkpt>
      <trkpt lat="46.18373" lon="2.467">
        <ele>332</ele>
        <time>2016-04-04T12:31:57Z</time>
      </trkpt>
      <trkpt lat="46.18377" lon="2.46696">
        <ele>332</ele>
        <time>2016-04-04T12:32:00Z</time>
      </trkpt>
      <trkpt lat="46.18382" lon="2.46691">
        <ele>332</ele>
        <time>2016-04-04T12:32:04Z</time>
      </trkpt>
      <trkpt lat="46.18385" lon="2.46686">
        <ele>332</ele>
        <time>2016-04-04T12:32:08Z</time>
      </trkpt>
      <trkpt lat="46.18386" lon="2.46684">
        <ele>332</ele>
        <time>2016-04-04T12:32:11Z</time>
      </trkpt>
      <trkpt lat="46.18387" lon="2.46679">
        <ele>332</ele>
        <time>2016-04-04T12:32:14Z</time>
      </trkpt>
      <trkpt lat="46.18388" lon="2.46673">
        <ele>332</ele>
        <time>2016-04-04T12:32:17Z</time>
      </trkpt>
      <trkpt lat="46.18391" lon="2.46667">
        <ele>332</ele>
        <time>2016-04-04T12:32:20Z</time>
      </trkpt>
      <trkpt lat="46.18392" lon="2.46662">
        <ele>332</ele>
        <time>2016-04-04T12:32:23Z</time>
      </trkpt>
      <trkpt lat="46.18394" lon="2.46657">
        <ele>332</ele>
        <time>2016-04-04T12:32:26Z</time>
      </trkpt>
      <trkpt lat="46.18397" lon="2.46652">
        <ele>332</ele>
        <time>2016-04-04T12:32:29Z</time>
      </trkpt>
      <trkpt lat="46.184" lon="2.46647">
        <ele>332</ele>
        <time>2016-04-04T12:32:32Z</time>
      </trkpt>
      <trkpt lat="46.18404" lon="2.46642">
        <ele>332</ele>
        <time>2016-04-04T12:32:35Z</time>
      </trkpt>
      <trkpt lat="46.18407" lon="2.46636">
        <ele>331</ele>
        <time>2016-04-04T12:32:39Z</time>
      </trkpt>
      <trkpt lat="46.18412" lon="2.4663">
        <ele>330</ele>
        <time>2016-04-04T12:32:43Z</time>
      </trkpt>
      <trkpt lat="46.18415" lon="2.46626">
        <ele>330</ele>
        <time>2016-04-04T12:32:46Z</time>
      </trkpt>
      <trkpt lat="46.18418" lon="2.46621">
        <ele>329</ele>
        <time>2016-04-04T12:32:49Z</time>
      </trkpt>
      <trkpt lat="46.18421" lon="2.46618">
        <ele>328</ele>
        <time>2016-04-04T12:32:52Z</time>
      </trkpt>
      <trkpt lat="46.18423" lon="2.46612">
        <ele>328</ele>
        <time>2016-04-04T12:32:55Z</time>
      </trkpt>
      <trkpt lat="46.18427" lon="2.46607">
        <ele>328</ele>
        <time>2016-04-04T12:32:58Z</time>
      </trkpt>
      <trkpt lat="46.18429" lon="2.46602">
        <ele>328</ele>
        <time>2016-04-04T12:33:01Z</time>
      </trkpt>
      <trkpt lat="46.18431" lon="2.46596">
        <ele>328</ele>
        <time>2016-04-04T12:33:04Z</time>
      </trkpt>
      <trkpt lat="46.18434" lon="2.46591">
        <ele>328</ele>
        <time>2016-04-04T12:33:07Z</time>
      </trkpt>
      <trkpt lat="46.18437" lon="2.46585">
        <ele>328</ele>
        <time>2016-04-04T12:33:10Z</time>
      </trkpt>
      <trkpt lat="46.18439" lon="2.4658">
        <ele>328</ele>
        <time>2016-04-04T12:33:13Z</time>
      </trkpt>
      <trkpt lat="46.18441" lon="2.46574">
        <ele>328</ele>
        <time>2016-04-04T12:33:16Z</time>
      </trkpt>
      <trkpt lat="46.18444" lon="2.46568">
        <ele>328</ele>
        <time>2016-04-04T12:33:19Z</time>
      </trkpt>
      <trkpt lat="46.18446" lon="2.46563">
        <ele>328</ele>
        <time>2016-04-04T12:33:22Z</time>
      </trkpt>
      <trkpt lat="46.18448" lon="2.46557">
        <ele>328</ele>
        <time>2016-04-04T12:33:25Z</time>
      </trkpt>
      <trkpt lat="46.1845" lon="2.46552">
        <ele>328</ele>
        <time>2016-04-04T12:33:28Z</time>
      </trkpt>
      <trkpt lat="46.18452" lon="2.46547">
        <ele>328</ele>
        <time>2016-04-04T12:33:31Z</time>
      </trkpt>
      <trkpt lat="46.18454" lon="2.46541">
        <ele>328</ele>
        <time>2016-04-04T12:33:34Z</time>
      </trkpt>
      <trkpt lat="46.18456" lon="2.46535">
        <ele>328</ele>
        <time>2016-04-04T12:33:37Z</time>
      </trkpt>
      <trkpt lat="46.18458" lon="2.4653">
        <ele>328</ele>
        <time>2016-04-04T12:33:40Z</time>
      </trkpt>
      <trkpt lat="46.1846" lon="2.46523">
        <ele>328</ele>
        <time>2016-04-04T12:33:43Z</time>
      </trkpt>
      <trkpt lat="46.18461" lon="2.46517">
        <ele>328</ele>
        <time>2016-04-04T12:33:46Z</time>
      </trkpt>
      <trkpt lat="46.18462" lon="2.4651">
        <ele>328</ele>
        <time>2016-04-04T12:33:49Z</time>
      </trkpt>
      <trkpt lat="46.18463" lon="2.46504">
        <ele>328</ele>
        <time>2016-04-04T12:33:52Z</time>
      </trkpt>
      <trkpt lat="46.18464" lon="2.46498">
        <ele>328</ele>
        <time>2016-04-04T12:33:55Z</time>
      </trkpt>
      <trkpt lat="46.18464" lon="2.46492">
        <ele>328</ele>
        <time>2016-04-04T12:33:58Z</time>
      </trkpt>
      <trkpt lat="46.18464" lon="2.46486">
        <ele>327</ele>
        <time>2016-04-04T12:34:01Z</time>
      </trkpt>
      <trkpt lat="46.18466" lon="2.46479">
        <ele>327</ele>
        <time>2016-04-04T12:34:04Z</time>
      </trkpt>
      <trkpt lat="46.18466" lon="2.46472">
        <ele>327</ele>
        <time>2016-04-04T12:34:07Z</time>
      </trkpt>
      <trkpt lat="46.18466" lon="2.46466">
        <ele>327</ele>
        <time>2016-04-04T12:34:10Z</time>
      </trkpt>
      <trkpt lat="46.18466" lon="2.4646">
        <ele>327</ele>
        <time>2016-04-04T12:34:13Z</time>
      </trkpt>
      <trkpt lat="46.18465" lon="2.46455">
        <ele>327</ele>
        <time>2016-04-04T12:34:16Z</time>
      </trkpt>
      <trkpt lat="46.18462" lon="2.4645">
        <ele>327</ele>
        <time>2016-04-04T12:34:19Z</time>
      </trkpt>
      <trkpt lat="46.18458" lon="2.46448">
        <ele>327</ele>
        <time>2016-04-04T12:34:22Z</time>
      </trkpt>
      <trkpt lat="46.18454" lon="2.46447">
        <ele>327</ele>
        <time>2016-04-04T12:34:25Z</time>
      </trkpt>
      <trkpt lat="46.18449" lon="2.46446">
        <ele>327</ele>
        <time>2016-04-04T12:34:28Z</time>
      </trkpt>
      <trkpt lat="46.18444" lon="2.46445">
        <ele>327</ele>
        <time>2016-04-04T12:34:31Z</time>
      </trkpt>
      <trkpt lat="46.18439" lon="2.46444">
        <ele>327</ele>
        <time>2016-04-04T12:34:34Z</time>
      </trkpt>
      <trkpt lat="46.18434" lon="2.46445">
        <ele>327</ele>
        <time>2016-04-04T12:34:37Z</time>
      </trkpt>
      <trkpt lat="46.1843" lon="2.46445">
        <ele>327</ele>
        <time>2016-04-04T12:34:40Z</time>
      </trkpt>
      <trkpt lat="46.18424" lon="2.46445">
        <ele>327</ele>
        <time>2016-04-04T12:34:43Z</time>
      </trkpt>
      <trkpt lat="46.1842" lon="2.46446">
        <ele>327</ele>
        <time>2016-04-04T12:34:46Z</time>
      </trkpt>
      <trkpt lat="46.18415" lon="2.46446">
        <ele>327</ele>
        <time>2016-04-04T12:34:49Z</time>
      </trkpt>
      <trkpt lat="46.18412" lon="2.46446">
        <ele>327</ele>
        <time>2016-04-04T12:34:52Z</time>
      </trkpt>
      <trkpt lat="46.18407" lon="2.46445">
        <ele>327</ele>
        <time>2016-04-04T12:34:56Z</time>
      </trkpt>
      <trkpt lat="46.18404" lon="2.46442">
        <ele>327</ele>
        <time>2016-04-04T12:34:59Z</time>
      </trkpt>
      <trkpt lat="46.18399" lon="2.46439">
        <ele>327</ele>
        <time>2016-04-04T12:35:03Z</time>
      </trkpt>
      <trkpt lat="46.18396" lon="2.46439">
        <ele>327</ele>
        <time>2016-04-04T12:35:06Z</time>
      </trkpt>
      <trkpt lat="46.18393" lon="2.46437">
        <ele>327</ele>
        <time>2016-04-04T12:35:09Z</time>
      </trkpt>
      <trkpt lat="46.18391" lon="2.46433">
        <ele>327</ele>
        <time>2016-04-04T12:35:12Z</time>
      </trkpt>
      <trkpt lat="46.1839" lon="2.46427">
        <ele>327</ele>
        <time>2016-04-04T12:35:15Z</time>
      </trkpt>
      <trkpt lat="46.18389" lon="2.46423">
        <ele>327</ele>
        <time>2016-04-04T12:35:18Z</time>
      </trkpt>
      <trkpt lat="46.18389" lon="2.46417">
        <ele>327</ele>
        <time>2016-04-04T12:35:21Z</time>
      </trkpt>
      <trkpt lat="46.1839" lon="2.46412">
        <ele>327</ele>
        <time>2016-04-04T12:35:24Z</time>
      </trkpt>
      <trkpt lat="46.18391" lon="2.46406">
        <ele>327</ele>
        <time>2016-04-04T12:35:27Z</time>
      </trkpt>
      <trkpt lat="46.18391" lon="2.464">
        <ele>327</ele>
        <time>2016-04-04T12:35:30Z</time>
      </trkpt>
      <trkpt lat="46.1839" lon="2.46395">
        <ele>327</ele>
        <time>2016-04-04T12:35:33Z</time>
      </trkpt>
      <trkpt lat="46.18387" lon="2.46391">
        <ele>327</ele>
        <time>2016-04-04T12:35:37Z</time>
      </trkpt>
      <trkpt lat="46.18386" lon="2.46386">
        <ele>327</ele>
        <time>2016-04-04T12:35:40Z</time>
      </trkpt>
      <trkpt lat="46.18385" lon="2.4638">
        <ele>328</ele>
        <time>2016-04-04T12:35:43Z</time>
      </trkpt>
      <trkpt lat="46.18385" lon="2.46374">
        <ele>329</ele>
        <time>2016-04-04T12:35:46Z</time>
      </trkpt>
      <trkpt lat="46.18383" lon="2.46366">
        <ele>330</ele>
        <time>2016-04-04T12:35:50Z</time>
      </trkpt>
      <trkpt lat="46.18382" lon="2.46361">
        <ele>331</ele>
        <time>2016-04-04T12:35:53Z</time>
      </trkpt>
      <trkpt lat="46.1838" lon="2.46355">
        <ele>333</ele>
        <time>2016-04-04T12:35:56Z</time>
      </trkpt>
      <trkpt lat="46.18379" lon="2.4635">
        <ele>334</ele>
        <time>2016-04-04T12:35:59Z</time>
      </trkpt>
      <trkpt lat="46.18378" lon="2.46345">
        <ele>335</ele>
        <time>2016-04-04T12:36:02Z</time>
      </trkpt>
      <trkpt lat="46.18376" lon="2.4634">
        <ele>335</ele>
        <time>2016-04-04T12:36:05Z</time>
      </trkpt>
      <trkpt lat="46.18375" lon="2.46335">
        <ele>335</ele>
        <time>2016-04-04T12:36:08Z</time>
      </trkpt>
      <trkpt lat="46.18374" lon="2.46332">
        <ele>335</ele>
        <time>2016-04-04T12:36:11Z</time>
      </trkpt>
      <trkpt lat="46.18373" lon="2.46327">
        <ele>335</ele>
        <time>2016-04-04T12:36:14Z</time>
      </trkpt>
      <trkpt lat="46.18372" lon="2.46322">
        <ele>335</ele>
        <time>2016-04-04T12:36:17Z</time>
      </trkpt>
      <trkpt lat="46.18371" lon="2.46316">
        <ele>335</ele>
        <time>2016-04-04T12:36:21Z</time>
      </trkpt>
      <trkpt lat="46.18371" lon="2.46311">
        <ele>335</ele>
        <time>2016-04-04T12:36:24Z</time>
      </trkpt>
      <trkpt lat="46.1837" lon="2.46307">
        <ele>335</ele>
        <time>2016-04-04T12:36:27Z</time>
      </trkpt>
      <trkpt lat="46.18368" lon="2.46304">
        <ele>336</ele>
        <time>2016-04-04T12:36:31Z</time>
      </trkpt>
      <trkpt lat="46.18368" lon="2.46309">
        <ele>337</ele>
        <time>2016-04-04T12:36:35Z</time>
      </trkpt>
      <trkpt lat="46.18368" lon="2.46312">
        <ele>337</ele>
        <time>2016-04-04T12:36:38Z</time>
      </trkpt>
      <trkpt lat="46.18369" lon="2.46317">
        <ele>337</ele>
        <time>2016-04-04T12:36:42Z</time>
      </trkpt>
      <trkpt lat="46.18369" lon="2.46322">
        <ele>337</ele>
        <time>2016-04-04T12:36:45Z</time>
      </trkpt>
      <trkpt lat="46.1837" lon="2.46327">
        <ele>335</ele>
        <time>2016-04-04T12:36:49Z</time>
      </trkpt>
      <trkpt lat="46.18371" lon="2.46334">
        <ele>332</ele>
        <time>2016-04-04T12:36:53Z</time>
      </trkpt>
      <trkpt lat="46.1837" lon="2.46339">
        <ele>329</ele>
        <time>2016-04-04T12:36:56Z</time>
      </trkpt>
      <trkpt lat="46.18371" lon="2.46343">
        <ele>327</ele>
        <time>2016-04-04T12:36:59Z</time>
      </trkpt>
      <trkpt lat="46.18372" lon="2.46348">
        <ele>325</ele>
        <time>2016-04-04T12:37:02Z</time>
      </trkpt>
      <trkpt lat="46.18371" lon="2.46353">
        <ele>323</ele>
        <time>2016-04-04T12:37:05Z</time>
      </trkpt>
      <trkpt lat="46.1837" lon="2.46357">
        <ele>321</ele>
        <time>2016-04-04T12:37:08Z</time>
      </trkpt>
      <trkpt lat="46.18369" lon="2.46361">
        <ele>320</ele>
        <time>2016-04-04T12:37:11Z</time>
      </trkpt>
      <trkpt lat="46.18369" lon="2.46365">
        <ele>319</ele>
        <time>2016-04-04T12:37:14Z</time>
      </trkpt>
      <trkpt lat="46.18367" lon="2.4637">
        <ele>318</ele>
        <time>2016-04-04T12:37:17Z</time>
      </trkpt>
      <trkpt lat="46.18365" lon="2.46377">
        <ele>317</ele>
        <time>2016-04-04T12:37:20Z</time>
      </trkpt>
      <trkpt lat="46.18363" lon="2.46384">
        <ele>317</ele>
        <time>2016-04-04T12:37:23Z</time>
      </trkpt>
      <trkpt lat="46.18362" lon="2.46389">
        <ele>317</ele>
        <time>2016-04-04T12:37:26Z</time>
      </trkpt>
      <trkpt lat="46.1836" lon="2.46393">
        <ele>317</ele>
        <time>2016-04-04T12:37:29Z</time>
      </trkpt>
      <trkpt lat="46.18356" lon="2.46395">
        <ele>318</ele>
        <time>2016-04-04T12:37:32Z</time>
      </trkpt>
      <trkpt lat="46.18356" lon="2.46393">
        <ele>323</ele>
        <time>2016-04-04T12:37:37Z</time>
      </trkpt>
      <trkpt lat="46.18357" lon="2.46389">
        <ele>328</ele>
        <time>2016-04-04T12:37:41Z</time>
      </trkpt>
      <trkpt lat="46.18359" lon="2.46385">
        <ele>332</ele>
        <time>2016-04-04T12:37:45Z</time>
      </trkpt>
      <trkpt lat="46.18359" lon="2.46381">
        <ele>335</ele>
        <time>2016-04-04T12:37:48Z</time>
      </trkpt>
      <trkpt lat="46.18357" lon="2.46376">
        <ele>338</ele>
        <time>2016-04-04T12:37:51Z</time>
      </trkpt>
      <trkpt lat="46.18357" lon="2.46371">
        <ele>341</ele>
        <time>2016-04-04T12:37:54Z</time>
      </trkpt>
      <trkpt lat="46.18359" lon="2.46366">
        <ele>343</ele>
        <time>2016-04-04T12:37:57Z</time>
      </trkpt>
      <trkpt lat="46.18358" lon="2.46361">
        <ele>345</ele>
        <time>2016-04-04T12:38:00Z</time>
      </trkpt>
      <trkpt lat="46.18358" lon="2.46355">
        <ele>346</ele>
        <time>2016-04-04T12:38:03Z</time>
      </trkpt>
      <trkpt lat="46.18357" lon="2.4635">
        <ele>346</ele>
        <time>2016-04-04T12:38:06Z</time>
      </trkpt>
      <trkpt lat="46.18355" lon="2.46344">
        <ele>347</ele>
        <time>2016-04-04T12:38:09Z</time>
      </trkpt>
      <trkpt lat="46.18354" lon="2.4634">
        <ele>347</ele>
        <time>2016-04-04T12:38:12Z</time>
      </trkpt>
      <trkpt lat="46.18353" lon="2.46335">
        <ele>347</ele>
        <time>2016-04-04T12:38:15Z</time>
      </trkpt>
      <trkpt lat="46.18351" lon="2.4633">
        <ele>347</ele>
        <time>2016-04-04T12:38:18Z</time>
      </trkpt>
      <trkpt lat="46.1835" lon="2.46324">
        <ele>347</ele>
        <time>2016-04-04T12:38:22Z</time>
      </trkpt>
      <trkpt lat="46.18351" lon="2.46317">
        <ele>347</ele>
        <time>2016-04-04T12:38:26Z</time>
      </trkpt>
      <trkpt lat="46.1835" lon="2.46309">
        <ele>347</ele>
        <time>2016-04-04T12:38:29Z</time>
      </trkpt>
      <trkpt lat="46.18349" lon="2.46304">
        <ele>347</ele>
        <time>2016-04-04T12:38:32Z</time>
      </trkpt>
      <trkpt lat="46.18347" lon="2.46298">
        <ele>348</ele>
        <time>2016-04-04T12:38:35Z</time>
      </trkpt>
      <trkpt lat="46.18346" lon="2.46293">
        <ele>349</ele>
        <time>2016-04-04T12:38:38Z</time>
      </trkpt>
      <trkpt lat="46.18344" lon="2.46289">
        <ele>350</ele>
        <time>2016-04-04T12:38:41Z</time>
      </trkpt>
      <trkpt lat="46.18342" lon="2.46284">
        <ele>351</ele>
        <time>2016-04-04T12:38:44Z</time>
      </trkpt>
      <trkpt lat="46.18338" lon="2.4628">
        <ele>352</ele>
        <time>2016-04-04T12:38:47Z</time>
      </trkpt>
      <trkpt lat="46.18335" lon="2.46275">
        <ele>354</ele>
        <time>2016-04-04T12:38:50Z</time>
      </trkpt>
      <trkpt lat="46.18332" lon="2.46273">
        <ele>356</ele>
        <time>2016-04-04T12:38:53Z</time>
      </trkpt>
      <trkpt lat="46.18328" lon="2.4627">
        <ele>358</ele>
        <time>2016-04-04T12:38:56Z</time>
      </trkpt>
      <trkpt lat="46.18324" lon="2.46269">
        <ele>360</ele>
        <time>2016-04-04T12:38:59Z</time>
      </trkpt>
      <trkpt lat="46.1832" lon="2.46269">
        <ele>361</ele>
        <time>2016-04-04T12:39:03Z</time>
      </trkpt>
      <trkpt lat="46.18316" lon="2.46268">
        <ele>361</ele>
        <time>2016-04-04T12:39:07Z</time>
      </trkpt>
      <trkpt lat="46.18312" lon="2.46267">
        <ele>362</ele>
        <time>2016-04-04T12:39:11Z</time>
      </trkpt>
      <trkpt lat="46.18307" lon="2.46267">
        <ele>363</ele>
        <time>2016-04-04T12:39:15Z</time>
      </trkpt>
      <trkpt lat="46.18304" lon="2.46265">
        <ele>363</ele>
        <time>2016-04-04T12:39:18Z</time>
      </trkpt>
      <trkpt lat="46.183" lon="2.46263">
        <ele>365</ele>
        <time>2016-04-04T12:39:22Z</time>
      </trkpt>
      <trkpt lat="46.18297" lon="2.46263">
        <ele>365</ele>
        <time>2016-04-04T12:39:25Z</time>
      </trkpt>
      <trkpt lat="46.18293" lon="2.46263">
        <ele>365</ele>
        <time>2016-04-04T12:39:28Z</time>
      </trkpt>
      <trkpt lat="46.1829" lon="2.46262">
        <ele>366</ele>
        <time>2016-04-04T12:39:31Z</time>
      </trkpt>
      <trkpt lat="46.18285" lon="2.46262">
        <ele>367</ele>
        <time>2016-04-04T12:39:34Z</time>
      </trkpt>
      <trkpt lat="46.18282" lon="2.46263">
        <ele>368</ele>
        <time>2016-04-04T12:39:38Z</time>
      </trkpt>
      <trkpt lat="46.18279" lon="2.46264">
        <ele>368</ele>
        <time>2016-04-04T12:39:41Z</time>
      </trkpt>
      <trkpt lat="46.18275" lon="2.46263">
        <ele>368</ele>
        <time>2016-04-04T12:39:44Z</time>
      </trkpt>
      <trkpt lat="46.1827" lon="2.46262">
        <ele>369</ele>
        <time>2016-04-04T12:39:48Z</time>
      </trkpt>
      <trkpt lat="46.18267" lon="2.4626">
        <ele>370</ele>
        <time>2016-04-04T12:39:51Z</time>
      </trkpt>
      <trkpt lat="46.18262" lon="2.46259">
        <ele>371</ele>
        <time>2016-04-04T12:39:54Z</time>
      </trkpt>
      <trkpt lat="46.18257" lon="2.46257">
        <ele>372</ele>
        <time>2016-04-04T12:39:57Z</time>
      </trkpt>
      <trkpt lat="46.18253" lon="2.46256">
        <ele>373</ele>
        <time>2016-04-04T12:40:00Z</time>
      </trkpt>
      <trkpt lat="46.1825" lon="2.46255">
        <ele>374</ele>
        <time>2016-04-04T12:40:03Z</time>
      </trkpt>
      <trkpt lat="46.18247" lon="2.46249">
        <ele>376</ele>
        <time>2016-04-04T12:40:06Z</time>
      </trkpt>
      <trkpt lat="46.18244" lon="2.46247">
        <ele>376</ele>
        <time>2016-04-04T12:40:10Z</time>
      </trkpt>
      <trkpt lat="46.18244" lon="2.46242">
        <ele>376</ele>
        <time>2016-04-04T12:40:14Z</time>
      </trkpt>
      <trkpt lat="46.18244" lon="2.46237">
        <ele>376</ele>
        <time>2016-04-04T12:40:18Z</time>
      </trkpt>
      <trkpt lat="46.18245" lon="2.46233">
        <ele>376</ele>
        <time>2016-04-04T12:40:21Z</time>
      </trkpt>
      <trkpt lat="46.18247" lon="2.46227">
        <ele>376</ele>
        <time>2016-04-04T12:40:25Z</time>
      </trkpt>
      <trkpt lat="46.18248" lon="2.46223">
        <ele>376</ele>
        <time>2016-04-04T12:40:28Z</time>
      </trkpt>
      <trkpt lat="46.18247" lon="2.46218">
        <ele>376</ele>
        <time>2016-04-04T12:40:32Z</time>
      </trkpt>
      <trkpt lat="46.18243" lon="2.46216">
        <ele>376</ele>
        <time>2016-04-04T12:40:35Z</time>
      </trkpt>
      <trkpt lat="46.1824" lon="2.46217">
        <ele>376</ele>
        <time>2016-04-04T12:40:38Z</time>
      </trkpt>
      <trkpt lat="46.18237" lon="2.46221">
        <ele>376</ele>
        <time>2016-04-04T12:40:42Z</time>
      </trkpt>
      <trkpt lat="46.18235" lon="2.46224">
        <ele>376</ele>
        <time>2016-04-04T12:40:46Z</time>
      </trkpt>
      <trkpt lat="46.18232" lon="2.4623">
        <ele>376</ele>
        <time>2016-04-04T12:40:50Z</time>
      </trkpt>
      <trkpt lat="46.1823" lon="2.46234">
        <ele>376</ele>
        <time>2016-04-04T12:40:54Z</time>
      </trkpt>
      <trkpt lat="46.1823" lon="2.46239">
        <ele>376</ele>
        <time>2016-04-04T12:40:57Z</time>
      </trkpt>
      <trkpt lat="46.18228" lon="2.46247">
        <ele>376</ele>
        <time>2016-04-04T12:41:00Z</time>
      </trkpt>
      <trkpt lat="46.18227" lon="2.46251">
        <ele>376</ele>
        <time>2016-04-04T12:41:03Z</time>
      </trkpt>
      <trkpt lat="46.18227" lon="2.46255">
        <ele>375</ele>
        <time>2016-04-04T12:41:06Z</time>
      </trkpt>
      <trkpt lat="46.18228" lon="2.4626">
        <ele>371</ele>
        <time>2016-04-04T12:41:10Z</time>
      </trkpt>
      <trkpt lat="46.18229" lon="2.46265">
        <ele>369</ele>
        <time>2016-04-04T12:41:13Z</time>
      </trkpt>
      <trkpt lat="46.18229" lon="2.46269">
        <ele>366</ele>
        <time>2016-04-04T12:41:17Z</time>
      </trkpt>
      <trkpt lat="46.18228" lon="2.46273">
        <ele>365</ele>
        <time>2016-04-04T12:41:20Z</time>
      </trkpt>
      <trkpt lat="46.18228" lon="2.46279">
        <ele>364</ele>
        <time>2016-04-04T12:41:23Z</time>
      </trkpt>
      <trkpt lat="46.18228" lon="2.46285">
        <ele>364</ele>
        <time>2016-04-04T12:41:27Z</time>
      </trkpt>
      <trkpt lat="46.18229" lon="2.46289">
        <ele>363</ele>
        <time>2016-04-04T12:41:30Z</time>
      </trkpt>
      <trkpt lat="46.1823" lon="2.46294">
        <ele>362</ele>
        <time>2016-04-04T12:41:33Z</time>
      </trkpt>
      <trkpt lat="46.1823" lon="2.463">
        <ele>361</ele>
        <time>2016-04-04T12:41:36Z</time>
      </trkpt>
      <trkpt lat="46.1823" lon="2.46304">
        <ele>359</ele>
        <time>2016-04-04T12:41:39Z</time>
      </trkpt>
      <trkpt lat="46.1823" lon="2.46309">
        <ele>359</ele>
        <time>2016-04-04T12:41:42Z</time>
      </trkpt>
      <trkpt lat="46.1823" lon="2.46313">
        <ele>358</ele>
        <time>2016-04-04T12:41:45Z</time>
      </trkpt>
      <trkpt lat="46.18229" lon="2.46318">
        <ele>357</ele>
        <time>2016-04-04T12:41:48Z</time>
      </trkpt>
      <trkpt lat="46.18227" lon="2.46324">
        <ele>357</ele>
        <time>2016-04-04T12:41:52Z</time>
      </trkpt>
      <trkpt lat="46.18224" lon="2.46328">
        <ele>357</ele>
        <time>2016-04-04T12:41:56Z</time>
      </trkpt>
      <trkpt lat="46.18222" lon="2.46334">
        <ele>357</ele>
        <time>2016-04-04T12:42:00Z</time>
      </trkpt>
      <trkpt lat="46.1822" lon="2.46338">
        <ele>357</ele>
        <time>2016-04-04T12:42:03Z</time>
      </trkpt>
      <trkpt lat="46.18217" lon="2.46342">
        <ele>357</ele>
        <time>2016-04-04T12:42:06Z</time>
      </trkpt>
      <trkpt lat="46.18214" lon="2.46346">
        <ele>357</ele>
        <time>2016-04-04T12:42:10Z</time>
      </trkpt>
      <trkpt lat="46.1821" lon="2.46349">
        <ele>358</ele>
        <time>2016-04-04T12:42:14Z</time>
      </trkpt>
      <trkpt lat="46.18206" lon="2.46351">
        <ele>358</ele>
        <time>2016-04-04T12:42:17Z</time>
      </trkpt>
      <trkpt lat="46.18201" lon="2.46354">
        <ele>361</ele>
        <time>2016-04-04T12:42:20Z</time>
      </trkpt>
      <trkpt lat="46.18196" lon="2.46353">
        <ele>364</ele>
        <time>2016-04-04T12:42:23Z</time>
      </trkpt>
      <trkpt lat="46.18193" lon="2.46349">
        <ele>368</ele>
        <time>2016-04-04T12:42:27Z</time>
      </trkpt>
      <trkpt lat="46.18192" lon="2.46344">
        <ele>370</ele>
        <time>2016-04-04T12:42:31Z</time>
      </trkpt>
      <trkpt lat="46.18192" lon="2.4634">
        <ele>371</ele>
        <time>2016-04-04T12:42:35Z</time>
      </trkpt>
      <trkpt lat="46.18191" lon="2.46336">
        <ele>373</ele>
        <time>2016-04-04T12:42:39Z</time>
      </trkpt>
      <trkpt lat="46.18191" lon="2.46332">
        <ele>375</ele>
        <time>2016-04-04T12:42:42Z</time>
      </trkpt>
      <trkpt lat="46.18191" lon="2.46327">
        <ele>376</ele>
        <time>2016-04-04T12:42:45Z</time>
      </trkpt>
      <trkpt lat="46.18191" lon="2.46323">
        <ele>378</ele>
        <time>2016-04-04T12:42:48Z</time>
      </trkpt>
      <trkpt lat="46.18191" lon="2.46317">
        <ele>379</ele>
        <time>2016-04-04T12:42:51Z</time>
      </trkpt>
      <trkpt lat="46.18189" lon="2.46312">
        <ele>380</ele>
        <time>2016-04-04T12:42:55Z</time>
      </trkpt>
      <trkpt lat="46.18188" lon="2.46305">
        <ele>381</ele>
        <time>2016-04-04T12:42:59Z</time>
      </trkpt>
      <trkpt lat="46.18188" lon="2.46301">
        <ele>381</ele>
        <time>2016-04-04T12:43:02Z</time>
      </trkpt>
      <trkpt lat="46.18187" lon="2.46297">
        <ele>382</ele>
        <time>2016-04-04T12:43:05Z</time>
      </trkpt>
      <trkpt lat="46.18185" lon="2.4629">
        <ele>383</ele>
        <time>2016-04-04T12:43:09Z</time>
      </trkpt>
      <trkpt lat="46.18183" lon="2.46285">
        <ele>383</ele>
        <time>2016-04-04T12:43:12Z</time>
      </trkpt>
      <trkpt lat="46.18181" lon="2.46281">
        <ele>384</ele>
        <time>2016-04-04T12:43:15Z</time>
      </trkpt>
      <trkpt lat="46.18179" lon="2.46275">
        <ele>386</ele>
        <time>2016-04-04T12:43:19Z</time>
      </trkpt>
      <trkpt lat="46.18176" lon="2.4627">
        <ele>388</ele>
        <time>2016-04-04T12:43:22Z</time>
      </trkpt>
      <trkpt lat="46.18174" lon="2.46265">
        <ele>391</ele>
        <time>2016-04-04T12:43:25Z</time>
      </trkpt>
      <trkpt lat="46.18171" lon="2.46262">
        <ele>393</ele>
        <time>2016-04-04T12:43:28Z</time>
      </trkpt>
      <trkpt lat="46.18169" lon="2.46257">
        <ele>395</ele>
        <time>2016-04-04T12:43:32Z</time>
      </trkpt>
      <trkpt lat="46.18166" lon="2.46255">
        <ele>397</ele>
        <time>2016-04-04T12:43:36Z</time>
      </trkpt>
      <trkpt lat="46.18163" lon="2.46252">
        <ele>398</ele>
        <time>2016-04-04T12:43:40Z</time>
      </trkpt>
      <trkpt lat="46.18161" lon="2.46247">
        <ele>399</ele>
        <time>2016-04-04T12:43:43Z</time>
      </trkpt>
      <trkpt lat="46.1816" lon="2.46243">
        <ele>400</ele>
        <time>2016-04-04T12:43:47Z</time>
      </trkpt>
      <trkpt lat="46.1816" lon="2.4624">
        <ele>400</ele>
        <time>2016-04-04T12:43:50Z</time>
      </trkpt>
      <trkpt lat="46.18159" lon="2.46236">
        <ele>400</ele>
        <time>2016-04-04T12:43:53Z</time>
      </trkpt>
      <trkpt lat="46.18158" lon="2.46231">
        <ele>400</ele>
        <time>2016-04-04T12:43:56Z</time>
      </trkpt>
      <trkpt lat="46.18158" lon="2.46227">
        <ele>400</ele>
        <time>2016-04-04T12:43:59Z</time>
      </trkpt>
      <trkpt lat="46.18156" lon="2.46222">
        <ele>400</ele>
        <time>2016-04-04T12:44:02Z</time>
      </trkpt>
      <trkpt lat="46.18155" lon="2.46217">
        <ele>400</ele>
        <time>2016-04-04T12:44:05Z</time>
      </trkpt>
      <trkpt lat="46.18153" lon="2.46213">
        <ele>400</ele>
        <time>2016-04-04T12:44:08Z</time>
      </trkpt>
      <trkpt lat="46.18151" lon="2.46208">
        <ele>400</ele>
        <time>2016-04-04T12:44:11Z</time>
      </trkpt>
      <trkpt lat="46.18151" lon="2.46203">
        <ele>400</ele>
        <time>2016-04-04T12:44:14Z</time>
      </trkpt>
      <trkpt lat="46.1815" lon="2.46197">
        <ele>400</ele>
        <time>2016-04-04T12:44:18Z</time>
      </trkpt>
      <trkpt lat="46.1815" lon="2.46192">
        <ele>400</ele>
        <time>2016-04-04T12:44:22Z</time>
      </trkpt>
      <trkpt lat="46.18152" lon="2.46186">
        <ele>400</ele>
        <time>2016-04-04T12:44:25Z</time>
      </trkpt>
      <trkpt lat="46.18154" lon="2.46182">
        <ele>400</ele>
        <time>2016-04-04T12:44:28Z</time>
      </trkpt>
      <trkpt lat="46.18154" lon="2.46178">
        <ele>401</ele>
        <time>2016-04-04T12:44:31Z</time>
      </trkpt>
      <trkpt lat="46.18156" lon="2.46171">
        <ele>402</ele>
        <time>2016-04-04T12:44:35Z</time>
      </trkpt>
      <trkpt lat="46.18156" lon="2.46165">
        <ele>403</ele>
        <time>2016-04-04T12:44:38Z</time>
      </trkpt>
      <trkpt lat="46.18154" lon="2.4616">
        <ele>403</ele>
        <time>2016-04-04T12:44:41Z</time>
      </trkpt>
      <trkpt lat="46.18154" lon="2.46156">
        <ele>403</ele>
        <time>2016-04-04T12:44:44Z</time>
      </trkpt>
      <trkpt lat="46.18153" lon="2.46151">
        <ele>404</ele>
        <time>2016-04-04T12:44:47Z</time>
      </trkpt>
      <trkpt lat="46.18151" lon="2.46145">
        <ele>406</ele>
        <time>2016-04-04T12:44:51Z</time>
      </trkpt>
      <trkpt lat="46.18149" lon="2.46141">
        <ele>406</ele>
        <time>2016-04-04T12:44:54Z</time>
      </trkpt>
      <trkpt lat="46.18146" lon="2.46136">
        <ele>407</ele>
        <time>2016-04-04T12:44:58Z</time>
      </trkpt>
      <trkpt lat="46.18143" lon="2.46132">
        <ele>407</ele>
        <time>2016-04-04T12:45:02Z</time>
      </trkpt>
      <trkpt lat="46.1814" lon="2.46127">
        <ele>407</ele>
        <time>2016-04-04T12:45:06Z</time>
      </trkpt>
      <trkpt lat="46.18137" lon="2.46122">
        <ele>408</ele>
        <time>2016-04-04T12:45:10Z</time>
      </trkpt>
      <trkpt lat="46.18134" lon="2.46118">
        <ele>408</ele>
        <time>2016-04-04T12:45:14Z</time>
      </trkpt>
      <trkpt lat="46.18131" lon="2.46113">
        <ele>409</ele>
        <time>2016-04-04T12:45:18Z</time>
      </trkpt>
      <trkpt lat="46.18127" lon="2.46109">
        <ele>409</ele>
        <time>2016-04-04T12:45:22Z</time>
      </trkpt>
      <trkpt lat="46.18125" lon="2.46104">
        <ele>409</ele>
        <time>2016-04-04T12:45:25Z</time>
      </trkpt>
      <trkpt lat="46.18122" lon="2.461">
        <ele>409</ele>
        <time>2016-04-04T12:45:28Z</time>
      </trkpt>
      <trkpt lat="46.18119" lon="2.46096">
        <ele>409</ele>
        <time>2016-04-04T12:45:31Z</time>
      </trkpt>
      <trkpt lat="46.18116" lon="2.46091">
        <ele>410</ele>
        <time>2016-04-04T12:45:35Z</time>
      </trkpt>
      <trkpt lat="46.18113" lon="2.46086">
        <ele>410</ele>
        <time>2016-04-04T12:45:38Z</time>
      </trkpt>
      <trkpt lat="46.18111" lon="2.46081">
        <ele>411</ele>
        <time>2016-04-04T12:45:41Z</time>
      </trkpt>
      <trkpt lat="46.18107" lon="2.46076">
        <ele>412</ele>
        <time>2016-04-04T12:45:45Z</time>
      </trkpt>
      <trkpt lat="46.18104" lon="2.46071">
        <ele>413</ele>
        <time>2016-04-04T12:45:49Z</time>
      </trkpt>
      <trkpt lat="46.18101" lon="2.46066">
        <ele>413</ele>
        <time>2016-04-04T12:45:52Z</time>
      </trkpt>
      <trkpt lat="46.18098" lon="2.46061">
        <ele>414</ele>
        <time>2016-04-04T12:45:55Z</time>
      </trkpt>
      <trkpt lat="46.18095" lon="2.46057">
        <ele>415</ele>
        <time>2016-04-04T12:45:59Z</time>
      </trkpt>
      <trkpt lat="46.18092" lon="2.46052">
        <ele>415</ele>
        <time>2016-04-04T12:46:02Z</time>
      </trkpt>
      <trkpt lat="46.18089" lon="2.46047">
        <ele>415</ele>
        <time>2016-04-04T12:46:06Z</time>
      </trkpt>
      <trkpt lat="46.18086" lon="2.46043">
        <ele>415</ele>
        <time>2016-04-04T12:46:09Z</time>
      </trkpt>
      <trkpt lat="46.18083" lon="2.46037">
        <ele>415</ele>
        <time>2016-04-04T12:46:13Z</time>
      </trkpt>
      <trkpt lat="46.18081" lon="2.46033">
        <ele>415</ele>
        <time>2016-04-04T12:46:16Z</time>
      </trkpt>
      <trkpt lat="46.18079" lon="2.46026">
        <ele>415</ele>
        <time>2016-04-04T12:46:19Z</time>
      </trkpt>
      <trkpt lat="46.18077" lon="2.46021">
        <ele>415</ele>
        <time>2016-04-04T12:46:23Z</time>
      </trkpt>
      <trkpt lat="46.18075" lon="2.46015">
        <ele>416</ele>
        <time>2016-04-04T12:46:26Z</time>
      </trkpt>
      <trkpt lat="46.18074" lon="2.4601">
        <ele>417</ele>
        <time>2016-04-04T12:46:29Z</time>
      </trkpt>
      <trkpt lat="46.18074" lon="2.46005">
        <ele>418</ele>
        <time>2016-04-04T12:46:32Z</time>
      </trkpt>
      <trkpt lat="46.18075" lon="2.46">
        <ele>419</ele>
        <time>2016-04-04T12:46:35Z</time>
      </trkpt>
      <trkpt lat="46.18076" lon="2.45994">
        <ele>419</ele>
        <time>2016-04-04T12:46:38Z</time>
      </trkpt>
      <trkpt lat="46.18077" lon="2.45989">
        <ele>419</ele>
        <time>2016-04-04T12:46:41Z</time>
      </trkpt>
      <trkpt lat="46.18079" lon="2.45983">
        <ele>419</ele>
        <time>2016-04-04T12:46:44Z</time>
      </trkpt>
      <trkpt lat="46.1808" lon="2.45977">
        <ele>419</ele>
        <time>2016-04-04T12:46:48Z</time>
      </trkpt>
      <trkpt lat="46.18081" lon="2.45972">
        <ele>419</ele>
        <time>2016-04-04T12:46:51Z</time>
      </trkpt>
      <trkpt lat="46.18083" lon="2.45967">
        <ele>419</ele>
        <time>2016-04-04T12:46:54Z</time>
      </trkpt>
      <trkpt lat="46.18084" lon="2.45963">
        <ele>419</ele>
        <time>2016-04-04T12:46:57Z</time>
      </trkpt>
      <trkpt lat="46.18086" lon="2.45958">
        <ele>419</ele>
        <time>2016-04-04T12:47:00Z</time>
      </trkpt>
      <trkpt lat="46.18087" lon="2.45953">
        <ele>419</ele>
        <time>2016-04-04T12:47:03Z</time>
      </trkpt>
      <trkpt lat="46.18087" lon="2.45947">
        <ele>419</ele>
        <time>2016-04-04T12:47:06Z</time>
      </trkpt>
      <trkpt lat="46.18086" lon="2.45942">
        <ele>419</ele>
        <time>2016-04-04T12:47:09Z</time>
      </trkpt>
      <trkpt lat="46.18084" lon="2.45938">
        <ele>419</ele>
        <time>2016-04-04T12:47:12Z</time>
      </trkpt>
      <trkpt lat="46.1808" lon="2.45936">
        <ele>419</ele>
        <time>2016-04-04T12:47:15Z</time>
      </trkpt>
      <trkpt lat="46.18076" lon="2.45933">
        <ele>419</ele>
        <time>2016-04-04T12:47:19Z</time>
      </trkpt>
      <trkpt lat="46.18072" lon="2.45931">
        <ele>420</ele>
        <time>2016-04-04T12:47:22Z</time>
      </trkpt>
      <trkpt lat="46.18068" lon="2.45928">
        <ele>422</ele>
        <time>2016-04-04T12:47:26Z</time>
      </trkpt>
      <trkpt lat="46.18065" lon="2.45926">
        <ele>423</ele>
        <time>2016-04-04T12:47:29Z</time>
      </trkpt>
      <trkpt lat="46.18061" lon="2.45924">
        <ele>424</ele>
        <time>2016-04-04T12:47:32Z</time>
      </trkpt>
      <trkpt lat="46.18057" lon="2.45922">
        <ele>425</ele>
        <time>2016-04-04T12:47:36Z</time>
      </trkpt>
      <trkpt lat="46.18053" lon="2.4592">
        <ele>425</ele>
        <time>2016-04-04T12:47:39Z</time>
      </trkpt>
      <trkpt lat="46.1805" lon="2.45919">
        <ele>425</ele>
        <time>2016-04-04T12:47:42Z</time>
      </trkpt>
      <trkpt lat="46.18045" lon="2.45917">
        <ele>426</ele>
        <time>2016-04-04T12:47:46Z</time>
      </trkpt>
      <trkpt lat="46.18042" lon="2.45915">
        <ele>426</ele>
        <time>2016-04-04T12:47:49Z</time>
      </trkpt>
      <trkpt lat="46.18039" lon="2.45914">
        <ele>426</ele>
        <time>2016-04-04T12:47:52Z</time>
      </trkpt>
      <trkpt lat="46.18035" lon="2.45913">
        <ele>426</ele>
        <time>2016-04-04T12:47:55Z</time>
      </trkpt>
      <trkpt lat="46.18031" lon="2.45913">
        <ele>427</ele>
        <time>2016-04-04T12:47:58Z</time>
      </trkpt>
      <trkpt lat="46.18028" lon="2.45912">
        <ele>427</ele>
        <time>2016-04-04T12:48:01Z</time>
      </trkpt>
      <trkpt lat="46.18023" lon="2.4591">
        <ele>427</ele>
        <time>2016-04-04T12:48:05Z</time>
      </trkpt>
      <trkpt lat="46.18019" lon="2.45908">
        <ele>428</ele>
        <time>2016-04-04T12:48:08Z</time>
      </trkpt>
      <trkpt lat="46.18015" lon="2.45908">
        <ele>428</ele>
        <time>2016-04-04T12:48:12Z</time>
      </trkpt>
      <trkpt lat="46.18011" lon="2.45908">
        <ele>429</ele>
        <time>2016-04-04T12:48:15Z</time>
      </trkpt>
      <trkpt lat="46.18005" lon="2.45908">
        <ele>430</ele>
        <time>2016-04-04T12:48:19Z</time>
      </trkpt>
      <trkpt lat="46.18001" lon="2.45908">
        <ele>430</ele>
        <time>2016-04-04T12:48:22Z</time>
      </trkpt>
      <trkpt lat="46.17997" lon="2.4591">
        <ele>431</ele>
        <time>2016-04-04T12:48:25Z</time>
      </trkpt>
      <trkpt lat="46.17993" lon="2.45909">
        <ele>431</ele>
        <time>2016-04-04T12:48:28Z</time>
      </trkpt>
      <trkpt lat="46.17989" lon="2.45909">
        <ele>431</ele>
        <time>2016-04-04T12:48:31Z</time>
      </trkpt>
      <trkpt lat="46.17985" lon="2.45908">
        <ele>432</ele>
        <time>2016-04-04T12:48:34Z</time>
      </trkpt>
      <trkpt lat="46.17982" lon="2.45907">
        <ele>432</ele>
        <time>2016-04-04T12:48:38Z</time>
      </trkpt>
      <trkpt lat="46.17975" lon="2.45906">
        <ele>432</ele>
        <time>2016-04-04T12:48:42Z</time>
      </trkpt>
      <trkpt lat="46.17971" lon="2.45905">
        <ele>432</ele>
        <time>2016-04-04T12:48:45Z</time>
      </trkpt>
      <trkpt lat="46.17968" lon="2.45904">
        <ele>433</ele>
        <time>2016-04-04T12:48:48Z</time>
      </trkpt>
      <trkpt lat="46.17963" lon="2.45903">
        <ele>433</ele>
        <time>2016-04-04T12:48:51Z</time>
      </trkpt>
      <trkpt lat="46.17959" lon="2.45902">
        <ele>433</ele>
        <time>2016-04-04T12:48:54Z</time>
      </trkpt>
      <trkpt lat="46.17955" lon="2.45902">
        <ele>434</ele>
        <time>2016-04-04T12:48:57Z</time>
      </trkpt>
      <trkpt lat="46.17951" lon="2.45901">
        <ele>434</ele>
        <time>2016-04-04T12:49:00Z</time>
      </trkpt>
      <trkpt lat="46.17948" lon="2.459">
        <ele>434</ele>
        <time>2016-04-04T12:49:03Z</time>
      </trkpt>
      <trkpt lat="46.17944" lon="2.45899">
        <ele>434</ele>
        <time>2016-04-04T12:49:06Z</time>
      </trkpt>
      <trkpt lat="46.1794" lon="2.45898">
        <ele>434</ele>
        <time>2016-04-04T12:49:09Z</time>
      </trkpt>
      <trkpt lat="46.17936" lon="2.45897">
        <ele>435</ele>
        <time>2016-04-04T12:49:12Z</time>
      </trkpt>
      <trkpt lat="46.17933" lon="2.45895">
        <ele>435</ele>
        <time>2016-04-04T12:49:15Z</time>
      </trkpt>
      <trkpt lat="46.17929" lon="2.45893">
        <ele>436</ele>
        <time>2016-04-04T12:49:18Z</time>
      </trkpt>
      <trkpt lat="46.17926" lon="2.4589">
        <ele>437</ele>
        <time>2016-04-04T12:49:21Z</time>
      </trkpt>
      <trkpt lat="46.17922" lon="2.45887">
        <ele>438</ele>
        <time>2016-04-04T12:49:24Z</time>
      </trkpt>
      <trkpt lat="46.17918" lon="2.45883">
        <ele>439</ele>
        <time>2016-04-04T12:49:28Z</time>
      </trkpt>
      <trkpt lat="46.17913" lon="2.4588">
        <ele>439</ele>
        <time>2016-04-04T12:49:31Z</time>
      </trkpt>
      <trkpt lat="46.1791" lon="2.45877">
        <ele>440</ele>
        <time>2016-04-04T12:49:34Z</time>
      </trkpt>
      <trkpt lat="46.17907" lon="2.45873">
        <ele>441</ele>
        <time>2016-04-04T12:49:37Z</time>
      </trkpt>
      <trkpt lat="46.17903" lon="2.45871">
        <ele>441</ele>
        <time>2016-04-04T12:49:40Z</time>
      </trkpt>
      <trkpt lat="46.17899" lon="2.45868">
        <ele>441</ele>
        <time>2016-04-04T12:49:43Z</time>
      </trkpt>
      <trkpt lat="46.17896" lon="2.45866">
        <ele>441</ele>
        <time>2016-04-04T12:49:46Z</time>
      </trkpt>
      <trkpt lat="46.17892" lon="2.45862">
        <ele>441</ele>
        <time>2016-04-04T12:49:49Z</time>
      </trkpt>
      <trkpt lat="46.17889" lon="2.45858">
        <ele>441</ele>
        <time>2016-04-04T12:49:52Z</time>
      </trkpt>
      <trkpt lat="46.17886" lon="2.45855">
        <ele>441</ele>
        <time>2016-04-04T12:49:55Z</time>
      </trkpt>
      <trkpt lat="46.17883" lon="2.45851">
        <ele>441</ele>
        <time>2016-04-04T12:49:58Z</time>
      </trkpt>
      <trkpt lat="46.17879" lon="2.45846">
        <ele>441</ele>
        <time>2016-04-04T12:50:01Z</time>
      </trkpt>
      <trkpt lat="46.17877" lon="2.4584">
        <ele>441</ele>
        <time>2016-04-04T12:50:05Z</time>
      </trkpt>
      <trkpt lat="46.17875" lon="2.45835">
        <ele>441</ele>
        <time>2016-04-04T12:50:08Z</time>
      </trkpt>
      <trkpt lat="46.17871" lon="2.45829">
        <ele>441</ele>
        <time>2016-04-04T12:50:11Z</time>
      </trkpt>
      <trkpt lat="46.17869" lon="2.45823">
        <ele>441</ele>
        <time>2016-04-04T12:50:14Z</time>
      </trkpt>
      <trkpt lat="46.17866" lon="2.45817">
        <ele>441</ele>
        <time>2016-04-04T12:50:17Z</time>
      </trkpt>
      <trkpt lat="46.17864" lon="2.45812">
        <ele>441</ele>
        <time>2016-04-04T12:50:20Z</time>
      </trkpt>
      <trkpt lat="46.17862" lon="2.45806">
        <ele>441</ele>
        <time>2016-04-04T12:50:23Z</time>
      </trkpt>
      <trkpt lat="46.17859" lon="2.458">
        <ele>441</ele>
        <time>2016-04-04T12:50:26Z</time>
      </trkpt>
      <trkpt lat="46.17857" lon="2.45795">
        <ele>441</ele>
        <time>2016-04-04T12:50:29Z</time>
      </trkpt>
      <trkpt lat="46.17855" lon="2.4579">
        <ele>442</ele>
        <time>2016-04-04T12:50:32Z</time>
      </trkpt>
      <trkpt lat="46.17852" lon="2.45785">
        <ele>442</ele>
        <time>2016-04-04T12:50:35Z</time>
      </trkpt>
      <trkpt lat="46.1785" lon="2.4578">
        <ele>442</ele>
        <time>2016-04-04T12:50:38Z</time>
      </trkpt>
      <trkpt lat="46.17847" lon="2.45776">
        <ele>442</ele>
        <time>2016-04-04T12:50:41Z</time>
      </trkpt>
      <trkpt lat="46.17843" lon="2.4577">
        <ele>443</ele>
        <time>2016-04-04T12:50:45Z</time>
      </trkpt>
      <trkpt lat="46.1784" lon="2.45766">
        <ele>443</ele>
        <time>2016-04-04T12:50:48Z</time>
      </trkpt>
      <trkpt lat="46.17836" lon="2.4576">
        <ele>443</ele>
        <time>2016-04-04T12:50:52Z</time>
      </trkpt>
      <trkpt lat="46.17832" lon="2.45755">
        <ele>443</ele>
        <time>2016-04-04T12:50:55Z</time>
      </trkpt>
      <trkpt lat="46.17828" lon="2.4575">
        <ele>443</ele>
        <time>2016-04-04T12:50:59Z</time>
      </trkpt>
      <trkpt lat="46.17824" lon="2.45745">
        <ele>443</ele>
        <time>2016-04-04T12:51:03Z</time>
      </trkpt>
      <trkpt lat="46.1782" lon="2.45741">
        <ele>443</ele>
        <time>2016-04-04T12:51:06Z</time>
      </trkpt>
      <trkpt lat="46.17817" lon="2.45736">
        <ele>443</ele>
        <time>2016-04-04T12:51:10Z</time>
      </trkpt>
      <trkpt lat="46.17813" lon="2.45733">
        <ele>443</ele>
        <time>2016-04-04T12:51:13Z</time>
      </trkpt>
      <trkpt lat="46.1781" lon="2.4573">
        <ele>443</ele>
        <time>2016-04-04T12:51:16Z</time>
      </trkpt>
      <trkpt lat="46.17806" lon="2.45726">
        <ele>443</ele>
        <time>2016-04-04T12:51:19Z</time>
      </trkpt>
      <trkpt lat="46.17802" lon="2.45724">
        <ele>443</ele>
        <time>2016-04-04T12:51:22Z</time>
      </trkpt>
      <trkpt lat="46.17799" lon="2.4572">
        <ele>443</ele>
        <time>2016-04-04T12:51:25Z</time>
      </trkpt>
      <trkpt lat="46.17795" lon="2.45717">
        <ele>443</ele>
        <time>2016-04-04T12:51:28Z</time>
      </trkpt>
      <trkpt lat="46.17791" lon="2.45714">
        <ele>443</ele>
        <time>2016-04-04T12:51:31Z</time>
      </trkpt>
      <trkpt lat="46.17787" lon="2.4571">
        <ele>443</ele>
        <time>2016-04-04T12:51:34Z</time>
      </trkpt>
      <trkpt lat="46.17783" lon="2.45707">
        <ele>443</ele>
        <time>2016-04-04T12:51:37Z</time>
      </trkpt>
      <trkpt lat="46.17779" lon="2.45705">
        <ele>443</ele>
        <time>2016-04-04T12:51:40Z</time>
      </trkpt>
      <trkpt lat="46.17775" lon="2.45703">
        <ele>443</ele>
        <time>2016-04-04T12:51:43Z</time>
      </trkpt>
      <trkpt lat="46.17771" lon="2.45701">
        <ele>443</ele>
        <time>2016-04-04T12:51:46Z</time>
      </trkpt>
      <trkpt lat="46.17766" lon="2.45698">
        <ele>443</ele>
        <time>2016-04-04T12:51:49Z</time>
      </trkpt>
      <trkpt lat="46.17762" lon="2.45696">
        <ele>443</ele>
        <time>2016-04-04T12:51:52Z</time>
      </trkpt>
      <trkpt lat="46.17758" lon="2.45696">
        <ele>443</ele>
        <time>2016-04-04T12:51:55Z</time>
      </trkpt>
      <trkpt lat="46.17754" lon="2.45695">
        <ele>443</ele>
        <time>2016-04-04T12:51:58Z</time>
      </trkpt>
      <trkpt lat="46.1775" lon="2.45696">
        <ele>443</ele>
        <time>2016-04-04T12:52:01Z</time>
      </trkpt>
      <trkpt lat="46.17746" lon="2.45699">
        <ele>443</ele>
        <time>2016-04-04T12:52:04Z</time>
      </trkpt>
      <trkpt lat="46.17742" lon="2.45703">
        <ele>443</ele>
        <time>2016-04-04T12:52:07Z</time>
      </trkpt>
      <trkpt lat="46.17739" lon="2.45707">
        <ele>443</ele>
        <time>2016-04-04T12:52:10Z</time>
      </trkpt>
      <trkpt lat="46.17736" lon="2.45711">
        <ele>443</ele>
        <time>2016-04-04T12:52:13Z</time>
      </trkpt>
      <trkpt lat="46.17732" lon="2.45715">
        <ele>443</ele>
        <time>2016-04-04T12:52:16Z</time>
      </trkpt>
      <trkpt lat="46.17728" lon="2.45719">
        <ele>443</ele>
        <time>2016-04-04T12:52:19Z</time>
      </trkpt>
      <trkpt lat="46.17724" lon="2.45722">
        <ele>443</ele>
        <time>2016-04-04T12:52:22Z</time>
      </trkpt>
      <trkpt lat="46.1772" lon="2.45725">
        <ele>443</ele>
        <time>2016-04-04T12:52:25Z</time>
      </trkpt>
      <trkpt lat="46.17716" lon="2.45727">
        <ele>443</ele>
        <time>2016-04-04T12:52:28Z</time>
      </trkpt>
      <trkpt lat="46.17712" lon="2.45729">
        <ele>443</ele>
        <time>2016-04-04T12:52:31Z</time>
      </trkpt>
      <trkpt lat="46.17708" lon="2.4573">
        <ele>443</ele>
        <time>2016-04-04T12:52:34Z</time>
      </trkpt>
      <trkpt lat="46.17704" lon="2.45731">
        <ele>442</ele>
        <time>2016-04-04T12:52:37Z</time>
      </trkpt>
      <trkpt lat="46.17699" lon="2.45731">
        <ele>442</ele>
        <time>2016-04-04T12:52:40Z</time>
      </trkpt>
      <trkpt lat="46.17695" lon="2.4573">
        <ele>442</ele>
        <time>2016-04-04T12:52:43Z</time>
      </trkpt>
      <trkpt lat="46.17691" lon="2.4573">
        <ele>442</ele>
        <time>2016-04-04T12:52:46Z</time>
      </trkpt>
      <trkpt lat="46.17687" lon="2.4573">
        <ele>441</ele>
        <time>2016-04-04T12:52:49Z</time>
      </trkpt>
      <trkpt lat="46.17682" lon="2.4573">
        <ele>441</ele>
        <time>2016-04-04T12:52:52Z</time>
      </trkpt>
      <trkpt lat="46.17678" lon="2.4573">
        <ele>440</ele>
        <time>2016-04-04T12:52:55Z</time>
      </trkpt>
      <trkpt lat="46.17674" lon="2.45729">
        <ele>440</ele>
        <time>2016-04-04T12:52:58Z</time>
      </trkpt>
      <trkpt lat="46.17669" lon="2.45727">
        <ele>440</ele>
        <time>2016-04-04T12:53:01Z</time>
      </trkpt>
      <trkpt lat="46.17664" lon="2.45727">
        <ele>440</ele>
        <time>2016-04-04T12:53:04Z</time>
      </trkpt>
      <trkpt lat="46.17659" lon="2.45727">
        <ele>440</ele>
        <time>2016-04-04T12:53:07Z</time>
      </trkpt>
      <trkpt lat="46.17654" lon="2.45728">
        <ele>440</ele>
        <time>2016-04-04T12:53:10Z</time>
      </trkpt>
      <trkpt lat="46.1765" lon="2.4573">
        <ele>440</ele>
        <time>2016-04-04T12:53:13Z</time>
      </trkpt>
      <trkpt lat="46.17647" lon="2.45734">
        <ele>440</ele>
        <time>2016-04-04T12:53:16Z</time>
      </trkpt>
      <trkpt lat="46.17644" lon="2.45737">
        <ele>439</ele>
        <time>2016-04-04T12:53:19Z</time>
      </trkpt>
      <trkpt lat="46.17641" lon="2.45742">
        <ele>438</ele>
        <time>2016-04-04T12:53:23Z</time>
      </trkpt>
      <trkpt lat="46.17637" lon="2.45747">
        <ele>438</ele>
        <time>2016-04-04T12:53:27Z</time>
      </trkpt>
      <trkpt lat="46.17633" lon="2.45751">
        <ele>437</ele>
        <time>2016-04-04T12:53:30Z</time>
      </trkpt>
      <trkpt lat="46.17631" lon="2.45755">
        <ele>437</ele>
        <time>2016-04-04T12:53:33Z</time>
      </trkpt>
      <trkpt lat="46.1763" lon="2.45761">
        <ele>436</ele>
        <time>2016-04-04T12:53:36Z</time>
      </trkpt>
      <trkpt lat="46.17629" lon="2.45767">
        <ele>435</ele>
        <time>2016-04-04T12:53:39Z</time>
      </trkpt>
      <trkpt lat="46.1763" lon="2.45772">
        <ele>435</ele>
        <time>2016-04-04T12:53:42Z</time>
      </trkpt>
      <trkpt lat="46.17632" lon="2.45777">
        <ele>435</ele>
        <time>2016-04-04T12:53:45Z</time>
      </trkpt>
      <trkpt lat="46.17634" lon="2.45783">
        <ele>434</ele>
        <time>2016-04-04T12:53:48Z</time>
      </trkpt>
      <trkpt lat="46.17636" lon="2.45788">
        <ele>434</ele>
        <time>2016-04-04T12:53:51Z</time>
      </trkpt>
      <trkpt lat="46.17638" lon="2.45793">
        <ele>434</ele>
        <time>2016-04-04T12:53:54Z</time>
      </trkpt>
      <trkpt lat="46.1764" lon="2.45798">
        <ele>433</ele>
        <time>2016-04-04T12:53:57Z</time>
      </trkpt>
      <trkpt lat="46.17643" lon="2.45803">
        <ele>433</ele>
        <time>2016-04-04T12:54:00Z</time>
      </trkpt>
      <trkpt lat="46.17644" lon="2.45808">
        <ele>432</ele>
        <time>2016-04-04T12:54:03Z</time>
      </trkpt>
      <trkpt lat="46.17646" lon="2.45814">
        <ele>432</ele>
        <time>2016-04-04T12:54:06Z</time>
      </trkpt>
      <trkpt lat="46.17648" lon="2.45819">
        <ele>432</ele>
        <time>2016-04-04T12:54:09Z</time>
      </trkpt>
      <trkpt lat="46.1765" lon="2.45824">
        <ele>431</ele>
        <time>2016-04-04T12:54:12Z</time>
      </trkpt>
      <trkpt lat="46.17651" lon="2.4583">
        <ele>431</ele>
        <time>2016-04-04T12:54:15Z</time>
      </trkpt>
      <trkpt lat="46.17652" lon="2.45836">
        <ele>431</ele>
        <time>2016-04-04T12:54:18Z</time>
      </trkpt>
      <trkpt lat="46.17653" lon="2.45842">
        <ele>430</ele>
        <time>2016-04-04T12:54:21Z</time>
      </trkpt>
      <trkpt lat="46.17653" lon="2.45848">
        <ele>430</ele>
        <time>2016-04-04T12:54:24Z</time>
      </trkpt>
      <trkpt lat="46.17653" lon="2.45854">
        <ele>430</ele>
        <time>2016-04-04T12:54:27Z</time>
      </trkpt>
      <trkpt lat="46.17653" lon="2.45861">
        <ele>430</ele>
        <time>2016-04-04T12:54:30Z</time>
      </trkpt>
      <trkpt lat="46.17652" lon="2.45868">
        <ele>430</ele>
        <time>2016-04-04T12:54:33Z</time>
      </trkpt>
      <trkpt lat="46.17652" lon="2.45875">
        <ele>430</ele>
        <time>2016-04-04T12:54:36Z</time>
      </trkpt>
      <trkpt lat="46.17652" lon="2.45881">
        <ele>430</ele>
        <time>2016-04-04T12:54:39Z</time>
      </trkpt>
      <trkpt lat="46.17651" lon="2.45887">
        <ele>430</ele>
        <time>2016-04-04T12:54:42Z</time>
      </trkpt>
      <trkpt lat="46.17651" lon="2.45893">
        <ele>430</ele>
        <time>2016-04-04T12:54:45Z</time>
      </trkpt>
      <trkpt lat="46.1765" lon="2.45899">
        <ele>430</ele>
        <time>2016-04-04T12:54:48Z</time>
      </trkpt>
      <trkpt lat="46.17649" lon="2.45904">
        <ele>430</ele>
        <time>2016-04-04T12:54:51Z</time>
      </trkpt>
      <trkpt lat="46.17648" lon="2.4591">
        <ele>430</ele>
        <time>2016-04-04T12:54:54Z</time>
      </trkpt>
      <trkpt lat="46.17647" lon="2.45916">
        <ele>429</ele>
        <time>2016-04-04T12:54:57Z</time>
      </trkpt>
      <trkpt lat="46.17646" lon="2.45922">
        <ele>429</ele>
        <time>2016-04-04T12:55:00Z</time>
      </trkpt>
      <trkpt lat="46.17645" lon="2.45928">
        <ele>429</ele>
        <time>2016-04-04T12:55:03Z</time>
      </trkpt>
      <trkpt lat="46.17643" lon="2.45933">
        <ele>429</ele>
        <time>2016-04-04T12:55:06Z</time>
      </trkpt>
      <trkpt lat="46.17642" lon="2.45939">
        <ele>429</ele>
        <time>2016-04-04T12:55:09Z</time>
      </trkpt>
      <trkpt lat="46.1764" lon="2.45944">
        <ele>428</ele>
        <time>2016-04-04T12:55:12Z</time>
      </trkpt>
      <trkpt lat="46.17638" lon="2.45949">
        <ele>428</ele>
        <time>2016-04-04T12:55:15Z</time>
      </trkpt>
      <trkpt lat="46.17635" lon="2.45954">
        <ele>428</ele>
        <time>2016-04-04T12:55:18Z</time>
      </trkpt>
      <trkpt lat="46.17633" lon="2.4596">
        <ele>428</ele>
        <time>2016-04-04T12:55:21Z</time>
      </trkpt>
      <trkpt lat="46.17631" lon="2.45966">
        <ele>427</ele>
        <time>2016-04-04T12:55:24Z</time>
      </trkpt>
      <trkpt lat="46.17629" lon="2.45971">
        <ele>427</ele>
        <time>2016-04-04T12:55:27Z</time>
      </trkpt>
      <trkpt lat="46.17627" lon="2.45976">
        <ele>427</ele>
        <time>2016-04-04T12:55:30Z</time>
      </trkpt>
      <trkpt lat="46.17626" lon="2.45982">
        <ele>427</ele>
        <time>2016-04-04T12:55:33Z</time>
      </trkpt>
      <trkpt lat="46.17624" lon="2.45988">
        <ele>427</ele>
        <time>2016-04-04T12:55:36Z</time>
      </trkpt>
      <trkpt lat="46.17622" lon="2.45993">
        <ele>427</ele>
        <time>2016-04-04T12:55:39Z</time>
      </trkpt>
      <trkpt lat="46.1762" lon="2.45998">
        <ele>427</ele>
        <time>2016-04-04T12:55:42Z</time>
      </trkpt>
      <trkpt lat="46.17618" lon="2.46004">
        <ele>426</ele>
        <time>2016-04-04T12:55:45Z</time>
      </trkpt>
      <trkpt lat="46.17617" lon="2.4601">
        <ele>426</ele>
        <time>2016-04-04T12:55:48Z</time>
      </trkpt>
      <trkpt lat="46.17616" lon="2.46016">
        <ele>426</ele>
        <time>2016-04-04T12:55:51Z</time>
      </trkpt>
      <trkpt lat="46.17615" lon="2.46021">
        <ele>426</ele>
        <time>2016-04-04T12:55:54Z</time>
      </trkpt>
      <trkpt lat="46.17614" lon="2.46027">
        <ele>425</ele>
        <time>2016-04-04T12:55:57Z</time>
      </trkpt>
      <trkpt lat="46.17613" lon="2.46034">
        <ele>425</ele>
        <time>2016-04-04T12:56:00Z</time>
      </trkpt>
      <trkpt lat="46.17612" lon="2.46041">
        <ele>425</ele>
        <time>2016-04-04T12:56:03Z</time>
      </trkpt>
      <trkpt lat="46.17611" lon="2.46047">
        <ele>424</ele>
        <time>2016-04-04T12:56:06Z</time>
      </trkpt>
      <trkpt lat="46.1761" lon="2.46053">
        <ele>424</ele>
        <time>2016-04-04T12:56:09Z</time>
      </trkpt>
      <trkpt lat="46.17608" lon="2.46059">
        <ele>423</ele>
        <time>2016-04-04T12:56:12Z</time>
      </trkpt>
      <trkpt lat="46.17607" lon="2.46065">
        <ele>423</ele>
        <time>2016-04-04T12:56:15Z</time>
      </trkpt>
      <trkpt lat="46.17606" lon="2.46071">
        <ele>422</ele>
        <time>2016-04-04T12:56:18Z</time>
      </trkpt>
      <trkpt lat="46.17605" lon="2.46077">
        <ele>422</ele>
        <time>2016-04-04T12:56:21Z</time>
      </trkpt>
      <trkpt lat="46.17604" lon="2.46082">
        <ele>422</ele>
        <time>2016-04-04T12:56:24Z</time>
      </trkpt>
      <trkpt lat="46.17602" lon="2.46088">
        <ele>421</ele>
        <time>2016-04-04T12:56:27Z</time>
      </trkpt>
      <trkpt lat="46.17601" lon="2.46094">
        <ele>420</ele>
        <time>2016-04-04T12:56:30Z</time>
      </trkpt>
      <trkpt lat="46.176" lon="2.46098">
        <ele>419</ele>
        <time>2016-04-04T12:56:33Z</time>
      </trkpt>
      <trkpt lat="46.17598" lon="2.46103">
        <ele>418</ele>
        <time>2016-04-04T12:56:36Z</time>
      </trkpt>
      <trkpt lat="46.17596" lon="2.46109">
        <ele>417</ele>
        <time>2016-04-04T12:56:39Z</time>
      </trkpt>
      <trkpt lat="46.17594" lon="2.46114">
        <ele>416</ele>
        <time>2016-04-04T12:56:42Z</time>
      </trkpt>
      <trkpt lat="46.17593" lon="2.4612">
        <ele>416</ele>
        <time>2016-04-04T12:56:45Z</time>
      </trkpt>
      <trkpt lat="46.17591" lon="2.46125">
        <ele>416</ele>
        <time>2016-04-04T12:56:48Z</time>
      </trkpt>
      <trkpt lat="46.17589" lon="2.4613">
        <ele>415</ele>
        <time>2016-04-04T12:56:51Z</time>
      </trkpt>
      <trkpt lat="46.17588" lon="2.46135">
        <ele>414</ele>
        <time>2016-04-04T12:56:54Z</time>
      </trkpt>
      <trkpt lat="46.17586" lon="2.46142">
        <ele>414</ele>
        <time>2016-04-04T12:56:57Z</time>
      </trkpt>
      <trkpt lat="46.17584" lon="2.46148">
        <ele>414</ele>
        <time>2016-04-04T12:57:00Z</time>
      </trkpt>
      <trkpt lat="46.17583" lon="2.46153">
        <ele>414</ele>
        <time>2016-04-04T12:57:03Z</time>
      </trkpt>
      <trkpt lat="46.17581" lon="2.46159">
        <ele>414</ele>
        <time>2016-04-04T12:57:06Z</time>
      </trkpt>
      <trkpt lat="46.17579" lon="2.46165">
        <ele>414</ele>
        <time>2016-04-04T12:57:09Z</time>
      </trkpt>
      <trkpt lat="46.17577" lon="2.4617">
        <ele>414</ele>
        <time>2016-04-04T12:57:12Z</time>
      </trkpt>
      <trkpt lat="46.17574" lon="2.46176">
        <ele>414</ele>
        <time>2016-04-04T12:57:15Z</time>
      </trkpt>
      <trkpt lat="46.17572" lon="2.46182">
        <ele>414</ele>
        <time>2016-04-04T12:57:18Z</time>
      </trkpt>
      <trkpt lat="46.17569" lon="2.46187">
        <ele>414</ele>
        <time>2016-04-04T12:57:21Z</time>
      </trkpt>
      <trkpt lat="46.17567" lon="2.46193">
        <ele>414</ele>
        <time>2016-04-04T12:57:24Z</time>
      </trkpt>
      <trkpt lat="46.17566" lon="2.46198">
        <ele>414</ele>
        <time>2016-04-04T12:57:27Z</time>
      </trkpt>
      <trkpt lat="46.17564" lon="2.46204">
        <ele>414</ele>
        <time>2016-04-04T12:57:30Z</time>
      </trkpt>
      <trkpt lat="46.17561" lon="2.4621">
        <ele>414</ele>
        <time>2016-04-04T12:57:34Z</time>
      </trkpt>
      <trkpt lat="46.17559" lon="2.46215">
        <ele>414</ele>
        <time>2016-04-04T12:57:37Z</time>
      </trkpt>
      <trkpt lat="46.17556" lon="2.46221">
        <ele>414</ele>
        <time>2016-04-04T12:57:40Z</time>
      </trkpt>
      <trkpt lat="46.17553" lon="2.46226">
        <ele>414</ele>
        <time>2016-04-04T12:57:43Z</time>
      </trkpt>
      <trkpt lat="46.17551" lon="2.46231">
        <ele>414</ele>
        <time>2016-04-04T12:57:46Z</time>
      </trkpt>
      <trkpt lat="46.17549" lon="2.46237">
        <ele>414</ele>
        <time>2016-04-04T12:57:49Z</time>
      </trkpt>
      <trkpt lat="46.17547" lon="2.46242">
        <ele>414</ele>
        <time>2016-04-04T12:57:52Z</time>
      </trkpt>
      <trkpt lat="46.17545" lon="2.46247">
        <ele>414</ele>
        <time>2016-04-04T12:57:55Z</time>
      </trkpt>
      <trkpt lat="46.17543" lon="2.46252">
        <ele>413</ele>
        <time>2016-04-04T12:57:58Z</time>
      </trkpt>
      <trkpt lat="46.17541" lon="2.46257">
        <ele>412</ele>
        <time>2016-04-04T12:58:01Z</time>
      </trkpt>
      <trkpt lat="46.17539" lon="2.46262">
        <ele>411</ele>
        <time>2016-04-04T12:58:04Z</time>
      </trkpt>
      <trkpt lat="46.17537" lon="2.46266">
        <ele>409</ele>
        <time>2016-04-04T12:58:07Z</time>
      </trkpt>
      <trkpt lat="46.17535" lon="2.46271">
        <ele>408</ele>
        <time>2016-04-04T12:58:10Z</time>
      </trkpt>
      <trkpt lat="46.17532" lon="2.46277">
        <ele>406</ele>
        <time>2016-04-04T12:58:14Z</time>
      </trkpt>
      <trkpt lat="46.1753" lon="2.46282">
        <ele>405</ele>
        <time>2016-04-04T12:58:17Z</time>
      </trkpt>
      <trkpt lat="46.17527" lon="2.46287">
        <ele>404</ele>
        <time>2016-04-04T12:58:20Z</time>
      </trkpt>
      <trkpt lat="46.17525" lon="2.46292">
        <ele>403</ele>
        <time>2016-04-04T12:58:23Z</time>
      </trkpt>
      <trkpt lat="46.17523" lon="2.46297">
        <ele>403</ele>
        <time>2016-04-04T12:58:26Z</time>
      </trkpt>
      <trkpt lat="46.1752" lon="2.46303">
        <ele>402</ele>
        <time>2016-04-04T12:58:29Z</time>
      </trkpt>
      <trkpt lat="46.17517" lon="2.46308">
        <ele>402</ele>
        <time>2016-04-04T12:58:32Z</time>
      </trkpt>
      <trkpt lat="46.17515" lon="2.46313">
        <ele>402</ele>
        <time>2016-04-04T12:58:35Z</time>
      </trkpt>
      <trkpt lat="46.17512" lon="2.46317">
        <ele>402</ele>
        <time>2016-04-04T12:58:38Z</time>
      </trkpt>
      <trkpt lat="46.17508" lon="2.46319">
        <ele>402</ele>
        <time>2016-04-04T12:58:41Z</time>
      </trkpt>
      <trkpt lat="46.17505" lon="2.46323">
        <ele>402</ele>
        <time>2016-04-04T12:58:44Z</time>
      </trkpt>
      <trkpt lat="46.17501" lon="2.46326">
        <ele>402</ele>
        <time>2016-04-04T12:58:47Z</time>
      </trkpt>
      <trkpt lat="46.17497" lon="2.46331">
        <ele>401</ele>
        <time>2016-04-04T12:58:51Z</time>
      </trkpt>
      <trkpt lat="46.17493" lon="2.46335">
        <ele>400</ele>
        <time>2016-04-04T12:58:55Z</time>
      </trkpt>
      <trkpt lat="46.1749" lon="2.46339">
        <ele>400</ele>
        <time>2016-04-04T12:58:58Z</time>
      </trkpt>
      <trkpt lat="46.17487" lon="2.46342">
        <ele>399</ele>
        <time>2016-04-04T12:59:02Z</time>
      </trkpt>
      <trkpt lat="46.17484" lon="2.46346">
        <ele>399</ele>
        <time>2016-04-04T12:59:05Z</time>
      </trkpt>
      <trkpt lat="46.17482" lon="2.46351">
        <ele>399</ele>
        <time>2016-04-04T12:59:09Z</time>
      </trkpt>
      <trkpt lat="46.17479" lon="2.46355">
        <ele>398</ele>
        <time>2016-04-04T12:59:12Z</time>
      </trkpt>
      <trkpt lat="46.17477" lon="2.4636">
        <ele>395</ele>
        <time>2016-04-04T12:59:16Z</time>
      </trkpt>
      <trkpt lat="46.17476" lon="2.46365">
        <ele>393</ele>
        <time>2016-04-04T12:59:19Z</time>
      </trkpt>
      <trkpt lat="46.17474" lon="2.46371">
        <ele>391</ele>
        <time>2016-04-04T12:59:22Z</time>
      </trkpt>
      <trkpt lat="46.17472" lon="2.46375">
        <ele>390</ele>
        <time>2016-04-04T12:59:25Z</time>
      </trkpt>
      <trkpt lat="46.17471" lon="2.4638">
        <ele>389</ele>
        <time>2016-04-04T12:59:28Z</time>
      </trkpt>
      <trkpt lat="46.17471" lon="2.46385">
        <ele>387</ele>
        <time>2016-04-04T12:59:31Z</time>
      </trkpt>
      <trkpt lat="46.1747" lon="2.4639">
        <ele>385</ele>
        <time>2016-04-04T12:59:35Z</time>
      </trkpt>
      <trkpt lat="46.17469" lon="2.46395">
        <ele>382</ele>
        <time>2016-04-04T12:59:39Z</time>
      </trkpt>
      <trkpt lat="46.17467" lon="2.46401">
        <ele>380</ele>
        <time>2016-04-04T12:59:43Z</time>
      </trkpt>
      <trkpt lat="46.17466" lon="2.46406">
        <ele>379</ele>
        <time>2016-04-04T12:59:47Z</time>
      </trkpt>
      <trkpt lat="46.17465" lon="2.4641">
        <ele>378</ele>
        <time>2016-04-04T12:59:50Z</time>
      </trkpt>
      <trkpt lat="46.17465" lon="2.46416">
        <ele>377</ele>
        <time>2016-04-04T12:59:54Z</time>
      </trkpt>
      <trkpt lat="46.17463" lon="2.4642">
        <ele>377</ele>
        <time>2016-04-04T12:59:57Z</time>
      </trkpt>
      <trkpt lat="46.17463" lon="2.46424">
        <ele>376</ele>
        <time>2016-04-04T13:00:00Z</time>
      </trkpt>
      <trkpt lat="46.17464" lon="2.46428">
        <ele>375</ele>
        <time>2016-04-04T13:00:03Z</time>
      </trkpt>
      <trkpt lat="46.17463" lon="2.46433">
        <ele>374</ele>
        <time>2016-04-04T13:00:07Z</time>
      </trkpt>
      <trkpt lat="46.17463" lon="2.46436">
        <ele>374</ele>
        <time>2016-04-04T13:00:11Z</time>
      </trkpt>
      <trkpt lat="46.17462" lon="2.46442">
        <ele>373</ele>
        <time>2016-04-04T13:00:14Z</time>
      </trkpt>
      <trkpt lat="46.17459" lon="2.46449">
        <ele>373</ele>
        <time>2016-04-04T13:00:18Z</time>
      </trkpt>
      <trkpt lat="46.17456" lon="2.46454">
        <ele>373</ele>
        <time>2016-04-04T13:00:22Z</time>
      </trkpt>
      <trkpt lat="46.17455" lon="2.4646">
        <ele>373</ele>
        <time>2016-04-04T13:00:26Z</time>
      </trkpt>
      <trkpt lat="46.17455" lon="2.46465">
        <ele>373</ele>
        <time>2016-04-04T13:00:29Z</time>
      </trkpt>
      <trkpt lat="46.17453" lon="2.46469">
        <ele>372</ele>
        <time>2016-04-04T13:00:32Z</time>
      </trkpt>
      <trkpt lat="46.17452" lon="2.46474">
        <ele>370</ele>
        <time>2016-04-04T13:00:35Z</time>
      </trkpt>
      <trkpt lat="46.17451" lon="2.4648">
        <ele>370</ele>
        <time>2016-04-04T13:00:38Z</time>
      </trkpt>
      <trkpt lat="46.17451" lon="2.46486">
        <ele>370</ele>
        <time>2016-04-04T13:00:42Z</time>
      </trkpt>
      <trkpt lat="46.1745" lon="2.4649">
        <ele>369</ele>
        <time>2016-04-04T13:00:46Z</time>
      </trkpt>
      <trkpt lat="46.17448" lon="2.46495">
        <ele>368</ele>
        <time>2016-04-04T13:00:50Z</time>
      </trkpt>
      <trkpt lat="46.17446" lon="2.46499">
        <ele>367</ele>
        <time>2016-04-04T13:00:54Z</time>
      </trkpt>
      <trkpt lat="46.17444" lon="2.46502">
        <ele>366</ele>
        <time>2016-04-04T13:00:58Z</time>
      </trkpt>
      <trkpt lat="46.17441" lon="2.46505">
        <ele>366</ele>
        <time>2016-04-04T13:01:03Z</time>
      </trkpt>
      <trkpt lat="46.17437" lon="2.46509">
        <ele>366</ele>
        <time>2016-04-04T13:01:06Z</time>
      </trkpt>
      <trkpt lat="46.17434" lon="2.46511">
        <ele>366</ele>
        <time>2016-04-04T13:01:09Z</time>
      </trkpt>
      <trkpt lat="46.17431" lon="2.46515">
        <ele>366</ele>
        <time>2016-04-04T13:01:13Z</time>
      </trkpt>
      <trkpt lat="46.17428" lon="2.46519">
        <ele>366</ele>
        <time>2016-04-04T13:01:17Z</time>
      </trkpt>
      <trkpt lat="46.17425" lon="2.46522">
        <ele>366</ele>
        <time>2016-04-04T13:01:21Z</time>
      </trkpt>
      <trkpt lat="46.17422" lon="2.46525">
        <ele>366</ele>
        <time>2016-04-04T13:01:24Z</time>
      </trkpt>
      <trkpt lat="46.17419" lon="2.46528">
        <ele>366</ele>
        <time>2016-04-04T13:01:27Z</time>
      </trkpt>
      <trkpt lat="46.17416" lon="2.46532">
        <ele>366</ele>
        <time>2016-04-04T13:01:31Z</time>
      </trkpt>
      <trkpt lat="46.17414" lon="2.46534">
        <ele>366</ele>
        <time>2016-04-04T13:01:34Z</time>
      </trkpt>
      <trkpt lat="46.17411" lon="2.46537">
        <ele>366</ele>
        <time>2016-04-04T13:01:38Z</time>
      </trkpt>
      <trkpt lat="46.17408" lon="2.46541">
        <ele>365</ele>
        <time>2016-04-04T13:01:42Z</time>
      </trkpt>
      <trkpt lat="46.17405" lon="2.46544">
        <ele>364</ele>
        <time>2016-04-04T13:01:46Z</time>
      </trkpt>
      <trkpt lat="46.17404" lon="2.46546">
        <ele>362</ele>
        <time>2016-04-04T13:01:49Z</time>
      </trkpt>
      <trkpt lat="46.17402" lon="2.46547">
        <ele>360</ele>
        <time>2016-04-04T13:01:52Z</time>
      </trkpt>
      <trkpt lat="46.17399" lon="2.46547">
        <ele>358</ele>
        <time>2016-04-04T13:01:57Z</time>
      </trkpt>
      <trkpt lat="46.174" lon="2.46545">
        <ele>356</ele>
        <time>2016-04-04T13:02:03Z</time>
      </trkpt>
      <trkpt lat="46.17392" lon="2.46555">
        <ele>353</ele>
        <time>2016-04-04T13:02:37Z</time>
      </trkpt>
      <trkpt lat="46.17395" lon="2.46558">
        <ele>352</ele>
        <time>2016-04-04T13:02:41Z</time>
      </trkpt>
      <trkpt lat="46.17398" lon="2.4656">
        <ele>350</ele>
        <time>2016-04-04T13:02:45Z</time>
      </trkpt>
      <trkpt lat="46.174" lon="2.46563">
        <ele>349</ele>
        <time>2016-04-04T13:02:48Z</time>
      </trkpt>
      <trkpt lat="46.17403" lon="2.46568">
        <ele>349</ele>
        <time>2016-04-04T13:02:52Z</time>
      </trkpt>
      <trkpt lat="46.17402" lon="2.46571">
        <ele>349</ele>
        <time>2016-04-04T13:02:56Z</time>
      </trkpt>
      <trkpt lat="46.17401" lon="2.46577">
        <ele>351</ele>
        <time>2016-04-04T13:03:00Z</time>
      </trkpt>
      <trkpt lat="46.174" lon="2.46581">
        <ele>353</ele>
        <time>2016-04-04T13:03:05Z</time>
      </trkpt>
      <trkpt lat="46.17399" lon="2.46583">
        <ele>355</ele>
        <time>2016-04-04T13:03:09Z</time>
      </trkpt>
      <trkpt lat="46.17397" lon="2.46587">
        <ele>356</ele>
        <time>2016-04-04T13:03:12Z</time>
      </trkpt>
      <trkpt lat="46.17396" lon="2.46589">
        <ele>359</ele>
        <time>2016-04-04T13:03:16Z</time>
      </trkpt>
      <trkpt lat="46.17393" lon="2.46596">
        <ele>362</ele>
        <time>2016-04-04T13:03:20Z</time>
      </trkpt>
      <trkpt lat="46.17392" lon="2.46601">
        <ele>366</ele>
        <time>2016-04-04T13:03:24Z</time>
      </trkpt>
      <trkpt lat="46.17392" lon="2.46603">
        <ele>369</ele>
        <time>2016-04-04T13:03:29Z</time>
      </trkpt>
      <trkpt lat="46.17394" lon="2.46608">
        <ele>369</ele>
        <time>2016-04-04T13:03:33Z</time>
      </trkpt>
      <trkpt lat="46.17396" lon="2.4661">
        <ele>369</ele>
        <time>2016-04-04T13:03:36Z</time>
      </trkpt>
      <trkpt lat="46.17397" lon="2.46615">
        <ele>369</ele>
        <time>2016-04-04T13:03:40Z</time>
      </trkpt>
      <trkpt lat="46.17399" lon="2.46619">
        <ele>369</ele>
        <time>2016-04-04T13:03:44Z</time>
      </trkpt>
      <trkpt lat="46.17402" lon="2.4662">
        <ele>369</ele>
        <time>2016-04-04T13:03:48Z</time>
      </trkpt>
      <trkpt lat="46.17405" lon="2.46622">
        <ele>369</ele>
        <time>2016-04-04T13:03:52Z</time>
      </trkpt>
      <trkpt lat="46.17409" lon="2.46625">
        <ele>369</ele>
        <time>2016-04-04T13:03:56Z</time>
      </trkpt>
      <trkpt lat="46.17412" lon="2.46626">
        <ele>369</ele>
        <time>2016-04-04T13:03:59Z</time>
      </trkpt>
      <trkpt lat="46.17415" lon="2.46626">
        <ele>369</ele>
        <time>2016-04-04T13:04:02Z</time>
      </trkpt>
      <trkpt lat="46.17418" lon="2.46626">
        <ele>369</ele>
        <time>2016-04-04T13:04:05Z</time>
      </trkpt>
      <trkpt lat="46.17422" lon="2.46627">
        <ele>369</ele>
        <time>2016-04-04T13:04:09Z</time>
      </trkpt>
      <trkpt lat="46.17426" lon="2.46626">
        <ele>369</ele>
        <time>2016-04-04T13:04:13Z</time>
      </trkpt>
      <trkpt lat="46.17428" lon="2.46627">
        <ele>369</ele>
        <time>2016-04-04T13:04:16Z</time>
      </trkpt>
      <trkpt lat="46.17432" lon="2.46627">
        <ele>369</ele>
        <time>2016-04-04T13:04:20Z</time>
      </trkpt>
      <trkpt lat="46.17436" lon="2.46625">
        <ele>369</ele>
        <time>2016-04-04T13:04:24Z</time>
      </trkpt>
      <trkpt lat="46.1744" lon="2.46623">
        <ele>369</ele>
        <time>2016-04-04T13:04:27Z</time>
      </trkpt>
      <trkpt lat="46.17444" lon="2.46621">
        <ele>369</ele>
        <time>2016-04-04T13:04:30Z</time>
      </trkpt>
      <trkpt lat="46.17449" lon="2.46618">
        <ele>369</ele>
        <time>2016-04-04T13:04:34Z</time>
      </trkpt>
      <trkpt lat="46.17453" lon="2.46616">
        <ele>369</ele>
        <time>2016-04-04T13:04:38Z</time>
      </trkpt>
      <trkpt lat="46.17456" lon="2.46616">
        <ele>369</ele>
        <time>2016-04-04T13:04:41Z</time>
      </trkpt>
      <trkpt lat="46.17461" lon="2.46616">
        <ele>369</ele>
        <time>2016-04-04T13:04:45Z</time>
      </trkpt>
      <trkpt lat="46.17464" lon="2.46616">
        <ele>369</ele>
        <time>2016-04-04T13:04:49Z</time>
      </trkpt>
      <trkpt lat="46.17467" lon="2.46614">
        <ele>369</ele>
        <time>2016-04-04T13:04:52Z</time>
      </trkpt>
      <trkpt lat="46.17472" lon="2.46613">
        <ele>369</ele>
        <time>2016-04-04T13:04:56Z</time>
      </trkpt>
      <trkpt lat="46.17477" lon="2.46613">
        <ele>369</ele>
        <time>2016-04-04T13:05:00Z</time>
      </trkpt>
      <trkpt lat="46.1748" lon="2.46613">
        <ele>369</ele>
        <time>2016-04-04T13:05:03Z</time>
      </trkpt>
      <trkpt lat="46.17484" lon="2.46614">
        <ele>369</ele>
        <time>2016-04-04T13:05:07Z</time>
      </trkpt>
      <trkpt lat="46.17488" lon="2.46615">
        <ele>370</ele>
        <time>2016-04-04T13:05:11Z</time>
      </trkpt>
      <trkpt lat="46.17491" lon="2.46613">
        <ele>371</ele>
        <time>2016-04-04T13:05:15Z</time>
      </trkpt>
      <trkpt lat="46.17494" lon="2.46613">
        <ele>373</ele>
        <time>2016-04-04T13:05:19Z</time>
      </trkpt>
      <trkpt lat="46.17498" lon="2.46611">
        <ele>375</ele>
        <time>2016-04-04T13:05:23Z</time>
      </trkpt>
      <trkpt lat="46.17502" lon="2.46613">
        <ele>376</ele>
        <time>2016-04-04T13:05:26Z</time>
      </trkpt>
      <trkpt lat="46.17505" lon="2.46612">
        <ele>379</ele>
        <time>2016-04-04T13:05:30Z</time>
      </trkpt>
      <trkpt lat="46.1751" lon="2.46612">
        <ele>380</ele>
        <time>2016-04-04T13:05:34Z</time>
      </trkpt>
      <trkpt lat="46.17513" lon="2.4661">
        <ele>380</ele>
        <time>2016-04-04T13:05:38Z</time>
      </trkpt>
      <trkpt lat="46.17517" lon="2.46611">
        <ele>380</ele>
        <time>2016-04-04T13:05:42Z</time>
      </trkpt>
      <trkpt lat="46.17522" lon="2.46611">
        <ele>380</ele>
        <time>2016-04-04T13:05:47Z</time>
      </trkpt>
      <trkpt lat="46.17527" lon="2.46613">
        <ele>380</ele>
        <time>2016-04-04T13:05:52Z</time>
      </trkpt>
      <trkpt lat="46.17531" lon="2.46616">
        <ele>380</ele>
        <time>2016-04-04T13:05:57Z</time>
      </trkpt>
      <trkpt lat="46.17532" lon="2.4662">
        <ele>380</ele>
        <time>2016-04-04T13:06:03Z</time>
      </trkpt>
      <trkpt lat="46.17529" lon="2.46622">
        <ele>381</ele>
        <time>2016-04-04T13:06:08Z</time>
      </trkpt>
      <trkpt lat="46.17524" lon="2.46622">
        <ele>382</ele>
        <time>2016-04-04T13:06:13Z</time>
      </trkpt>
      <trkpt lat="46.17521" lon="2.46622">
        <ele>382</ele>
        <time>2016-04-04T13:06:17Z</time>
      </trkpt>
      <trkpt lat="46.17518" lon="2.46624">
        <ele>382</ele>
        <time>2016-04-04T13:06:21Z</time>
      </trkpt>
      <trkpt lat="46.17514" lon="2.46625">
        <ele>382</ele>
        <time>2016-04-04T13:06:24Z</time>
      </trkpt>
      <trkpt lat="46.17511" lon="2.46628">
        <ele>382</ele>
        <time>2016-04-04T13:06:28Z</time>
      </trkpt>
      <trkpt lat="46.1751" lon="2.46631">
        <ele>382</ele>
        <time>2016-04-04T13:06:32Z</time>
      </trkpt>
      <trkpt lat="46.17512" lon="2.46633">
        <ele>384</ele>
        <time>2016-04-04T13:06:35Z</time>
      </trkpt>
      <trkpt lat="46.17514" lon="2.46634">
        <ele>385</ele>
        <time>2016-04-04T13:06:40Z</time>
      </trkpt>
      <trkpt lat="46.17518" lon="2.46635">
        <ele>386</ele>
        <time>2016-04-04T13:06:45Z</time>
      </trkpt>
      <trkpt lat="46.1752" lon="2.46635">
        <ele>388</ele>
        <time>2016-04-04T13:06:50Z</time>
      </trkpt>
      <trkpt lat="46.17524" lon="2.46637">
        <ele>389</ele>
        <time>2016-04-04T13:06:54Z</time>
      </trkpt>
      <trkpt lat="46.17527" lon="2.4664">
        <ele>389</ele>
        <time>2016-04-04T13:06:58Z</time>
      </trkpt>
      <trkpt lat="46.1753" lon="2.46643">
        <ele>389</ele>
        <time>2016-04-04T13:07:02Z</time>
      </trkpt>
      <trkpt lat="46.17534" lon="2.46644">
        <ele>389</ele>
        <time>2016-04-04T13:07:06Z</time>
      </trkpt>
      <trkpt lat="46.17537" lon="2.46645">
        <ele>390</ele>
        <time>2016-04-04T13:07:09Z</time>
      </trkpt>
      <trkpt lat="46.1754" lon="2.46645">
        <ele>390</ele>
        <time>2016-04-04T13:07:12Z</time>
      </trkpt>
      <trkpt lat="46.17543" lon="2.46647">
        <ele>391</ele>
        <time>2016-04-04T13:07:16Z</time>
      </trkpt>
      <trkpt lat="46.17545" lon="2.46649">
        <ele>391</ele>
        <time>2016-04-04T13:07:19Z</time>
      </trkpt>
      <trkpt lat="46.17548" lon="2.46652">
        <ele>392</ele>
        <time>2016-04-04T13:07:23Z</time>
      </trkpt>
      <trkpt lat="46.17551" lon="2.46654">
        <ele>393</ele>
        <time>2016-04-04T13:07:26Z</time>
      </trkpt>
      <trkpt lat="46.17555" lon="2.46656">
        <ele>393</ele>
        <time>2016-04-04T13:07:30Z</time>
      </trkpt>
      <trkpt lat="46.17559" lon="2.46656">
        <ele>393</ele>
        <time>2016-04-04T13:07:34Z</time>
      </trkpt>
      <trkpt lat="46.17562" lon="2.46658">
        <ele>393</ele>
        <time>2016-04-04T13:07:38Z</time>
      </trkpt>
      <trkpt lat="46.17565" lon="2.46662">
        <ele>393</ele>
        <time>2016-04-04T13:07:42Z</time>
      </trkpt>
      <trkpt lat="46.17568" lon="2.46665">
        <ele>393</ele>
        <time>2016-04-04T13:07:46Z</time>
      </trkpt>
      <trkpt lat="46.1757" lon="2.46669">
        <ele>395</ele>
        <time>2016-04-04T13:07:50Z</time>
      </trkpt>
      <trkpt lat="46.17572" lon="2.46673">
        <ele>395</ele>
        <time>2016-04-04T13:07:53Z</time>
      </trkpt>
      <trkpt lat="46.17574" lon="2.46679">
        <ele>395</ele>
        <time>2016-04-04T13:07:56Z</time>
      </trkpt>
      <trkpt lat="46.17576" lon="2.46683">
        <ele>395</ele>
        <time>2016-04-04T13:07:59Z</time>
      </trkpt>
      <trkpt lat="46.17578" lon="2.46688">
        <ele>395</ele>
        <time>2016-04-04T13:08:02Z</time>
      </trkpt>
      <trkpt lat="46.1758" lon="2.46691">
        <ele>395</ele>
        <time>2016-04-04T13:08:06Z</time>
      </trkpt>
      <trkpt lat="46.17582" lon="2.46695">
        <ele>395</ele>
        <time>2016-04-04T13:08:09Z</time>
      </trkpt>
      <trkpt lat="46.17585" lon="2.467">
        <ele>395</ele>
        <time>2016-04-04T13:08:13Z</time>
      </trkpt>
      <trkpt lat="46.17587" lon="2.46704">
        <ele>395</ele>
        <time>2016-04-04T13:08:16Z</time>
      </trkpt>
      <trkpt lat="46.17589" lon="2.46709">
        <ele>396</ele>
        <time>2016-04-04T13:08:20Z</time>
      </trkpt>
      <trkpt lat="46.17591" lon="2.46715">
        <ele>397</ele>
        <time>2016-04-04T13:08:25Z</time>
      </trkpt>
      <trkpt lat="46.17593" lon="2.4672">
        <ele>397</ele>
        <time>2016-04-04T13:08:29Z</time>
      </trkpt>
      <trkpt lat="46.17594" lon="2.46726">
        <ele>397</ele>
        <time>2016-04-04T13:08:33Z</time>
      </trkpt>
      <trkpt lat="46.17595" lon="2.4673">
        <ele>398</ele>
        <time>2016-04-04T13:08:36Z</time>
      </trkpt>
      <trkpt lat="46.17596" lon="2.46735">
        <ele>398</ele>
        <time>2016-04-04T13:08:40Z</time>
      </trkpt>
      <trkpt lat="46.17594" lon="2.46743">
        <ele>398</ele>
        <time>2016-04-04T13:08:44Z</time>
      </trkpt>
      <trkpt lat="46.17593" lon="2.46749">
        <ele>398</ele>
        <time>2016-04-04T13:08:48Z</time>
      </trkpt>
      <trkpt lat="46.17592" lon="2.46753">
        <ele>399</ele>
        <time>2016-04-04T13:08:52Z</time>
      </trkpt>
      <trkpt lat="46.1759" lon="2.4676">
        <ele>400</ele>
        <time>2016-04-04T13:08:56Z</time>
      </trkpt>
      <trkpt lat="46.1759" lon="2.46764">
        <ele>401</ele>
        <time>2016-04-04T13:08:59Z</time>
      </trkpt>
      <trkpt lat="46.1759" lon="2.46768">
        <ele>402</ele>
        <time>2016-04-04T13:09:03Z</time>
      </trkpt>
      <trkpt lat="46.1759" lon="2.46773">
        <ele>403</ele>
        <time>2016-04-04T13:09:07Z</time>
      </trkpt>
      <trkpt lat="46.17589" lon="2.46777">
        <ele>403</ele>
        <time>2016-04-04T13:09:11Z</time>
      </trkpt>
      <trkpt lat="46.17589" lon="2.46781">
        <ele>403</ele>
        <time>2016-04-04T13:09:15Z</time>
      </trkpt>
      <trkpt lat="46.17588" lon="2.4679">
        <ele>403</ele>
        <time>2016-04-04T13:09:20Z</time>
      </trkpt>
      <trkpt lat="46.17586" lon="2.46798">
        <ele>404</ele>
        <time>2016-04-04T13:09:24Z</time>
      </trkpt>
      <trkpt lat="46.17585" lon="2.46802">
        <ele>405</ele>
        <time>2016-04-04T13:09:27Z</time>
      </trkpt>
      <trkpt lat="46.17585" lon="2.46807">
        <ele>406</ele>
        <time>2016-04-04T13:09:31Z</time>
      </trkpt>
      <trkpt lat="46.17585" lon="2.46812">
        <ele>407</ele>
        <time>2016-04-04T13:09:35Z</time>
      </trkpt>
      <trkpt lat="46.17585" lon="2.46816">
        <ele>408</ele>
        <time>2016-04-04T13:09:38Z</time>
      </trkpt>
      <trkpt lat="46.17585" lon="2.4682">
        <ele>409</ele>
        <time>2016-04-04T13:09:42Z</time>
      </trkpt>
      <trkpt lat="46.17585" lon="2.46825">
        <ele>410</ele>
        <time>2016-04-04T13:09:46Z</time>
      </trkpt>
      <trkpt lat="46.17585" lon="2.46829">
        <ele>411</ele>
        <time>2016-04-04T13:09:50Z</time>
      </trkpt>
      <trkpt lat="46.17585" lon="2.46833">
        <ele>412</ele>
        <time>2016-04-04T13:09:53Z</time>
      </trkpt>
      <trkpt lat="46.17585" lon="2.46838">
        <ele>413</ele>
        <time>2016-04-04T13:09:57Z</time>
      </trkpt>
      <trkpt lat="46.17585" lon="2.46844">
        <ele>414</ele>
        <time>2016-04-04T13:10:01Z</time>
      </trkpt>
      <trkpt lat="46.17585" lon="2.46849">
        <ele>415</ele>
        <time>2016-04-04T13:10:05Z</time>
      </trkpt>
      <trkpt lat="46.17585" lon="2.46856">
        <ele>416</ele>
        <time>2016-04-04T13:10:10Z</time>
      </trkpt>
      <trkpt lat="46.17585" lon="2.46863">
        <ele>417</ele>
        <time>2016-04-04T13:10:15Z</time>
      </trkpt>
      <trkpt lat="46.17585" lon="2.46868">
        <ele>418</ele>
        <time>2016-04-04T13:10:19Z</time>
      </trkpt>
      <trkpt lat="46.17585" lon="2.46873">
        <ele>419</ele>
        <time>2016-04-04T13:10:23Z</time>
      </trkpt>
      <trkpt lat="46.17585" lon="2.46879">
        <ele>419</ele>
        <time>2016-04-04T13:10:27Z</time>
      </trkpt>
      <trkpt lat="46.17585" lon="2.46883">
        <ele>420</ele>
        <time>2016-04-04T13:10:31Z</time>
      </trkpt>
      <trkpt lat="46.17585" lon="2.46889">
        <ele>420</ele>
        <time>2016-04-04T13:10:35Z</time>
      </trkpt>
      <trkpt lat="46.17585" lon="2.46894">
        <ele>421</ele>
        <time>2016-04-04T13:10:39Z</time>
      </trkpt>
      <trkpt lat="46.17585" lon="2.46899">
        <ele>422</ele>
        <time>2016-04-04T13:10:43Z</time>
      </trkpt>
      <trkpt lat="46.17584" lon="2.46903">
        <ele>422</ele>
        <time>2016-04-04T13:10:46Z</time>
      </trkpt>
      <trkpt lat="46.17585" lon="2.46909">
        <ele>423</ele>
        <time>2016-04-04T13:10:50Z</time>
      </trkpt>
      <trkpt lat="46.17585" lon="2.46915">
        <ele>423</ele>
        <time>2016-04-04T13:10:54Z</time>
      </trkpt>
      <trkpt lat="46.17585" lon="2.46919">
        <ele>424</ele>
        <time>2016-04-04T13:10:57Z</time>
      </trkpt>
      <trkpt lat="46.17586" lon="2.46925">
        <ele>424</ele>
        <time>2016-04-04T13:11:01Z</time>
      </trkpt>
      <trkpt lat="46.17587" lon="2.46931">
        <ele>425</ele>
        <time>2016-04-04T13:11:05Z</time>
      </trkpt>
      <trkpt lat="46.17588" lon="2.46936">
        <ele>426</ele>
        <time>2016-04-04T13:11:08Z</time>
      </trkpt>
      <trkpt lat="46.17588" lon="2.4694">
        <ele>426</ele>
        <time>2016-04-04T13:11:11Z</time>
      </trkpt>
      <trkpt lat="46.17589" lon="2.46947">
        <ele>427</ele>
        <time>2016-04-04T13:11:15Z</time>
      </trkpt>
      <trkpt lat="46.1759" lon="2.46952">
        <ele>428</ele>
        <time>2016-04-04T13:11:18Z</time>
      </trkpt>
      <trkpt lat="46.17591" lon="2.46957">
        <ele>428</ele>
        <time>2016-04-04T13:11:21Z</time>
      </trkpt>
      <trkpt lat="46.17591" lon="2.46962">
        <ele>429</ele>
        <time>2016-04-04T13:11:24Z</time>
      </trkpt>
      <trkpt lat="46.17592" lon="2.46968">
        <ele>429</ele>
        <time>2016-04-04T13:11:27Z</time>
      </trkpt>
      <trkpt lat="46.17593" lon="2.46975">
        <ele>430</ele>
        <time>2016-04-04T13:11:31Z</time>
      </trkpt>
      <trkpt lat="46.17594" lon="2.4698">
        <ele>430</ele>
        <time>2016-04-04T13:11:34Z</time>
      </trkpt>
      <trkpt lat="46.17594" lon="2.46985">
        <ele>430</ele>
        <time>2016-04-04T13:11:37Z</time>
      </trkpt>
      <trkpt lat="46.17595" lon="2.46991">
        <ele>431</ele>
        <time>2016-04-04T13:11:40Z</time>
      </trkpt>
      <trkpt lat="46.17595" lon="2.46996">
        <ele>431</ele>
        <time>2016-04-04T13:11:43Z</time>
      </trkpt>
      <trkpt lat="46.17595" lon="2.47002">
        <ele>431</ele>
        <time>2016-04-04T13:11:46Z</time>
      </trkpt>
      <trkpt lat="46.17595" lon="2.47008">
        <ele>431</ele>
        <time>2016-04-04T13:11:49Z</time>
      </trkpt>
      <trkpt lat="46.17595" lon="2.47013">
        <ele>431</ele>
        <time>2016-04-04T13:11:52Z</time>
      </trkpt>
      <trkpt lat="46.17595" lon="2.47022">
        <ele>431</ele>
        <time>2016-04-04T13:11:56Z</time>
      </trkpt>
      <trkpt lat="46.17595" lon="2.47027">
        <ele>432</ele>
        <time>2016-04-04T13:11:59Z</time>
      </trkpt>
      <trkpt lat="46.17595" lon="2.47033">
        <ele>432</ele>
        <time>2016-04-04T13:12:02Z</time>
      </trkpt>
      <trkpt lat="46.17595" lon="2.47039">
        <ele>432</ele>
        <time>2016-04-04T13:12:05Z</time>
      </trkpt>
      <trkpt lat="46.17596" lon="2.47045">
        <ele>432</ele>
        <time>2016-04-04T13:12:08Z</time>
      </trkpt>
      <trkpt lat="46.17596" lon="2.47051">
        <ele>432</ele>
        <time>2016-04-04T13:12:11Z</time>
      </trkpt>
      <trkpt lat="46.17596" lon="2.47057">
        <ele>432</ele>
        <time>2016-04-04T13:12:14Z</time>
      </trkpt>
      <trkpt lat="46.17596" lon="2.47062">
        <ele>432</ele>
        <time>2016-04-04T13:12:17Z</time>
      </trkpt>
      <trkpt lat="46.17596" lon="2.47068">
        <ele>433</ele>
        <time>2016-04-04T13:12:20Z</time>
      </trkpt>
      <trkpt lat="46.17596" lon="2.47074">
        <ele>433</ele>
        <time>2016-04-04T13:12:23Z</time>
      </trkpt>
      <trkpt lat="46.17597" lon="2.47079">
        <ele>433</ele>
        <time>2016-04-04T13:12:26Z</time>
      </trkpt>
      <trkpt lat="46.17597" lon="2.47085">
        <ele>433</ele>
        <time>2016-04-04T13:12:29Z</time>
      </trkpt>
      <trkpt lat="46.17597" lon="2.47091">
        <ele>433</ele>
        <time>2016-04-04T13:12:32Z</time>
      </trkpt>
      <trkpt lat="46.17597" lon="2.47096">
        <ele>433</ele>
        <time>2016-04-04T13:12:35Z</time>
      </trkpt>
      <trkpt lat="46.17597" lon="2.47102">
        <ele>433</ele>
        <time>2016-04-04T13:12:38Z</time>
      </trkpt>
      <trkpt lat="46.17597" lon="2.47108">
        <ele>433</ele>
        <time>2016-04-04T13:12:41Z</time>
      </trkpt>
      <trkpt lat="46.17598" lon="2.47113">
        <ele>433</ele>
        <time>2016-04-04T13:12:44Z</time>
      </trkpt>
      <trkpt lat="46.17598" lon="2.47119">
        <ele>433</ele>
        <time>2016-04-04T13:12:47Z</time>
      </trkpt>
      <trkpt lat="46.17598" lon="2.47127">
        <ele>433</ele>
        <time>2016-04-04T13:12:51Z</time>
      </trkpt>
      <trkpt lat="46.17598" lon="2.47133">
        <ele>433</ele>
        <time>2016-04-04T13:12:54Z</time>
      </trkpt>
      <trkpt lat="46.17598" lon="2.47139">
        <ele>433</ele>
        <time>2016-04-04T13:12:57Z</time>
      </trkpt>
      <trkpt lat="46.17598" lon="2.47145">
        <ele>434</ele>
        <time>2016-04-04T13:13:00Z</time>
      </trkpt>
      <trkpt lat="46.17599" lon="2.47151">
        <ele>434</ele>
        <time>2016-04-04T13:13:03Z</time>
      </trkpt>
      <trkpt lat="46.17599" lon="2.47157">
        <ele>434</ele>
        <time>2016-04-04T13:13:06Z</time>
      </trkpt>
      <trkpt lat="46.17599" lon="2.47163">
        <ele>435</ele>
        <time>2016-04-04T13:13:09Z</time>
      </trkpt>
      <trkpt lat="46.17599" lon="2.47168">
        <ele>435</ele>
        <time>2016-04-04T13:13:12Z</time>
      </trkpt>
      <trkpt lat="46.176" lon="2.47174">
        <ele>435</ele>
        <time>2016-04-04T13:13:15Z</time>
      </trkpt>
      <trkpt lat="46.176" lon="2.4718">
        <ele>435</ele>
        <time>2016-04-04T13:13:18Z</time>
      </trkpt>
      <trkpt lat="46.17601" lon="2.47186">
        <ele>435</ele>
        <time>2016-04-04T13:13:21Z</time>
      </trkpt>
      <trkpt lat="46.17602" lon="2.47192">
        <ele>435</ele>
        <time>2016-04-04T13:13:24Z</time>
      </trkpt>
      <trkpt lat="46.17603" lon="2.47198">
        <ele>436</ele>
        <time>2016-04-04T13:13:27Z</time>
      </trkpt>
      <trkpt lat="46.17604" lon="2.47203">
        <ele>436</ele>
        <time>2016-04-04T13:13:30Z</time>
      </trkpt>
      <trkpt lat="46.17605" lon="2.47209">
        <ele>436</ele>
        <time>2016-04-04T13:13:33Z</time>
      </trkpt>
      <trkpt lat="46.17606" lon="2.47215">
        <ele>436</ele>
        <time>2016-04-04T13:13:36Z</time>
      </trkpt>
      <trkpt lat="46.17608" lon="2.47219">
        <ele>436</ele>
        <time>2016-04-04T13:13:39Z</time>
      </trkpt>
      <trkpt lat="46.17609" lon="2.47225">
        <ele>437</ele>
        <time>2016-04-04T13:13:42Z</time>
      </trkpt>
      <trkpt lat="46.17611" lon="2.47231">
        <ele>437</ele>
        <time>2016-04-04T13:13:46Z</time>
      </trkpt>
      <trkpt lat="46.17612" lon="2.47235">
        <ele>437</ele>
        <time>2016-04-04T13:13:49Z</time>
      </trkpt>
      <trkpt lat="46.17612" lon="2.47236">
        <ele>437</ele>
        <time>2016-04-04T13:13:53Z</time>
      </trkpt>
      <trkpt lat="46.17613" lon="2.47241">
        <ele>438</ele>
        <time>2016-04-04T13:13:57Z</time>
      </trkpt>
      <trkpt lat="46.17615" lon="2.47245">
        <ele>438</ele>
        <time>2016-04-04T13:14:01Z</time>
      </trkpt>
      <trkpt lat="46.17615" lon="2.47247">
        <ele>438</ele>
        <time>2016-04-04T13:14:04Z</time>
      </trkpt>
      <trkpt lat="46.17616" lon="2.47251">
        <ele>438</ele>
        <time>2016-04-04T13:14:08Z</time>
      </trkpt>
      <trkpt lat="46.17617" lon="2.47255">
        <ele>438</ele>
        <time>2016-04-04T13:14:11Z</time>
      </trkpt>
      <trkpt lat="46.17619" lon="2.4726">
        <ele>438</ele>
        <time>2016-04-04T13:14:14Z</time>
      </trkpt>
      <trkpt lat="46.1762" lon="2.47265">
        <ele>438</ele>
        <time>2016-04-04T13:14:17Z</time>
      </trkpt>
      <trkpt lat="46.17621" lon="2.4727">
        <ele>438</ele>
        <time>2016-04-04T13:14:20Z</time>
      </trkpt>
      <trkpt lat="46.17622" lon="2.47275">
        <ele>438</ele>
        <time>2016-04-04T13:14:23Z</time>
      </trkpt>
      <trkpt lat="46.17623" lon="2.47279">
        <ele>438</ele>
        <time>2016-04-04T13:14:26Z</time>
      </trkpt>
      <trkpt lat="46.17625" lon="2.47284">
        <ele>438</ele>
        <time>2016-04-04T13:14:29Z</time>
      </trkpt>
      <trkpt lat="46.17626" lon="2.47289">
        <ele>438</ele>
        <time>2016-04-04T13:14:32Z</time>
      </trkpt>
      <trkpt lat="46.17627" lon="2.47294">
        <ele>438</ele>
        <time>2016-04-04T13:14:35Z</time>
      </trkpt>
      <trkpt lat="46.17629" lon="2.47299">
        <ele>438</ele>
        <time>2016-04-04T13:14:38Z</time>
      </trkpt>
      <trkpt lat="46.1763" lon="2.47304">
        <ele>438</ele>
        <time>2016-04-04T13:14:42Z</time>
      </trkpt>
      <trkpt lat="46.17631" lon="2.47308">
        <ele>438</ele>
        <time>2016-04-04T13:14:45Z</time>
      </trkpt>
      <trkpt lat="46.17633" lon="2.47314">
        <ele>438</ele>
        <time>2016-04-04T13:14:49Z</time>
      </trkpt>
      <trkpt lat="46.17633" lon="2.47318">
        <ele>438</ele>
        <time>2016-04-04T13:14:52Z</time>
      </trkpt>
      <trkpt lat="46.17635" lon="2.47324">
        <ele>438</ele>
        <time>2016-04-04T13:14:56Z</time>
      </trkpt>
      <trkpt lat="46.17636" lon="2.4733">
        <ele>438</ele>
        <time>2016-04-04T13:14:59Z</time>
      </trkpt>
      <trkpt lat="46.17638" lon="2.47336">
        <ele>438</ele>
        <time>2016-04-04T13:15:02Z</time>
      </trkpt>
      <trkpt lat="46.17639" lon="2.47341">
        <ele>438</ele>
        <time>2016-04-04T13:15:05Z</time>
      </trkpt>
      <trkpt lat="46.1764" lon="2.47347">
        <ele>438</ele>
        <time>2016-04-04T13:15:08Z</time>
      </trkpt>
      <trkpt lat="46.17642" lon="2.47352">
        <ele>438</ele>
        <time>2016-04-04T13:15:11Z</time>
      </trkpt>
      <trkpt lat="46.17643" lon="2.47358">
        <ele>438</ele>
        <time>2016-04-04T13:15:14Z</time>
      </trkpt>
      <trkpt lat="46.17645" lon="2.47363">
        <ele>438</ele>
        <time>2016-04-04T13:15:17Z</time>
      </trkpt>
      <trkpt lat="46.17646" lon="2.47369">
        <ele>438</ele>
        <time>2016-04-04T13:15:20Z</time>
      </trkpt>
      <trkpt lat="46.17647" lon="2.47374">
        <ele>438</ele>
        <time>2016-04-04T13:15:23Z</time>
      </trkpt>
      <trkpt lat="46.17648" lon="2.4738">
        <ele>438</ele>
        <time>2016-04-04T13:15:26Z</time>
      </trkpt>
      <trkpt lat="46.17649" lon="2.47386">
        <ele>438</ele>
        <time>2016-04-04T13:15:29Z</time>
      </trkpt>
      <trkpt lat="46.1765" lon="2.47392">
        <ele>438</ele>
        <time>2016-04-04T13:15:32Z</time>
      </trkpt>
      <trkpt lat="46.17651" lon="2.47398">
        <ele>438</ele>
        <time>2016-04-04T13:15:35Z</time>
      </trkpt>
      <trkpt lat="46.17651" lon="2.47404">
        <ele>438</ele>
        <time>2016-04-04T13:15:38Z</time>
      </trkpt>
      <trkpt lat="46.17652" lon="2.47409">
        <ele>438</ele>
        <time>2016-04-04T13:15:41Z</time>
      </trkpt>
      <trkpt lat="46.17653" lon="2.47415">
        <ele>438</ele>
        <time>2016-04-04T13:15:44Z</time>
      </trkpt>
      <trkpt lat="46.17654" lon="2.47421">
        <ele>438</ele>
        <time>2016-04-04T13:15:47Z</time>
      </trkpt>
      <trkpt lat="46.17656" lon="2.47426">
        <ele>438</ele>
        <time>2016-04-04T13:15:50Z</time>
      </trkpt>
      <trkpt lat="46.17657" lon="2.47432">
        <ele>438</ele>
        <time>2016-04-04T13:15:53Z</time>
      </trkpt>
      <trkpt lat="46.17659" lon="2.47437">
        <ele>438</ele>
        <time>2016-04-04T13:15:56Z</time>
      </trkpt>
      <trkpt lat="46.17661" lon="2.47442">
        <ele>438</ele>
        <time>2016-04-04T13:15:59Z</time>
      </trkpt>
      <trkpt lat="46.17664" lon="2.47447">
        <ele>438</ele>
        <time>2016-04-04T13:16:02Z</time>
      </trkpt>
      <trkpt lat="46.17666" lon="2.47452">
        <ele>438</ele>
        <time>2016-04-04T13:16:05Z</time>
      </trkpt>
      <trkpt lat="46.17668" lon="2.47458">
        <ele>438</ele>
        <time>2016-04-04T13:16:08Z</time>
      </trkpt>
      <trkpt lat="46.1767" lon="2.47463">
        <ele>438</ele>
        <time>2016-04-04T13:16:11Z</time>
      </trkpt>
      <trkpt lat="46.17672" lon="2.47468">
        <ele>438</ele>
        <time>2016-04-04T13:16:14Z</time>
      </trkpt>
      <trkpt lat="46.17673" lon="2.47474">
        <ele>438</ele>
        <time>2016-04-04T13:16:17Z</time>
      </trkpt>
      <trkpt lat="46.17675" lon="2.47479">
        <ele>438</ele>
        <time>2016-04-04T13:16:20Z</time>
      </trkpt>
      <trkpt lat="46.17677" lon="2.47484">
        <ele>438</ele>
        <time>2016-04-04T13:16:23Z</time>
      </trkpt>
      <trkpt lat="46.17679" lon="2.4749">
        <ele>438</ele>
        <time>2016-04-04T13:16:26Z</time>
      </trkpt>
      <trkpt lat="46.17681" lon="2.47495">
        <ele>438</ele>
        <time>2016-04-04T13:16:29Z</time>
      </trkpt>
      <trkpt lat="46.17683" lon="2.47501">
        <ele>438</ele>
        <time>2016-04-04T13:16:32Z</time>
      </trkpt>
      <trkpt lat="46.17684" lon="2.47507">
        <ele>438</ele>
        <time>2016-04-04T13:16:35Z</time>
      </trkpt>
      <trkpt lat="46.17685" lon="2.47512">
        <ele>438</ele>
        <time>2016-04-04T13:16:38Z</time>
      </trkpt>
      <trkpt lat="46.17686" lon="2.47517">
        <ele>439</ele>
        <time>2016-04-04T13:16:41Z</time>
      </trkpt>
      <trkpt lat="46.17688" lon="2.47523">
        <ele>439</ele>
        <time>2016-04-04T13:16:44Z</time>
      </trkpt>
      <trkpt lat="46.1769" lon="2.47529">
        <ele>439</ele>
        <time>2016-04-04T13:16:47Z</time>
      </trkpt>
      <trkpt lat="46.17692" lon="2.47535">
        <ele>439</ele>
        <time>2016-04-04T13:16:50Z</time>
      </trkpt>
      <trkpt lat="46.17693" lon="2.4754">
        <ele>440</ele>
        <time>2016-04-04T13:16:53Z</time>
      </trkpt>
      <trkpt lat="46.17695" lon="2.47546">
        <ele>440</ele>
        <time>2016-04-04T13:16:56Z</time>
      </trkpt>
      <trkpt lat="46.17696" lon="2.47551">
        <ele>441</ele>
        <time>2016-04-04T13:16:59Z</time>
      </trkpt>
      <trkpt lat="46.17697" lon="2.47556">
        <ele>441</ele>
        <time>2016-04-04T13:17:02Z</time>
      </trkpt>
      <trkpt lat="46.17699" lon="2.47562">
        <ele>441</ele>
        <time>2016-04-04T13:17:05Z</time>
      </trkpt>
      <trkpt lat="46.177" lon="2.47567">
        <ele>441</ele>
        <time>2016-04-04T13:17:08Z</time>
      </trkpt>
      <trkpt lat="46.17701" lon="2.47573">
        <ele>441</ele>
        <time>2016-04-04T13:17:11Z</time>
      </trkpt>
      <trkpt lat="46.17702" lon="2.47578">
        <ele>442</ele>
        <time>2016-04-04T13:17:14Z</time>
      </trkpt>
      <trkpt lat="46.17703" lon="2.47584">
        <ele>442</ele>
        <time>2016-04-04T13:17:17Z</time>
      </trkpt>
      <trkpt lat="46.17704" lon="2.4759">
        <ele>442</ele>
        <time>2016-04-04T13:17:20Z</time>
      </trkpt>
      <trkpt lat="46.17706" lon="2.47596">
        <ele>442</ele>
        <time>2016-04-04T13:17:23Z</time>
      </trkpt>
      <trkpt lat="46.17707" lon="2.47601">
        <ele>442</ele>
        <time>2016-04-04T13:17:26Z</time>
      </trkpt>
      <trkpt lat="46.17708" lon="2.47607">
        <ele>442</ele>
        <time>2016-04-04T13:17:29Z</time>
      </trkpt>
      <trkpt lat="46.17709" lon="2.47612">
        <ele>442</ele>
        <time>2016-04-04T13:17:32Z</time>
      </trkpt>
      <trkpt lat="46.1771" lon="2.47618">
        <ele>442</ele>
        <time>2016-04-04T13:17:35Z</time>
      </trkpt>
      <trkpt lat="46.17711" lon="2.47623">
        <ele>443</ele>
        <time>2016-04-04T13:17:38Z</time>
      </trkpt>
      <trkpt lat="46.17712" lon="2.47629">
        <ele>443</ele>
        <time>2016-04-04T13:17:41Z</time>
      </trkpt>
      <trkpt lat="46.17713" lon="2.47634">
        <ele>443</ele>
        <time>2016-04-04T13:17:44Z</time>
      </trkpt>
      <trkpt lat="46.17715" lon="2.4764">
        <ele>443</ele>
        <time>2016-04-04T13:17:47Z</time>
      </trkpt>
      <trkpt lat="46.17716" lon="2.47645">
        <ele>444</ele>
        <time>2016-04-04T13:17:50Z</time>
      </trkpt>
      <trkpt lat="46.17717" lon="2.47651">
        <ele>444</ele>
        <time>2016-04-04T13:17:53Z</time>
      </trkpt>
      <trkpt lat="46.17718" lon="2.47657">
        <ele>444</ele>
        <time>2016-04-04T13:17:56Z</time>
      </trkpt>
      <trkpt lat="46.17719" lon="2.47662">
        <ele>444</ele>
        <time>2016-04-04T13:17:59Z</time>
      </trkpt>
      <trkpt lat="46.1772" lon="2.47668">
        <ele>445</ele>
        <time>2016-04-04T13:18:02Z</time>
      </trkpt>
      <trkpt lat="46.17721" lon="2.47674">
        <ele>445</ele>
        <time>2016-04-04T13:18:05Z</time>
      </trkpt>
      <trkpt lat="46.17722" lon="2.47679">
        <ele>445</ele>
        <time>2016-04-04T13:18:08Z</time>
      </trkpt>
      <trkpt lat="46.17723" lon="2.47685">
        <ele>446</ele>
        <time>2016-04-04T13:18:11Z</time>
      </trkpt>
      <trkpt lat="46.17724" lon="2.47691">
        <ele>446</ele>
        <time>2016-04-04T13:18:14Z</time>
      </trkpt>
      <trkpt lat="46.17725" lon="2.47696">
        <ele>446</ele>
        <time>2016-04-04T13:18:17Z</time>
      </trkpt>
      <trkpt lat="46.17726" lon="2.47702">
        <ele>446</ele>
        <time>2016-04-04T13:18:20Z</time>
      </trkpt>
      <trkpt lat="46.17727" lon="2.47707">
        <ele>446</ele>
        <time>2016-04-04T13:18:23Z</time>
      </trkpt>
      <trkpt lat="46.17727" lon="2.47713">
        <ele>446</ele>
        <time>2016-04-04T13:18:26Z</time>
      </trkpt>
      <trkpt lat="46.17728" lon="2.47719">
        <ele>446</ele>
        <time>2016-04-04T13:18:29Z</time>
      </trkpt>
      <trkpt lat="46.17729" lon="2.47725">
        <ele>446</ele>
        <time>2016-04-04T13:18:32Z</time>
      </trkpt>
      <trkpt lat="46.1773" lon="2.47731">
        <ele>446</ele>
        <time>2016-04-04T13:18:35Z</time>
      </trkpt>
      <trkpt lat="46.17731" lon="2.47737">
        <ele>446</ele>
        <time>2016-04-04T13:18:38Z</time>
      </trkpt>
      <trkpt lat="46.17731" lon="2.47743">
        <ele>446</ele>
        <time>2016-04-04T13:18:41Z</time>
      </trkpt>
      <trkpt lat="46.17732" lon="2.47749">
        <ele>446</ele>
        <time>2016-04-04T13:18:44Z</time>
      </trkpt>
      <trkpt lat="46.17733" lon="2.47755">
        <ele>446</ele>
        <time>2016-04-04T13:18:47Z</time>
      </trkpt>
      <trkpt lat="46.17733" lon="2.47761">
        <ele>446</ele>
        <time>2016-04-04T13:18:50Z</time>
      </trkpt>
      <trkpt lat="46.17734" lon="2.47767">
        <ele>446</ele>
        <time>2016-04-04T13:18:53Z</time>
      </trkpt>
      <trkpt lat="46.17735" lon="2.47773">
        <ele>446</ele>
        <time>2016-04-04T13:18:56Z</time>
      </trkpt>
      <trkpt lat="46.17735" lon="2.47779">
        <ele>446</ele>
        <time>2016-04-04T13:18:59Z</time>
      </trkpt>
      <trkpt lat="46.17736" lon="2.47785">
        <ele>446</ele>
        <time>2016-04-04T13:19:02Z</time>
      </trkpt>
      <trkpt lat="46.17736" lon="2.47791">
        <ele>446</ele>
        <time>2016-04-04T13:19:05Z</time>
      </trkpt>
      <trkpt lat="46.17737" lon="2.47797">
        <ele>446</ele>
        <time>2016-04-04T13:19:08Z</time>
      </trkpt>
      <trkpt lat="46.17737" lon="2.47803">
        <ele>446</ele>
        <time>2016-04-04T13:19:11Z</time>
      </trkpt>
      <trkpt lat="46.17738" lon="2.47809">
        <ele>446</ele>
        <time>2016-04-04T13:19:14Z</time>
      </trkpt>
      <trkpt lat="46.17738" lon="2.47814">
        <ele>446</ele>
        <time>2016-04-04T13:19:17Z</time>
      </trkpt>
      <trkpt lat="46.17738" lon="2.4782">
        <ele>446</ele>
        <time>2016-04-04T13:19:20Z</time>
      </trkpt>
      <trkpt lat="46.17738" lon="2.47826">
        <ele>446</ele>
        <time>2016-04-04T13:19:23Z</time>
      </trkpt>
      <trkpt lat="46.17738" lon="2.47832">
        <ele>446</ele>
        <time>2016-04-04T13:19:26Z</time>
      </trkpt>
      <trkpt lat="46.17737" lon="2.47838">
        <ele>446</ele>
        <time>2016-04-04T13:19:29Z</time>
      </trkpt>
      <trkpt lat="46.17736" lon="2.47844">
        <ele>446</ele>
        <time>2016-04-04T13:19:32Z</time>
      </trkpt>
      <trkpt lat="46.17735" lon="2.4785">
        <ele>446</ele>
        <time>2016-04-04T13:19:35Z</time>
      </trkpt>
      <trkpt lat="46.17734" lon="2.47855">
        <ele>446</ele>
        <time>2016-04-04T13:19:38Z</time>
      </trkpt>
      <trkpt lat="46.17732" lon="2.4786">
        <ele>446</ele>
        <time>2016-04-04T13:19:41Z</time>
      </trkpt>
      <trkpt lat="46.17731" lon="2.47865">
        <ele>446</ele>
        <time>2016-04-04T13:19:44Z</time>
      </trkpt>
      <trkpt lat="46.1773" lon="2.4787">
        <ele>447</ele>
        <time>2016-04-04T13:19:47Z</time>
      </trkpt>
      <trkpt lat="46.17728" lon="2.47875">
        <ele>447</ele>
        <time>2016-04-04T13:19:50Z</time>
      </trkpt>
      <trkpt lat="46.17727" lon="2.4788">
        <ele>447</ele>
        <time>2016-04-04T13:19:53Z</time>
      </trkpt>
      <trkpt lat="46.17726" lon="2.47884">
        <ele>447</ele>
        <time>2016-04-04T13:19:56Z</time>
      </trkpt>
      <trkpt lat="46.17724" lon="2.47889">
        <ele>447</ele>
        <time>2016-04-04T13:20:00Z</time>
      </trkpt>
      <trkpt lat="46.17722" lon="2.47893">
        <ele>448</ele>
        <time>2016-04-04T13:20:03Z</time>
      </trkpt>
      <trkpt lat="46.17719" lon="2.47898">
        <ele>448</ele>
        <time>2016-04-04T13:20:07Z</time>
      </trkpt>
      <trkpt lat="46.17715" lon="2.47901">
        <ele>448</ele>
        <time>2016-04-04T13:20:11Z</time>
      </trkpt>
      <trkpt lat="46.17711" lon="2.47904">
        <ele>449</ele>
        <time>2016-04-04T13:20:15Z</time>
      </trkpt>
      <trkpt lat="46.17707" lon="2.47904">
        <ele>449</ele>
        <time>2016-04-04T13:20:18Z</time>
      </trkpt>
      <trkpt lat="46.17704" lon="2.47903">
        <ele>449</ele>
        <time>2016-04-04T13:20:21Z</time>
      </trkpt>
      <trkpt lat="46.177" lon="2.47903">
        <ele>449</ele>
        <time>2016-04-04T13:20:24Z</time>
      </trkpt>
      <trkpt lat="46.17696" lon="2.47902">
        <ele>449</ele>
        <time>2016-04-04T13:20:27Z</time>
      </trkpt>
      <trkpt lat="46.17693" lon="2.47902">
        <ele>449</ele>
        <time>2016-04-04T13:20:30Z</time>
      </trkpt>
      <trkpt lat="46.17689" lon="2.47901">
        <ele>450</ele>
        <time>2016-04-04T13:20:33Z</time>
      </trkpt>
      <trkpt lat="46.17686" lon="2.47901">
        <ele>450</ele>
        <time>2016-04-04T13:20:36Z</time>
      </trkpt>
      <trkpt lat="46.17682" lon="2.479">
        <ele>450</ele>
        <time>2016-04-04T13:20:39Z</time>
      </trkpt>
      <trkpt lat="46.17678" lon="2.479">
        <ele>450</ele>
        <time>2016-04-04T13:20:42Z</time>
      </trkpt>
      <trkpt lat="46.17675" lon="2.47899">
        <ele>450</ele>
        <time>2016-04-04T13:20:45Z</time>
      </trkpt>
      <trkpt lat="46.17671" lon="2.47898">
        <ele>450</ele>
        <time>2016-04-04T13:20:48Z</time>
      </trkpt>
      <trkpt lat="46.17668" lon="2.47898">
        <ele>450</ele>
        <time>2016-04-04T13:20:51Z</time>
      </trkpt>
      <trkpt lat="46.17664" lon="2.47897">
        <ele>450</ele>
        <time>2016-04-04T13:20:54Z</time>
      </trkpt>
      <trkpt lat="46.17661" lon="2.47896">
        <ele>451</ele>
        <time>2016-04-04T13:20:57Z</time>
      </trkpt>
      <trkpt lat="46.17657" lon="2.47896">
        <ele>451</ele>
        <time>2016-04-04T13:21:00Z</time>
      </trkpt>
      <trkpt lat="46.17653" lon="2.47895">
        <ele>451</ele>
        <time>2016-04-04T13:21:03Z</time>
      </trkpt>
      <trkpt lat="46.1765" lon="2.47894">
        <ele>451</ele>
        <time>2016-04-04T13:21:06Z</time>
      </trkpt>
      <trkpt lat="46.17646" lon="2.47894">
        <ele>451</ele>
        <time>2016-04-04T13:21:09Z</time>
      </trkpt>
      <trkpt lat="46.17643" lon="2.47893">
        <ele>451</ele>
        <time>2016-04-04T13:21:12Z</time>
      </trkpt>
      <trkpt lat="46.17639" lon="2.47892">
        <ele>451</ele>
        <time>2016-04-04T13:21:15Z</time>
      </trkpt>
      <trkpt lat="46.17635" lon="2.47891">
        <ele>451</ele>
        <time>2016-04-04T13:21:19Z</time>
      </trkpt>
      <trkpt lat="46.17631" lon="2.4789">
        <ele>451</ele>
        <time>2016-04-04T13:21:22Z</time>
      </trkpt>
      <trkpt lat="46.17627" lon="2.47889">
        <ele>451</ele>
        <time>2016-04-04T13:21:25Z</time>
      </trkpt>
      <trkpt lat="46.17624" lon="2.47889">
        <ele>451</ele>
        <time>2016-04-04T13:21:28Z</time>
      </trkpt>
      <trkpt lat="46.17621" lon="2.47887">
        <ele>451</ele>
        <time>2016-04-04T13:21:31Z</time>
      </trkpt>
      <trkpt lat="46.17616" lon="2.47884">
        <ele>451</ele>
        <time>2016-04-04T13:21:35Z</time>
      </trkpt>
      <trkpt lat="46.17613" lon="2.47882">
        <ele>451</ele>
        <time>2016-04-04T13:21:38Z</time>
      </trkpt>
      <trkpt lat="46.17609" lon="2.47878">
        <ele>451</ele>
        <time>2016-04-04T13:21:42Z</time>
      </trkpt>
      <trkpt lat="46.17605" lon="2.47874">
        <ele>452</ele>
        <time>2016-04-04T13:21:46Z</time>
      </trkpt>
      <trkpt lat="46.17601" lon="2.47869">
        <ele>452</ele>
        <time>2016-04-04T13:21:50Z</time>
      </trkpt>
      <trkpt lat="46.17597" lon="2.47864">
        <ele>452</ele>
        <time>2016-04-04T13:21:54Z</time>
      </trkpt>
      <trkpt lat="46.17594" lon="2.47859">
        <ele>452</ele>
        <time>2016-04-04T13:21:57Z</time>
      </trkpt>
      <trkpt lat="46.17591" lon="2.47855">
        <ele>452</ele>
        <time>2016-04-04T13:22:00Z</time>
      </trkpt>
      <trkpt lat="46.17587" lon="2.4785">
        <ele>452</ele>
        <time>2016-04-04T13:22:04Z</time>
      </trkpt>
      <trkpt lat="46.17583" lon="2.47847">
        <ele>452</ele>
        <time>2016-04-04T13:22:07Z</time>
      </trkpt>
      <trkpt lat="46.1758" lon="2.47843">
        <ele>452</ele>
        <time>2016-04-04T13:22:10Z</time>
      </trkpt>
      <trkpt lat="46.17576" lon="2.4784">
        <ele>452</ele>
        <time>2016-04-04T13:22:13Z</time>
      </trkpt>
      <trkpt lat="46.17572" lon="2.47838">
        <ele>452</ele>
        <time>2016-04-04T13:22:16Z</time>
      </trkpt>
      <trkpt lat="46.17568" lon="2.47836">
        <ele>452</ele>
        <time>2016-04-04T13:22:19Z</time>
      </trkpt>
      <trkpt lat="46.17564" lon="2.47834">
        <ele>452</ele>
        <time>2016-04-04T13:22:22Z</time>
      </trkpt>
      <trkpt lat="46.1756" lon="2.47833">
        <ele>452</ele>
        <time>2016-04-04T13:22:25Z</time>
      </trkpt>
      <trkpt lat="46.17554" lon="2.47831">
        <ele>452</ele>
        <time>2016-04-04T13:22:29Z</time>
      </trkpt>
      <trkpt lat="46.1755" lon="2.4783">
        <ele>452</ele>
        <time>2016-04-04T13:22:32Z</time>
      </trkpt>
      <trkpt lat="46.17546" lon="2.47829">
        <ele>452</ele>
        <time>2016-04-04T13:22:35Z</time>
      </trkpt>
      <trkpt lat="46.17542" lon="2.47828">
        <ele>452</ele>
        <time>2016-04-04T13:22:38Z</time>
      </trkpt>
      <trkpt lat="46.17538" lon="2.47827">
        <ele>452</ele>
        <time>2016-04-04T13:22:41Z</time>
      </trkpt>
      <trkpt lat="46.17533" lon="2.47826">
        <ele>452</ele>
        <time>2016-04-04T13:22:44Z</time>
      </trkpt>
      <trkpt lat="46.17529" lon="2.47826">
        <ele>453</ele>
        <time>2016-04-04T13:22:47Z</time>
      </trkpt>
      <trkpt lat="46.17525" lon="2.47825">
        <ele>453</ele>
        <time>2016-04-04T13:22:50Z</time>
      </trkpt>
      <trkpt lat="46.17521" lon="2.47825">
        <ele>453</ele>
        <time>2016-04-04T13:22:53Z</time>
      </trkpt>
      <trkpt lat="46.17516" lon="2.47826">
        <ele>453</ele>
        <time>2016-04-04T13:22:56Z</time>
      </trkpt>
      <trkpt lat="46.17512" lon="2.47828">
        <ele>453</ele>
        <time>2016-04-04T13:22:59Z</time>
      </trkpt>
      <trkpt lat="46.17508" lon="2.47829">
        <ele>453</ele>
        <time>2016-04-04T13:23:02Z</time>
      </trkpt>
      <trkpt lat="46.17505" lon="2.47831">
        <ele>453</ele>
        <time>2016-04-04T13:23:05Z</time>
      </trkpt>
      <trkpt lat="46.175" lon="2.47832">
        <ele>453</ele>
        <time>2016-04-04T13:23:09Z</time>
      </trkpt>
      <trkpt lat="46.17495" lon="2.47833">
        <ele>453</ele>
        <time>2016-04-04T13:23:13Z</time>
      </trkpt>
      <trkpt lat="46.17493" lon="2.47834">
        <ele>453</ele>
        <time>2016-04-04T13:23:16Z</time>
      </trkpt>
      <trkpt lat="46.17489" lon="2.47834">
        <ele>453</ele>
        <time>2016-04-04T13:23:19Z</time>
      </trkpt>
      <trkpt lat="46.17485" lon="2.47835">
        <ele>453</ele>
        <time>2016-04-04T13:23:22Z</time>
      </trkpt>
      <trkpt lat="46.1748" lon="2.47834">
        <ele>453</ele>
        <time>2016-04-04T13:23:25Z</time>
      </trkpt>
      <trkpt lat="46.17476" lon="2.47836">
        <ele>454</ele>
        <time>2016-04-04T13:23:28Z</time>
      </trkpt>
      <trkpt lat="46.17471" lon="2.47839">
        <ele>454</ele>
        <time>2016-04-04T13:23:31Z</time>
      </trkpt>
      <trkpt lat="46.17467" lon="2.47842">
        <ele>454</ele>
        <time>2016-04-04T13:23:34Z</time>
      </trkpt>
      <trkpt lat="46.17463" lon="2.47845">
        <ele>454</ele>
        <time>2016-04-04T13:23:37Z</time>
      </trkpt>
      <trkpt lat="46.1746" lon="2.47849">
        <ele>454</ele>
        <time>2016-04-04T13:23:40Z</time>
      </trkpt>
      <trkpt lat="46.17456" lon="2.47854">
        <ele>454</ele>
        <time>2016-04-04T13:23:43Z</time>
      </trkpt>
      <trkpt lat="46.17452" lon="2.47859">
        <ele>454</ele>
        <time>2016-04-04T13:23:46Z</time>
      </trkpt>
      <trkpt lat="46.17449" lon="2.47865">
        <ele>454</ele>
        <time>2016-04-04T13:23:49Z</time>
      </trkpt>
      <trkpt lat="46.17446" lon="2.4787">
        <ele>454</ele>
        <time>2016-04-04T13:23:52Z</time>
      </trkpt>
      <trkpt lat="46.17443" lon="2.47875">
        <ele>454</ele>
        <time>2016-04-04T13:23:55Z</time>
      </trkpt>
      <trkpt lat="46.1744" lon="2.47881">
        <ele>454</ele>
        <time>2016-04-04T13:23:58Z</time>
      </trkpt>
      <trkpt lat="46.17437" lon="2.47886">
        <ele>454</ele>
        <time>2016-04-04T13:24:01Z</time>
      </trkpt>
      <trkpt lat="46.17434" lon="2.47892">
        <ele>454</ele>
        <time>2016-04-04T13:24:04Z</time>
      </trkpt>
      <trkpt lat="46.17431" lon="2.47897">
        <ele>454</ele>
        <time>2016-04-04T13:24:07Z</time>
      </trkpt>
      <trkpt lat="46.17428" lon="2.47902">
        <ele>455</ele>
        <time>2016-04-04T13:24:10Z</time>
      </trkpt>
      <trkpt lat="46.17426" lon="2.47906">
        <ele>455</ele>
        <time>2016-04-04T13:24:13Z</time>
      </trkpt>
      <trkpt lat="46.17423" lon="2.47912">
        <ele>456</ele>
        <time>2016-04-04T13:24:16Z</time>
      </trkpt>
      <trkpt lat="46.17421" lon="2.47918">
        <ele>456</ele>
        <time>2016-04-04T13:24:19Z</time>
      </trkpt>
      <trkpt lat="46.1742" lon="2.47923">
        <ele>457</ele>
        <time>2016-04-04T13:24:22Z</time>
      </trkpt>
      <trkpt lat="46.17418" lon="2.47929">
        <ele>457</ele>
        <time>2016-04-04T13:24:25Z</time>
      </trkpt>
      <trkpt lat="46.17416" lon="2.47934">
        <ele>457</ele>
        <time>2016-04-04T13:24:28Z</time>
      </trkpt>
      <trkpt lat="46.17414" lon="2.47939">
        <ele>458</ele>
        <time>2016-04-04T13:24:31Z</time>
      </trkpt>
      <trkpt lat="46.17411" lon="2.47944">
        <ele>458</ele>
        <time>2016-04-04T13:24:34Z</time>
      </trkpt>
      <trkpt lat="46.17409" lon="2.47949">
        <ele>459</ele>
        <time>2016-04-04T13:24:37Z</time>
      </trkpt>
      <trkpt lat="46.17406" lon="2.47953">
        <ele>459</ele>
        <time>2016-04-04T13:24:40Z</time>
      </trkpt>
      <trkpt lat="46.17403" lon="2.47958">
        <ele>460</ele>
        <time>2016-04-04T13:24:43Z</time>
      </trkpt>
      <trkpt lat="46.17401" lon="2.47963">
        <ele>460</ele>
        <time>2016-04-04T13:24:46Z</time>
      </trkpt>
      <trkpt lat="46.17398" lon="2.47968">
        <ele>461</ele>
        <time>2016-04-04T13:24:49Z</time>
      </trkpt>
      <trkpt lat="46.17397" lon="2.47973">
        <ele>461</ele>
        <time>2016-04-04T13:24:52Z</time>
      </trkpt>
      <trkpt lat="46.17396" lon="2.47979">
        <ele>461</ele>
        <time>2016-04-04T13:24:55Z</time>
      </trkpt>
      <trkpt lat="46.17396" lon="2.47985">
        <ele>461</ele>
        <time>2016-04-04T13:24:58Z</time>
      </trkpt>
      <trkpt lat="46.17396" lon="2.47991">
        <ele>461</ele>
        <time>2016-04-04T13:25:01Z</time>
      </trkpt>
      <trkpt lat="46.17395" lon="2.47997">
        <ele>461</ele>
        <time>2016-04-04T13:25:04Z</time>
      </trkpt>
      <trkpt lat="46.17395" lon="2.48002">
        <ele>461</ele>
        <time>2016-04-04T13:25:07Z</time>
      </trkpt>
      <trkpt lat="46.17395" lon="2.48008">
        <ele>461</ele>
        <time>2016-04-04T13:25:10Z</time>
      </trkpt>
      <trkpt lat="46.17396" lon="2.48015">
        <ele>461</ele>
        <time>2016-04-04T13:25:13Z</time>
      </trkpt>
      <trkpt lat="46.17396" lon="2.4802">
        <ele>461</ele>
        <time>2016-04-04T13:25:16Z</time>
      </trkpt>
      <trkpt lat="46.17397" lon="2.48026">
        <ele>461</ele>
        <time>2016-04-04T13:25:19Z</time>
      </trkpt>
      <trkpt lat="46.17398" lon="2.48033">
        <ele>461</ele>
        <time>2016-04-04T13:25:22Z</time>
      </trkpt>
      <trkpt lat="46.174" lon="2.48039">
        <ele>461</ele>
        <time>2016-04-04T13:25:25Z</time>
      </trkpt>
      <trkpt lat="46.174" lon="2.48045">
        <ele>461</ele>
        <time>2016-04-04T13:25:28Z</time>
      </trkpt>
      <trkpt lat="46.17401" lon="2.48052">
        <ele>461</ele>
        <time>2016-04-04T13:25:31Z</time>
      </trkpt>
      <trkpt lat="46.17403" lon="2.48058">
        <ele>461</ele>
        <time>2016-04-04T13:25:34Z</time>
      </trkpt>
      <trkpt lat="46.17404" lon="2.48064">
        <ele>461</ele>
        <time>2016-04-04T13:25:37Z</time>
      </trkpt>
      <trkpt lat="46.17405" lon="2.4807">
        <ele>461</ele>
        <time>2016-04-04T13:25:40Z</time>
      </trkpt>
      <trkpt lat="46.17407" lon="2.48076">
        <ele>461</ele>
        <time>2016-04-04T13:25:43Z</time>
      </trkpt>
      <trkpt lat="46.17408" lon="2.48082">
        <ele>461</ele>
        <time>2016-04-04T13:25:46Z</time>
      </trkpt>
      <trkpt lat="46.17408" lon="2.48089">
        <ele>461</ele>
        <time>2016-04-04T13:25:49Z</time>
      </trkpt>
      <trkpt lat="46.17409" lon="2.48095">
        <ele>461</ele>
        <time>2016-04-04T13:25:52Z</time>
      </trkpt>
      <trkpt lat="46.1741" lon="2.48101">
        <ele>461</ele>
        <time>2016-04-04T13:25:55Z</time>
      </trkpt>
      <trkpt lat="46.17411" lon="2.48108">
        <ele>461</ele>
        <time>2016-04-04T13:25:58Z</time>
      </trkpt>
      <trkpt lat="46.17411" lon="2.48114">
        <ele>461</ele>
        <time>2016-04-04T13:26:01Z</time>
      </trkpt>
      <trkpt lat="46.17412" lon="2.4812">
        <ele>461</ele>
        <time>2016-04-04T13:26:04Z</time>
      </trkpt>
      <trkpt lat="46.17412" lon="2.48127">
        <ele>461</ele>
        <time>2016-04-04T13:26:07Z</time>
      </trkpt>
      <trkpt lat="46.17413" lon="2.48133">
        <ele>461</ele>
        <time>2016-04-04T13:26:10Z</time>
      </trkpt>
      <trkpt lat="46.17413" lon="2.4814">
        <ele>461</ele>
        <time>2016-04-04T13:26:13Z</time>
      </trkpt>
      <trkpt lat="46.17413" lon="2.48146">
        <ele>461</ele>
        <time>2016-04-04T13:26:16Z</time>
      </trkpt>
      <trkpt lat="46.17413" lon="2.48153">
        <ele>461</ele>
        <time>2016-04-04T13:26:19Z</time>
      </trkpt>
      <trkpt lat="46.17414" lon="2.4816">
        <ele>461</ele>
        <time>2016-04-04T13:26:22Z</time>
      </trkpt>
      <trkpt lat="46.17414" lon="2.48166">
        <ele>461</ele>
        <time>2016-04-04T13:26:25Z</time>
      </trkpt>
      <trkpt lat="46.17414" lon="2.48173">
        <ele>461</ele>
        <time>2016-04-04T13:26:28Z</time>
      </trkpt>
      <trkpt lat="46.17414" lon="2.4818">
        <ele>461</ele>
        <time>2016-04-04T13:26:31Z</time>
      </trkpt>
      <trkpt lat="46.17414" lon="2.48186">
        <ele>461</ele>
        <time>2016-04-04T13:26:34Z</time>
      </trkpt>
      <trkpt lat="46.17415" lon="2.48193">
        <ele>461</ele>
        <time>2016-04-04T13:26:37Z</time>
      </trkpt>
      <trkpt lat="46.17416" lon="2.48199">
        <ele>461</ele>
        <time>2016-04-04T13:26:40Z</time>
      </trkpt>
      <trkpt lat="46.17417" lon="2.48205">
        <ele>461</ele>
        <time>2016-04-04T13:26:43Z</time>
      </trkpt>
      <trkpt lat="46.17417" lon="2.48212">
        <ele>461</ele>
        <time>2016-04-04T13:26:46Z</time>
      </trkpt>
      <trkpt lat="46.17417" lon="2.48219">
        <ele>461</ele>
        <time>2016-04-04T13:26:49Z</time>
      </trkpt>
      <trkpt lat="46.17418" lon="2.48225">
        <ele>461</ele>
        <time>2016-04-04T13:26:52Z</time>
      </trkpt>
      <trkpt lat="46.17421" lon="2.48232">
        <ele>461</ele>
        <time>2016-04-04T13:26:55Z</time>
      </trkpt>
      <trkpt lat="46.17422" lon="2.48238">
        <ele>461</ele>
        <time>2016-04-04T13:26:58Z</time>
      </trkpt>
      <trkpt lat="46.17422" lon="2.48245">
        <ele>461</ele>
        <time>2016-04-04T13:27:01Z</time>
      </trkpt>
      <trkpt lat="46.17424" lon="2.48251">
        <ele>461</ele>
        <time>2016-04-04T13:27:04Z</time>
      </trkpt>
      <trkpt lat="46.17423" lon="2.48258">
        <ele>461</ele>
        <time>2016-04-04T13:27:07Z</time>
      </trkpt>
      <trkpt lat="46.17424" lon="2.48266">
        <ele>461</ele>
        <time>2016-04-04T13:27:10Z</time>
      </trkpt>
      <trkpt lat="46.17424" lon="2.48273">
        <ele>461</ele>
        <time>2016-04-04T13:27:13Z</time>
      </trkpt>
      <trkpt lat="46.17427" lon="2.48279">
        <ele>461</ele>
        <time>2016-04-04T13:27:16Z</time>
      </trkpt>
      <trkpt lat="46.17429" lon="2.48285">
        <ele>461</ele>
        <time>2016-04-04T13:27:19Z</time>
      </trkpt>
      <trkpt lat="46.1743" lon="2.48291">
        <ele>461</ele>
        <time>2016-04-04T13:27:22Z</time>
      </trkpt>
      <trkpt lat="46.1743" lon="2.48297">
        <ele>461</ele>
        <time>2016-04-04T13:27:25Z</time>
      </trkpt>
      <trkpt lat="46.17431" lon="2.48303">
        <ele>461</ele>
        <time>2016-04-04T13:27:28Z</time>
      </trkpt>
      <trkpt lat="46.17433" lon="2.48309">
        <ele>461</ele>
        <time>2016-04-04T13:27:31Z</time>
      </trkpt>
      <trkpt lat="46.17435" lon="2.48316">
        <ele>461</ele>
        <time>2016-04-04T13:27:35Z</time>
      </trkpt>
      <trkpt lat="46.17436" lon="2.48323">
        <ele>461</ele>
        <time>2016-04-04T13:27:38Z</time>
      </trkpt>
      <trkpt lat="46.17436" lon="2.4833">
        <ele>461</ele>
        <time>2016-04-04T13:27:41Z</time>
      </trkpt>
      <trkpt lat="46.17436" lon="2.48337">
        <ele>461</ele>
        <time>2016-04-04T13:27:44Z</time>
      </trkpt>
      <trkpt lat="46.17437" lon="2.48343">
        <ele>461</ele>
        <time>2016-04-04T13:27:47Z</time>
      </trkpt>
      <trkpt lat="46.17439" lon="2.4835">
        <ele>461</ele>
        <time>2016-04-04T13:27:50Z</time>
      </trkpt>
      <trkpt lat="46.17442" lon="2.48356">
        <ele>461</ele>
        <time>2016-04-04T13:27:53Z</time>
      </trkpt>
      <trkpt lat="46.17444" lon="2.48362">
        <ele>461</ele>
        <time>2016-04-04T13:27:56Z</time>
      </trkpt>
      <trkpt lat="46.17445" lon="2.48369">
        <ele>461</ele>
        <time>2016-04-04T13:27:59Z</time>
      </trkpt>
      <trkpt lat="46.17446" lon="2.48376">
        <ele>461</ele>
        <time>2016-04-04T13:28:02Z</time>
      </trkpt>
      <trkpt lat="46.17447" lon="2.48383">
        <ele>461</ele>
        <time>2016-04-04T13:28:05Z</time>
      </trkpt>
      <trkpt lat="46.1745" lon="2.48388">
        <ele>461</ele>
        <time>2016-04-04T13:28:08Z</time>
      </trkpt>
      <trkpt lat="46.1745" lon="2.48396">
        <ele>461</ele>
        <time>2016-04-04T13:28:11Z</time>
      </trkpt>
      <trkpt lat="46.17449" lon="2.48403">
        <ele>461</ele>
        <time>2016-04-04T13:28:14Z</time>
      </trkpt>
      <trkpt lat="46.17448" lon="2.4841">
        <ele>461</ele>
        <time>2016-04-04T13:28:17Z</time>
      </trkpt>
      <trkpt lat="46.1745" lon="2.48416">
        <ele>461</ele>
        <time>2016-04-04T13:28:20Z</time>
      </trkpt>
      <trkpt lat="46.17454" lon="2.48421">
        <ele>461</ele>
        <time>2016-04-04T13:28:23Z</time>
      </trkpt>
      <trkpt lat="46.17454" lon="2.48428">
        <ele>462</ele>
        <time>2016-04-04T13:28:26Z</time>
      </trkpt>
      <trkpt lat="46.17455" lon="2.48434">
        <ele>462</ele>
        <time>2016-04-04T13:28:29Z</time>
      </trkpt>
      <trkpt lat="46.17455" lon="2.4844">
        <ele>462</ele>
        <time>2016-04-04T13:28:32Z</time>
      </trkpt>
      <trkpt lat="46.17455" lon="2.48446">
        <ele>462</ele>
        <time>2016-04-04T13:28:35Z</time>
      </trkpt>
      <trkpt lat="46.17459" lon="2.4845">
        <ele>462</ele>
        <time>2016-04-04T13:28:38Z</time>
      </trkpt>
      <trkpt lat="46.17457" lon="2.48458">
        <ele>463</ele>
        <time>2016-04-04T13:28:41Z</time>
      </trkpt>
      <trkpt lat="46.17456" lon="2.48464">
        <ele>464</ele>
        <time>2016-04-04T13:28:45Z</time>
      </trkpt>
      <trkpt lat="46.17453" lon="2.4847">
        <ele>464</ele>
        <time>2016-04-04T13:28:48Z</time>
      </trkpt>
      <trkpt lat="46.1745" lon="2.48476">
        <ele>464</ele>
        <time>2016-04-04T13:28:51Z</time>
      </trkpt>
      <trkpt lat="46.17446" lon="2.48481">
        <ele>464</ele>
        <time>2016-04-04T13:28:54Z</time>
      </trkpt>
      <trkpt lat="46.17444" lon="2.48487">
        <ele>464</ele>
        <time>2016-04-04T13:28:57Z</time>
      </trkpt>
      <trkpt lat="46.17442" lon="2.48493">
        <ele>464</ele>
        <time>2016-04-04T13:29:00Z</time>
      </trkpt>
      <trkpt lat="46.1744" lon="2.48499">
        <ele>464</ele>
        <time>2016-04-04T13:29:03Z</time>
      </trkpt>
      <trkpt lat="46.17438" lon="2.48505">
        <ele>464</ele>
        <time>2016-04-04T13:29:06Z</time>
      </trkpt>
      <trkpt lat="46.17435" lon="2.48512">
        <ele>464</ele>
        <time>2016-04-04T13:29:09Z</time>
      </trkpt>
      <trkpt lat="46.17433" lon="2.48518">
        <ele>464</ele>
        <time>2016-04-04T13:29:12Z</time>
      </trkpt>
      <trkpt lat="46.1743" lon="2.48523">
        <ele>464</ele>
        <time>2016-04-04T13:29:15Z</time>
      </trkpt>
      <trkpt lat="46.17426" lon="2.4853">
        <ele>464</ele>
        <time>2016-04-04T13:29:18Z</time>
      </trkpt>
      <trkpt lat="46.17424" lon="2.48536">
        <ele>463</ele>
        <time>2016-04-04T13:29:21Z</time>
      </trkpt>
      <trkpt lat="46.17422" lon="2.48542">
        <ele>463</ele>
        <time>2016-04-04T13:29:24Z</time>
      </trkpt>
      <trkpt lat="46.17422" lon="2.48549">
        <ele>463</ele>
        <time>2016-04-04T13:29:27Z</time>
      </trkpt>
      <trkpt lat="46.17424" lon="2.48555">
        <ele>463</ele>
        <time>2016-04-04T13:29:30Z</time>
      </trkpt>
      <trkpt lat="46.17424" lon="2.48561">
        <ele>463</ele>
        <time>2016-04-04T13:29:33Z</time>
      </trkpt>
      <trkpt lat="46.17422" lon="2.48569">
        <ele>463</ele>
        <time>2016-04-04T13:29:36Z</time>
      </trkpt>
      <trkpt lat="46.17421" lon="2.48576">
        <ele>463</ele>
        <time>2016-04-04T13:29:39Z</time>
      </trkpt>
      <trkpt lat="46.17421" lon="2.48585">
        <ele>463</ele>
        <time>2016-04-04T13:29:42Z</time>
      </trkpt>
      <trkpt lat="46.1742" lon="2.4859">
        <ele>463</ele>
        <time>2016-04-04T13:29:45Z</time>
      </trkpt>
      <trkpt lat="46.1742" lon="2.48597">
        <ele>463</ele>
        <time>2016-04-04T13:29:48Z</time>
      </trkpt>
      <trkpt lat="46.17421" lon="2.48604">
        <ele>463</ele>
        <time>2016-04-04T13:29:51Z</time>
      </trkpt>
      <trkpt lat="46.17419" lon="2.48609">
        <ele>463</ele>
        <time>2016-04-04T13:29:54Z</time>
      </trkpt>
      <trkpt lat="46.17419" lon="2.48615">
        <ele>463</ele>
        <time>2016-04-04T13:29:57Z</time>
      </trkpt>
      <trkpt lat="46.17419" lon="2.48622">
        <ele>463</ele>
        <time>2016-04-04T13:30:00Z</time>
      </trkpt>
      <trkpt lat="46.17419" lon="2.48628">
        <ele>463</ele>
        <time>2016-04-04T13:30:03Z</time>
      </trkpt>
      <trkpt lat="46.1742" lon="2.48633">
        <ele>463</ele>
        <time>2016-04-04T13:30:06Z</time>
      </trkpt>
      <trkpt lat="46.17419" lon="2.48639">
        <ele>463</ele>
        <time>2016-04-04T13:30:09Z</time>
      </trkpt>
      <trkpt lat="46.17418" lon="2.48646">
        <ele>463</ele>
        <time>2016-04-04T13:30:12Z</time>
      </trkpt>
      <trkpt lat="46.17417" lon="2.48651">
        <ele>463</ele>
        <time>2016-04-04T13:30:15Z</time>
      </trkpt>
      <trkpt lat="46.17418" lon="2.48658">
        <ele>463</ele>
        <time>2016-04-04T13:30:18Z</time>
      </trkpt>
      <trkpt lat="46.17419" lon="2.48666">
        <ele>463</ele>
        <time>2016-04-04T13:30:21Z</time>
      </trkpt>
      <trkpt lat="46.17421" lon="2.48672">
        <ele>463</ele>
        <time>2016-04-04T13:30:24Z</time>
      </trkpt>
      <trkpt lat="46.17421" lon="2.48679">
        <ele>463</ele>
        <time>2016-04-04T13:30:27Z</time>
      </trkpt>
      <trkpt lat="46.17422" lon="2.48685">
        <ele>463</ele>
        <time>2016-04-04T13:30:30Z</time>
      </trkpt>
      <trkpt lat="46.17421" lon="2.48692">
        <ele>463</ele>
        <time>2016-04-04T13:30:33Z</time>
      </trkpt>
      <trkpt lat="46.17422" lon="2.48697">
        <ele>463</ele>
        <time>2016-04-04T13:30:36Z</time>
      </trkpt>
      <trkpt lat="46.17419" lon="2.48705">
        <ele>462</ele>
        <time>2016-04-04T13:30:39Z</time>
      </trkpt>
      <trkpt lat="46.17416" lon="2.48712">
        <ele>461</ele>
        <time>2016-04-04T13:30:42Z</time>
      </trkpt>
      <trkpt lat="46.17412" lon="2.48717">
        <ele>461</ele>
        <time>2016-04-04T13:30:45Z</time>
      </trkpt>
      <trkpt lat="46.17408" lon="2.48721">
        <ele>461</ele>
        <time>2016-04-04T13:30:48Z</time>
      </trkpt>
      <trkpt lat="46.17405" lon="2.48723">
        <ele>461</ele>
        <time>2016-04-04T13:30:51Z</time>
      </trkpt>
      <trkpt lat="46.174" lon="2.48726">
        <ele>460</ele>
        <time>2016-04-04T13:30:54Z</time>
      </trkpt>
      <trkpt lat="46.17397" lon="2.48729">
        <ele>460</ele>
        <time>2016-04-04T13:30:57Z</time>
      </trkpt>
      <trkpt lat="46.17392" lon="2.48731">
        <ele>460</ele>
        <time>2016-04-04T13:31:00Z</time>
      </trkpt>
      <trkpt lat="46.17387" lon="2.48733">
        <ele>459</ele>
        <time>2016-04-04T13:31:03Z</time>
      </trkpt>
      <trkpt lat="46.17383" lon="2.48734">
        <ele>457</ele>
        <time>2016-04-04T13:31:06Z</time>
      </trkpt>
      <trkpt lat="46.17379" lon="2.48736">
        <ele>456</ele>
        <time>2016-04-04T13:31:09Z</time>
      </trkpt>
      <trkpt lat="46.17374" lon="2.48737">
        <ele>456</ele>
        <time>2016-04-04T13:31:12Z</time>
      </trkpt>
      <trkpt lat="46.17369" lon="2.48736">
        <ele>456</ele>
        <time>2016-04-04T13:31:15Z</time>
      </trkpt>
      <trkpt lat="46.17364" lon="2.48738">
        <ele>456</ele>
        <time>2016-04-04T13:31:18Z</time>
      </trkpt>
      <trkpt lat="46.1736" lon="2.4874">
        <ele>455</ele>
        <time>2016-04-04T13:31:21Z</time>
      </trkpt>
      <trkpt lat="46.17356" lon="2.48743">
        <ele>454</ele>
        <time>2016-04-04T13:31:24Z</time>
      </trkpt>
      <trkpt lat="46.17352" lon="2.48744">
        <ele>453</ele>
        <time>2016-04-04T13:31:27Z</time>
      </trkpt>
      <trkpt lat="46.17347" lon="2.48747">
        <ele>452</ele>
        <time>2016-04-04T13:31:30Z</time>
      </trkpt>
      <trkpt lat="46.17343" lon="2.48749">
        <ele>452</ele>
        <time>2016-04-04T13:31:33Z</time>
      </trkpt>
      <trkpt lat="46.17338" lon="2.48751">
        <ele>452</ele>
        <time>2016-04-04T13:31:36Z</time>
      </trkpt>
      <trkpt lat="46.17334" lon="2.48753">
        <ele>452</ele>
        <time>2016-04-04T13:31:39Z</time>
      </trkpt>
      <trkpt lat="46.1733" lon="2.48755">
        <ele>452</ele>
        <time>2016-04-04T13:31:42Z</time>
      </trkpt>
      <trkpt lat="46.17326" lon="2.48756">
        <ele>452</ele>
        <time>2016-04-04T13:31:45Z</time>
      </trkpt>
      <trkpt lat="46.17322" lon="2.48759">
        <ele>452</ele>
        <time>2016-04-04T13:31:48Z</time>
      </trkpt>
      <trkpt lat="46.17318" lon="2.48761">
        <ele>451</ele>
        <time>2016-04-04T13:31:51Z</time>
      </trkpt>
      <trkpt lat="46.17314" lon="2.48763">
        <ele>451</ele>
        <time>2016-04-04T13:31:54Z</time>
      </trkpt>
      <trkpt lat="46.17309" lon="2.48764">
        <ele>450</ele>
        <time>2016-04-04T13:31:58Z</time>
      </trkpt>
      <trkpt lat="46.17305" lon="2.48763">
        <ele>450</ele>
        <time>2016-04-04T13:32:01Z</time>
      </trkpt>
      <trkpt lat="46.173" lon="2.48763">
        <ele>450</ele>
        <time>2016-04-04T13:32:04Z</time>
      </trkpt>
      <trkpt lat="46.17296" lon="2.48764">
        <ele>450</ele>
        <time>2016-04-04T13:32:07Z</time>
      </trkpt>
      <trkpt lat="46.17292" lon="2.48766">
        <ele>450</ele>
        <time>2016-04-04T13:32:10Z</time>
      </trkpt>
      <trkpt lat="46.17288" lon="2.48767">
        <ele>450</ele>
        <time>2016-04-04T13:32:13Z</time>
      </trkpt>
      <trkpt lat="46.17284" lon="2.48769">
        <ele>450</ele>
        <time>2016-04-04T13:32:16Z</time>
      </trkpt>
      <trkpt lat="46.17279" lon="2.48771">
        <ele>449</ele>
        <time>2016-04-04T13:32:19Z</time>
      </trkpt>
      <trkpt lat="46.17275" lon="2.48774">
        <ele>449</ele>
        <time>2016-04-04T13:32:22Z</time>
      </trkpt>
      <trkpt lat="46.17271" lon="2.48776">
        <ele>449</ele>
        <time>2016-04-04T13:32:25Z</time>
      </trkpt>
      <trkpt lat="46.17266" lon="2.4878">
        <ele>449</ele>
        <time>2016-04-04T13:32:29Z</time>
      </trkpt>
      <trkpt lat="46.17262" lon="2.48784">
        <ele>449</ele>
        <time>2016-04-04T13:32:32Z</time>
      </trkpt>
      <trkpt lat="46.17259" lon="2.48785">
        <ele>449</ele>
        <time>2016-04-04T13:32:35Z</time>
      </trkpt>
      <trkpt lat="46.17254" lon="2.48788">
        <ele>449</ele>
        <time>2016-04-04T13:32:38Z</time>
      </trkpt>
      <trkpt lat="46.1725" lon="2.4879">
        <ele>449</ele>
        <time>2016-04-04T13:32:41Z</time>
      </trkpt>
      <trkpt lat="46.17246" lon="2.48792">
        <ele>449</ele>
        <time>2016-04-04T13:32:44Z</time>
      </trkpt>
      <trkpt lat="46.17241" lon="2.48794">
        <ele>449</ele>
        <time>2016-04-04T13:32:47Z</time>
      </trkpt>
      <trkpt lat="46.17237" lon="2.48795">
        <ele>449</ele>
        <time>2016-04-04T13:32:50Z</time>
      </trkpt>
      <trkpt lat="46.17233" lon="2.48796">
        <ele>449</ele>
        <time>2016-04-04T13:32:53Z</time>
      </trkpt>
      <trkpt lat="46.17229" lon="2.48798">
        <ele>449</ele>
        <time>2016-04-04T13:32:56Z</time>
      </trkpt>
      <trkpt lat="46.17225" lon="2.48799">
        <ele>449</ele>
        <time>2016-04-04T13:32:59Z</time>
      </trkpt>
      <trkpt lat="46.17221" lon="2.488">
        <ele>449</ele>
        <time>2016-04-04T13:33:02Z</time>
      </trkpt>
      <trkpt lat="46.17217" lon="2.48802">
        <ele>449</ele>
        <time>2016-04-04T13:33:05Z</time>
      </trkpt>
      <trkpt lat="46.17213" lon="2.48803">
        <ele>449</ele>
        <time>2016-04-04T13:33:08Z</time>
      </trkpt>
      <trkpt lat="46.17208" lon="2.48805">
        <ele>449</ele>
        <time>2016-04-04T13:33:11Z</time>
      </trkpt>
      <trkpt lat="46.17204" lon="2.48805">
        <ele>449</ele>
        <time>2016-04-04T13:33:14Z</time>
      </trkpt>
      <trkpt lat="46.172" lon="2.48807">
        <ele>449</ele>
        <time>2016-04-04T13:33:17Z</time>
      </trkpt>
      <trkpt lat="46.17195" lon="2.48807">
        <ele>449</ele>
        <time>2016-04-04T13:33:20Z</time>
      </trkpt>
      <trkpt lat="46.1719" lon="2.48809">
        <ele>449</ele>
        <time>2016-04-04T13:33:23Z</time>
      </trkpt>
      <trkpt lat="46.17186" lon="2.48811">
        <ele>449</ele>
        <time>2016-04-04T13:33:26Z</time>
      </trkpt>
      <trkpt lat="46.17181" lon="2.48813">
        <ele>449</ele>
        <time>2016-04-04T13:33:29Z</time>
      </trkpt>
      <trkpt lat="46.17177" lon="2.48814">
        <ele>449</ele>
        <time>2016-04-04T13:33:32Z</time>
      </trkpt>
      <trkpt lat="46.17173" lon="2.48814">
        <ele>449</ele>
        <time>2016-04-04T13:33:35Z</time>
      </trkpt>
      <trkpt lat="46.17168" lon="2.48815">
        <ele>449</ele>
        <time>2016-04-04T13:33:38Z</time>
      </trkpt>
      <trkpt lat="46.17164" lon="2.48815">
        <ele>449</ele>
        <time>2016-04-04T13:33:41Z</time>
      </trkpt>
      <trkpt lat="46.1716" lon="2.48816">
        <ele>449</ele>
        <time>2016-04-04T13:33:44Z</time>
      </trkpt>
      <trkpt lat="46.17157" lon="2.48816">
        <ele>449</ele>
        <time>2016-04-04T13:33:47Z</time>
      </trkpt>
      <trkpt lat="46.17153" lon="2.48816">
        <ele>449</ele>
        <time>2016-04-04T13:33:50Z</time>
      </trkpt>
      <trkpt lat="46.17149" lon="2.48816">
        <ele>449</ele>
        <time>2016-04-04T13:33:53Z</time>
      </trkpt>
      <trkpt lat="46.17146" lon="2.48817">
        <ele>449</ele>
        <time>2016-04-04T13:33:56Z</time>
      </trkpt>
      <trkpt lat="46.17142" lon="2.48816">
        <ele>449</ele>
        <time>2016-04-04T13:33:59Z</time>
      </trkpt>
      <trkpt lat="46.17138" lon="2.48816">
        <ele>449</ele>
        <time>2016-04-04T13:34:02Z</time>
      </trkpt>
      <trkpt lat="46.17134" lon="2.48817">
        <ele>449</ele>
        <time>2016-04-04T13:34:05Z</time>
      </trkpt>
      <trkpt lat="46.1713" lon="2.48817">
        <ele>449</ele>
        <time>2016-04-04T13:34:08Z</time>
      </trkpt>
      <trkpt lat="46.17126" lon="2.48817">
        <ele>449</ele>
        <time>2016-04-04T13:34:11Z</time>
      </trkpt>
      <trkpt lat="46.17121" lon="2.48817">
        <ele>449</ele>
        <time>2016-04-04T13:34:14Z</time>
      </trkpt>
      <trkpt lat="46.17117" lon="2.48817">
        <ele>449</ele>
        <time>2016-04-04T13:34:17Z</time>
      </trkpt>
      <trkpt lat="46.17112" lon="2.48817">
        <ele>449</ele>
        <time>2016-04-04T13:34:20Z</time>
      </trkpt>
      <trkpt lat="46.17108" lon="2.48817">
        <ele>449</ele>
        <time>2016-04-04T13:34:23Z</time>
      </trkpt>
      <trkpt lat="46.17104" lon="2.48817">
        <ele>449</ele>
        <time>2016-04-04T13:34:26Z</time>
      </trkpt>
      <trkpt lat="46.17099" lon="2.48817">
        <ele>449</ele>
        <time>2016-04-04T13:34:29Z</time>
      </trkpt>
      <trkpt lat="46.17095" lon="2.48817">
        <ele>449</ele>
        <time>2016-04-04T13:34:32Z</time>
      </trkpt>
      <trkpt lat="46.1709" lon="2.48817">
        <ele>449</ele>
        <time>2016-04-04T13:34:35Z</time>
      </trkpt>
      <trkpt lat="46.17086" lon="2.48817">
        <ele>449</ele>
        <time>2016-04-04T13:34:38Z</time>
      </trkpt>
      <trkpt lat="46.17081" lon="2.48817">
        <ele>449</ele>
        <time>2016-04-04T13:34:41Z</time>
      </trkpt>
      <trkpt lat="46.17076" lon="2.48817">
        <ele>449</ele>
        <time>2016-04-04T13:34:44Z</time>
      </trkpt>
      <trkpt lat="46.17072" lon="2.48816">
        <ele>449</ele>
        <time>2016-04-04T13:34:47Z</time>
      </trkpt>
      <trkpt lat="46.17067" lon="2.48816">
        <ele>449</ele>
        <time>2016-04-04T13:34:50Z</time>
      </trkpt>
      <trkpt lat="46.17062" lon="2.48816">
        <ele>449</ele>
        <time>2016-04-04T13:34:53Z</time>
      </trkpt>
      <trkpt lat="46.17057" lon="2.48815">
        <ele>449</ele>
        <time>2016-04-04T13:34:56Z</time>
      </trkpt>
      <trkpt lat="46.17053" lon="2.48815">
        <ele>449</ele>
        <time>2016-04-04T13:34:59Z</time>
      </trkpt>
      <trkpt lat="46.17048" lon="2.48815">
        <ele>449</ele>
        <time>2016-04-04T13:35:02Z</time>
      </trkpt>
      <trkpt lat="46.17044" lon="2.48815">
        <ele>449</ele>
        <time>2016-04-04T13:35:05Z</time>
      </trkpt>
      <trkpt lat="46.17039" lon="2.48815">
        <ele>449</ele>
        <time>2016-04-04T13:35:08Z</time>
      </trkpt>
      <trkpt lat="46.17035" lon="2.48816">
        <ele>449</ele>
        <time>2016-04-04T13:35:11Z</time>
      </trkpt>
      <trkpt lat="46.1703" lon="2.48817">
        <ele>449</ele>
        <time>2016-04-04T13:35:14Z</time>
      </trkpt>
      <trkpt lat="46.17026" lon="2.48817">
        <ele>449</ele>
        <time>2016-04-04T13:35:17Z</time>
      </trkpt>
      <trkpt lat="46.17021" lon="2.48817">
        <ele>449</ele>
        <time>2016-04-04T13:35:20Z</time>
      </trkpt>
      <trkpt lat="46.17017" lon="2.48818">
        <ele>449</ele>
        <time>2016-04-04T13:35:23Z</time>
      </trkpt>
      <trkpt lat="46.17012" lon="2.4882">
        <ele>449</ele>
        <time>2016-04-04T13:35:26Z</time>
      </trkpt>
      <trkpt lat="46.17007" lon="2.48821">
        <ele>449</ele>
        <time>2016-04-04T13:35:29Z</time>
      </trkpt>
      <trkpt lat="46.17003" lon="2.48821">
        <ele>449</ele>
        <time>2016-04-04T13:35:32Z</time>
      </trkpt>
      <trkpt lat="46.16999" lon="2.48822">
        <ele>449</ele>
        <time>2016-04-04T13:35:35Z</time>
      </trkpt>
      <trkpt lat="46.16994" lon="2.48823">
        <ele>448</ele>
        <time>2016-04-04T13:35:38Z</time>
      </trkpt>
      <trkpt lat="46.1699" lon="2.48825">
        <ele>448</ele>
        <time>2016-04-04T13:35:41Z</time>
      </trkpt>
      <trkpt lat="46.16986" lon="2.48827">
        <ele>447</ele>
        <time>2016-04-04T13:35:44Z</time>
      </trkpt>
      <trkpt lat="46.16981" lon="2.48828">
        <ele>447</ele>
        <time>2016-04-04T13:35:47Z</time>
      </trkpt>
      <trkpt lat="46.16977" lon="2.4883">
        <ele>447</ele>
        <time>2016-04-04T13:35:50Z</time>
      </trkpt>
      <trkpt lat="46.16972" lon="2.48831">
        <ele>446</ele>
        <time>2016-04-04T13:35:53Z</time>
      </trkpt>
      <trkpt lat="46.16968" lon="2.48833">
        <ele>446</ele>
        <time>2016-04-04T13:35:56Z</time>
      </trkpt>
      <trkpt lat="46.16964" lon="2.48835">
        <ele>446</ele>
        <time>2016-04-04T13:35:59Z</time>
      </trkpt>
      <trkpt lat="46.16959" lon="2.48837">
        <ele>446</ele>
        <time>2016-04-04T13:36:02Z</time>
      </trkpt>
      <trkpt lat="46.16955" lon="2.48841">
        <ele>446</ele>
        <time>2016-04-04T13:36:05Z</time>
      </trkpt>
      <trkpt lat="46.16951" lon="2.48845">
        <ele>446</ele>
        <time>2016-04-04T13:36:08Z</time>
      </trkpt>
      <trkpt lat="46.16947" lon="2.48849">
        <ele>446</ele>
        <time>2016-04-04T13:36:11Z</time>
      </trkpt>
      <trkpt lat="46.16943" lon="2.48853">
        <ele>446</ele>
        <time>2016-04-04T13:36:14Z</time>
      </trkpt>
      <trkpt lat="46.16939" lon="2.48857">
        <ele>446</ele>
        <time>2016-04-04T13:36:17Z</time>
      </trkpt>
      <trkpt lat="46.16936" lon="2.48861">
        <ele>446</ele>
        <time>2016-04-04T13:36:20Z</time>
      </trkpt>
      <trkpt lat="46.16932" lon="2.48865">
        <ele>446</ele>
        <time>2016-04-04T13:36:23Z</time>
      </trkpt>
      <trkpt lat="46.16929" lon="2.48868">
        <ele>446</ele>
        <time>2016-04-04T13:36:26Z</time>
      </trkpt>
      <trkpt lat="46.16925" lon="2.48872">
        <ele>446</ele>
        <time>2016-04-04T13:36:29Z</time>
      </trkpt>
      <trkpt lat="46.16921" lon="2.48875">
        <ele>446</ele>
        <time>2016-04-04T13:36:32Z</time>
      </trkpt>
      <trkpt lat="46.16917" lon="2.48879">
        <ele>446</ele>
        <time>2016-04-04T13:36:35Z</time>
      </trkpt>
      <trkpt lat="46.16914" lon="2.48882">
        <ele>446</ele>
        <time>2016-04-04T13:36:38Z</time>
      </trkpt>
      <trkpt lat="46.16909" lon="2.48884">
        <ele>446</ele>
        <time>2016-04-04T13:36:41Z</time>
      </trkpt>
      <trkpt lat="46.16906" lon="2.48887">
        <ele>446</ele>
        <time>2016-04-04T13:36:44Z</time>
      </trkpt>
      <trkpt lat="46.16901" lon="2.48889">
        <ele>446</ele>
        <time>2016-04-04T13:36:47Z</time>
      </trkpt>
      <trkpt lat="46.16897" lon="2.48892">
        <ele>446</ele>
        <time>2016-04-04T13:36:50Z</time>
      </trkpt>
      <trkpt lat="46.16893" lon="2.48894">
        <ele>445</ele>
        <time>2016-04-04T13:36:53Z</time>
      </trkpt>
      <trkpt lat="46.16889" lon="2.48896">
        <ele>445</ele>
        <time>2016-04-04T13:36:56Z</time>
      </trkpt>
      <trkpt lat="46.16885" lon="2.48898">
        <ele>445</ele>
        <time>2016-04-04T13:36:59Z</time>
      </trkpt>
      <trkpt lat="46.1688" lon="2.489">
        <ele>445</ele>
        <time>2016-04-04T13:37:02Z</time>
      </trkpt>
      <trkpt lat="46.16876" lon="2.48902">
        <ele>445</ele>
        <time>2016-04-04T13:37:05Z</time>
      </trkpt>
      <trkpt lat="46.16872" lon="2.48903">
        <ele>445</ele>
        <time>2016-04-04T13:37:08Z</time>
      </trkpt>
      <trkpt lat="46.16867" lon="2.48905">
        <ele>445</ele>
        <time>2016-04-04T13:37:11Z</time>
      </trkpt>
      <trkpt lat="46.16863" lon="2.48907">
        <ele>444</ele>
        <time>2016-04-04T13:37:14Z</time>
      </trkpt>
      <trkpt lat="46.16859" lon="2.48908">
        <ele>444</ele>
        <time>2016-04-04T13:37:17Z</time>
      </trkpt>
      <trkpt lat="46.16854" lon="2.4891">
        <ele>444</ele>
        <time>2016-04-04T13:37:20Z</time>
      </trkpt>
      <trkpt lat="46.1685" lon="2.48911">
        <ele>444</ele>
        <time>2016-04-04T13:37:23Z</time>
      </trkpt>
      <trkpt lat="46.16846" lon="2.48912">
        <ele>443</ele>
        <time>2016-04-04T13:37:26Z</time>
      </trkpt>
      <trkpt lat="46.16842" lon="2.48912">
        <ele>443</ele>
        <time>2016-04-04T13:37:29Z</time>
      </trkpt>
      <trkpt lat="46.16837" lon="2.48913">
        <ele>443</ele>
        <time>2016-04-04T13:37:32Z</time>
      </trkpt>
      <trkpt lat="46.16833" lon="2.48914">
        <ele>442</ele>
        <time>2016-04-04T13:37:35Z</time>
      </trkpt>
      <trkpt lat="46.16829" lon="2.48913">
        <ele>442</ele>
        <time>2016-04-04T13:37:38Z</time>
      </trkpt>
      <trkpt lat="46.16825" lon="2.48913">
        <ele>442</ele>
        <time>2016-04-04T13:37:41Z</time>
      </trkpt>
      <trkpt lat="46.1682" lon="2.48913">
        <ele>442</ele>
        <time>2016-04-04T13:37:44Z</time>
      </trkpt>
      <trkpt lat="46.16816" lon="2.48911">
        <ele>442</ele>
        <time>2016-04-04T13:37:47Z</time>
      </trkpt>
      <trkpt lat="46.16811" lon="2.4891">
        <ele>442</ele>
        <time>2016-04-04T13:37:50Z</time>
      </trkpt>
      <trkpt lat="46.16807" lon="2.48909">
        <ele>442</ele>
        <time>2016-04-04T13:37:53Z</time>
      </trkpt>
      <trkpt lat="46.16802" lon="2.48909">
        <ele>441</ele>
        <time>2016-04-04T13:37:56Z</time>
      </trkpt>
      <trkpt lat="46.16798" lon="2.48908">
        <ele>441</ele>
        <time>2016-04-04T13:37:59Z</time>
      </trkpt>
      <trkpt lat="46.16793" lon="2.48908">
        <ele>440</ele>
        <time>2016-04-04T13:38:02Z</time>
      </trkpt>
      <trkpt lat="46.16789" lon="2.48907">
        <ele>440</ele>
        <time>2016-04-04T13:38:05Z</time>
      </trkpt>
      <trkpt lat="46.16785" lon="2.48906">
        <ele>440</ele>
        <time>2016-04-04T13:38:08Z</time>
      </trkpt>
      <trkpt lat="46.1678" lon="2.48905">
        <ele>440</ele>
        <time>2016-04-04T13:38:11Z</time>
      </trkpt>
      <trkpt lat="46.16776" lon="2.48904">
        <ele>440</ele>
        <time>2016-04-04T13:38:14Z</time>
      </trkpt>
      <trkpt lat="46.16771" lon="2.48903">
        <ele>440</ele>
        <time>2016-04-04T13:38:17Z</time>
      </trkpt>
      <trkpt lat="46.16766" lon="2.48903">
        <ele>439</ele>
        <time>2016-04-04T13:38:20Z</time>
      </trkpt>
      <trkpt lat="46.16762" lon="2.48901">
        <ele>439</ele>
        <time>2016-04-04T13:38:23Z</time>
      </trkpt>
      <trkpt lat="46.16758" lon="2.48901">
        <ele>439</ele>
        <time>2016-04-04T13:38:26Z</time>
      </trkpt>
      <trkpt lat="46.16753" lon="2.48899">
        <ele>439</ele>
        <time>2016-04-04T13:38:29Z</time>
      </trkpt>
      <trkpt lat="46.16749" lon="2.48898">
        <ele>439</ele>
        <time>2016-04-04T13:38:32Z</time>
      </trkpt>
      <trkpt lat="46.16745" lon="2.48897">
        <ele>439</ele>
        <time>2016-04-04T13:38:35Z</time>
      </trkpt>
      <trkpt lat="46.16741" lon="2.48897">
        <ele>439</ele>
        <time>2016-04-04T13:38:38Z</time>
      </trkpt>
      <trkpt lat="46.16737" lon="2.48896">
        <ele>439</ele>
        <time>2016-04-04T13:38:41Z</time>
      </trkpt>
      <trkpt lat="46.16732" lon="2.48894">
        <ele>439</ele>
        <time>2016-04-04T13:38:44Z</time>
      </trkpt>
      <trkpt lat="46.16728" lon="2.48893">
        <ele>439</ele>
        <time>2016-04-04T13:38:47Z</time>
      </trkpt>
      <trkpt lat="46.16723" lon="2.4889">
        <ele>439</ele>
        <time>2016-04-04T13:38:50Z</time>
      </trkpt>
      <trkpt lat="46.16719" lon="2.48889">
        <ele>439</ele>
        <time>2016-04-04T13:38:53Z</time>
      </trkpt>
      <trkpt lat="46.16714" lon="2.48888">
        <ele>439</ele>
        <time>2016-04-04T13:38:56Z</time>
      </trkpt>
      <trkpt lat="46.1671" lon="2.48888">
        <ele>439</ele>
        <time>2016-04-04T13:38:59Z</time>
      </trkpt>
      <trkpt lat="46.16706" lon="2.48889">
        <ele>439</ele>
        <time>2016-04-04T13:39:02Z</time>
      </trkpt>
      <trkpt lat="46.16701" lon="2.48888">
        <ele>439</ele>
        <time>2016-04-04T13:39:05Z</time>
      </trkpt>
      <trkpt lat="46.16697" lon="2.48887">
        <ele>439</ele>
        <time>2016-04-04T13:39:08Z</time>
      </trkpt>
      <trkpt lat="46.16692" lon="2.48887">
        <ele>439</ele>
        <time>2016-04-04T13:39:11Z</time>
      </trkpt>
      <trkpt lat="46.16688" lon="2.48887">
        <ele>439</ele>
        <time>2016-04-04T13:39:14Z</time>
      </trkpt>
      <trkpt lat="46.16683" lon="2.48887">
        <ele>439</ele>
        <time>2016-04-04T13:39:17Z</time>
      </trkpt>
      <trkpt lat="46.16679" lon="2.48887">
        <ele>439</ele>
        <time>2016-04-04T13:39:20Z</time>
      </trkpt>
      <trkpt lat="46.16675" lon="2.48887">
        <ele>439</ele>
        <time>2016-04-04T13:39:23Z</time>
      </trkpt>
      <trkpt lat="46.16671" lon="2.48888">
        <ele>439</ele>
        <time>2016-04-04T13:39:26Z</time>
      </trkpt>
      <trkpt lat="46.16668" lon="2.48888">
        <ele>439</ele>
        <time>2016-04-04T13:39:29Z</time>
      </trkpt>
      <trkpt lat="46.16665" lon="2.48887">
        <ele>439</ele>
        <time>2016-04-04T13:39:36Z</time>
      </trkpt>
      <trkpt lat="46.16661" lon="2.48886">
        <ele>441</ele>
        <time>2016-04-04T13:39:39Z</time>
      </trkpt>
      <trkpt lat="46.16658" lon="2.48886">
        <ele>442</ele>
        <time>2016-04-04T13:39:43Z</time>
      </trkpt>
      <trkpt lat="46.16654" lon="2.48887">
        <ele>442</ele>
        <time>2016-04-04T13:39:46Z</time>
      </trkpt>
      <trkpt lat="46.1665" lon="2.48887">
        <ele>442</ele>
        <time>2016-04-04T13:39:49Z</time>
      </trkpt>
      <trkpt lat="46.16646" lon="2.48889">
        <ele>442</ele>
        <time>2016-04-04T13:39:52Z</time>
      </trkpt>
      <trkpt lat="46.16642" lon="2.4889">
        <ele>442</ele>
        <time>2016-04-04T13:39:55Z</time>
      </trkpt>
      <trkpt lat="46.16639" lon="2.48891">
        <ele>443</ele>
        <time>2016-04-04T13:39:58Z</time>
      </trkpt>
      <trkpt lat="46.16635" lon="2.48892">
        <ele>443</ele>
        <time>2016-04-04T13:40:01Z</time>
      </trkpt>
      <trkpt lat="46.16631" lon="2.48893">
        <ele>443</ele>
        <time>2016-04-04T13:40:04Z</time>
      </trkpt>
      <trkpt lat="46.16626" lon="2.48895">
        <ele>443</ele>
        <time>2016-04-04T13:40:07Z</time>
      </trkpt>
      <trkpt lat="46.16622" lon="2.48897">
        <ele>443</ele>
        <time>2016-04-04T13:40:10Z</time>
      </trkpt>
      <trkpt lat="46.16618" lon="2.48898">
        <ele>444</ele>
        <time>2016-04-04T13:40:13Z</time>
      </trkpt>
      <trkpt lat="46.16614" lon="2.48899">
        <ele>444</ele>
        <time>2016-04-04T13:40:16Z</time>
      </trkpt>
      <trkpt lat="46.1661" lon="2.489">
        <ele>444</ele>
        <time>2016-04-04T13:40:19Z</time>
      </trkpt>
      <trkpt lat="46.16605" lon="2.48902">
        <ele>444</ele>
        <time>2016-04-04T13:40:22Z</time>
      </trkpt>
      <trkpt lat="46.16601" lon="2.48903">
        <ele>445</ele>
        <time>2016-04-04T13:40:25Z</time>
      </trkpt>
      <trkpt lat="46.16597" lon="2.48904">
        <ele>445</ele>
        <time>2016-04-04T13:40:28Z</time>
      </trkpt>
      <trkpt lat="46.16593" lon="2.48905">
        <ele>445</ele>
        <time>2016-04-04T13:40:31Z</time>
      </trkpt>
      <trkpt lat="46.16589" lon="2.48906">
        <ele>445</ele>
        <time>2016-04-04T13:40:34Z</time>
      </trkpt>
      <trkpt lat="46.16585" lon="2.48907">
        <ele>446</ele>
        <time>2016-04-04T13:40:37Z</time>
      </trkpt>
      <trkpt lat="46.16581" lon="2.48908">
        <ele>446</ele>
        <time>2016-04-04T13:40:40Z</time>
      </trkpt>
      <trkpt lat="46.16576" lon="2.4891">
        <ele>446</ele>
        <time>2016-04-04T13:40:43Z</time>
      </trkpt>
      <trkpt lat="46.16572" lon="2.48911">
        <ele>446</ele>
        <time>2016-04-04T13:40:46Z</time>
      </trkpt>
      <trkpt lat="46.16568" lon="2.48912">
        <ele>446</ele>
        <time>2016-04-04T13:40:49Z</time>
      </trkpt>
      <trkpt lat="46.16563" lon="2.48913">
        <ele>446</ele>
        <time>2016-04-04T13:40:52Z</time>
      </trkpt>
      <trkpt lat="46.16559" lon="2.48915">
        <ele>447</ele>
        <time>2016-04-04T13:40:55Z</time>
      </trkpt>
      <trkpt lat="46.16555" lon="2.48916">
        <ele>447</ele>
        <time>2016-04-04T13:40:58Z</time>
      </trkpt>
      <trkpt lat="46.1655" lon="2.48917">
        <ele>447</ele>
        <time>2016-04-04T13:41:01Z</time>
      </trkpt>
      <trkpt lat="46.16546" lon="2.48918">
        <ele>447</ele>
        <time>2016-04-04T13:41:04Z</time>
      </trkpt>
      <trkpt lat="46.16541" lon="2.48919">
        <ele>448</ele>
        <time>2016-04-04T13:41:07Z</time>
      </trkpt>
      <trkpt lat="46.16537" lon="2.4892">
        <ele>448</ele>
        <time>2016-04-04T13:41:10Z</time>
      </trkpt>
      <trkpt lat="46.16533" lon="2.48921">
        <ele>448</ele>
        <time>2016-04-04T13:41:13Z</time>
      </trkpt>
      <trkpt lat="46.16528" lon="2.48922">
        <ele>448</ele>
        <time>2016-04-04T13:41:16Z</time>
      </trkpt>
      <trkpt lat="46.16524" lon="2.48923">
        <ele>448</ele>
        <time>2016-04-04T13:41:19Z</time>
      </trkpt>
      <trkpt lat="46.1652" lon="2.48924">
        <ele>448</ele>
        <time>2016-04-04T13:41:22Z</time>
      </trkpt>
      <trkpt lat="46.16515" lon="2.48925">
        <ele>448</ele>
        <time>2016-04-04T13:41:25Z</time>
      </trkpt>
      <trkpt lat="46.1651" lon="2.48925">
        <ele>449</ele>
        <time>2016-04-04T13:41:28Z</time>
      </trkpt>
      <trkpt lat="46.16506" lon="2.48926">
        <ele>449</ele>
        <time>2016-04-04T13:41:31Z</time>
      </trkpt>
      <trkpt lat="46.16502" lon="2.48926">
        <ele>449</ele>
        <time>2016-04-04T13:41:34Z</time>
      </trkpt>
      <trkpt lat="46.16497" lon="2.48926">
        <ele>449</ele>
        <time>2016-04-04T13:41:37Z</time>
      </trkpt>
      <trkpt lat="46.16493" lon="2.48926">
        <ele>450</ele>
        <time>2016-04-04T13:41:40Z</time>
      </trkpt>
      <trkpt lat="46.16489" lon="2.48926">
        <ele>450</ele>
        <time>2016-04-04T13:41:43Z</time>
      </trkpt>
      <trkpt lat="46.16484" lon="2.48925">
        <ele>450</ele>
        <time>2016-04-04T13:41:46Z</time>
      </trkpt>
      <trkpt lat="46.1648" lon="2.48925">
        <ele>450</ele>
        <time>2016-04-04T13:41:49Z</time>
      </trkpt>
      <trkpt lat="46.16475" lon="2.48925">
        <ele>450</ele>
        <time>2016-04-04T13:41:52Z</time>
      </trkpt>
      <trkpt lat="46.16471" lon="2.48924">
        <ele>451</ele>
        <time>2016-04-04T13:41:55Z</time>
      </trkpt>
      <trkpt lat="46.16467" lon="2.48924">
        <ele>451</ele>
        <time>2016-04-04T13:41:58Z</time>
      </trkpt>
      <trkpt lat="46.16462" lon="2.48922">
        <ele>451</ele>
        <time>2016-04-04T13:42:01Z</time>
      </trkpt>
      <trkpt lat="46.16458" lon="2.48921">
        <ele>452</ele>
        <time>2016-04-04T13:42:04Z</time>
      </trkpt>
      <trkpt lat="46.16454" lon="2.48921">
        <ele>452</ele>
        <time>2016-04-04T13:42:07Z</time>
      </trkpt>
      <trkpt lat="46.1645" lon="2.4892">
        <ele>452</ele>
        <time>2016-04-04T13:42:10Z</time>
      </trkpt>
      <trkpt lat="46.16446" lon="2.48919">
        <ele>452</ele>
        <time>2016-04-04T13:42:13Z</time>
      </trkpt>
      <trkpt lat="46.16442" lon="2.48918">
        <ele>453</ele>
        <time>2016-04-04T13:42:16Z</time>
      </trkpt>
      <trkpt lat="46.16437" lon="2.48918">
        <ele>453</ele>
        <time>2016-04-04T13:42:19Z</time>
      </trkpt>
      <trkpt lat="46.16433" lon="2.48917">
        <ele>453</ele>
        <time>2016-04-04T13:42:22Z</time>
      </trkpt>
      <trkpt lat="46.16429" lon="2.48916">
        <ele>453</ele>
        <time>2016-04-04T13:42:25Z</time>
      </trkpt>
      <trkpt lat="46.16424" lon="2.48915">
        <ele>453</ele>
        <time>2016-04-04T13:42:28Z</time>
      </trkpt>
      <trkpt lat="46.1642" lon="2.48914">
        <ele>453</ele>
        <time>2016-04-04T13:42:31Z</time>
      </trkpt>
      <trkpt lat="46.16415" lon="2.48913">
        <ele>453</ele>
        <time>2016-04-04T13:42:34Z</time>
      </trkpt>
      <trkpt lat="46.16411" lon="2.48912">
        <ele>454</ele>
        <time>2016-04-04T13:42:37Z</time>
      </trkpt>
      <trkpt lat="46.16407" lon="2.48911">
        <ele>454</ele>
        <time>2016-04-04T13:42:40Z</time>
      </trkpt>
      <trkpt lat="46.16402" lon="2.4891">
        <ele>454</ele>
        <time>2016-04-04T13:42:43Z</time>
      </trkpt>
      <trkpt lat="46.16398" lon="2.48909">
        <ele>454</ele>
        <time>2016-04-04T13:42:46Z</time>
      </trkpt>
      <trkpt lat="46.16394" lon="2.48908">
        <ele>454</ele>
        <time>2016-04-04T13:42:49Z</time>
      </trkpt>
      <trkpt lat="46.16389" lon="2.48907">
        <ele>454</ele>
        <time>2016-04-04T13:42:52Z</time>
      </trkpt>
      <trkpt lat="46.16385" lon="2.48907">
        <ele>454</ele>
        <time>2016-04-04T13:42:55Z</time>
      </trkpt>
      <trkpt lat="46.1638" lon="2.48906">
        <ele>454</ele>
        <time>2016-04-04T13:42:58Z</time>
      </trkpt>
      <trkpt lat="46.16375" lon="2.48904">
        <ele>455</ele>
        <time>2016-04-04T13:43:01Z</time>
      </trkpt>
      <trkpt lat="46.16371" lon="2.48904">
        <ele>455</ele>
        <time>2016-04-04T13:43:04Z</time>
      </trkpt>
      <trkpt lat="46.16367" lon="2.48903">
        <ele>455</ele>
        <time>2016-04-04T13:43:07Z</time>
      </trkpt>
      <trkpt lat="46.16362" lon="2.48902">
        <ele>455</ele>
        <time>2016-04-04T13:43:10Z</time>
      </trkpt>
      <trkpt lat="46.16358" lon="2.48901">
        <ele>455</ele>
        <time>2016-04-04T13:43:13Z</time>
      </trkpt>
      <trkpt lat="46.16353" lon="2.489">
        <ele>455</ele>
        <time>2016-04-04T13:43:16Z</time>
      </trkpt>
      <trkpt lat="46.16349" lon="2.48899">
        <ele>455</ele>
        <time>2016-04-04T13:43:19Z</time>
      </trkpt>
      <trkpt lat="46.16344" lon="2.48898">
        <ele>455</ele>
        <time>2016-04-04T13:43:22Z</time>
      </trkpt>
      <trkpt lat="46.1634" lon="2.48896">
        <ele>455</ele>
        <time>2016-04-04T13:43:25Z</time>
      </trkpt>
      <trkpt lat="46.16335" lon="2.48895">
        <ele>455</ele>
        <time>2016-04-04T13:43:28Z</time>
      </trkpt>
      <trkpt lat="46.16331" lon="2.48894">
        <ele>455</ele>
        <time>2016-04-04T13:43:31Z</time>
      </trkpt>
      <trkpt lat="46.16327" lon="2.48893">
        <ele>455</ele>
        <time>2016-04-04T13:43:34Z</time>
      </trkpt>
      <trkpt lat="46.16322" lon="2.48892">
        <ele>456</ele>
        <time>2016-04-04T13:43:37Z</time>
      </trkpt>
      <trkpt lat="46.16317" lon="2.48891">
        <ele>456</ele>
        <time>2016-04-04T13:43:40Z</time>
      </trkpt>
      <trkpt lat="46.16313" lon="2.4889">
        <ele>456</ele>
        <time>2016-04-04T13:43:43Z</time>
      </trkpt>
      <trkpt lat="46.16309" lon="2.48889">
        <ele>456</ele>
        <time>2016-04-04T13:43:46Z</time>
      </trkpt>
      <trkpt lat="46.16304" lon="2.48888">
        <ele>456</ele>
        <time>2016-04-04T13:43:49Z</time>
      </trkpt>
      <trkpt lat="46.163" lon="2.48887">
        <ele>456</ele>
        <time>2016-04-04T13:43:52Z</time>
      </trkpt>
      <trkpt lat="46.16295" lon="2.48887">
        <ele>456</ele>
        <time>2016-04-04T13:43:55Z</time>
      </trkpt>
      <trkpt lat="46.16291" lon="2.48886">
        <ele>456</ele>
        <time>2016-04-04T13:43:58Z</time>
      </trkpt>
      <trkpt lat="46.16286" lon="2.48885">
        <ele>456</ele>
        <time>2016-04-04T13:44:01Z</time>
      </trkpt>
      <trkpt lat="46.16282" lon="2.48884">
        <ele>456</ele>
        <time>2016-04-04T13:44:04Z</time>
      </trkpt>
      <trkpt lat="46.16278" lon="2.48883">
        <ele>456</ele>
        <time>2016-04-04T13:44:07Z</time>
      </trkpt>
      <trkpt lat="46.16273" lon="2.48882">
        <ele>456</ele>
        <time>2016-04-04T13:44:10Z</time>
      </trkpt>
      <trkpt lat="46.16269" lon="2.4888">
        <ele>456</ele>
        <time>2016-04-04T13:44:13Z</time>
      </trkpt>
      <trkpt lat="46.16264" lon="2.48879">
        <ele>456</ele>
        <time>2016-04-04T13:44:16Z</time>
      </trkpt>
      <trkpt lat="46.1626" lon="2.48878">
        <ele>457</ele>
        <time>2016-04-04T13:44:19Z</time>
      </trkpt>
      <trkpt lat="46.16256" lon="2.48876">
        <ele>457</ele>
        <time>2016-04-04T13:44:22Z</time>
      </trkpt>
      <trkpt lat="46.16252" lon="2.48875">
        <ele>457</ele>
        <time>2016-04-04T13:44:25Z</time>
      </trkpt>
      <trkpt lat="46.16248" lon="2.48873">
        <ele>457</ele>
        <time>2016-04-04T13:44:28Z</time>
      </trkpt>
      <trkpt lat="46.16243" lon="2.48871">
        <ele>457</ele>
        <time>2016-04-04T13:44:31Z</time>
      </trkpt>
      <trkpt lat="46.16239" lon="2.48869">
        <ele>457</ele>
        <time>2016-04-04T13:44:34Z</time>
      </trkpt>
      <trkpt lat="46.16235" lon="2.48867">
        <ele>457</ele>
        <time>2016-04-04T13:44:37Z</time>
      </trkpt>
      <trkpt lat="46.16231" lon="2.48864">
        <ele>457</ele>
        <time>2016-04-04T13:44:40Z</time>
      </trkpt>
      <trkpt lat="46.16227" lon="2.48862">
        <ele>457</ele>
        <time>2016-04-04T13:44:43Z</time>
      </trkpt>
      <trkpt lat="46.16224" lon="2.48859">
        <ele>457</ele>
        <time>2016-04-04T13:44:46Z</time>
      </trkpt>
      <trkpt lat="46.16219" lon="2.48857">
        <ele>457</ele>
        <time>2016-04-04T13:44:49Z</time>
      </trkpt>
      <trkpt lat="46.16215" lon="2.48858">
        <ele>457</ele>
        <time>2016-04-04T13:44:52Z</time>
      </trkpt>
      <trkpt lat="46.16212" lon="2.48858">
        <ele>457</ele>
        <time>2016-04-04T13:44:55Z</time>
      </trkpt>
      <trkpt lat="46.16208" lon="2.48862">
        <ele>457</ele>
        <time>2016-04-04T13:44:58Z</time>
      </trkpt>
      <trkpt lat="46.16206" lon="2.48867">
        <ele>457</ele>
        <time>2016-04-04T13:45:01Z</time>
      </trkpt>
      <trkpt lat="46.16203" lon="2.48873">
        <ele>457</ele>
        <time>2016-04-04T13:45:04Z</time>
      </trkpt>
      <trkpt lat="46.16202" lon="2.48879">
        <ele>457</ele>
        <time>2016-04-04T13:45:07Z</time>
      </trkpt>
      <trkpt lat="46.16201" lon="2.48885">
        <ele>457</ele>
        <time>2016-04-04T13:45:10Z</time>
      </trkpt>
      <trkpt lat="46.16199" lon="2.4889">
        <ele>457</ele>
        <time>2016-04-04T13:45:13Z</time>
      </trkpt>
      <trkpt lat="46.16198" lon="2.48896">
        <ele>457</ele>
        <time>2016-04-04T13:45:16Z</time>
      </trkpt>
      <trkpt lat="46.16195" lon="2.48902">
        <ele>457</ele>
        <time>2016-04-04T13:45:19Z</time>
      </trkpt>
      <trkpt lat="46.16194" lon="2.48908">
        <ele>457</ele>
        <time>2016-04-04T13:45:22Z</time>
      </trkpt>
      <trkpt lat="46.16192" lon="2.48914">
        <ele>457</ele>
        <time>2016-04-04T13:45:25Z</time>
      </trkpt>
      <trkpt lat="46.16191" lon="2.4892">
        <ele>457</ele>
        <time>2016-04-04T13:45:28Z</time>
      </trkpt>
      <trkpt lat="46.1619" lon="2.48926">
        <ele>457</ele>
        <time>2016-04-04T13:45:31Z</time>
      </trkpt>
      <trkpt lat="46.16189" lon="2.48932">
        <ele>457</ele>
        <time>2016-04-04T13:45:34Z</time>
      </trkpt>
      <trkpt lat="46.16189" lon="2.48938">
        <ele>457</ele>
        <time>2016-04-04T13:45:37Z</time>
      </trkpt>
      <trkpt lat="46.16188" lon="2.48945">
        <ele>457</ele>
        <time>2016-04-04T13:45:40Z</time>
      </trkpt>
      <trkpt lat="46.16188" lon="2.48951">
        <ele>457</ele>
        <time>2016-04-04T13:45:43Z</time>
      </trkpt>
      <trkpt lat="46.16188" lon="2.48957">
        <ele>457</ele>
        <time>2016-04-04T13:45:46Z</time>
      </trkpt>
      <trkpt lat="46.16188" lon="2.48963">
        <ele>457</ele>
        <time>2016-04-04T13:45:50Z</time>
      </trkpt>
      <trkpt lat="46.16187" lon="2.48965">
        <ele>457</ele>
        <time>2016-04-04T13:45:56Z</time>
      </trkpt>
      <trkpt lat="46.16188" lon="2.48966">
        <ele>457</ele>
        <time>2016-04-04T13:46:03Z</time>
      </trkpt>
      <trkpt lat="46.16188" lon="2.48971">
        <ele>457</ele>
        <time>2016-04-04T13:46:07Z</time>
      </trkpt>
      <trkpt lat="46.16188" lon="2.48977">
        <ele>457</ele>
        <time>2016-04-04T13:46:10Z</time>
      </trkpt>
      <trkpt lat="46.16188" lon="2.48984">
        <ele>457</ele>
        <time>2016-04-04T13:46:13Z</time>
      </trkpt>
      <trkpt lat="46.16189" lon="2.48989">
        <ele>457</ele>
        <time>2016-04-04T13:46:16Z</time>
      </trkpt>
      <trkpt lat="46.1619" lon="2.48996">
        <ele>457</ele>
        <time>2016-04-04T13:46:19Z</time>
      </trkpt>
      <trkpt lat="46.16189" lon="2.49003">
        <ele>457</ele>
        <time>2016-04-04T13:46:22Z</time>
      </trkpt>
      <trkpt lat="46.1619" lon="2.49009">
        <ele>457</ele>
        <time>2016-04-04T13:46:25Z</time>
      </trkpt>
      <trkpt lat="46.1619" lon="2.49016">
        <ele>457</ele>
        <time>2016-04-04T13:46:28Z</time>
      </trkpt>
      <trkpt lat="46.16191" lon="2.49022">
        <ele>457</ele>
        <time>2016-04-04T13:46:31Z</time>
      </trkpt>
      <trkpt lat="46.16191" lon="2.49028">
        <ele>457</ele>
        <time>2016-04-04T13:46:34Z</time>
      </trkpt>
      <trkpt lat="46.16191" lon="2.49035">
        <ele>457</ele>
        <time>2016-04-04T13:46:37Z</time>
      </trkpt>
      <trkpt lat="46.16192" lon="2.49041">
        <ele>457</ele>
        <time>2016-04-04T13:46:40Z</time>
      </trkpt>
      <trkpt lat="46.16192" lon="2.49047">
        <ele>457</ele>
        <time>2016-04-04T13:46:43Z</time>
      </trkpt>
      <trkpt lat="46.16192" lon="2.49054">
        <ele>457</ele>
        <time>2016-04-04T13:46:46Z</time>
      </trkpt>
      <trkpt lat="46.16193" lon="2.49061">
        <ele>457</ele>
        <time>2016-04-04T13:46:49Z</time>
      </trkpt>
      <trkpt lat="46.16193" lon="2.49067">
        <ele>457</ele>
        <time>2016-04-04T13:46:52Z</time>
      </trkpt>
      <trkpt lat="46.16193" lon="2.49074">
        <ele>457</ele>
        <time>2016-04-04T13:46:55Z</time>
      </trkpt>
      <trkpt lat="46.16194" lon="2.4908">
        <ele>457</ele>
        <time>2016-04-04T13:46:58Z</time>
      </trkpt>
      <trkpt lat="46.16194" lon="2.49087">
        <ele>457</ele>
        <time>2016-04-04T13:47:01Z</time>
      </trkpt>
      <trkpt lat="46.16195" lon="2.49093">
        <ele>457</ele>
        <time>2016-04-04T13:47:04Z</time>
      </trkpt>
      <trkpt lat="46.16195" lon="2.491">
        <ele>457</ele>
        <time>2016-04-04T13:47:07Z</time>
      </trkpt>
      <trkpt lat="46.16195" lon="2.49106">
        <ele>457</ele>
        <time>2016-04-04T13:47:10Z</time>
      </trkpt>
      <trkpt lat="46.16196" lon="2.49113">
        <ele>457</ele>
        <time>2016-04-04T13:47:13Z</time>
      </trkpt>
      <trkpt lat="46.16196" lon="2.49119">
        <ele>457</ele>
        <time>2016-04-04T13:47:16Z</time>
      </trkpt>
      <trkpt lat="46.16196" lon="2.49126">
        <ele>457</ele>
        <time>2016-04-04T13:47:19Z</time>
      </trkpt>
      <trkpt lat="46.16197" lon="2.49132">
        <ele>456</ele>
        <time>2016-04-04T13:47:22Z</time>
      </trkpt>
      <trkpt lat="46.16197" lon="2.49139">
        <ele>456</ele>
        <time>2016-04-04T13:47:25Z</time>
      </trkpt>
      <trkpt lat="46.16198" lon="2.49146">
        <ele>456</ele>
        <time>2016-04-04T13:47:28Z</time>
      </trkpt>
      <trkpt lat="46.16198" lon="2.49152">
        <ele>455</ele>
        <time>2016-04-04T13:47:31Z</time>
      </trkpt>
      <trkpt lat="46.16199" lon="2.49158">
        <ele>455</ele>
        <time>2016-04-04T13:47:34Z</time>
      </trkpt>
      <trkpt lat="46.16201" lon="2.49165">
        <ele>455</ele>
        <time>2016-04-04T13:47:37Z</time>
      </trkpt>
      <trkpt lat="46.16202" lon="2.49171">
        <ele>454</ele>
        <time>2016-04-04T13:47:40Z</time>
      </trkpt>
      <trkpt lat="46.16203" lon="2.49178">
        <ele>454</ele>
        <time>2016-04-04T13:47:43Z</time>
      </trkpt>
      <trkpt lat="46.16205" lon="2.49184">
        <ele>454</ele>
        <time>2016-04-04T13:47:46Z</time>
      </trkpt>
      <trkpt lat="46.16206" lon="2.4919">
        <ele>453</ele>
        <time>2016-04-04T13:47:49Z</time>
      </trkpt>
      <trkpt lat="46.16208" lon="2.49196">
        <ele>453</ele>
        <time>2016-04-04T13:47:52Z</time>
      </trkpt>
      <trkpt lat="46.16209" lon="2.49202">
        <ele>452</ele>
        <time>2016-04-04T13:47:55Z</time>
      </trkpt>
      <trkpt lat="46.16211" lon="2.49208">
        <ele>452</ele>
        <time>2016-04-04T13:47:58Z</time>
      </trkpt>
      <trkpt lat="46.16212" lon="2.49214">
        <ele>452</ele>
        <time>2016-04-04T13:48:01Z</time>
      </trkpt>
      <trkpt lat="46.16214" lon="2.4922">
        <ele>452</ele>
        <time>2016-04-04T13:48:04Z</time>
      </trkpt>
      <trkpt lat="46.16216" lon="2.49225">
        <ele>451</ele>
        <time>2016-04-04T13:48:07Z</time>
      </trkpt>
      <trkpt lat="46.16217" lon="2.49231">
        <ele>451</ele>
        <time>2016-04-04T13:48:10Z</time>
      </trkpt>
      <trkpt lat="46.16219" lon="2.49237">
        <ele>450</ele>
        <time>2016-04-04T13:48:13Z</time>
      </trkpt>
      <trkpt lat="46.1622" lon="2.49243">
        <ele>450</ele>
        <time>2016-04-04T13:48:16Z</time>
      </trkpt>
      <trkpt lat="46.16222" lon="2.4925">
        <ele>450</ele>
        <time>2016-04-04T13:48:19Z</time>
      </trkpt>
      <trkpt lat="46.16223" lon="2.49256">
        <ele>449</ele>
        <time>2016-04-04T13:48:22Z</time>
      </trkpt>
      <trkpt lat="46.16225" lon="2.49263">
        <ele>449</ele>
        <time>2016-04-04T13:48:25Z</time>
      </trkpt>
      <trkpt lat="46.16226" lon="2.49269">
        <ele>449</ele>
        <time>2016-04-04T13:48:28Z</time>
      </trkpt>
      <trkpt lat="46.16228" lon="2.49275">
        <ele>449</ele>
        <time>2016-04-04T13:48:31Z</time>
      </trkpt>
      <trkpt lat="46.16229" lon="2.49282">
        <ele>449</ele>
        <time>2016-04-04T13:48:34Z</time>
      </trkpt>
      <trkpt lat="46.16231" lon="2.49289">
        <ele>449</ele>
        <time>2016-04-04T13:48:37Z</time>
      </trkpt>
      <trkpt lat="46.16232" lon="2.49295">
        <ele>449</ele>
        <time>2016-04-04T13:48:40Z</time>
      </trkpt>
      <trkpt lat="46.16233" lon="2.49302">
        <ele>449</ele>
        <time>2016-04-04T13:48:43Z</time>
      </trkpt>
      <trkpt lat="46.16235" lon="2.49308">
        <ele>449</ele>
        <time>2016-04-04T13:48:46Z</time>
      </trkpt>
      <trkpt lat="46.16236" lon="2.49314">
        <ele>448</ele>
        <time>2016-04-04T13:48:49Z</time>
      </trkpt>
      <trkpt lat="46.16238" lon="2.49321">
        <ele>448</ele>
        <time>2016-04-04T13:48:52Z</time>
      </trkpt>
      <trkpt lat="46.16239" lon="2.49327">
        <ele>448</ele>
        <time>2016-04-04T13:48:55Z</time>
      </trkpt>
      <trkpt lat="46.1624" lon="2.49334">
        <ele>448</ele>
        <time>2016-04-04T13:48:58Z</time>
      </trkpt>
      <trkpt lat="46.16242" lon="2.4934">
        <ele>447</ele>
        <time>2016-04-04T13:49:01Z</time>
      </trkpt>
      <trkpt lat="46.16243" lon="2.49346">
        <ele>447</ele>
        <time>2016-04-04T13:49:04Z</time>
      </trkpt>
      <trkpt lat="46.16243" lon="2.49352">
        <ele>447</ele>
        <time>2016-04-04T13:49:07Z</time>
      </trkpt>
      <trkpt lat="46.16245" lon="2.49359">
        <ele>447</ele>
        <time>2016-04-04T13:49:10Z</time>
      </trkpt>
      <trkpt lat="46.16245" lon="2.49365">
        <ele>447</ele>
        <time>2016-04-04T13:49:13Z</time>
      </trkpt>
      <trkpt lat="46.16246" lon="2.49372">
        <ele>447</ele>
        <time>2016-04-04T13:49:16Z</time>
      </trkpt>
      <trkpt lat="46.16247" lon="2.49378">
        <ele>447</ele>
        <time>2016-04-04T13:49:19Z</time>
      </trkpt>
      <trkpt lat="46.16247" lon="2.49385">
        <ele>446</ele>
        <time>2016-04-04T13:49:22Z</time>
      </trkpt>
      <trkpt lat="46.16247" lon="2.49392">
        <ele>446</ele>
        <time>2016-04-04T13:49:25Z</time>
      </trkpt>
      <trkpt lat="46.16247" lon="2.49398">
        <ele>446</ele>
        <time>2016-04-04T13:49:28Z</time>
      </trkpt>
      <trkpt lat="46.16247" lon="2.49405">
        <ele>446</ele>
        <time>2016-04-04T13:49:31Z</time>
      </trkpt>
      <trkpt lat="46.16246" lon="2.49411">
        <ele>445</ele>
        <time>2016-04-04T13:49:34Z</time>
      </trkpt>
      <trkpt lat="46.16245" lon="2.49418">
        <ele>445</ele>
        <time>2016-04-04T13:49:37Z</time>
      </trkpt>
      <trkpt lat="46.16244" lon="2.49424">
        <ele>445</ele>
        <time>2016-04-04T13:49:40Z</time>
      </trkpt>
      <trkpt lat="46.16242" lon="2.4943">
        <ele>445</ele>
        <time>2016-04-04T13:49:43Z</time>
      </trkpt>
      <trkpt lat="46.1624" lon="2.49436">
        <ele>445</ele>
        <time>2016-04-04T13:49:46Z</time>
      </trkpt>
      <trkpt lat="46.16238" lon="2.49442">
        <ele>445</ele>
        <time>2016-04-04T13:49:49Z</time>
      </trkpt>
      <trkpt lat="46.16235" lon="2.49448">
        <ele>445</ele>
        <time>2016-04-04T13:49:52Z</time>
      </trkpt>
      <trkpt lat="46.16233" lon="2.49454">
        <ele>445</ele>
        <time>2016-04-04T13:49:55Z</time>
      </trkpt>
      <trkpt lat="46.1623" lon="2.49461">
        <ele>445</ele>
        <time>2016-04-04T13:49:58Z</time>
      </trkpt>
      <trkpt lat="46.16228" lon="2.49467">
        <ele>445</ele>
        <time>2016-04-04T13:50:01Z</time>
      </trkpt>
      <trkpt lat="46.16226" lon="2.49473">
        <ele>445</ele>
        <time>2016-04-04T13:50:04Z</time>
      </trkpt>
      <trkpt lat="46.16223" lon="2.49479">
        <ele>445</ele>
        <time>2016-04-04T13:50:07Z</time>
      </trkpt>
      <trkpt lat="46.1622" lon="2.49485">
        <ele>444</ele>
        <time>2016-04-04T13:50:10Z</time>
      </trkpt>
      <trkpt lat="46.16218" lon="2.49491">
        <ele>444</ele>
        <time>2016-04-04T13:50:13Z</time>
      </trkpt>
      <trkpt lat="46.16216" lon="2.49497">
        <ele>444</ele>
        <time>2016-04-04T13:50:16Z</time>
      </trkpt>
      <trkpt lat="46.16213" lon="2.49503">
        <ele>444</ele>
        <time>2016-04-04T13:50:19Z</time>
      </trkpt>
      <trkpt lat="46.16211" lon="2.49509">
        <ele>444</ele>
        <time>2016-04-04T13:50:22Z</time>
      </trkpt>
      <trkpt lat="46.1621" lon="2.49514">
        <ele>444</ele>
        <time>2016-04-04T13:50:25Z</time>
      </trkpt>
      <trkpt lat="46.16209" lon="2.4952">
        <ele>444</ele>
        <time>2016-04-04T13:50:28Z</time>
      </trkpt>
      <trkpt lat="46.16207" lon="2.49526">
        <ele>444</ele>
        <time>2016-04-04T13:50:31Z</time>
      </trkpt>
      <trkpt lat="46.16205" lon="2.49532">
        <ele>444</ele>
        <time>2016-04-04T13:50:34Z</time>
      </trkpt>
      <trkpt lat="46.16203" lon="2.49537">
        <ele>444</ele>
        <time>2016-04-04T13:50:37Z</time>
      </trkpt>
      <trkpt lat="46.16201" lon="2.49542">
        <ele>444</ele>
        <time>2016-04-04T13:50:40Z</time>
      </trkpt>
      <trkpt lat="46.162" lon="2.49548">
        <ele>444</ele>
        <time>2016-04-04T13:50:43Z</time>
      </trkpt>
      <trkpt lat="46.16198" lon="2.49553">
        <ele>444</ele>
        <time>2016-04-04T13:50:46Z</time>
      </trkpt>
      <trkpt lat="46.16196" lon="2.49559">
        <ele>444</ele>
        <time>2016-04-04T13:50:49Z</time>
      </trkpt>
      <trkpt lat="46.16194" lon="2.49564">
        <ele>444</ele>
        <time>2016-04-04T13:50:52Z</time>
      </trkpt>
      <trkpt lat="46.16192" lon="2.4957">
        <ele>444</ele>
        <time>2016-04-04T13:50:55Z</time>
      </trkpt>
      <trkpt lat="46.16189" lon="2.49575">
        <ele>444</ele>
        <time>2016-04-04T13:50:58Z</time>
      </trkpt>
      <trkpt lat="46.16185" lon="2.4958">
        <ele>444</ele>
        <time>2016-04-04T13:51:02Z</time>
      </trkpt>
      <trkpt lat="46.16182" lon="2.49586">
        <ele>444</ele>
        <time>2016-04-04T13:51:06Z</time>
      </trkpt>
      <trkpt lat="46.16178" lon="2.49589">
        <ele>444</ele>
        <time>2016-04-04T13:51:09Z</time>
      </trkpt>
      <trkpt lat="46.16175" lon="2.49592">
        <ele>444</ele>
        <time>2016-04-04T13:51:12Z</time>
      </trkpt>
      <trkpt lat="46.16172" lon="2.49595">
        <ele>444</ele>
        <time>2016-04-04T13:51:15Z</time>
      </trkpt>
      <trkpt lat="46.16167" lon="2.49599">
        <ele>444</ele>
        <time>2016-04-04T13:51:19Z</time>
      </trkpt>
      <trkpt lat="46.16163" lon="2.49601">
        <ele>444</ele>
        <time>2016-04-04T13:51:22Z</time>
      </trkpt>
      <trkpt lat="46.16159" lon="2.49604">
        <ele>444</ele>
        <time>2016-04-04T13:51:25Z</time>
      </trkpt>
      <trkpt lat="46.16155" lon="2.49606">
        <ele>444</ele>
        <time>2016-04-04T13:51:28Z</time>
      </trkpt>
      <trkpt lat="46.16151" lon="2.49609">
        <ele>444</ele>
        <time>2016-04-04T13:51:31Z</time>
      </trkpt>
      <trkpt lat="46.16147" lon="2.49615">
        <ele>444</ele>
        <time>2016-04-04T13:51:35Z</time>
      </trkpt>
      <trkpt lat="46.16142" lon="2.49619">
        <ele>444</ele>
        <time>2016-04-04T13:51:39Z</time>
      </trkpt>
      <trkpt lat="46.16137" lon="2.49625">
        <ele>444</ele>
        <time>2016-04-04T13:51:44Z</time>
      </trkpt>
      <trkpt lat="46.16133" lon="2.49628">
        <ele>444</ele>
        <time>2016-04-04T13:51:47Z</time>
      </trkpt>
      <trkpt lat="46.16128" lon="2.49633">
        <ele>444</ele>
        <time>2016-04-04T13:51:51Z</time>
      </trkpt>
      <trkpt lat="46.16124" lon="2.49637">
        <ele>444</ele>
        <time>2016-04-04T13:51:55Z</time>
      </trkpt>
      <trkpt lat="46.1612" lon="2.49641">
        <ele>444</ele>
        <time>2016-04-04T13:51:58Z</time>
      </trkpt>
      <trkpt lat="46.16116" lon="2.49645">
        <ele>444</ele>
        <time>2016-04-04T13:52:01Z</time>
      </trkpt>
      <trkpt lat="46.16113" lon="2.49648">
        <ele>444</ele>
        <time>2016-04-04T13:52:04Z</time>
      </trkpt>
      <trkpt lat="46.16109" lon="2.49652">
        <ele>444</ele>
        <time>2016-04-04T13:52:07Z</time>
      </trkpt>
      <trkpt lat="46.16106" lon="2.49655">
        <ele>444</ele>
        <time>2016-04-04T13:52:10Z</time>
      </trkpt>
      <trkpt lat="46.16102" lon="2.49658">
        <ele>444</ele>
        <time>2016-04-04T13:52:13Z</time>
      </trkpt>
      <trkpt lat="46.16098" lon="2.49662">
        <ele>444</ele>
        <time>2016-04-04T13:52:16Z</time>
      </trkpt>
      <trkpt lat="46.16095" lon="2.49666">
        <ele>444</ele>
        <time>2016-04-04T13:52:19Z</time>
      </trkpt>
      <trkpt lat="46.16091" lon="2.4967">
        <ele>444</ele>
        <time>2016-04-04T13:52:22Z</time>
      </trkpt>
      <trkpt lat="46.16088" lon="2.49673">
        <ele>444</ele>
        <time>2016-04-04T13:52:25Z</time>
      </trkpt>
      <trkpt lat="46.16084" lon="2.49677">
        <ele>444</ele>
        <time>2016-04-04T13:52:28Z</time>
      </trkpt>
      <trkpt lat="46.16079" lon="2.49682">
        <ele>445</ele>
        <time>2016-04-04T13:52:32Z</time>
      </trkpt>
      <trkpt lat="46.16076" lon="2.49686">
        <ele>445</ele>
        <time>2016-04-04T13:52:35Z</time>
      </trkpt>
      <trkpt lat="46.16071" lon="2.4969">
        <ele>445</ele>
        <time>2016-04-04T13:52:39Z</time>
      </trkpt>
      <trkpt lat="46.16066" lon="2.49695">
        <ele>445</ele>
        <time>2016-04-04T13:52:42Z</time>
      </trkpt>
      <trkpt lat="46.16062" lon="2.49699">
        <ele>445</ele>
        <time>2016-04-04T13:52:45Z</time>
      </trkpt>
      <trkpt lat="46.16059" lon="2.49703">
        <ele>445</ele>
        <time>2016-04-04T13:52:49Z</time>
      </trkpt>
      <trkpt lat="46.16055" lon="2.49706">
        <ele>445</ele>
        <time>2016-04-04T13:52:52Z</time>
      </trkpt>
      <trkpt lat="46.16051" lon="2.4971">
        <ele>445</ele>
        <time>2016-04-04T13:52:55Z</time>
      </trkpt>
      <trkpt lat="46.16046" lon="2.49715">
        <ele>445</ele>
        <time>2016-04-04T13:52:58Z</time>
      </trkpt>
      <trkpt lat="46.16043" lon="2.49719">
        <ele>445</ele>
        <time>2016-04-04T13:53:01Z</time>
      </trkpt>
      <trkpt lat="46.16039" lon="2.49722">
        <ele>445</ele>
        <time>2016-04-04T13:53:05Z</time>
      </trkpt>
      <trkpt lat="46.16035" lon="2.49726">
        <ele>445</ele>
        <time>2016-04-04T13:53:08Z</time>
      </trkpt>
      <trkpt lat="46.16032" lon="2.4973">
        <ele>445</ele>
        <time>2016-04-04T13:53:11Z</time>
      </trkpt>
      <trkpt lat="46.16027" lon="2.49735">
        <ele>446</ele>
        <time>2016-04-04T13:53:15Z</time>
      </trkpt>
      <trkpt lat="46.16022" lon="2.4974">
        <ele>446</ele>
        <time>2016-04-04T13:53:18Z</time>
      </trkpt>
      <trkpt lat="46.16019" lon="2.49744">
        <ele>446</ele>
        <time>2016-04-04T13:53:21Z</time>
      </trkpt>
      <trkpt lat="46.16015" lon="2.49747">
        <ele>446</ele>
        <time>2016-04-04T13:53:24Z</time>
      </trkpt>
      <trkpt lat="46.16011" lon="2.49752">
        <ele>446</ele>
        <time>2016-04-04T13:53:28Z</time>
      </trkpt>
      <trkpt lat="46.16007" lon="2.49756">
        <ele>446</ele>
        <time>2016-04-04T13:53:32Z</time>
      </trkpt>
      <trkpt lat="46.16002" lon="2.4976">
        <ele>447</ele>
        <time>2016-04-04T13:53:36Z</time>
      </trkpt>
      <trkpt lat="46.15997" lon="2.49765">
        <ele>447</ele>
        <time>2016-04-04T13:53:40Z</time>
      </trkpt>
      <trkpt lat="46.15993" lon="2.4977">
        <ele>447</ele>
        <time>2016-04-04T13:53:43Z</time>
      </trkpt>
      <trkpt lat="46.15989" lon="2.49774">
        <ele>447</ele>
        <time>2016-04-04T13:53:46Z</time>
      </trkpt>
      <trkpt lat="46.15984" lon="2.49778">
        <ele>448</ele>
        <time>2016-04-04T13:53:51Z</time>
      </trkpt>
      <trkpt lat="46.1598" lon="2.49783">
        <ele>448</ele>
        <time>2016-04-04T13:53:54Z</time>
      </trkpt>
      <trkpt lat="46.15976" lon="2.49786">
        <ele>448</ele>
        <time>2016-04-04T13:53:57Z</time>
      </trkpt>
      <trkpt lat="46.15973" lon="2.4979">
        <ele>448</ele>
        <time>2016-04-04T13:54:01Z</time>
      </trkpt>
      <trkpt lat="46.15969" lon="2.49793">
        <ele>449</ele>
        <time>2016-04-04T13:54:04Z</time>
      </trkpt>
      <trkpt lat="46.15964" lon="2.49798">
        <ele>449</ele>
        <time>2016-04-04T13:54:07Z</time>
      </trkpt>
      <trkpt lat="46.15961" lon="2.49802">
        <ele>449</ele>
        <time>2016-04-04T13:54:11Z</time>
      </trkpt>
      <trkpt lat="46.15956" lon="2.49807">
        <ele>449</ele>
        <time>2016-04-04T13:54:14Z</time>
      </trkpt>
      <trkpt lat="46.15952" lon="2.49811">
        <ele>450</ele>
        <time>2016-04-04T13:54:17Z</time>
      </trkpt>
      <trkpt lat="46.15949" lon="2.49814">
        <ele>450</ele>
        <time>2016-04-04T13:54:21Z</time>
      </trkpt>
      <trkpt lat="46.15944" lon="2.49819">
        <ele>451</ele>
        <time>2016-04-04T13:54:24Z</time>
      </trkpt>
      <trkpt lat="46.15941" lon="2.49822">
        <ele>451</ele>
        <time>2016-04-04T13:54:27Z</time>
      </trkpt>
      <trkpt lat="46.15937" lon="2.49826">
        <ele>451</ele>
        <time>2016-04-04T13:54:31Z</time>
      </trkpt>
      <trkpt lat="46.15933" lon="2.49831">
        <ele>451</ele>
        <time>2016-04-04T13:54:34Z</time>
      </trkpt>
      <trkpt lat="46.15929" lon="2.49834">
        <ele>451</ele>
        <time>2016-04-04T13:54:37Z</time>
      </trkpt>
      <trkpt lat="46.15926" lon="2.49838">
        <ele>451</ele>
        <time>2016-04-04T13:54:41Z</time>
      </trkpt>
      <trkpt lat="46.15921" lon="2.49843">
        <ele>452</ele>
        <time>2016-04-04T13:54:44Z</time>
      </trkpt>
      <trkpt lat="46.15918" lon="2.49846">
        <ele>452</ele>
        <time>2016-04-04T13:54:47Z</time>
      </trkpt>
      <trkpt lat="46.15914" lon="2.4985">
        <ele>452</ele>
        <time>2016-04-04T13:54:51Z</time>
      </trkpt>
      <trkpt lat="46.15909" lon="2.49854">
        <ele>453</ele>
        <time>2016-04-04T13:54:54Z</time>
      </trkpt>
      <trkpt lat="46.15905" lon="2.49859">
        <ele>453</ele>
        <time>2016-04-04T13:54:58Z</time>
      </trkpt>
      <trkpt lat="46.15901" lon="2.49863">
        <ele>454</ele>
        <time>2016-04-04T13:55:01Z</time>
      </trkpt>
      <trkpt lat="46.15898" lon="2.49866">
        <ele>454</ele>
        <time>2016-04-04T13:55:04Z</time>
      </trkpt>
      <trkpt lat="46.15894" lon="2.4987">
        <ele>454</ele>
        <time>2016-04-04T13:55:07Z</time>
      </trkpt>
      <trkpt lat="46.15891" lon="2.49873">
        <ele>455</ele>
        <time>2016-04-04T13:55:11Z</time>
      </trkpt>
      <trkpt lat="46.15886" lon="2.49878">
        <ele>455</ele>
        <time>2016-04-04T13:55:14Z</time>
      </trkpt>
      <trkpt lat="46.15882" lon="2.49882">
        <ele>455</ele>
        <time>2016-04-04T13:55:17Z</time>
      </trkpt>
      <trkpt lat="46.15879" lon="2.49885">
        <ele>455</ele>
        <time>2016-04-04T13:55:21Z</time>
      </trkpt>
      <trkpt lat="46.15874" lon="2.4989">
        <ele>455</ele>
        <time>2016-04-04T13:55:24Z</time>
      </trkpt>
      <trkpt lat="46.1587" lon="2.49893">
        <ele>456</ele>
        <time>2016-04-04T13:55:27Z</time>
      </trkpt>
      <trkpt lat="46.15866" lon="2.49897">
        <ele>456</ele>
        <time>2016-04-04T13:55:31Z</time>
      </trkpt>
      <trkpt lat="46.15862" lon="2.49902">
        <ele>456</ele>
        <time>2016-04-04T13:55:34Z</time>
      </trkpt>
      <trkpt lat="46.15858" lon="2.49905">
        <ele>456</ele>
        <time>2016-04-04T13:55:37Z</time>
      </trkpt>
      <trkpt lat="46.15854" lon="2.49909">
        <ele>456</ele>
        <time>2016-04-04T13:55:41Z</time>
      </trkpt>
      <trkpt lat="46.15849" lon="2.49914">
        <ele>456</ele>
        <time>2016-04-04T13:55:44Z</time>
      </trkpt>
      <trkpt lat="46.15845" lon="2.49918">
        <ele>456</ele>
        <time>2016-04-04T13:55:47Z</time>
      </trkpt>
      <trkpt lat="46.15841" lon="2.49922">
        <ele>457</ele>
        <time>2016-04-04T13:55:51Z</time>
      </trkpt>
      <trkpt lat="46.15836" lon="2.49926">
        <ele>457</ele>
        <time>2016-04-04T13:55:54Z</time>
      </trkpt>
      <trkpt lat="46.15833" lon="2.4993">
        <ele>457</ele>
        <time>2016-04-04T13:55:57Z</time>
      </trkpt>
      <trkpt lat="46.15829" lon="2.49934">
        <ele>457</ele>
        <time>2016-04-04T13:56:01Z</time>
      </trkpt>
      <trkpt lat="46.15824" lon="2.49939">
        <ele>457</ele>
        <time>2016-04-04T13:56:04Z</time>
      </trkpt>
      <trkpt lat="46.1582" lon="2.49942">
        <ele>457</ele>
        <time>2016-04-04T13:56:07Z</time>
      </trkpt>
      <trkpt lat="46.15816" lon="2.49946">
        <ele>457</ele>
        <time>2016-04-04T13:56:11Z</time>
      </trkpt>
      <trkpt lat="46.15811" lon="2.49951">
        <ele>457</ele>
        <time>2016-04-04T13:56:14Z</time>
      </trkpt>
      <trkpt lat="46.15807" lon="2.49955">
        <ele>457</ele>
        <time>2016-04-04T13:56:17Z</time>
      </trkpt>
      <trkpt lat="46.15803" lon="2.49959">
        <ele>457</ele>
        <time>2016-04-04T13:56:21Z</time>
      </trkpt>
      <trkpt lat="46.15798" lon="2.49964">
        <ele>457</ele>
        <time>2016-04-04T13:56:24Z</time>
      </trkpt>
      <trkpt lat="46.15794" lon="2.49968">
        <ele>457</ele>
        <time>2016-04-04T13:56:27Z</time>
      </trkpt>
      <trkpt lat="46.15791" lon="2.49971">
        <ele>457</ele>
        <time>2016-04-04T13:56:31Z</time>
      </trkpt>
      <trkpt lat="46.15786" lon="2.49976">
        <ele>457</ele>
        <time>2016-04-04T13:56:34Z</time>
      </trkpt>
      <trkpt lat="46.15782" lon="2.4998">
        <ele>457</ele>
        <time>2016-04-04T13:56:37Z</time>
      </trkpt>
      <trkpt lat="46.15778" lon="2.49984">
        <ele>457</ele>
        <time>2016-04-04T13:56:41Z</time>
      </trkpt>
      <trkpt lat="46.15773" lon="2.49989">
        <ele>457</ele>
        <time>2016-04-04T13:56:44Z</time>
      </trkpt>
      <trkpt lat="46.1577" lon="2.49992">
        <ele>457</ele>
        <time>2016-04-04T13:56:47Z</time>
      </trkpt>
      <trkpt lat="46.15766" lon="2.49996">
        <ele>457</ele>
        <time>2016-04-04T13:56:51Z</time>
      </trkpt>
      <trkpt lat="46.1576" lon="2.50002">
        <ele>457</ele>
        <time>2016-04-04T13:56:54Z</time>
      </trkpt>
      <trkpt lat="46.15757" lon="2.50006">
        <ele>457</ele>
        <time>2016-04-04T13:56:57Z</time>
      </trkpt>
      <trkpt lat="46.15753" lon="2.50009">
        <ele>457</ele>
        <time>2016-04-04T13:57:01Z</time>
      </trkpt>
      <trkpt lat="46.15748" lon="2.50014">
        <ele>457</ele>
        <time>2016-04-04T13:57:04Z</time>
      </trkpt>
      <trkpt lat="46.15744" lon="2.50018">
        <ele>457</ele>
        <time>2016-04-04T13:57:07Z</time>
      </trkpt>
      <trkpt lat="46.1574" lon="2.50022">
        <ele>457</ele>
        <time>2016-04-04T13:57:11Z</time>
      </trkpt>
      <trkpt lat="46.15735" lon="2.50027">
        <ele>457</ele>
        <time>2016-04-04T13:57:14Z</time>
      </trkpt>
      <trkpt lat="46.15731" lon="2.50031">
        <ele>457</ele>
        <time>2016-04-04T13:57:17Z</time>
      </trkpt>
      <trkpt lat="46.15728" lon="2.50034">
        <ele>457</ele>
        <time>2016-04-04T13:57:21Z</time>
      </trkpt>
      <trkpt lat="46.15723" lon="2.50039">
        <ele>457</ele>
        <time>2016-04-04T13:57:24Z</time>
      </trkpt>
      <trkpt lat="46.15719" lon="2.50043">
        <ele>457</ele>
        <time>2016-04-04T13:57:27Z</time>
      </trkpt>
      <trkpt lat="46.15715" lon="2.50046">
        <ele>457</ele>
        <time>2016-04-04T13:57:31Z</time>
      </trkpt>
      <trkpt lat="46.1571" lon="2.50052">
        <ele>457</ele>
        <time>2016-04-04T13:57:34Z</time>
      </trkpt>
      <trkpt lat="46.15706" lon="2.50055">
        <ele>457</ele>
        <time>2016-04-04T13:57:37Z</time>
      </trkpt>
      <trkpt lat="46.15702" lon="2.50059">
        <ele>457</ele>
        <time>2016-04-04T13:57:41Z</time>
      </trkpt>
      <trkpt lat="46.15697" lon="2.50064">
        <ele>457</ele>
        <time>2016-04-04T13:57:44Z</time>
      </trkpt>
      <trkpt lat="46.15694" lon="2.50067">
        <ele>457</ele>
        <time>2016-04-04T13:57:47Z</time>
      </trkpt>
      <trkpt lat="46.1569" lon="2.50071">
        <ele>457</ele>
        <time>2016-04-04T13:57:51Z</time>
      </trkpt>
      <trkpt lat="46.15685" lon="2.50076">
        <ele>457</ele>
        <time>2016-04-04T13:57:54Z</time>
      </trkpt>
      <trkpt lat="46.15682" lon="2.50081">
        <ele>457</ele>
        <time>2016-04-04T13:57:57Z</time>
      </trkpt>
      <trkpt lat="46.15679" lon="2.50087">
        <ele>457</ele>
        <time>2016-04-04T13:58:01Z</time>
      </trkpt>
      <trkpt lat="46.15679" lon="2.50095">
        <ele>457</ele>
        <time>2016-04-04T13:58:04Z</time>
      </trkpt>
      <trkpt lat="46.1568" lon="2.50101">
        <ele>457</ele>
        <time>2016-04-04T13:58:07Z</time>
      </trkpt>
      <trkpt lat="46.15683" lon="2.50107">
        <ele>457</ele>
        <time>2016-04-04T13:58:11Z</time>
      </trkpt>
      <trkpt lat="46.15686" lon="2.50114">
        <ele>457</ele>
        <time>2016-04-04T13:58:14Z</time>
      </trkpt>
      <trkpt lat="46.15688" lon="2.50119">
        <ele>457</ele>
        <time>2016-04-04T13:58:17Z</time>
      </trkpt>
      <trkpt lat="46.15691" lon="2.50125">
        <ele>457</ele>
        <time>2016-04-04T13:58:20Z</time>
      </trkpt>
      <trkpt lat="46.15693" lon="2.5013">
        <ele>457</ele>
        <time>2016-04-04T13:58:23Z</time>
      </trkpt>
      <trkpt lat="46.15696" lon="2.50136">
        <ele>457</ele>
        <time>2016-04-04T13:58:26Z</time>
      </trkpt>
      <trkpt lat="46.15699" lon="2.50141">
        <ele>457</ele>
        <time>2016-04-04T13:58:29Z</time>
      </trkpt>
      <trkpt lat="46.15701" lon="2.50147">
        <ele>457</ele>
        <time>2016-04-04T13:58:32Z</time>
      </trkpt>
      <trkpt lat="46.15703" lon="2.50153">
        <ele>457</ele>
        <time>2016-04-04T13:58:35Z</time>
      </trkpt>
      <trkpt lat="46.15705" lon="2.50159">
        <ele>457</ele>
        <time>2016-04-04T13:58:38Z</time>
      </trkpt>
      <trkpt lat="46.15708" lon="2.50164">
        <ele>457</ele>
        <time>2016-04-04T13:58:41Z</time>
      </trkpt>
      <trkpt lat="46.1571" lon="2.50169">
        <ele>457</ele>
        <time>2016-04-04T13:58:44Z</time>
      </trkpt>
      <trkpt lat="46.15713" lon="2.50175">
        <ele>457</ele>
        <time>2016-04-04T13:58:47Z</time>
      </trkpt>
      <trkpt lat="46.15715" lon="2.50181">
        <ele>457</ele>
        <time>2016-04-04T13:58:51Z</time>
      </trkpt>
      <trkpt lat="46.15719" lon="2.50189">
        <ele>456</ele>
        <time>2016-04-04T13:58:54Z</time>
      </trkpt>
      <trkpt lat="46.15721" lon="2.50195">
        <ele>456</ele>
        <time>2016-04-04T13:58:57Z</time>
      </trkpt>
      <trkpt lat="46.15723" lon="2.50201">
        <ele>456</ele>
        <time>2016-04-04T13:59:01Z</time>
      </trkpt>
      <trkpt lat="46.15726" lon="2.50208">
        <ele>455</ele>
        <time>2016-04-04T13:59:04Z</time>
      </trkpt>
      <trkpt lat="46.15729" lon="2.50214">
        <ele>455</ele>
        <time>2016-04-04T13:59:07Z</time>
      </trkpt>
      <trkpt lat="46.15732" lon="2.50219">
        <ele>455</ele>
        <time>2016-04-04T13:59:11Z</time>
      </trkpt>
      <trkpt lat="46.15735" lon="2.50226">
        <ele>455</ele>
        <time>2016-04-04T13:59:14Z</time>
      </trkpt>
      <trkpt lat="46.15738" lon="2.50232">
        <ele>455</ele>
        <time>2016-04-04T13:59:17Z</time>
      </trkpt>
      <trkpt lat="46.15741" lon="2.50237">
        <ele>455</ele>
        <time>2016-04-04T13:59:21Z</time>
      </trkpt>
      <trkpt lat="46.15744" lon="2.50244">
        <ele>455</ele>
        <time>2016-04-04T13:59:24Z</time>
      </trkpt>
      <trkpt lat="46.15747" lon="2.50249">
        <ele>455</ele>
        <time>2016-04-04T13:59:27Z</time>
      </trkpt>
      <trkpt lat="46.15749" lon="2.50254">
        <ele>455</ele>
        <time>2016-04-04T13:59:30Z</time>
      </trkpt>
      <trkpt lat="46.15752" lon="2.50259">
        <ele>455</ele>
        <time>2016-04-04T13:59:33Z</time>
      </trkpt>
      <trkpt lat="46.15755" lon="2.50264">
        <ele>455</ele>
        <time>2016-04-04T13:59:36Z</time>
      </trkpt>
      <trkpt lat="46.15758" lon="2.50269">
        <ele>455</ele>
        <time>2016-04-04T13:59:39Z</time>
      </trkpt>
      <trkpt lat="46.15761" lon="2.50274">
        <ele>455</ele>
        <time>2016-04-04T13:59:42Z</time>
      </trkpt>
      <trkpt lat="46.15764" lon="2.50279">
        <ele>455</ele>
        <time>2016-04-04T13:59:46Z</time>
      </trkpt>
      <trkpt lat="46.15767" lon="2.50286">
        <ele>455</ele>
        <time>2016-04-04T13:59:49Z</time>
      </trkpt>
      <trkpt lat="46.1577" lon="2.5029">
        <ele>455</ele>
        <time>2016-04-04T13:59:52Z</time>
      </trkpt>
      <trkpt lat="46.15773" lon="2.50295">
        <ele>455</ele>
        <time>2016-04-04T13:59:56Z</time>
      </trkpt>
      <trkpt lat="46.15777" lon="2.50302">
        <ele>455</ele>
        <time>2016-04-04T13:59:59Z</time>
      </trkpt>
      <trkpt lat="46.15779" lon="2.50307">
        <ele>455</ele>
        <time>2016-04-04T14:00:02Z</time>
      </trkpt>
      <trkpt lat="46.15782" lon="2.50311">
        <ele>455</ele>
        <time>2016-04-04T14:00:06Z</time>
      </trkpt>
      <trkpt lat="46.15786" lon="2.50318">
        <ele>455</ele>
        <time>2016-04-04T14:00:09Z</time>
      </trkpt>
      <trkpt lat="46.15789" lon="2.50323">
        <ele>455</ele>
        <time>2016-04-04T14:00:12Z</time>
      </trkpt>
      <trkpt lat="46.15791" lon="2.50327">
        <ele>455</ele>
        <time>2016-04-04T14:00:16Z</time>
      </trkpt>
      <trkpt lat="46.15795" lon="2.50334">
        <ele>455</ele>
        <time>2016-04-04T14:00:19Z</time>
      </trkpt>
      <trkpt lat="46.15798" lon="2.50339">
        <ele>455</ele>
        <time>2016-04-04T14:00:22Z</time>
      </trkpt>
      <trkpt lat="46.158" lon="2.50343">
        <ele>455</ele>
        <time>2016-04-04T14:00:25Z</time>
      </trkpt>
      <trkpt lat="46.15803" lon="2.50348">
        <ele>455</ele>
        <time>2016-04-04T14:00:28Z</time>
      </trkpt>
      <trkpt lat="46.15806" lon="2.50353">
        <ele>455</ele>
        <time>2016-04-04T14:00:31Z</time>
      </trkpt>
      <trkpt lat="46.15808" lon="2.50358">
        <ele>455</ele>
        <time>2016-04-04T14:00:34Z</time>
      </trkpt>
      <trkpt lat="46.15812" lon="2.50364">
        <ele>455</ele>
        <time>2016-04-04T14:00:38Z</time>
      </trkpt>
      <trkpt lat="46.15815" lon="2.50368">
        <ele>455</ele>
        <time>2016-04-04T14:00:41Z</time>
      </trkpt>
      <trkpt lat="46.15817" lon="2.50373">
        <ele>456</ele>
        <time>2016-04-04T14:00:44Z</time>
      </trkpt>
      <trkpt lat="46.1582" lon="2.50378">
        <ele>456</ele>
        <time>2016-04-04T14:00:47Z</time>
      </trkpt>
      <trkpt lat="46.15823" lon="2.50382">
        <ele>456</ele>
        <time>2016-04-04T14:00:50Z</time>
      </trkpt>
      <trkpt lat="46.15826" lon="2.50388">
        <ele>457</ele>
        <time>2016-04-04T14:00:53Z</time>
      </trkpt>
      <trkpt lat="46.15828" lon="2.50392">
        <ele>457</ele>
        <time>2016-04-04T14:00:56Z</time>
      </trkpt>
      <trkpt lat="46.15831" lon="2.50397">
        <ele>457</ele>
        <time>2016-04-04T14:00:59Z</time>
      </trkpt>
      <trkpt lat="46.15834" lon="2.50402">
        <ele>457</ele>
        <time>2016-04-04T14:01:02Z</time>
      </trkpt>
      <trkpt lat="46.15836" lon="2.50407">
        <ele>458</ele>
        <time>2016-04-04T14:01:05Z</time>
      </trkpt>
      <trkpt lat="46.15839" lon="2.50412">
        <ele>458</ele>
        <time>2016-04-04T14:01:08Z</time>
      </trkpt>
      <trkpt lat="46.15842" lon="2.50417">
        <ele>458</ele>
        <time>2016-04-04T14:01:11Z</time>
      </trkpt>
      <trkpt lat="46.15844" lon="2.50423">
        <ele>458</ele>
        <time>2016-04-04T14:01:14Z</time>
      </trkpt>
      <trkpt lat="46.15847" lon="2.50427">
        <ele>458</ele>
        <time>2016-04-04T14:01:17Z</time>
      </trkpt>
      <trkpt lat="46.1585" lon="2.50432">
        <ele>459</ele>
        <time>2016-04-04T14:01:20Z</time>
      </trkpt>
      <trkpt lat="46.15853" lon="2.50437">
        <ele>459</ele>
        <time>2016-04-04T14:01:23Z</time>
      </trkpt>
      <trkpt lat="46.15856" lon="2.50442">
        <ele>459</ele>
        <time>2016-04-04T14:01:26Z</time>
      </trkpt>
      <trkpt lat="46.15859" lon="2.50447">
        <ele>459</ele>
        <time>2016-04-04T14:01:29Z</time>
      </trkpt>
      <trkpt lat="46.15862" lon="2.50452">
        <ele>459</ele>
        <time>2016-04-04T14:01:32Z</time>
      </trkpt>
      <trkpt lat="46.15864" lon="2.50457">
        <ele>459</ele>
        <time>2016-04-04T14:01:35Z</time>
      </trkpt>
      <trkpt lat="46.15867" lon="2.50462">
        <ele>459</ele>
        <time>2016-04-04T14:01:38Z</time>
      </trkpt>
      <trkpt lat="46.1587" lon="2.50467">
        <ele>459</ele>
        <time>2016-04-04T14:01:41Z</time>
      </trkpt>
      <trkpt lat="46.15873" lon="2.50471">
        <ele>459</ele>
        <time>2016-04-04T14:01:44Z</time>
      </trkpt>
      <trkpt lat="46.15876" lon="2.50476">
        <ele>459</ele>
        <time>2016-04-04T14:01:47Z</time>
      </trkpt>
      <trkpt lat="46.15879" lon="2.50482">
        <ele>459</ele>
        <time>2016-04-04T14:01:50Z</time>
      </trkpt>
      <trkpt lat="46.15881" lon="2.50486">
        <ele>459</ele>
        <time>2016-04-04T14:01:53Z</time>
      </trkpt>
      <trkpt lat="46.15884" lon="2.50491">
        <ele>459</ele>
        <time>2016-04-04T14:01:56Z</time>
      </trkpt>
      <trkpt lat="46.15887" lon="2.50496">
        <ele>459</ele>
        <time>2016-04-04T14:01:59Z</time>
      </trkpt>
      <trkpt lat="46.1589" lon="2.50501">
        <ele>459</ele>
        <time>2016-04-04T14:02:02Z</time>
      </trkpt>
      <trkpt lat="46.15893" lon="2.50506">
        <ele>459</ele>
        <time>2016-04-04T14:02:05Z</time>
      </trkpt>
      <trkpt lat="46.15896" lon="2.50511">
        <ele>459</ele>
        <time>2016-04-04T14:02:08Z</time>
      </trkpt>
      <trkpt lat="46.15899" lon="2.50516">
        <ele>459</ele>
        <time>2016-04-04T14:02:11Z</time>
      </trkpt>
      <trkpt lat="46.15902" lon="2.5052">
        <ele>459</ele>
        <time>2016-04-04T14:02:14Z</time>
      </trkpt>
      <trkpt lat="46.15905" lon="2.50525">
        <ele>459</ele>
        <time>2016-04-04T14:02:17Z</time>
      </trkpt>
      <trkpt lat="46.15907" lon="2.5053">
        <ele>460</ele>
        <time>2016-04-04T14:02:20Z</time>
      </trkpt>
      <trkpt lat="46.1591" lon="2.50536">
        <ele>460</ele>
        <time>2016-04-04T14:02:23Z</time>
      </trkpt>
      <trkpt lat="46.15913" lon="2.5054">
        <ele>460</ele>
        <time>2016-04-04T14:02:26Z</time>
      </trkpt>
      <trkpt lat="46.15916" lon="2.50545">
        <ele>460</ele>
        <time>2016-04-04T14:02:29Z</time>
      </trkpt>
      <trkpt lat="46.15919" lon="2.5055">
        <ele>460</ele>
        <time>2016-04-04T14:02:32Z</time>
      </trkpt>
      <trkpt lat="46.15921" lon="2.50555">
        <ele>460</ele>
        <time>2016-04-04T14:02:35Z</time>
      </trkpt>
      <trkpt lat="46.15924" lon="2.5056">
        <ele>460</ele>
        <time>2016-04-04T14:02:38Z</time>
      </trkpt>
      <trkpt lat="46.15928" lon="2.50565">
        <ele>460</ele>
        <time>2016-04-04T14:02:41Z</time>
      </trkpt>
      <trkpt lat="46.15931" lon="2.50569">
        <ele>461</ele>
        <time>2016-04-04T14:02:44Z</time>
      </trkpt>
      <trkpt lat="46.15935" lon="2.50568">
        <ele>462</ele>
        <time>2016-04-04T14:02:47Z</time>
      </trkpt>
      <trkpt lat="46.15938" lon="2.50564">
        <ele>462</ele>
        <time>2016-04-04T14:02:50Z</time>
      </trkpt>
      <trkpt lat="46.15941" lon="2.50559">
        <ele>462</ele>
        <time>2016-04-04T14:02:53Z</time>
      </trkpt>
      <trkpt lat="46.15944" lon="2.50555">
        <ele>462</ele>
        <time>2016-04-04T14:02:56Z</time>
      </trkpt>
      <trkpt lat="46.15947" lon="2.50551">
        <ele>462</ele>
        <time>2016-04-04T14:02:59Z</time>
      </trkpt>
      <trkpt lat="46.15951" lon="2.50546">
        <ele>462</ele>
        <time>2016-04-04T14:03:02Z</time>
      </trkpt>
      <trkpt lat="46.15954" lon="2.50541">
        <ele>462</ele>
        <time>2016-04-04T14:03:05Z</time>
      </trkpt>
      <trkpt lat="46.15958" lon="2.50535">
        <ele>462</ele>
        <time>2016-04-04T14:03:09Z</time>
      </trkpt>
      <trkpt lat="46.15963" lon="2.5053">
        <ele>462</ele>
        <time>2016-04-04T14:03:13Z</time>
      </trkpt>
      <trkpt lat="46.15965" lon="2.50525">
        <ele>462</ele>
        <time>2016-04-04T14:03:16Z</time>
      </trkpt>
      <trkpt lat="46.15968" lon="2.5052">
        <ele>462</ele>
        <time>2016-04-04T14:03:19Z</time>
      </trkpt>
      <trkpt lat="46.15972" lon="2.50516">
        <ele>462</ele>
        <time>2016-04-04T14:03:22Z</time>
      </trkpt>
      <trkpt lat="46.15975" lon="2.50511">
        <ele>462</ele>
        <time>2016-04-04T14:03:25Z</time>
      </trkpt>
      <trkpt lat="46.15978" lon="2.50506">
        <ele>462</ele>
        <time>2016-04-04T14:03:28Z</time>
      </trkpt>
      <trkpt lat="46.15981" lon="2.50502">
        <ele>462</ele>
        <time>2016-04-04T14:03:31Z</time>
      </trkpt>
      <trkpt lat="46.15984" lon="2.50498">
        <ele>462</ele>
        <time>2016-04-04T14:03:34Z</time>
      </trkpt>
      <trkpt lat="46.15987" lon="2.50493">
        <ele>462</ele>
        <time>2016-04-04T14:03:37Z</time>
      </trkpt>
      <trkpt lat="46.15991" lon="2.50488">
        <ele>462</ele>
        <time>2016-04-04T14:03:40Z</time>
      </trkpt>
      <trkpt lat="46.15994" lon="2.50483">
        <ele>462</ele>
        <time>2016-04-04T14:03:43Z</time>
      </trkpt>
      <trkpt lat="46.15997" lon="2.50479">
        <ele>462</ele>
        <time>2016-04-04T14:03:46Z</time>
      </trkpt>
      <trkpt lat="46.16002" lon="2.50472">
        <ele>462</ele>
        <time>2016-04-04T14:03:50Z</time>
      </trkpt>
      <trkpt lat="46.16005" lon="2.50468">
        <ele>462</ele>
        <time>2016-04-04T14:03:53Z</time>
      </trkpt>
      <trkpt lat="46.1601" lon="2.50463">
        <ele>462</ele>
        <time>2016-04-04T14:03:57Z</time>
      </trkpt>
      <trkpt lat="46.16015" lon="2.50457">
        <ele>462</ele>
        <time>2016-04-04T14:04:01Z</time>
      </trkpt>
      <trkpt lat="46.16018" lon="2.50452">
        <ele>461</ele>
        <time>2016-04-04T14:04:04Z</time>
      </trkpt>
      <trkpt lat="46.16021" lon="2.50448">
        <ele>461</ele>
        <time>2016-04-04T14:04:07Z</time>
      </trkpt>
      <trkpt lat="46.16025" lon="2.50444">
        <ele>461</ele>
        <time>2016-04-04T14:04:10Z</time>
      </trkpt>
      <trkpt lat="46.16028" lon="2.5044">
        <ele>460</ele>
        <time>2016-04-04T14:04:13Z</time>
      </trkpt>
      <trkpt lat="46.16031" lon="2.50437">
        <ele>460</ele>
        <time>2016-04-04T14:04:16Z</time>
      </trkpt>
      <trkpt lat="46.16035" lon="2.50435">
        <ele>460</ele>
        <time>2016-04-04T14:04:19Z</time>
      </trkpt>
      <trkpt lat="46.1604" lon="2.50432">
        <ele>460</ele>
        <time>2016-04-04T14:04:22Z</time>
      </trkpt>
      <trkpt lat="46.16043" lon="2.50429">
        <ele>460</ele>
        <time>2016-04-04T14:04:25Z</time>
      </trkpt>
      <trkpt lat="46.16048" lon="2.50426">
        <ele>460</ele>
        <time>2016-04-04T14:04:28Z</time>
      </trkpt>
      <trkpt lat="46.16051" lon="2.50428">
        <ele>460</ele>
        <time>2016-04-04T14:04:31Z</time>
      </trkpt>
      <trkpt lat="46.16055" lon="2.50432">
        <ele>460</ele>
        <time>2016-04-04T14:04:34Z</time>
      </trkpt>
      <trkpt lat="46.16057" lon="2.50438">
        <ele>460</ele>
        <time>2016-04-04T14:04:37Z</time>
      </trkpt>
      <trkpt lat="46.16059" lon="2.50443">
        <ele>460</ele>
        <time>2016-04-04T14:04:40Z</time>
      </trkpt>
      <trkpt lat="46.16061" lon="2.50449">
        <ele>460</ele>
        <time>2016-04-04T14:04:43Z</time>
      </trkpt>
      <trkpt lat="46.16062" lon="2.50455">
        <ele>460</ele>
        <time>2016-04-04T14:04:46Z</time>
      </trkpt>
      <trkpt lat="46.16064" lon="2.5046">
        <ele>460</ele>
        <time>2016-04-04T14:04:49Z</time>
      </trkpt>
      <trkpt lat="46.16066" lon="2.50466">
        <ele>460</ele>
        <time>2016-04-04T14:04:52Z</time>
      </trkpt>
      <trkpt lat="46.16068" lon="2.50471">
        <ele>460</ele>
        <time>2016-04-04T14:04:55Z</time>
      </trkpt>
      <trkpt lat="46.1607" lon="2.50477">
        <ele>460</ele>
        <time>2016-04-04T14:04:58Z</time>
      </trkpt>
      <trkpt lat="46.16071" lon="2.50483">
        <ele>460</ele>
        <time>2016-04-04T14:05:01Z</time>
      </trkpt>
      <trkpt lat="46.16073" lon="2.50488">
        <ele>460</ele>
        <time>2016-04-04T14:05:04Z</time>
      </trkpt>
      <trkpt lat="46.16075" lon="2.50494">
        <ele>460</ele>
        <time>2016-04-04T14:05:07Z</time>
      </trkpt>
      <trkpt lat="46.16076" lon="2.50499">
        <ele>460</ele>
        <time>2016-04-04T14:05:10Z</time>
      </trkpt>
      <trkpt lat="46.16078" lon="2.50504">
        <ele>460</ele>
        <time>2016-04-04T14:05:13Z</time>
      </trkpt>
      <trkpt lat="46.1608" lon="2.5051">
        <ele>460</ele>
        <time>2016-04-04T14:05:16Z</time>
      </trkpt>
      <trkpt lat="46.16082" lon="2.50516">
        <ele>460</ele>
        <time>2016-04-04T14:05:19Z</time>
      </trkpt>
      <trkpt lat="46.16084" lon="2.50522">
        <ele>460</ele>
        <time>2016-04-04T14:05:22Z</time>
      </trkpt>
      <trkpt lat="46.16085" lon="2.50528">
        <ele>460</ele>
        <time>2016-04-04T14:05:25Z</time>
      </trkpt>
      <trkpt lat="46.16087" lon="2.50533">
        <ele>460</ele>
        <time>2016-04-04T14:05:28Z</time>
      </trkpt>
      <trkpt lat="46.1609" lon="2.50539">
        <ele>460</ele>
        <time>2016-04-04T14:05:31Z</time>
      </trkpt>
      <trkpt lat="46.16091" lon="2.50545">
        <ele>460</ele>
        <time>2016-04-04T14:05:34Z</time>
      </trkpt>
      <trkpt lat="46.16094" lon="2.5055">
        <ele>460</ele>
        <time>2016-04-04T14:05:37Z</time>
      </trkpt>
      <trkpt lat="46.16096" lon="2.50556">
        <ele>460</ele>
        <time>2016-04-04T14:05:40Z</time>
      </trkpt>
      <trkpt lat="46.16098" lon="2.50562">
        <ele>460</ele>
        <time>2016-04-04T14:05:43Z</time>
      </trkpt>
      <trkpt lat="46.161" lon="2.50568">
        <ele>460</ele>
        <time>2016-04-04T14:05:46Z</time>
      </trkpt>
      <trkpt lat="46.16102" lon="2.50573">
        <ele>460</ele>
        <time>2016-04-04T14:05:49Z</time>
      </trkpt>
      <trkpt lat="46.16103" lon="2.50579">
        <ele>460</ele>
        <time>2016-04-04T14:05:52Z</time>
      </trkpt>
      <trkpt lat="46.16105" lon="2.50585">
        <ele>460</ele>
        <time>2016-04-04T14:05:55Z</time>
      </trkpt>
      <trkpt lat="46.16108" lon="2.50591">
        <ele>460</ele>
        <time>2016-04-04T14:05:58Z</time>
      </trkpt>
      <trkpt lat="46.16109" lon="2.50596">
        <ele>460</ele>
        <time>2016-04-04T14:06:01Z</time>
      </trkpt>
      <trkpt lat="46.16111" lon="2.50603">
        <ele>460</ele>
        <time>2016-04-04T14:06:04Z</time>
      </trkpt>
      <trkpt lat="46.16113" lon="2.50609">
        <ele>460</ele>
        <time>2016-04-04T14:06:07Z</time>
      </trkpt>
      <trkpt lat="46.16115" lon="2.50615">
        <ele>460</ele>
        <time>2016-04-04T14:06:10Z</time>
      </trkpt>
      <trkpt lat="46.16117" lon="2.50621">
        <ele>460</ele>
        <time>2016-04-04T14:06:13Z</time>
      </trkpt>
      <trkpt lat="46.16119" lon="2.50627">
        <ele>460</ele>
        <time>2016-04-04T14:06:16Z</time>
      </trkpt>
      <trkpt lat="46.16121" lon="2.50633">
        <ele>460</ele>
        <time>2016-04-04T14:06:19Z</time>
      </trkpt>
      <trkpt lat="46.16122" lon="2.50639">
        <ele>460</ele>
        <time>2016-04-04T14:06:22Z</time>
      </trkpt>
      <trkpt lat="46.16124" lon="2.50645">
        <ele>460</ele>
        <time>2016-04-04T14:06:25Z</time>
      </trkpt>
      <trkpt lat="46.16127" lon="2.50651">
        <ele>460</ele>
        <time>2016-04-04T14:06:28Z</time>
      </trkpt>
      <trkpt lat="46.16129" lon="2.50657">
        <ele>460</ele>
        <time>2016-04-04T14:06:31Z</time>
      </trkpt>
      <trkpt lat="46.1613" lon="2.50664">
        <ele>460</ele>
        <time>2016-04-04T14:06:34Z</time>
      </trkpt>
      <trkpt lat="46.16132" lon="2.5067">
        <ele>460</ele>
        <time>2016-04-04T14:06:37Z</time>
      </trkpt>
      <trkpt lat="46.16134" lon="2.50676">
        <ele>460</ele>
        <time>2016-04-04T14:06:40Z</time>
      </trkpt>
      <trkpt lat="46.16136" lon="2.50682">
        <ele>460</ele>
        <time>2016-04-04T14:06:43Z</time>
      </trkpt>
      <trkpt lat="46.16138" lon="2.50689">
        <ele>460</ele>
        <time>2016-04-04T14:06:46Z</time>
      </trkpt>
      <trkpt lat="46.1614" lon="2.50695">
        <ele>460</ele>
        <time>2016-04-04T14:06:49Z</time>
      </trkpt>
      <trkpt lat="46.16142" lon="2.507">
        <ele>460</ele>
        <time>2016-04-04T14:06:52Z</time>
      </trkpt>
      <trkpt lat="46.16143" lon="2.50707">
        <ele>460</ele>
        <time>2016-04-04T14:06:55Z</time>
      </trkpt>
      <trkpt lat="46.16145" lon="2.50713">
        <ele>460</ele>
        <time>2016-04-04T14:06:58Z</time>
      </trkpt>
      <trkpt lat="46.16147" lon="2.50719">
        <ele>460</ele>
        <time>2016-04-04T14:07:01Z</time>
      </trkpt>
      <trkpt lat="46.16149" lon="2.50725">
        <ele>460</ele>
        <time>2016-04-04T14:07:04Z</time>
      </trkpt>
      <trkpt lat="46.16151" lon="2.50731">
        <ele>460</ele>
        <time>2016-04-04T14:07:07Z</time>
      </trkpt>
      <trkpt lat="46.16153" lon="2.50737">
        <ele>460</ele>
        <time>2016-04-04T14:07:10Z</time>
      </trkpt>
      <trkpt lat="46.16154" lon="2.50743">
        <ele>460</ele>
        <time>2016-04-04T14:07:13Z</time>
      </trkpt>
      <trkpt lat="46.16156" lon="2.50749">
        <ele>460</ele>
        <time>2016-04-04T14:07:16Z</time>
      </trkpt>
      <trkpt lat="46.16158" lon="2.50754">
        <ele>460</ele>
        <time>2016-04-04T14:07:19Z</time>
      </trkpt>
      <trkpt lat="46.16161" lon="2.50759">
        <ele>460</ele>
        <time>2016-04-04T14:07:22Z</time>
      </trkpt>
      <trkpt lat="46.16165" lon="2.50761">
        <ele>460</ele>
        <time>2016-04-04T14:07:25Z</time>
      </trkpt>
      <trkpt lat="46.16169" lon="2.50758">
        <ele>460</ele>
        <time>2016-04-04T14:07:28Z</time>
      </trkpt>
      <trkpt lat="46.16173" lon="2.50754">
        <ele>460</ele>
        <time>2016-04-04T14:07:31Z</time>
      </trkpt>
      <trkpt lat="46.16176" lon="2.5075">
        <ele>460</ele>
        <time>2016-04-04T14:07:34Z</time>
      </trkpt>
      <trkpt lat="46.1618" lon="2.50746">
        <ele>460</ele>
        <time>2016-04-04T14:07:37Z</time>
      </trkpt>
      <trkpt lat="46.16183" lon="2.50742">
        <ele>460</ele>
        <time>2016-04-04T14:07:40Z</time>
      </trkpt>
      <trkpt lat="46.16187" lon="2.50738">
        <ele>460</ele>
        <time>2016-04-04T14:07:43Z</time>
      </trkpt>
      <trkpt lat="46.16191" lon="2.50734">
        <ele>460</ele>
        <time>2016-04-04T14:07:46Z</time>
      </trkpt>
      <trkpt lat="46.16195" lon="2.5073">
        <ele>459</ele>
        <time>2016-04-04T14:07:49Z</time>
      </trkpt>
      <trkpt lat="46.16198" lon="2.50727">
        <ele>459</ele>
        <time>2016-04-04T14:07:52Z</time>
      </trkpt>
      <trkpt lat="46.16202" lon="2.50723">
        <ele>459</ele>
        <time>2016-04-04T14:07:55Z</time>
      </trkpt>
      <trkpt lat="46.16206" lon="2.50719">
        <ele>459</ele>
        <time>2016-04-04T14:07:58Z</time>
      </trkpt>
      <trkpt lat="46.16209" lon="2.50715">
        <ele>459</ele>
        <time>2016-04-04T14:08:01Z</time>
      </trkpt>
      <trkpt lat="46.16213" lon="2.50711">
        <ele>459</ele>
        <time>2016-04-04T14:08:04Z</time>
      </trkpt>
      <trkpt lat="46.16217" lon="2.50707">
        <ele>459</ele>
        <time>2016-04-04T14:08:07Z</time>
      </trkpt>
      <trkpt lat="46.1622" lon="2.50703">
        <ele>459</ele>
        <time>2016-04-04T14:08:10Z</time>
      </trkpt>
      <trkpt lat="46.16224" lon="2.507">
        <ele>459</ele>
        <time>2016-04-04T14:08:13Z</time>
      </trkpt>
      <trkpt lat="46.16227" lon="2.50696">
        <ele>459</ele>
        <time>2016-04-04T14:08:16Z</time>
      </trkpt>
      <trkpt lat="46.16231" lon="2.50692">
        <ele>459</ele>
        <time>2016-04-04T14:08:19Z</time>
      </trkpt>
      <trkpt lat="46.16235" lon="2.50688">
        <ele>459</ele>
        <time>2016-04-04T14:08:22Z</time>
      </trkpt>
      <trkpt lat="46.16238" lon="2.50684">
        <ele>459</ele>
        <time>2016-04-04T14:08:25Z</time>
      </trkpt>
      <trkpt lat="46.16242" lon="2.50681">
        <ele>459</ele>
        <time>2016-04-04T14:08:28Z</time>
      </trkpt>
      <trkpt lat="46.16245" lon="2.5068">
        <ele>459</ele>
        <time>2016-04-04T14:08:32Z</time>
      </trkpt>
      <trkpt lat="46.16246" lon="2.50681">
        <ele>459</ele>
        <time>2016-04-04T14:08:42Z</time>
      </trkpt>
      <trkpt lat="46.16247" lon="2.50679">
        <ele>459</ele>
        <time>2016-04-04T14:08:58Z</time>
      </trkpt>
      <trkpt lat="46.16251" lon="2.50674">
        <ele>459</ele>
        <time>2016-04-04T14:09:02Z</time>
      </trkpt>
      <trkpt lat="46.16254" lon="2.50671">
        <ele>459</ele>
        <time>2016-04-04T14:09:05Z</time>
      </trkpt>
      <trkpt lat="46.16258" lon="2.50668">
        <ele>459</ele>
        <time>2016-04-04T14:09:09Z</time>
      </trkpt>
      <trkpt lat="46.16262" lon="2.50664">
        <ele>459</ele>
        <time>2016-04-04T14:09:13Z</time>
      </trkpt>
      <trkpt lat="46.16263" lon="2.50663">
        <ele>459</ele>
        <time>2016-04-04T14:09:21Z</time>
      </trkpt>
      <trkpt lat="46.16267" lon="2.50659">
        <ele>459</ele>
        <time>2016-04-04T14:09:25Z</time>
      </trkpt>
      <trkpt lat="46.16271" lon="2.50654">
        <ele>459</ele>
        <time>2016-04-04T14:09:29Z</time>
      </trkpt>
      <trkpt lat="46.16275" lon="2.5065">
        <ele>459</ele>
        <time>2016-04-04T14:09:32Z</time>
      </trkpt>
      <trkpt lat="46.16278" lon="2.50646">
        <ele>459</ele>
        <time>2016-04-04T14:09:35Z</time>
      </trkpt>
      <trkpt lat="46.16282" lon="2.50642">
        <ele>459</ele>
        <time>2016-04-04T14:09:38Z</time>
      </trkpt>
      <trkpt lat="46.16285" lon="2.50638">
        <ele>459</ele>
        <time>2016-04-04T14:09:41Z</time>
      </trkpt>
      <trkpt lat="46.16289" lon="2.50634">
        <ele>459</ele>
        <time>2016-04-04T14:09:44Z</time>
      </trkpt>
      <trkpt lat="46.16293" lon="2.50631">
        <ele>459</ele>
        <time>2016-04-04T14:09:47Z</time>
      </trkpt>
      <trkpt lat="46.16296" lon="2.50627">
        <ele>459</ele>
        <time>2016-04-04T14:09:50Z</time>
      </trkpt>
      <trkpt lat="46.16299" lon="2.50623">
        <ele>459</ele>
        <time>2016-04-04T14:09:53Z</time>
      </trkpt>
      <trkpt lat="46.16303" lon="2.5062">
        <ele>459</ele>
        <time>2016-04-04T14:09:56Z</time>
      </trkpt>
      <trkpt lat="46.16307" lon="2.50616">
        <ele>459</ele>
        <time>2016-04-04T14:09:59Z</time>
      </trkpt>
      <trkpt lat="46.16311" lon="2.50611">
        <ele>459</ele>
        <time>2016-04-04T14:10:02Z</time>
      </trkpt>
      <trkpt lat="46.16314" lon="2.50608">
        <ele>459</ele>
        <time>2016-04-04T14:10:05Z</time>
      </trkpt>
      <trkpt lat="46.16318" lon="2.50604">
        <ele>459</ele>
        <time>2016-04-04T14:10:08Z</time>
      </trkpt>
      <trkpt lat="46.16321" lon="2.506">
        <ele>459</ele>
        <time>2016-04-04T14:10:11Z</time>
      </trkpt>
      <trkpt lat="46.16325" lon="2.50596">
        <ele>459</ele>
        <time>2016-04-04T14:10:14Z</time>
      </trkpt>
      <trkpt lat="46.16328" lon="2.50593">
        <ele>459</ele>
        <time>2016-04-04T14:10:17Z</time>
      </trkpt>
      <trkpt lat="46.16332" lon="2.50589">
        <ele>459</ele>
        <time>2016-04-04T14:10:20Z</time>
      </trkpt>
      <trkpt lat="46.16336" lon="2.50586">
        <ele>459</ele>
        <time>2016-04-04T14:10:23Z</time>
      </trkpt>
      <trkpt lat="46.1634" lon="2.50582">
        <ele>459</ele>
        <time>2016-04-04T14:10:26Z</time>
      </trkpt>
      <trkpt lat="46.16344" lon="2.50578">
        <ele>459</ele>
        <time>2016-04-04T14:10:29Z</time>
      </trkpt>
      <trkpt lat="46.16347" lon="2.50574">
        <ele>459</ele>
        <time>2016-04-04T14:10:32Z</time>
      </trkpt>
      <trkpt lat="46.16351" lon="2.5057">
        <ele>459</ele>
        <time>2016-04-04T14:10:35Z</time>
      </trkpt>
      <trkpt lat="46.16354" lon="2.50566">
        <ele>458</ele>
        <time>2016-04-04T14:10:38Z</time>
      </trkpt>
      <trkpt lat="46.16358" lon="2.50561">
        <ele>458</ele>
        <time>2016-04-04T14:10:41Z</time>
      </trkpt>
      <trkpt lat="46.16362" lon="2.50557">
        <ele>458</ele>
        <time>2016-04-04T14:10:44Z</time>
      </trkpt>
      <trkpt lat="46.16366" lon="2.50554">
        <ele>458</ele>
        <time>2016-04-04T14:10:47Z</time>
      </trkpt>
      <trkpt lat="46.1637" lon="2.5055">
        <ele>457</ele>
        <time>2016-04-04T14:10:50Z</time>
      </trkpt>
      <trkpt lat="46.16373" lon="2.50546">
        <ele>457</ele>
        <time>2016-04-04T14:10:53Z</time>
      </trkpt>
      <trkpt lat="46.16377" lon="2.50542">
        <ele>456</ele>
        <time>2016-04-04T14:10:56Z</time>
      </trkpt>
      <trkpt lat="46.16381" lon="2.50538">
        <ele>456</ele>
        <time>2016-04-04T14:10:59Z</time>
      </trkpt>
      <trkpt lat="46.16384" lon="2.50534">
        <ele>456</ele>
        <time>2016-04-04T14:11:02Z</time>
      </trkpt>
      <trkpt lat="46.16388" lon="2.5053">
        <ele>455</ele>
        <time>2016-04-04T14:11:05Z</time>
      </trkpt>
      <trkpt lat="46.16391" lon="2.50526">
        <ele>455</ele>
        <time>2016-04-04T14:11:08Z</time>
      </trkpt>
      <trkpt lat="46.16395" lon="2.50522">
        <ele>455</ele>
        <time>2016-04-04T14:11:11Z</time>
      </trkpt>
      <trkpt lat="46.164" lon="2.50517">
        <ele>454</ele>
        <time>2016-04-04T14:11:15Z</time>
      </trkpt>
      <trkpt lat="46.16403" lon="2.50513">
        <ele>453</ele>
        <time>2016-04-04T14:11:18Z</time>
      </trkpt>
      <trkpt lat="46.16407" lon="2.50508">
        <ele>453</ele>
        <time>2016-04-04T14:11:21Z</time>
      </trkpt>
      <trkpt lat="46.16411" lon="2.50504">
        <ele>453</ele>
        <time>2016-04-04T14:11:24Z</time>
      </trkpt>
      <trkpt lat="46.16415" lon="2.50501">
        <ele>453</ele>
        <time>2016-04-04T14:11:27Z</time>
      </trkpt>
      <trkpt lat="46.16418" lon="2.50497">
        <ele>452</ele>
        <time>2016-04-04T14:11:30Z</time>
      </trkpt>
      <trkpt lat="46.16422" lon="2.50493">
        <ele>452</ele>
        <time>2016-04-04T14:11:33Z</time>
      </trkpt>
      <trkpt lat="46.16425" lon="2.5049">
        <ele>452</ele>
        <time>2016-04-04T14:11:36Z</time>
      </trkpt>
      <trkpt lat="46.16429" lon="2.5049">
        <ele>452</ele>
        <time>2016-04-04T14:11:39Z</time>
      </trkpt>
      <trkpt lat="46.16433" lon="2.50491">
        <ele>452</ele>
        <time>2016-04-04T14:11:42Z</time>
      </trkpt>
      <trkpt lat="46.16437" lon="2.50495">
        <ele>452</ele>
        <time>2016-04-04T14:11:45Z</time>
      </trkpt>
      <trkpt lat="46.16441" lon="2.505">
        <ele>452</ele>
        <time>2016-04-04T14:11:48Z</time>
      </trkpt>
      <trkpt lat="46.16443" lon="2.50506">
        <ele>452</ele>
        <time>2016-04-04T14:11:51Z</time>
      </trkpt>
      <trkpt lat="46.16445" lon="2.50512">
        <ele>452</ele>
        <time>2016-04-04T14:11:54Z</time>
      </trkpt>
      <trkpt lat="46.16447" lon="2.50518">
        <ele>452</ele>
        <time>2016-04-04T14:11:57Z</time>
      </trkpt>
      <trkpt lat="46.16449" lon="2.50524">
        <ele>452</ele>
        <time>2016-04-04T14:12:00Z</time>
      </trkpt>
      <trkpt lat="46.16451" lon="2.5053">
        <ele>452</ele>
        <time>2016-04-04T14:12:03Z</time>
      </trkpt>
      <trkpt lat="46.16453" lon="2.50536">
        <ele>452</ele>
        <time>2016-04-04T14:12:06Z</time>
      </trkpt>
      <trkpt lat="46.16455" lon="2.50542">
        <ele>452</ele>
        <time>2016-04-04T14:12:09Z</time>
      </trkpt>
      <trkpt lat="46.16457" lon="2.50548">
        <ele>452</ele>
        <time>2016-04-04T14:12:12Z</time>
      </trkpt>
      <trkpt lat="46.1646" lon="2.50554">
        <ele>452</ele>
        <time>2016-04-04T14:12:15Z</time>
      </trkpt>
      <trkpt lat="46.16462" lon="2.5056">
        <ele>452</ele>
        <time>2016-04-04T14:12:18Z</time>
      </trkpt>
      <trkpt lat="46.16464" lon="2.50566">
        <ele>452</ele>
        <time>2016-04-04T14:12:21Z</time>
      </trkpt>
      <trkpt lat="46.16465" lon="2.50573">
        <ele>452</ele>
        <time>2016-04-04T14:12:24Z</time>
      </trkpt>
      <trkpt lat="46.16468" lon="2.50579">
        <ele>452</ele>
        <time>2016-04-04T14:12:27Z</time>
      </trkpt>
      <trkpt lat="46.1647" lon="2.50584">
        <ele>452</ele>
        <time>2016-04-04T14:12:30Z</time>
      </trkpt>
      <trkpt lat="46.16472" lon="2.5059">
        <ele>452</ele>
        <time>2016-04-04T14:12:33Z</time>
      </trkpt>
      <trkpt lat="46.16474" lon="2.50596">
        <ele>452</ele>
        <time>2016-04-04T14:12:36Z</time>
      </trkpt>
      <trkpt lat="46.16476" lon="2.50602">
        <ele>452</ele>
        <time>2016-04-04T14:12:39Z</time>
      </trkpt>
      <trkpt lat="46.16478" lon="2.50607">
        <ele>452</ele>
        <time>2016-04-04T14:12:42Z</time>
      </trkpt>
      <trkpt lat="46.1648" lon="2.50613">
        <ele>453</ele>
        <time>2016-04-04T14:12:45Z</time>
      </trkpt>
      <trkpt lat="46.16482" lon="2.50619">
        <ele>453</ele>
        <time>2016-04-04T14:12:48Z</time>
      </trkpt>
      <trkpt lat="46.16484" lon="2.50624">
        <ele>453</ele>
        <time>2016-04-04T14:12:51Z</time>
      </trkpt>
      <trkpt lat="46.16486" lon="2.5063">
        <ele>453</ele>
        <time>2016-04-04T14:12:54Z</time>
      </trkpt>
      <trkpt lat="46.16488" lon="2.50637">
        <ele>453</ele>
        <time>2016-04-04T14:12:57Z</time>
      </trkpt>
      <trkpt lat="46.1649" lon="2.50642">
        <ele>453</ele>
        <time>2016-04-04T14:13:00Z</time>
      </trkpt>
      <trkpt lat="46.16492" lon="2.50648">
        <ele>454</ele>
        <time>2016-04-04T14:13:03Z</time>
      </trkpt>
      <trkpt lat="46.16494" lon="2.50654">
        <ele>454</ele>
        <time>2016-04-04T14:13:06Z</time>
      </trkpt>
      <trkpt lat="46.16496" lon="2.5066">
        <ele>454</ele>
        <time>2016-04-04T14:13:09Z</time>
      </trkpt>
      <trkpt lat="46.16499" lon="2.50666">
        <ele>454</ele>
        <time>2016-04-04T14:13:12Z</time>
      </trkpt>
      <trkpt lat="46.165" lon="2.50672">
        <ele>454</ele>
        <time>2016-04-04T14:13:15Z</time>
      </trkpt>
      <trkpt lat="46.16502" lon="2.50678">
        <ele>454</ele>
        <time>2016-04-04T14:13:18Z</time>
      </trkpt>
      <trkpt lat="46.16505" lon="2.50684">
        <ele>454</ele>
        <time>2016-04-04T14:13:21Z</time>
      </trkpt>
      <trkpt lat="46.16507" lon="2.5069">
        <ele>454</ele>
        <time>2016-04-04T14:13:24Z</time>
      </trkpt>
      <trkpt lat="46.16509" lon="2.50696">
        <ele>454</ele>
        <time>2016-04-04T14:13:27Z</time>
      </trkpt>
      <trkpt lat="46.16511" lon="2.50702">
        <ele>454</ele>
        <time>2016-04-04T14:13:30Z</time>
      </trkpt>
      <trkpt lat="46.16513" lon="2.50708">
        <ele>454</ele>
        <time>2016-04-04T14:13:33Z</time>
      </trkpt>
      <trkpt lat="46.16515" lon="2.50715">
        <ele>454</ele>
        <time>2016-04-04T14:13:36Z</time>
      </trkpt>
      <trkpt lat="46.16518" lon="2.5072">
        <ele>454</ele>
        <time>2016-04-04T14:13:39Z</time>
      </trkpt>
      <trkpt lat="46.1652" lon="2.50726">
        <ele>454</ele>
        <time>2016-04-04T14:13:42Z</time>
      </trkpt>
      <trkpt lat="46.16522" lon="2.50732">
        <ele>454</ele>
        <time>2016-04-04T14:13:45Z</time>
      </trkpt>
      <trkpt lat="46.16524" lon="2.50738">
        <ele>454</ele>
        <time>2016-04-04T14:13:48Z</time>
      </trkpt>
      <trkpt lat="46.16526" lon="2.50744">
        <ele>454</ele>
        <time>2016-04-04T14:13:51Z</time>
      </trkpt>
      <trkpt lat="46.16528" lon="2.50749">
        <ele>454</ele>
        <time>2016-04-04T14:13:54Z</time>
      </trkpt>
      <trkpt lat="46.1653" lon="2.50755">
        <ele>454</ele>
        <time>2016-04-04T14:13:57Z</time>
      </trkpt>
      <trkpt lat="46.16531" lon="2.50762">
        <ele>454</ele>
        <time>2016-04-04T14:14:00Z</time>
      </trkpt>
      <trkpt lat="46.16533" lon="2.50767">
        <ele>454</ele>
        <time>2016-04-04T14:14:03Z</time>
      </trkpt>
      <trkpt lat="46.16534" lon="2.50774">
        <ele>454</ele>
        <time>2016-04-04T14:14:06Z</time>
      </trkpt>
      <trkpt lat="46.16534" lon="2.5078">
        <ele>454</ele>
        <time>2016-04-04T14:14:09Z</time>
      </trkpt>
      <trkpt lat="46.16534" lon="2.50787">
        <ele>454</ele>
        <time>2016-04-04T14:14:12Z</time>
      </trkpt>
      <trkpt lat="46.16533" lon="2.50794">
        <ele>454</ele>
        <time>2016-04-04T14:14:15Z</time>
      </trkpt>
      <trkpt lat="46.16531" lon="2.508">
        <ele>454</ele>
        <time>2016-04-04T14:14:18Z</time>
      </trkpt>
      <trkpt lat="46.16529" lon="2.50806">
        <ele>454</ele>
        <time>2016-04-04T14:14:21Z</time>
      </trkpt>
      <trkpt lat="46.16527" lon="2.50812">
        <ele>454</ele>
        <time>2016-04-04T14:14:24Z</time>
      </trkpt>
      <trkpt lat="46.16524" lon="2.50817">
        <ele>454</ele>
        <time>2016-04-04T14:14:27Z</time>
      </trkpt>
      <trkpt lat="46.16522" lon="2.50823">
        <ele>454</ele>
        <time>2016-04-04T14:14:30Z</time>
      </trkpt>
      <trkpt lat="46.16519" lon="2.50828">
        <ele>454</ele>
        <time>2016-04-04T14:14:33Z</time>
      </trkpt>
      <trkpt lat="46.16516" lon="2.50833">
        <ele>454</ele>
        <time>2016-04-04T14:14:36Z</time>
      </trkpt>
      <trkpt lat="46.16514" lon="2.50838">
        <ele>454</ele>
        <time>2016-04-04T14:14:39Z</time>
      </trkpt>
      <trkpt lat="46.16511" lon="2.50844">
        <ele>454</ele>
        <time>2016-04-04T14:14:42Z</time>
      </trkpt>
      <trkpt lat="46.16509" lon="2.50849">
        <ele>454</ele>
        <time>2016-04-04T14:14:45Z</time>
      </trkpt>
      <trkpt lat="46.16506" lon="2.50854">
        <ele>454</ele>
        <time>2016-04-04T14:14:48Z</time>
      </trkpt>
      <trkpt lat="46.16503" lon="2.50859">
        <ele>454</ele>
        <time>2016-04-04T14:14:51Z</time>
      </trkpt>
      <trkpt lat="46.16501" lon="2.50864">
        <ele>454</ele>
        <time>2016-04-04T14:14:54Z</time>
      </trkpt>
      <trkpt lat="46.16498" lon="2.5087">
        <ele>454</ele>
        <time>2016-04-04T14:14:57Z</time>
      </trkpt>
      <trkpt lat="46.16496" lon="2.50875">
        <ele>454</ele>
        <time>2016-04-04T14:15:00Z</time>
      </trkpt>
      <trkpt lat="46.16493" lon="2.5088">
        <ele>454</ele>
        <time>2016-04-04T14:15:03Z</time>
      </trkpt>
      <trkpt lat="46.16491" lon="2.50885">
        <ele>454</ele>
        <time>2016-04-04T14:15:06Z</time>
      </trkpt>
      <trkpt lat="46.16488" lon="2.50891">
        <ele>454</ele>
        <time>2016-04-04T14:15:09Z</time>
      </trkpt>
      <trkpt lat="46.16486" lon="2.50896">
        <ele>454</ele>
        <time>2016-04-04T14:15:12Z</time>
      </trkpt>
      <trkpt lat="46.16483" lon="2.50902">
        <ele>454</ele>
        <time>2016-04-04T14:15:15Z</time>
      </trkpt>
      <trkpt lat="46.1648" lon="2.50907">
        <ele>454</ele>
        <time>2016-04-04T14:15:18Z</time>
      </trkpt>
      <trkpt lat="46.16478" lon="2.50912">
        <ele>454</ele>
        <time>2016-04-04T14:15:21Z</time>
      </trkpt>
      <trkpt lat="46.16475" lon="2.50918">
        <ele>454</ele>
        <time>2016-04-04T14:15:24Z</time>
      </trkpt>
      <trkpt lat="46.16472" lon="2.50923">
        <ele>454</ele>
        <time>2016-04-04T14:15:27Z</time>
      </trkpt>
      <trkpt lat="46.16469" lon="2.50928">
        <ele>454</ele>
        <time>2016-04-04T14:15:30Z</time>
      </trkpt>
      <trkpt lat="46.16467" lon="2.50933">
        <ele>454</ele>
        <time>2016-04-04T14:15:33Z</time>
      </trkpt>
      <trkpt lat="46.16464" lon="2.50939">
        <ele>454</ele>
        <time>2016-04-04T14:15:36Z</time>
      </trkpt>
      <trkpt lat="46.16462" lon="2.50944">
        <ele>454</ele>
        <time>2016-04-04T14:15:39Z</time>
      </trkpt>
      <trkpt lat="46.16459" lon="2.50949">
        <ele>454</ele>
        <time>2016-04-04T14:15:42Z</time>
      </trkpt>
      <trkpt lat="46.16457" lon="2.50955">
        <ele>454</ele>
        <time>2016-04-04T14:15:45Z</time>
      </trkpt>
      <trkpt lat="46.16455" lon="2.50961">
        <ele>454</ele>
        <time>2016-04-04T14:15:48Z</time>
      </trkpt>
      <trkpt lat="46.16454" lon="2.50967">
        <ele>454</ele>
        <time>2016-04-04T14:15:51Z</time>
      </trkpt>
      <trkpt lat="46.16454" lon="2.50974">
        <ele>454</ele>
        <time>2016-04-04T14:15:54Z</time>
      </trkpt>
      <trkpt lat="46.16457" lon="2.50978">
        <ele>454</ele>
        <time>2016-04-04T14:15:57Z</time>
      </trkpt>
      <trkpt lat="46.1646" lon="2.5098">
        <ele>454</ele>
        <time>2016-04-04T14:16:00Z</time>
      </trkpt>
      <trkpt lat="46.16465" lon="2.50981">
        <ele>454</ele>
        <time>2016-04-04T14:16:03Z</time>
      </trkpt>
      <trkpt lat="46.16469" lon="2.50983">
        <ele>454</ele>
        <time>2016-04-04T14:16:06Z</time>
      </trkpt>
      <trkpt lat="46.16473" lon="2.50984">
        <ele>454</ele>
        <time>2016-04-04T14:16:09Z</time>
      </trkpt>
      <trkpt lat="46.16477" lon="2.50986">
        <ele>454</ele>
        <time>2016-04-04T14:16:12Z</time>
      </trkpt>
      <trkpt lat="46.16481" lon="2.50987">
        <ele>454</ele>
        <time>2016-04-04T14:16:15Z</time>
      </trkpt>
      <trkpt lat="46.16486" lon="2.50989">
        <ele>454</ele>
        <time>2016-04-04T14:16:18Z</time>
      </trkpt>
      <trkpt lat="46.1649" lon="2.50993">
        <ele>453</ele>
        <time>2016-04-04T14:16:21Z</time>
      </trkpt>
      <trkpt lat="46.16493" lon="2.50996">
        <ele>452</ele>
        <time>2016-04-04T14:16:24Z</time>
      </trkpt>
      <trkpt lat="46.16497" lon="2.50999">
        <ele>452</ele>
        <time>2016-04-04T14:16:27Z</time>
      </trkpt>
      <trkpt lat="46.16501" lon="2.51003">
        <ele>451</ele>
        <time>2016-04-04T14:16:31Z</time>
      </trkpt>
      <trkpt lat="46.16505" lon="2.51007">
        <ele>451</ele>
        <time>2016-04-04T14:16:34Z</time>
      </trkpt>
      <trkpt lat="46.16508" lon="2.5101">
        <ele>451</ele>
        <time>2016-04-04T14:16:37Z</time>
      </trkpt>
      <trkpt lat="46.16512" lon="2.51014">
        <ele>451</ele>
        <time>2016-04-04T14:16:40Z</time>
      </trkpt>
      <trkpt lat="46.16515" lon="2.51018">
        <ele>451</ele>
        <time>2016-04-04T14:16:43Z</time>
      </trkpt>
      <trkpt lat="46.16518" lon="2.51022">
        <ele>451</ele>
        <time>2016-04-04T14:16:46Z</time>
      </trkpt>
      <trkpt lat="46.16521" lon="2.51026">
        <ele>451</ele>
        <time>2016-04-04T14:16:49Z</time>
      </trkpt>
      <trkpt lat="46.16525" lon="2.51029">
        <ele>450</ele>
        <time>2016-04-04T14:16:52Z</time>
      </trkpt>
      <trkpt lat="46.16529" lon="2.51032">
        <ele>450</ele>
        <time>2016-04-04T14:16:55Z</time>
      </trkpt>
      <trkpt lat="46.16533" lon="2.51034">
        <ele>450</ele>
        <time>2016-04-04T14:16:58Z</time>
      </trkpt>
      <trkpt lat="46.16536" lon="2.51037">
        <ele>450</ele>
        <time>2016-04-04T14:17:01Z</time>
      </trkpt>
      <trkpt lat="46.16541" lon="2.5104">
        <ele>449</ele>
        <time>2016-04-04T14:17:04Z</time>
      </trkpt>
      <trkpt lat="46.16544" lon="2.51044">
        <ele>449</ele>
        <time>2016-04-04T14:17:07Z</time>
      </trkpt>
      <trkpt lat="46.16548" lon="2.51048">
        <ele>449</ele>
        <time>2016-04-04T14:17:10Z</time>
      </trkpt>
      <trkpt lat="46.1655" lon="2.51053">
        <ele>449</ele>
        <time>2016-04-04T14:17:13Z</time>
      </trkpt>
      <trkpt lat="46.16552" lon="2.51058">
        <ele>449</ele>
        <time>2016-04-04T14:17:16Z</time>
      </trkpt>
      <trkpt lat="46.16554" lon="2.51065">
        <ele>449</ele>
        <time>2016-04-04T14:17:19Z</time>
      </trkpt>
      <trkpt lat="46.16555" lon="2.51071">
        <ele>448</ele>
        <time>2016-04-04T14:17:22Z</time>
      </trkpt>
      <trkpt lat="46.16557" lon="2.51077">
        <ele>448</ele>
        <time>2016-04-04T14:17:25Z</time>
      </trkpt>
      <trkpt lat="46.16557" lon="2.51083">
        <ele>448</ele>
        <time>2016-04-04T14:17:28Z</time>
      </trkpt>
      <trkpt lat="46.16558" lon="2.51089">
        <ele>447</ele>
        <time>2016-04-04T14:17:31Z</time>
      </trkpt>
      <trkpt lat="46.1656" lon="2.51095">
        <ele>447</ele>
        <time>2016-04-04T14:17:34Z</time>
      </trkpt>
      <trkpt lat="46.16563" lon="2.511">
        <ele>447</ele>
        <time>2016-04-04T14:17:37Z</time>
      </trkpt>
      <trkpt lat="46.16565" lon="2.51106">
        <ele>446</ele>
        <time>2016-04-04T14:17:40Z</time>
      </trkpt>
      <trkpt lat="46.16568" lon="2.51111">
        <ele>446</ele>
        <time>2016-04-04T14:17:43Z</time>
      </trkpt>
      <trkpt lat="46.16571" lon="2.51116">
        <ele>446</ele>
        <time>2016-04-04T14:17:46Z</time>
      </trkpt>
      <trkpt lat="46.16574" lon="2.51122">
        <ele>446</ele>
        <time>2016-04-04T14:17:49Z</time>
      </trkpt>
      <trkpt lat="46.16577" lon="2.51127">
        <ele>446</ele>
        <time>2016-04-04T14:17:52Z</time>
      </trkpt>
      <trkpt lat="46.1658" lon="2.51133">
        <ele>446</ele>
        <time>2016-04-04T14:17:55Z</time>
      </trkpt>
      <trkpt lat="46.16583" lon="2.51138">
        <ele>446</ele>
        <time>2016-04-04T14:17:58Z</time>
      </trkpt>
      <trkpt lat="46.16586" lon="2.51143">
        <ele>446</ele>
        <time>2016-04-04T14:18:01Z</time>
      </trkpt>
      <trkpt lat="46.16589" lon="2.51149">
        <ele>446</ele>
        <time>2016-04-04T14:18:04Z</time>
      </trkpt>
      <trkpt lat="46.16592" lon="2.51153">
        <ele>446</ele>
        <time>2016-04-04T14:18:07Z</time>
      </trkpt>
      <trkpt lat="46.16594" lon="2.51159">
        <ele>446</ele>
        <time>2016-04-04T14:18:10Z</time>
      </trkpt>
      <trkpt lat="46.16597" lon="2.51164">
        <ele>446</ele>
        <time>2016-04-04T14:18:13Z</time>
      </trkpt>
      <trkpt lat="46.166" lon="2.51169">
        <ele>446</ele>
        <time>2016-04-04T14:18:16Z</time>
      </trkpt>
      <trkpt lat="46.16603" lon="2.51174">
        <ele>446</ele>
        <time>2016-04-04T14:18:19Z</time>
      </trkpt>
      <trkpt lat="46.16606" lon="2.51179">
        <ele>446</ele>
        <time>2016-04-04T14:18:22Z</time>
      </trkpt>
      <trkpt lat="46.16609" lon="2.51184">
        <ele>446</ele>
        <time>2016-04-04T14:18:25Z</time>
      </trkpt>
      <trkpt lat="46.16611" lon="2.51189">
        <ele>446</ele>
        <time>2016-04-04T14:18:28Z</time>
      </trkpt>
      <trkpt lat="46.16615" lon="2.51194">
        <ele>446</ele>
        <time>2016-04-04T14:18:31Z</time>
      </trkpt>
      <trkpt lat="46.16617" lon="2.51199">
        <ele>445</ele>
        <time>2016-04-04T14:18:34Z</time>
      </trkpt>
      <trkpt lat="46.1662" lon="2.51203">
        <ele>445</ele>
        <time>2016-04-04T14:18:37Z</time>
      </trkpt>
      <trkpt lat="46.16623" lon="2.51208">
        <ele>444</ele>
        <time>2016-04-04T14:18:40Z</time>
      </trkpt>
      <trkpt lat="46.16626" lon="2.51213">
        <ele>444</ele>
        <time>2016-04-04T14:18:43Z</time>
      </trkpt>
      <trkpt lat="46.16628" lon="2.51218">
        <ele>444</ele>
        <time>2016-04-04T14:18:46Z</time>
      </trkpt>
      <trkpt lat="46.16631" lon="2.51222">
        <ele>444</ele>
        <time>2016-04-04T14:18:49Z</time>
      </trkpt>
      <trkpt lat="46.16634" lon="2.51227">
        <ele>444</ele>
        <time>2016-04-04T14:18:52Z</time>
      </trkpt>
      <trkpt lat="46.16636" lon="2.51232">
        <ele>444</ele>
        <time>2016-04-04T14:18:55Z</time>
      </trkpt>
      <trkpt lat="46.16639" lon="2.51237">
        <ele>444</ele>
        <time>2016-04-04T14:18:58Z</time>
      </trkpt>
      <trkpt lat="46.16642" lon="2.51241">
        <ele>443</ele>
        <time>2016-04-04T14:19:01Z</time>
      </trkpt>
      <trkpt lat="46.16645" lon="2.51245">
        <ele>443</ele>
        <time>2016-04-04T14:19:04Z</time>
      </trkpt>
      <trkpt lat="46.16649" lon="2.51248">
        <ele>443</ele>
        <time>2016-04-04T14:19:07Z</time>
      </trkpt>
      <trkpt lat="46.16654" lon="2.51248">
        <ele>443</ele>
        <time>2016-04-04T14:19:10Z</time>
      </trkpt>
      <trkpt lat="46.16658" lon="2.51247">
        <ele>443</ele>
        <time>2016-04-04T14:19:13Z</time>
      </trkpt>
      <trkpt lat="46.16661" lon="2.51243">
        <ele>443</ele>
        <time>2016-04-04T14:19:16Z</time>
      </trkpt>
      <trkpt lat="46.16665" lon="2.51238">
        <ele>443</ele>
        <time>2016-04-04T14:19:19Z</time>
      </trkpt>
      <trkpt lat="46.16668" lon="2.51233">
        <ele>443</ele>
        <time>2016-04-04T14:19:23Z</time>
      </trkpt>
      <trkpt lat="46.16673" lon="2.51227">
        <ele>442</ele>
        <time>2016-04-04T14:19:27Z</time>
      </trkpt>
      <trkpt lat="46.16676" lon="2.51223">
        <ele>442</ele>
        <time>2016-04-04T14:19:30Z</time>
      </trkpt>
      <trkpt lat="46.16679" lon="2.51218">
        <ele>442</ele>
        <time>2016-04-04T14:19:33Z</time>
      </trkpt>
      <trkpt lat="46.16682" lon="2.51214">
        <ele>442</ele>
        <time>2016-04-04T14:19:36Z</time>
      </trkpt>
      <trkpt lat="46.16685" lon="2.5121">
        <ele>441</ele>
        <time>2016-04-04T14:19:39Z</time>
      </trkpt>
      <trkpt lat="46.16688" lon="2.51205">
        <ele>441</ele>
        <time>2016-04-04T14:19:42Z</time>
      </trkpt>
      <trkpt lat="46.16691" lon="2.51201">
        <ele>441</ele>
        <time>2016-04-04T14:19:45Z</time>
      </trkpt>
      <trkpt lat="46.16696" lon="2.51196">
        <ele>441</ele>
        <time>2016-04-04T14:19:49Z</time>
      </trkpt>
      <trkpt lat="46.16699" lon="2.51192">
        <ele>441</ele>
        <time>2016-04-04T14:19:52Z</time>
      </trkpt>
      <trkpt lat="46.16703" lon="2.51188">
        <ele>440</ele>
        <time>2016-04-04T14:19:55Z</time>
      </trkpt>
      <trkpt lat="46.16706" lon="2.51184">
        <ele>440</ele>
        <time>2016-04-04T14:19:58Z</time>
      </trkpt>
      <trkpt lat="46.16709" lon="2.51179">
        <ele>440</ele>
        <time>2016-04-04T14:20:01Z</time>
      </trkpt>
      <trkpt lat="46.16711" lon="2.51174">
        <ele>440</ele>
        <time>2016-04-04T14:20:04Z</time>
      </trkpt>
      <trkpt lat="46.16714" lon="2.5117">
        <ele>440</ele>
        <time>2016-04-04T14:20:07Z</time>
      </trkpt>
      <trkpt lat="46.16718" lon="2.51166">
        <ele>440</ele>
        <time>2016-04-04T14:20:10Z</time>
      </trkpt>
      <trkpt lat="46.16721" lon="2.51161">
        <ele>440</ele>
        <time>2016-04-04T14:20:13Z</time>
      </trkpt>
      <trkpt lat="46.16724" lon="2.51157">
        <ele>440</ele>
        <time>2016-04-04T14:20:16Z</time>
      </trkpt>
      <trkpt lat="46.16728" lon="2.51151">
        <ele>440</ele>
        <time>2016-04-04T14:20:20Z</time>
      </trkpt>
      <trkpt lat="46.16732" lon="2.51147">
        <ele>440</ele>
        <time>2016-04-04T14:20:23Z</time>
      </trkpt>
      <trkpt lat="46.16736" lon="2.51141">
        <ele>440</ele>
        <time>2016-04-04T14:20:27Z</time>
      </trkpt>
      <trkpt lat="46.1674" lon="2.51135">
        <ele>440</ele>
        <time>2016-04-04T14:20:31Z</time>
      </trkpt>
      <trkpt lat="46.16743" lon="2.5113">
        <ele>440</ele>
        <time>2016-04-04T14:20:35Z</time>
      </trkpt>
      <trkpt lat="46.16747" lon="2.51126">
        <ele>440</ele>
        <time>2016-04-04T14:20:38Z</time>
      </trkpt>
      <trkpt lat="46.1675" lon="2.51121">
        <ele>440</ele>
        <time>2016-04-04T14:20:41Z</time>
      </trkpt>
      <trkpt lat="46.16753" lon="2.51117">
        <ele>440</ele>
        <time>2016-04-04T14:20:44Z</time>
      </trkpt>
      <trkpt lat="46.16756" lon="2.51113">
        <ele>440</ele>
        <time>2016-04-04T14:20:47Z</time>
      </trkpt>
      <trkpt lat="46.16759" lon="2.51108">
        <ele>440</ele>
        <time>2016-04-04T14:20:50Z</time>
      </trkpt>
      <trkpt lat="46.16763" lon="2.51103">
        <ele>440</ele>
        <time>2016-04-04T14:20:54Z</time>
      </trkpt>
      <trkpt lat="46.16767" lon="2.51097">
        <ele>440</ele>
        <time>2016-04-04T14:20:58Z</time>
      </trkpt>
      <trkpt lat="46.1677" lon="2.51092">
        <ele>440</ele>
        <time>2016-04-04T14:21:01Z</time>
      </trkpt>
      <trkpt lat="46.16773" lon="2.51088">
        <ele>440</ele>
        <time>2016-04-04T14:21:04Z</time>
      </trkpt>
      <trkpt lat="46.16776" lon="2.51083">
        <ele>440</ele>
        <time>2016-04-04T14:21:07Z</time>
      </trkpt>
      <trkpt lat="46.16779" lon="2.51079">
        <ele>440</ele>
        <time>2016-04-04T14:21:10Z</time>
      </trkpt>
      <trkpt lat="46.16783" lon="2.51075">
        <ele>440</ele>
        <time>2016-04-04T14:21:13Z</time>
      </trkpt>
      <trkpt lat="46.16786" lon="2.5107">
        <ele>440</ele>
        <time>2016-04-04T14:21:16Z</time>
      </trkpt>
      <trkpt lat="46.16788" lon="2.51065">
        <ele>440</ele>
        <time>2016-04-04T14:21:19Z</time>
      </trkpt>
      <trkpt lat="46.16793" lon="2.5106">
        <ele>440</ele>
        <time>2016-04-04T14:21:23Z</time>
      </trkpt>
      <trkpt lat="46.16796" lon="2.51055">
        <ele>440</ele>
        <time>2016-04-04T14:21:26Z</time>
      </trkpt>
      <trkpt lat="46.16799" lon="2.51051">
        <ele>440</ele>
        <time>2016-04-04T14:21:29Z</time>
      </trkpt>
      <trkpt lat="46.16802" lon="2.51046">
        <ele>440</ele>
        <time>2016-04-04T14:21:32Z</time>
      </trkpt>
      <trkpt lat="46.16805" lon="2.51041">
        <ele>440</ele>
        <time>2016-04-04T14:21:35Z</time>
      </trkpt>
      <trkpt lat="46.16807" lon="2.51036">
        <ele>440</ele>
        <time>2016-04-04T14:21:38Z</time>
      </trkpt>
      <trkpt lat="46.16811" lon="2.51031">
        <ele>440</ele>
        <time>2016-04-04T14:21:41Z</time>
      </trkpt>
      <trkpt lat="46.16814" lon="2.51026">
        <ele>440</ele>
        <time>2016-04-04T14:21:44Z</time>
      </trkpt>
      <trkpt lat="46.16816" lon="2.51021">
        <ele>440</ele>
        <time>2016-04-04T14:21:47Z</time>
      </trkpt>
      <trkpt lat="46.16817" lon="2.51015">
        <ele>440</ele>
        <time>2016-04-04T14:21:50Z</time>
      </trkpt>
      <trkpt lat="46.16819" lon="2.51009">
        <ele>440</ele>
        <time>2016-04-04T14:21:53Z</time>
      </trkpt>
      <trkpt lat="46.1682" lon="2.51004">
        <ele>440</ele>
        <time>2016-04-04T14:21:56Z</time>
      </trkpt>
      <trkpt lat="46.16821" lon="2.50998">
        <ele>440</ele>
        <time>2016-04-04T14:21:59Z</time>
      </trkpt>
      <trkpt lat="46.16823" lon="2.50992">
        <ele>440</ele>
        <time>2016-04-04T14:22:02Z</time>
      </trkpt>
      <trkpt lat="46.16825" lon="2.50987">
        <ele>440</ele>
        <time>2016-04-04T14:22:05Z</time>
      </trkpt>
      <trkpt lat="46.16826" lon="2.50981">
        <ele>440</ele>
        <time>2016-04-04T14:22:08Z</time>
      </trkpt>
      <trkpt lat="46.16827" lon="2.50976">
        <ele>440</ele>
        <time>2016-04-04T14:22:11Z</time>
      </trkpt>
      <trkpt lat="46.1683" lon="2.5097">
        <ele>440</ele>
        <time>2016-04-04T14:22:14Z</time>
      </trkpt>
      <trkpt lat="46.16832" lon="2.50965">
        <ele>440</ele>
        <time>2016-04-04T14:22:17Z</time>
      </trkpt>
      <trkpt lat="46.16833" lon="2.50959">
        <ele>440</ele>
        <time>2016-04-04T14:22:20Z</time>
      </trkpt>
      <trkpt lat="46.16835" lon="2.50953">
        <ele>440</ele>
        <time>2016-04-04T14:22:23Z</time>
      </trkpt>
      <trkpt lat="46.16838" lon="2.50947">
        <ele>440</ele>
        <time>2016-04-04T14:22:26Z</time>
      </trkpt>
      <trkpt lat="46.1684" lon="2.50942">
        <ele>440</ele>
        <time>2016-04-04T14:22:29Z</time>
      </trkpt>
      <trkpt lat="46.16842" lon="2.50937">
        <ele>440</ele>
        <time>2016-04-04T14:22:32Z</time>
      </trkpt>
      <trkpt lat="46.16844" lon="2.50932">
        <ele>440</ele>
        <time>2016-04-04T14:22:35Z</time>
      </trkpt>
      <trkpt lat="46.16846" lon="2.50926">
        <ele>440</ele>
        <time>2016-04-04T14:22:38Z</time>
      </trkpt>
      <trkpt lat="46.16848" lon="2.50921">
        <ele>440</ele>
        <time>2016-04-04T14:22:41Z</time>
      </trkpt>
      <trkpt lat="46.16851" lon="2.50916">
        <ele>440</ele>
        <time>2016-04-04T14:22:44Z</time>
      </trkpt>
      <trkpt lat="46.16853" lon="2.50911">
        <ele>440</ele>
        <time>2016-04-04T14:22:47Z</time>
      </trkpt>
      <trkpt lat="46.16855" lon="2.50906">
        <ele>440</ele>
        <time>2016-04-04T14:22:50Z</time>
      </trkpt>
      <trkpt lat="46.16857" lon="2.50901">
        <ele>440</ele>
        <time>2016-04-04T14:22:53Z</time>
      </trkpt>
      <trkpt lat="46.1686" lon="2.50896">
        <ele>440</ele>
        <time>2016-04-04T14:22:56Z</time>
      </trkpt>
      <trkpt lat="46.16861" lon="2.5089">
        <ele>440</ele>
        <time>2016-04-04T14:22:59Z</time>
      </trkpt>
      <trkpt lat="46.16863" lon="2.50885">
        <ele>441</ele>
        <time>2016-04-04T14:23:02Z</time>
      </trkpt>
      <trkpt lat="46.16866" lon="2.50879">
        <ele>441</ele>
        <time>2016-04-04T14:23:05Z</time>
      </trkpt>
      <trkpt lat="46.16867" lon="2.50874">
        <ele>441</ele>
        <time>2016-04-04T14:23:08Z</time>
      </trkpt>
      <trkpt lat="46.16869" lon="2.50869">
        <ele>442</ele>
        <time>2016-04-04T14:23:11Z</time>
      </trkpt>
      <trkpt lat="46.16871" lon="2.50863">
        <ele>442</ele>
        <time>2016-04-04T14:23:14Z</time>
      </trkpt>
      <trkpt lat="46.16873" lon="2.50858">
        <ele>443</ele>
        <time>2016-04-04T14:23:17Z</time>
      </trkpt>
      <trkpt lat="46.16876" lon="2.50853">
        <ele>443</ele>
        <time>2016-04-04T14:23:20Z</time>
      </trkpt>
      <trkpt lat="46.16878" lon="2.50848">
        <ele>443</ele>
        <time>2016-04-04T14:23:23Z</time>
      </trkpt>
      <trkpt lat="46.1688" lon="2.50842">
        <ele>443</ele>
        <time>2016-04-04T14:23:26Z</time>
      </trkpt>
      <trkpt lat="46.16883" lon="2.50837">
        <ele>443</ele>
        <time>2016-04-04T14:23:29Z</time>
      </trkpt>
      <trkpt lat="46.16885" lon="2.50832">
        <ele>443</ele>
        <time>2016-04-04T14:23:32Z</time>
      </trkpt>
      <trkpt lat="46.16888" lon="2.50827">
        <ele>443</ele>
        <time>2016-04-04T14:23:35Z</time>
      </trkpt>
      <trkpt lat="46.16891" lon="2.50822">
        <ele>443</ele>
        <time>2016-04-04T14:23:38Z</time>
      </trkpt>
      <trkpt lat="46.16893" lon="2.50817">
        <ele>443</ele>
        <time>2016-04-04T14:23:41Z</time>
      </trkpt>
      <trkpt lat="46.16895" lon="2.50811">
        <ele>443</ele>
        <time>2016-04-04T14:23:44Z</time>
      </trkpt>
      <trkpt lat="46.16897" lon="2.50806">
        <ele>443</ele>
        <time>2016-04-04T14:23:47Z</time>
      </trkpt>
      <trkpt lat="46.16899" lon="2.508">
        <ele>443</ele>
        <time>2016-04-04T14:23:50Z</time>
      </trkpt>
      <trkpt lat="46.16901" lon="2.50795">
        <ele>443</ele>
        <time>2016-04-04T14:23:53Z</time>
      </trkpt>
      <trkpt lat="46.16903" lon="2.50789">
        <ele>443</ele>
        <time>2016-04-04T14:23:56Z</time>
      </trkpt>
      <trkpt lat="46.16905" lon="2.50783">
        <ele>444</ele>
        <time>2016-04-04T14:23:59Z</time>
      </trkpt>
      <trkpt lat="46.16906" lon="2.50778">
        <ele>444</ele>
        <time>2016-04-04T14:24:02Z</time>
      </trkpt>
      <trkpt lat="46.16909" lon="2.50773">
        <ele>444</ele>
        <time>2016-04-04T14:24:05Z</time>
      </trkpt>
      <trkpt lat="46.16911" lon="2.50767">
        <ele>444</ele>
        <time>2016-04-04T14:24:08Z</time>
      </trkpt>
      <trkpt lat="46.16914" lon="2.50762">
        <ele>444</ele>
        <time>2016-04-04T14:24:11Z</time>
      </trkpt>
      <trkpt lat="46.16916" lon="2.50757">
        <ele>444</ele>
        <time>2016-04-04T14:24:14Z</time>
      </trkpt>
      <trkpt lat="46.16918" lon="2.50751">
        <ele>444</ele>
        <time>2016-04-04T14:24:17Z</time>
      </trkpt>
      <trkpt lat="46.1692" lon="2.50746">
        <ele>444</ele>
        <time>2016-04-04T14:24:20Z</time>
      </trkpt>
      <trkpt lat="46.16923" lon="2.5074">
        <ele>444</ele>
        <time>2016-04-04T14:24:23Z</time>
      </trkpt>
      <trkpt lat="46.16925" lon="2.50735">
        <ele>445</ele>
        <time>2016-04-04T14:24:26Z</time>
      </trkpt>
      <trkpt lat="46.16927" lon="2.5073">
        <ele>445</ele>
        <time>2016-04-04T14:24:29Z</time>
      </trkpt>
      <trkpt lat="46.16929" lon="2.50724">
        <ele>445</ele>
        <time>2016-04-04T14:24:32Z</time>
      </trkpt>
      <trkpt lat="46.16931" lon="2.50718">
        <ele>445</ele>
        <time>2016-04-04T14:24:35Z</time>
      </trkpt>
      <trkpt lat="46.16933" lon="2.50713">
        <ele>445</ele>
        <time>2016-04-04T14:24:38Z</time>
      </trkpt>
      <trkpt lat="46.16935" lon="2.50707">
        <ele>445</ele>
        <time>2016-04-04T14:24:41Z</time>
      </trkpt>
      <trkpt lat="46.16937" lon="2.50701">
        <ele>445</ele>
        <time>2016-04-04T14:24:44Z</time>
      </trkpt>
      <trkpt lat="46.16939" lon="2.50695">
        <ele>445</ele>
        <time>2016-04-04T14:24:47Z</time>
      </trkpt>
      <trkpt lat="46.16941" lon="2.5069">
        <ele>445</ele>
        <time>2016-04-04T14:24:50Z</time>
      </trkpt>
      <trkpt lat="46.16942" lon="2.50684">
        <ele>445</ele>
        <time>2016-04-04T14:24:53Z</time>
      </trkpt>
      <trkpt lat="46.16944" lon="2.50678">
        <ele>445</ele>
        <time>2016-04-04T14:24:56Z</time>
      </trkpt>
      <trkpt lat="46.16946" lon="2.50672">
        <ele>446</ele>
        <time>2016-04-04T14:24:59Z</time>
      </trkpt>
      <trkpt lat="46.16947" lon="2.50666">
        <ele>446</ele>
        <time>2016-04-04T14:25:02Z</time>
      </trkpt>
      <trkpt lat="46.16948" lon="2.5066">
        <ele>446</ele>
        <time>2016-04-04T14:25:05Z</time>
      </trkpt>
      <trkpt lat="46.16949" lon="2.50654">
        <ele>446</ele>
        <time>2016-04-04T14:25:08Z</time>
      </trkpt>
      <trkpt lat="46.16951" lon="2.50648">
        <ele>446</ele>
        <time>2016-04-04T14:25:11Z</time>
      </trkpt>
      <trkpt lat="46.16952" lon="2.50642">
        <ele>446</ele>
        <time>2016-04-04T14:25:14Z</time>
      </trkpt>
      <trkpt lat="46.16953" lon="2.50636">
        <ele>446</ele>
        <time>2016-04-04T14:25:17Z</time>
      </trkpt>
      <trkpt lat="46.16954" lon="2.50629">
        <ele>446</ele>
        <time>2016-04-04T14:25:20Z</time>
      </trkpt>
      <trkpt lat="46.16956" lon="2.50623">
        <ele>446</ele>
        <time>2016-04-04T14:25:23Z</time>
      </trkpt>
      <trkpt lat="46.16957" lon="2.50617">
        <ele>446</ele>
        <time>2016-04-04T14:25:26Z</time>
      </trkpt>
      <trkpt lat="46.16959" lon="2.50611">
        <ele>446</ele>
        <time>2016-04-04T14:25:29Z</time>
      </trkpt>
      <trkpt lat="46.1696" lon="2.50605">
        <ele>446</ele>
        <time>2016-04-04T14:25:32Z</time>
      </trkpt>
      <trkpt lat="46.16961" lon="2.50598">
        <ele>446</ele>
        <time>2016-04-04T14:25:35Z</time>
      </trkpt>
      <trkpt lat="46.16962" lon="2.50592">
        <ele>446</ele>
        <time>2016-04-04T14:25:38Z</time>
      </trkpt>
      <trkpt lat="46.16963" lon="2.50586">
        <ele>446</ele>
        <time>2016-04-04T14:25:41Z</time>
      </trkpt>
      <trkpt lat="46.16964" lon="2.5058">
        <ele>446</ele>
        <time>2016-04-04T14:25:44Z</time>
      </trkpt>
      <trkpt lat="46.16965" lon="2.50574">
        <ele>446</ele>
        <time>2016-04-04T14:25:47Z</time>
      </trkpt>
      <trkpt lat="46.16966" lon="2.50568">
        <ele>446</ele>
        <time>2016-04-04T14:25:50Z</time>
      </trkpt>
      <trkpt lat="46.16967" lon="2.50562">
        <ele>446</ele>
        <time>2016-04-04T14:25:53Z</time>
      </trkpt>
      <trkpt lat="46.16968" lon="2.50556">
        <ele>446</ele>
        <time>2016-04-04T14:25:56Z</time>
      </trkpt>
      <trkpt lat="46.1697" lon="2.5055">
        <ele>446</ele>
        <time>2016-04-04T14:25:59Z</time>
      </trkpt>
      <trkpt lat="46.16971" lon="2.50544">
        <ele>446</ele>
        <time>2016-04-04T14:26:02Z</time>
      </trkpt>
      <trkpt lat="46.16972" lon="2.50538">
        <ele>446</ele>
        <time>2016-04-04T14:26:05Z</time>
      </trkpt>
      <trkpt lat="46.16974" lon="2.50533">
        <ele>446</ele>
        <time>2016-04-04T14:26:08Z</time>
      </trkpt>
      <trkpt lat="46.16975" lon="2.50527">
        <ele>446</ele>
        <time>2016-04-04T14:26:11Z</time>
      </trkpt>
      <trkpt lat="46.16978" lon="2.50521">
        <ele>446</ele>
        <time>2016-04-04T14:26:14Z</time>
      </trkpt>
      <trkpt lat="46.1698" lon="2.50516">
        <ele>446</ele>
        <time>2016-04-04T14:26:17Z</time>
      </trkpt>
      <trkpt lat="46.16981" lon="2.5051">
        <ele>446</ele>
        <time>2016-04-04T14:26:20Z</time>
      </trkpt>
      <trkpt lat="46.16983" lon="2.50504">
        <ele>446</ele>
        <time>2016-04-04T14:26:23Z</time>
      </trkpt>
      <trkpt lat="46.16985" lon="2.50499">
        <ele>446</ele>
        <time>2016-04-04T14:26:26Z</time>
      </trkpt>
      <trkpt lat="46.16987" lon="2.50493">
        <ele>446</ele>
        <time>2016-04-04T14:26:29Z</time>
      </trkpt>
      <trkpt lat="46.16989" lon="2.50488">
        <ele>446</ele>
        <time>2016-04-04T14:26:32Z</time>
      </trkpt>
      <trkpt lat="46.16991" lon="2.50483">
        <ele>446</ele>
        <time>2016-04-04T14:26:35Z</time>
      </trkpt>
      <trkpt lat="46.16993" lon="2.50477">
        <ele>446</ele>
        <time>2016-04-04T14:26:38Z</time>
      </trkpt>
      <trkpt lat="46.16995" lon="2.50471">
        <ele>446</ele>
        <time>2016-04-04T14:26:41Z</time>
      </trkpt>
      <trkpt lat="46.16997" lon="2.50466">
        <ele>446</ele>
        <time>2016-04-04T14:26:44Z</time>
      </trkpt>
      <trkpt lat="46.16999" lon="2.50461">
        <ele>446</ele>
        <time>2016-04-04T14:26:47Z</time>
      </trkpt>
      <trkpt lat="46.17001" lon="2.50455">
        <ele>446</ele>
        <time>2016-04-04T14:26:50Z</time>
      </trkpt>
      <trkpt lat="46.17004" lon="2.5045">
        <ele>446</ele>
        <time>2016-04-04T14:26:53Z</time>
      </trkpt>
      <trkpt lat="46.17006" lon="2.50444">
        <ele>446</ele>
        <time>2016-04-04T14:26:56Z</time>
      </trkpt>
      <trkpt lat="46.17008" lon="2.50439">
        <ele>446</ele>
        <time>2016-04-04T14:26:59Z</time>
      </trkpt>
      <trkpt lat="46.1701" lon="2.50433">
        <ele>446</ele>
        <time>2016-04-04T14:27:02Z</time>
      </trkpt>
      <trkpt lat="46.17012" lon="2.50428">
        <ele>446</ele>
        <time>2016-04-04T14:27:05Z</time>
      </trkpt>
      <trkpt lat="46.17015" lon="2.50422">
        <ele>446</ele>
        <time>2016-04-04T14:27:08Z</time>
      </trkpt>
      <trkpt lat="46.17017" lon="2.50416">
        <ele>446</ele>
        <time>2016-04-04T14:27:11Z</time>
      </trkpt>
      <trkpt lat="46.17019" lon="2.50411">
        <ele>446</ele>
        <time>2016-04-04T14:27:14Z</time>
      </trkpt>
      <trkpt lat="46.17021" lon="2.50406">
        <ele>446</ele>
        <time>2016-04-04T14:27:17Z</time>
      </trkpt>
      <trkpt lat="46.17023" lon="2.504">
        <ele>446</ele>
        <time>2016-04-04T14:27:20Z</time>
      </trkpt>
      <trkpt lat="46.17025" lon="2.50394">
        <ele>446</ele>
        <time>2016-04-04T14:27:23Z</time>
      </trkpt>
      <trkpt lat="46.17028" lon="2.50389">
        <ele>446</ele>
        <time>2016-04-04T14:27:26Z</time>
      </trkpt>
      <trkpt lat="46.1703" lon="2.50383">
        <ele>446</ele>
        <time>2016-04-04T14:27:29Z</time>
      </trkpt>
      <trkpt lat="46.17033" lon="2.50378">
        <ele>446</ele>
        <time>2016-04-04T14:27:32Z</time>
      </trkpt>
      <trkpt lat="46.17035" lon="2.50372">
        <ele>446</ele>
        <time>2016-04-04T14:27:35Z</time>
      </trkpt>
      <trkpt lat="46.17037" lon="2.50366">
        <ele>446</ele>
        <time>2016-04-04T14:27:38Z</time>
      </trkpt>
      <trkpt lat="46.17039" lon="2.50361">
        <ele>446</ele>
        <time>2016-04-04T14:27:41Z</time>
      </trkpt>
      <trkpt lat="46.17042" lon="2.50355">
        <ele>446</ele>
        <time>2016-04-04T14:27:44Z</time>
      </trkpt>
      <trkpt lat="46.17044" lon="2.5035">
        <ele>446</ele>
        <time>2016-04-04T14:27:47Z</time>
      </trkpt>
      <trkpt lat="46.17046" lon="2.50344">
        <ele>446</ele>
        <time>2016-04-04T14:27:50Z</time>
      </trkpt>
      <trkpt lat="46.17048" lon="2.50338">
        <ele>446</ele>
        <time>2016-04-04T14:27:53Z</time>
      </trkpt>
      <trkpt lat="46.1705" lon="2.50333">
        <ele>446</ele>
        <time>2016-04-04T14:27:56Z</time>
      </trkpt>
      <trkpt lat="46.17052" lon="2.50327">
        <ele>446</ele>
        <time>2016-04-04T14:27:59Z</time>
      </trkpt>
      <trkpt lat="46.17055" lon="2.50321">
        <ele>446</ele>
        <time>2016-04-04T14:28:02Z</time>
      </trkpt>
      <trkpt lat="46.17057" lon="2.50316">
        <ele>446</ele>
        <time>2016-04-04T14:28:05Z</time>
      </trkpt>
      <trkpt lat="46.17059" lon="2.5031">
        <ele>446</ele>
        <time>2016-04-04T14:28:08Z</time>
      </trkpt>
      <trkpt lat="46.17062" lon="2.50304">
        <ele>446</ele>
        <time>2016-04-04T14:28:11Z</time>
      </trkpt>
      <trkpt lat="46.17064" lon="2.50299">
        <ele>446</ele>
        <time>2016-04-04T14:28:14Z</time>
      </trkpt>
      <trkpt lat="46.17066" lon="2.50293">
        <ele>446</ele>
        <time>2016-04-04T14:28:17Z</time>
      </trkpt>
      <trkpt lat="46.17068" lon="2.50287">
        <ele>446</ele>
        <time>2016-04-04T14:28:20Z</time>
      </trkpt>
      <trkpt lat="46.17071" lon="2.50282">
        <ele>446</ele>
        <time>2016-04-04T14:28:23Z</time>
      </trkpt>
      <trkpt lat="46.17073" lon="2.50276">
        <ele>446</ele>
        <time>2016-04-04T14:28:26Z</time>
      </trkpt>
      <trkpt lat="46.17075" lon="2.50271">
        <ele>446</ele>
        <time>2016-04-04T14:28:29Z</time>
      </trkpt>
      <trkpt lat="46.17078" lon="2.50265">
        <ele>446</ele>
        <time>2016-04-04T14:28:32Z</time>
      </trkpt>
      <trkpt lat="46.1708" lon="2.50259">
        <ele>446</ele>
        <time>2016-04-04T14:28:35Z</time>
      </trkpt>
      <trkpt lat="46.17082" lon="2.50254">
        <ele>446</ele>
        <time>2016-04-04T14:28:38Z</time>
      </trkpt>
      <trkpt lat="46.17084" lon="2.50248">
        <ele>446</ele>
        <time>2016-04-04T14:28:41Z</time>
      </trkpt>
      <trkpt lat="46.17086" lon="2.50243">
        <ele>446</ele>
        <time>2016-04-04T14:28:44Z</time>
      </trkpt>
      <trkpt lat="46.17088" lon="2.50237">
        <ele>446</ele>
        <time>2016-04-04T14:28:47Z</time>
      </trkpt>
      <trkpt lat="46.17091" lon="2.50232">
        <ele>446</ele>
        <time>2016-04-04T14:28:50Z</time>
      </trkpt>
      <trkpt lat="46.17094" lon="2.50226">
        <ele>446</ele>
        <time>2016-04-04T14:28:53Z</time>
      </trkpt>
      <trkpt lat="46.17096" lon="2.5022">
        <ele>446</ele>
        <time>2016-04-04T14:28:56Z</time>
      </trkpt>
      <trkpt lat="46.17098" lon="2.50215">
        <ele>446</ele>
        <time>2016-04-04T14:28:59Z</time>
      </trkpt>
      <trkpt lat="46.171" lon="2.50209">
        <ele>446</ele>
        <time>2016-04-04T14:29:02Z</time>
      </trkpt>
      <trkpt lat="46.17102" lon="2.50204">
        <ele>446</ele>
        <time>2016-04-04T14:29:05Z</time>
      </trkpt>
      <trkpt lat="46.17105" lon="2.50198">
        <ele>446</ele>
        <time>2016-04-04T14:29:08Z</time>
      </trkpt>
      <trkpt lat="46.17107" lon="2.50193">
        <ele>446</ele>
        <time>2016-04-04T14:29:11Z</time>
      </trkpt>
      <trkpt lat="46.1711" lon="2.50187">
        <ele>446</ele>
        <time>2016-04-04T14:29:14Z</time>
      </trkpt>
      <trkpt lat="46.17112" lon="2.50182">
        <ele>446</ele>
        <time>2016-04-04T14:29:17Z</time>
      </trkpt>
      <trkpt lat="46.17115" lon="2.50177">
        <ele>446</ele>
        <time>2016-04-04T14:29:20Z</time>
      </trkpt>
      <trkpt lat="46.17117" lon="2.50171">
        <ele>446</ele>
        <time>2016-04-04T14:29:23Z</time>
      </trkpt>
      <trkpt lat="46.17119" lon="2.50166">
        <ele>446</ele>
        <time>2016-04-04T14:29:26Z</time>
      </trkpt>
      <trkpt lat="46.17121" lon="2.5016">
        <ele>446</ele>
        <time>2016-04-04T14:29:29Z</time>
      </trkpt>
      <trkpt lat="46.17123" lon="2.50154">
        <ele>446</ele>
        <time>2016-04-04T14:29:32Z</time>
      </trkpt>
      <trkpt lat="46.17125" lon="2.50149">
        <ele>446</ele>
        <time>2016-04-04T14:29:35Z</time>
      </trkpt>
      <trkpt lat="46.17126" lon="2.50143">
        <ele>446</ele>
        <time>2016-04-04T14:29:38Z</time>
      </trkpt>
      <trkpt lat="46.17127" lon="2.50136">
        <ele>446</ele>
        <time>2016-04-04T14:29:41Z</time>
      </trkpt>
      <trkpt lat="46.17128" lon="2.5013">
        <ele>446</ele>
        <time>2016-04-04T14:29:44Z</time>
      </trkpt>
      <trkpt lat="46.17128" lon="2.50124">
        <ele>446</ele>
        <time>2016-04-04T14:29:47Z</time>
      </trkpt>
      <trkpt lat="46.17128" lon="2.50118">
        <ele>446</ele>
        <time>2016-04-04T14:29:50Z</time>
      </trkpt>
      <trkpt lat="46.17129" lon="2.50112">
        <ele>446</ele>
        <time>2016-04-04T14:29:53Z</time>
      </trkpt>
      <trkpt lat="46.17129" lon="2.50105">
        <ele>446</ele>
        <time>2016-04-04T14:29:56Z</time>
      </trkpt>
      <trkpt lat="46.17129" lon="2.50099">
        <ele>446</ele>
        <time>2016-04-04T14:29:59Z</time>
      </trkpt>
      <trkpt lat="46.1713" lon="2.50093">
        <ele>446</ele>
        <time>2016-04-04T14:30:02Z</time>
      </trkpt>
      <trkpt lat="46.1713" lon="2.50087">
        <ele>446</ele>
        <time>2016-04-04T14:30:05Z</time>
      </trkpt>
      <trkpt lat="46.17131" lon="2.5008">
        <ele>446</ele>
        <time>2016-04-04T14:30:08Z</time>
      </trkpt>
      <trkpt lat="46.17131" lon="2.50074">
        <ele>446</ele>
        <time>2016-04-04T14:30:11Z</time>
      </trkpt>
      <trkpt lat="46.17131" lon="2.50067">
        <ele>446</ele>
        <time>2016-04-04T14:30:14Z</time>
      </trkpt>
      <trkpt lat="46.17131" lon="2.50061">
        <ele>446</ele>
        <time>2016-04-04T14:30:17Z</time>
      </trkpt>
      <trkpt lat="46.17132" lon="2.50055">
        <ele>446</ele>
        <time>2016-04-04T14:30:20Z</time>
      </trkpt>
      <trkpt lat="46.17132" lon="2.50048">
        <ele>446</ele>
        <time>2016-04-04T14:30:23Z</time>
      </trkpt>
      <trkpt lat="46.17132" lon="2.50042">
        <ele>446</ele>
        <time>2016-04-04T14:30:26Z</time>
      </trkpt>
      <trkpt lat="46.17133" lon="2.50035">
        <ele>446</ele>
        <time>2016-04-04T14:30:29Z</time>
      </trkpt>
      <trkpt lat="46.17133" lon="2.50029">
        <ele>446</ele>
        <time>2016-04-04T14:30:32Z</time>
      </trkpt>
      <trkpt lat="46.17134" lon="2.50023">
        <ele>446</ele>
        <time>2016-04-04T14:30:35Z</time>
      </trkpt>
      <trkpt lat="46.17134" lon="2.50016">
        <ele>446</ele>
        <time>2016-04-04T14:30:38Z</time>
      </trkpt>
      <trkpt lat="46.17134" lon="2.5001">
        <ele>446</ele>
        <time>2016-04-04T14:30:41Z</time>
      </trkpt>
      <trkpt lat="46.17135" lon="2.50003">
        <ele>446</ele>
        <time>2016-04-04T14:30:44Z</time>
      </trkpt>
      <trkpt lat="46.17135" lon="2.49997">
        <ele>445</ele>
        <time>2016-04-04T14:30:47Z</time>
      </trkpt>
      <trkpt lat="46.17136" lon="2.49991">
        <ele>445</ele>
        <time>2016-04-04T14:30:50Z</time>
      </trkpt>
      <trkpt lat="46.17136" lon="2.49985">
        <ele>445</ele>
        <time>2016-04-04T14:30:53Z</time>
      </trkpt>
      <trkpt lat="46.17137" lon="2.49979">
        <ele>444</ele>
        <time>2016-04-04T14:30:56Z</time>
      </trkpt>
      <trkpt lat="46.17137" lon="2.49973">
        <ele>444</ele>
        <time>2016-04-04T14:30:59Z</time>
      </trkpt>
      <trkpt lat="46.17138" lon="2.49967">
        <ele>444</ele>
        <time>2016-04-04T14:31:02Z</time>
      </trkpt>
      <trkpt lat="46.17139" lon="2.4996">
        <ele>443</ele>
        <time>2016-04-04T14:31:05Z</time>
      </trkpt>
      <trkpt lat="46.1714" lon="2.49954">
        <ele>443</ele>
        <time>2016-04-04T14:31:08Z</time>
      </trkpt>
      <trkpt lat="46.17141" lon="2.49949">
        <ele>443</ele>
        <time>2016-04-04T14:31:11Z</time>
      </trkpt>
      <trkpt lat="46.17142" lon="2.49943">
        <ele>442</ele>
        <time>2016-04-04T14:31:14Z</time>
      </trkpt>
      <trkpt lat="46.17144" lon="2.49938">
        <ele>441</ele>
        <time>2016-04-04T14:31:17Z</time>
      </trkpt>
      <trkpt lat="46.17146" lon="2.49932">
        <ele>441</ele>
        <time>2016-04-04T14:31:20Z</time>
      </trkpt>
      <trkpt lat="46.17149" lon="2.49927">
        <ele>440</ele>
        <time>2016-04-04T14:31:23Z</time>
      </trkpt>
      <trkpt lat="46.17152" lon="2.49922">
        <ele>440</ele>
        <time>2016-04-04T14:31:26Z</time>
      </trkpt>
      <trkpt lat="46.17155" lon="2.49918">
        <ele>439</ele>
        <time>2016-04-04T14:31:29Z</time>
      </trkpt>
      <trkpt lat="46.17159" lon="2.49914">
        <ele>439</ele>
        <time>2016-04-04T14:31:32Z</time>
      </trkpt>
      <trkpt lat="46.17162" lon="2.4991">
        <ele>438</ele>
        <time>2016-04-04T14:31:35Z</time>
      </trkpt>
      <trkpt lat="46.17166" lon="2.49906">
        <ele>438</ele>
        <time>2016-04-04T14:31:38Z</time>
      </trkpt>
      <trkpt lat="46.17169" lon="2.49903">
        <ele>437</ele>
        <time>2016-04-04T14:31:41Z</time>
      </trkpt>
      <trkpt lat="46.17173" lon="2.49899">
        <ele>437</ele>
        <time>2016-04-04T14:31:44Z</time>
      </trkpt>
      <trkpt lat="46.17177" lon="2.49895">
        <ele>436</ele>
        <time>2016-04-04T14:31:47Z</time>
      </trkpt>
      <trkpt lat="46.17181" lon="2.49891">
        <ele>436</ele>
        <time>2016-04-04T14:31:50Z</time>
      </trkpt>
      <trkpt lat="46.17184" lon="2.49887">
        <ele>435</ele>
        <time>2016-04-04T14:31:53Z</time>
      </trkpt>
      <trkpt lat="46.17187" lon="2.49884">
        <ele>435</ele>
        <time>2016-04-04T14:31:56Z</time>
      </trkpt>
      <trkpt lat="46.17191" lon="2.4988">
        <ele>434</ele>
        <time>2016-04-04T14:31:59Z</time>
      </trkpt>
      <trkpt lat="46.17194" lon="2.49876">
        <ele>434</ele>
        <time>2016-04-04T14:32:02Z</time>
      </trkpt>
      <trkpt lat="46.17198" lon="2.49873">
        <ele>434</ele>
        <time>2016-04-04T14:32:05Z</time>
      </trkpt>
      <trkpt lat="46.17201" lon="2.4987">
        <ele>433</ele>
        <time>2016-04-04T14:32:08Z</time>
      </trkpt>
      <trkpt lat="46.17205" lon="2.49864">
        <ele>432</ele>
        <time>2016-04-04T14:32:12Z</time>
      </trkpt>
      <trkpt lat="46.17209" lon="2.4986">
        <ele>432</ele>
        <time>2016-04-04T14:32:15Z</time>
      </trkpt>
      <trkpt lat="46.17212" lon="2.49856">
        <ele>432</ele>
        <time>2016-04-04T14:32:18Z</time>
      </trkpt>
      <trkpt lat="46.17215" lon="2.49851">
        <ele>431</ele>
        <time>2016-04-04T14:32:21Z</time>
      </trkpt>
      <trkpt lat="46.17218" lon="2.49846">
        <ele>431</ele>
        <time>2016-04-04T14:32:24Z</time>
      </trkpt>
      <trkpt lat="46.1722" lon="2.49841">
        <ele>430</ele>
        <time>2016-04-04T14:32:27Z</time>
      </trkpt>
      <trkpt lat="46.17222" lon="2.49834">
        <ele>430</ele>
        <time>2016-04-04T14:32:30Z</time>
      </trkpt>
      <trkpt lat="46.17223" lon="2.49829">
        <ele>429</ele>
        <time>2016-04-04T14:32:33Z</time>
      </trkpt>
      <trkpt lat="46.17224" lon="2.49822">
        <ele>429</ele>
        <time>2016-04-04T14:32:36Z</time>
      </trkpt>
      <trkpt lat="46.17224" lon="2.49816">
        <ele>429</ele>
        <time>2016-04-04T14:32:39Z</time>
      </trkpt>
      <trkpt lat="46.17224" lon="2.4981">
        <ele>428</ele>
        <time>2016-04-04T14:32:42Z</time>
      </trkpt>
      <trkpt lat="46.17223" lon="2.49803">
        <ele>428</ele>
        <time>2016-04-04T14:32:45Z</time>
      </trkpt>
      <trkpt lat="46.17223" lon="2.49797">
        <ele>428</ele>
        <time>2016-04-04T14:32:48Z</time>
      </trkpt>
      <trkpt lat="46.17223" lon="2.49791">
        <ele>428</ele>
        <time>2016-04-04T14:32:51Z</time>
      </trkpt>
      <trkpt lat="46.17222" lon="2.49784">
        <ele>428</ele>
        <time>2016-04-04T14:32:54Z</time>
      </trkpt>
      <trkpt lat="46.17221" lon="2.49778">
        <ele>428</ele>
        <time>2016-04-04T14:32:57Z</time>
      </trkpt>
      <trkpt lat="46.17221" lon="2.49771">
        <ele>427</ele>
        <time>2016-04-04T14:33:00Z</time>
      </trkpt>
      <trkpt lat="46.17221" lon="2.49765">
        <ele>427</ele>
        <time>2016-04-04T14:33:03Z</time>
      </trkpt>
      <trkpt lat="46.1722" lon="2.49759">
        <ele>426</ele>
        <time>2016-04-04T14:33:06Z</time>
      </trkpt>
      <trkpt lat="46.1722" lon="2.49753">
        <ele>425</ele>
        <time>2016-04-04T14:33:09Z</time>
      </trkpt>
      <trkpt lat="46.17221" lon="2.49747">
        <ele>425</ele>
        <time>2016-04-04T14:33:12Z</time>
      </trkpt>
      <trkpt lat="46.17221" lon="2.49741">
        <ele>425</ele>
        <time>2016-04-04T14:33:15Z</time>
      </trkpt>
      <trkpt lat="46.17222" lon="2.49735">
        <ele>424</ele>
        <time>2016-04-04T14:33:18Z</time>
      </trkpt>
      <trkpt lat="46.17223" lon="2.49729">
        <ele>423</ele>
        <time>2016-04-04T14:33:21Z</time>
      </trkpt>
      <trkpt lat="46.17224" lon="2.49724">
        <ele>423</ele>
        <time>2016-04-04T14:33:24Z</time>
      </trkpt>
      <trkpt lat="46.17226" lon="2.49718">
        <ele>423</ele>
        <time>2016-04-04T14:33:27Z</time>
      </trkpt>
      <trkpt lat="46.17228" lon="2.49713">
        <ele>422</ele>
        <time>2016-04-04T14:33:30Z</time>
      </trkpt>
      <trkpt lat="46.17231" lon="2.49708">
        <ele>421</ele>
        <time>2016-04-04T14:33:33Z</time>
      </trkpt>
      <trkpt lat="46.17234" lon="2.49703">
        <ele>421</ele>
        <time>2016-04-04T14:33:36Z</time>
      </trkpt>
      <trkpt lat="46.17237" lon="2.49698">
        <ele>421</ele>
        <time>2016-04-04T14:33:39Z</time>
      </trkpt>
      <trkpt lat="46.17241" lon="2.49695">
        <ele>421</ele>
        <time>2016-04-04T14:33:42Z</time>
      </trkpt>
      <trkpt lat="46.17244" lon="2.49691">
        <ele>420</ele>
        <time>2016-04-04T14:33:45Z</time>
      </trkpt>
      <trkpt lat="46.17248" lon="2.49688">
        <ele>420</ele>
        <time>2016-04-04T14:33:48Z</time>
      </trkpt>
      <trkpt lat="46.17252" lon="2.49685">
        <ele>420</ele>
        <time>2016-04-04T14:33:51Z</time>
      </trkpt>
      <trkpt lat="46.17255" lon="2.49682">
        <ele>419</ele>
        <time>2016-04-04T14:33:54Z</time>
      </trkpt>
      <trkpt lat="46.17259" lon="2.49679">
        <ele>419</ele>
        <time>2016-04-04T14:33:57Z</time>
      </trkpt>
      <trkpt lat="46.17263" lon="2.49677">
        <ele>418</ele>
        <time>2016-04-04T14:34:00Z</time>
      </trkpt>
      <trkpt lat="46.17267" lon="2.49675">
        <ele>418</ele>
        <time>2016-04-04T14:34:03Z</time>
      </trkpt>
      <trkpt lat="46.17271" lon="2.49672">
        <ele>418</ele>
        <time>2016-04-04T14:34:06Z</time>
      </trkpt>
      <trkpt lat="46.17275" lon="2.49669">
        <ele>418</ele>
        <time>2016-04-04T14:34:09Z</time>
      </trkpt>
      <trkpt lat="46.17279" lon="2.49667">
        <ele>417</ele>
        <time>2016-04-04T14:34:12Z</time>
      </trkpt>
      <trkpt lat="46.17283" lon="2.49664">
        <ele>417</ele>
        <time>2016-04-04T14:34:15Z</time>
      </trkpt>
      <trkpt lat="46.17287" lon="2.49661">
        <ele>417</ele>
        <time>2016-04-04T14:34:18Z</time>
      </trkpt>
      <trkpt lat="46.17291" lon="2.49658">
        <ele>417</ele>
        <time>2016-04-04T14:34:21Z</time>
      </trkpt>
      <trkpt lat="46.17295" lon="2.49656">
        <ele>417</ele>
        <time>2016-04-04T14:34:24Z</time>
      </trkpt>
      <trkpt lat="46.17299" lon="2.49653">
        <ele>416</ele>
        <time>2016-04-04T14:34:27Z</time>
      </trkpt>
      <trkpt lat="46.17302" lon="2.4965">
        <ele>416</ele>
        <time>2016-04-04T14:34:30Z</time>
      </trkpt>
      <trkpt lat="46.17306" lon="2.49647">
        <ele>416</ele>
        <time>2016-04-04T14:34:33Z</time>
      </trkpt>
      <trkpt lat="46.1731" lon="2.49645">
        <ele>415</ele>
        <time>2016-04-04T14:34:36Z</time>
      </trkpt>
      <trkpt lat="46.17314" lon="2.49642">
        <ele>415</ele>
        <time>2016-04-04T14:34:39Z</time>
      </trkpt>
      <trkpt lat="46.17318" lon="2.49639">
        <ele>415</ele>
        <time>2016-04-04T14:34:42Z</time>
      </trkpt>
      <trkpt lat="46.17323" lon="2.49636">
        <ele>414</ele>
        <time>2016-04-04T14:34:45Z</time>
      </trkpt>
      <trkpt lat="46.17326" lon="2.49634">
        <ele>414</ele>
        <time>2016-04-04T14:34:48Z</time>
      </trkpt>
      <trkpt lat="46.1733" lon="2.49631">
        <ele>414</ele>
        <time>2016-04-04T14:34:51Z</time>
      </trkpt>
      <trkpt lat="46.17334" lon="2.49628">
        <ele>413</ele>
        <time>2016-04-04T14:34:54Z</time>
      </trkpt>
      <trkpt lat="46.17338" lon="2.49625">
        <ele>413</ele>
        <time>2016-04-04T14:34:57Z</time>
      </trkpt>
      <trkpt lat="46.17342" lon="2.49622">
        <ele>412</ele>
        <time>2016-04-04T14:35:00Z</time>
      </trkpt>
      <trkpt lat="46.17346" lon="2.49619">
        <ele>412</ele>
        <time>2016-04-04T14:35:03Z</time>
      </trkpt>
      <trkpt lat="46.1735" lon="2.49616">
        <ele>412</ele>
        <time>2016-04-04T14:35:06Z</time>
      </trkpt>
      <trkpt lat="46.17353" lon="2.49611">
        <ele>412</ele>
        <time>2016-04-04T14:35:09Z</time>
      </trkpt>
      <trkpt lat="46.17356" lon="2.49606">
        <ele>412</ele>
        <time>2016-04-04T14:35:12Z</time>
      </trkpt>
      <trkpt lat="46.17358" lon="2.49602">
        <ele>412</ele>
        <time>2016-04-04T14:35:15Z</time>
      </trkpt>
      <trkpt lat="46.17359" lon="2.49596">
        <ele>412</ele>
        <time>2016-04-04T14:35:18Z</time>
      </trkpt>
      <trkpt lat="46.1736" lon="2.4959">
        <ele>412</ele>
        <time>2016-04-04T14:35:21Z</time>
      </trkpt>
      <trkpt lat="46.1736" lon="2.49584">
        <ele>412</ele>
        <time>2016-04-04T14:35:24Z</time>
      </trkpt>
      <trkpt lat="46.1736" lon="2.49578">
        <ele>412</ele>
        <time>2016-04-04T14:35:27Z</time>
      </trkpt>
      <trkpt lat="46.17361" lon="2.49572">
        <ele>412</ele>
        <time>2016-04-04T14:35:30Z</time>
      </trkpt>
      <trkpt lat="46.17361" lon="2.49566">
        <ele>412</ele>
        <time>2016-04-04T14:35:33Z</time>
      </trkpt>
      <trkpt lat="46.1736" lon="2.4956">
        <ele>412</ele>
        <time>2016-04-04T14:35:36Z</time>
      </trkpt>
      <trkpt lat="46.1736" lon="2.49553">
        <ele>412</ele>
        <time>2016-04-04T14:35:39Z</time>
      </trkpt>
      <trkpt lat="46.1736" lon="2.49548">
        <ele>412</ele>
        <time>2016-04-04T14:35:42Z</time>
      </trkpt>
      <trkpt lat="46.1736" lon="2.49541">
        <ele>412</ele>
        <time>2016-04-04T14:35:45Z</time>
      </trkpt>
      <trkpt lat="46.1736" lon="2.49535">
        <ele>412</ele>
        <time>2016-04-04T14:35:48Z</time>
      </trkpt>
      <trkpt lat="46.17359" lon="2.4953">
        <ele>412</ele>
        <time>2016-04-04T14:35:51Z</time>
      </trkpt>
      <trkpt lat="46.17359" lon="2.49524">
        <ele>412</ele>
        <time>2016-04-04T14:35:54Z</time>
      </trkpt>
      <trkpt lat="46.1736" lon="2.49517">
        <ele>412</ele>
        <time>2016-04-04T14:35:57Z</time>
      </trkpt>
      <trkpt lat="46.1736" lon="2.49511">
        <ele>412</ele>
        <time>2016-04-04T14:36:00Z</time>
      </trkpt>
      <trkpt lat="46.17359" lon="2.49505">
        <ele>412</ele>
        <time>2016-04-04T14:36:03Z</time>
      </trkpt>
      <trkpt lat="46.1736" lon="2.49499">
        <ele>412</ele>
        <time>2016-04-04T14:36:06Z</time>
      </trkpt>
      <trkpt lat="46.1736" lon="2.49494">
        <ele>412</ele>
        <time>2016-04-04T14:36:09Z</time>
      </trkpt>
      <trkpt lat="46.17361" lon="2.49488">
        <ele>412</ele>
        <time>2016-04-04T14:36:12Z</time>
      </trkpt>
      <trkpt lat="46.17362" lon="2.49482">
        <ele>412</ele>
        <time>2016-04-04T14:36:15Z</time>
      </trkpt>
      <trkpt lat="46.17364" lon="2.49478">
        <ele>412</ele>
        <time>2016-04-04T14:36:18Z</time>
      </trkpt>
      <trkpt lat="46.17368" lon="2.49475">
        <ele>412</ele>
        <time>2016-04-04T14:36:21Z</time>
      </trkpt>
      <trkpt lat="46.17372" lon="2.49474">
        <ele>412</ele>
        <time>2016-04-04T14:36:24Z</time>
      </trkpt>
      <trkpt lat="46.17376" lon="2.49474">
        <ele>412</ele>
        <time>2016-04-04T14:36:27Z</time>
      </trkpt>
      <trkpt lat="46.1738" lon="2.49472">
        <ele>412</ele>
        <time>2016-04-04T14:36:30Z</time>
      </trkpt>
      <trkpt lat="46.17384" lon="2.4947">
        <ele>412</ele>
        <time>2016-04-04T14:36:33Z</time>
      </trkpt>
      <trkpt lat="46.17389" lon="2.49467">
        <ele>412</ele>
        <time>2016-04-04T14:36:36Z</time>
      </trkpt>
      <trkpt lat="46.17393" lon="2.49464">
        <ele>412</ele>
        <time>2016-04-04T14:36:39Z</time>
      </trkpt>
      <trkpt lat="46.17397" lon="2.49461">
        <ele>412</ele>
        <time>2016-04-04T14:36:42Z</time>
      </trkpt>
      <trkpt lat="46.174" lon="2.49457">
        <ele>412</ele>
        <time>2016-04-04T14:36:45Z</time>
      </trkpt>
      <trkpt lat="46.17405" lon="2.49452">
        <ele>412</ele>
        <time>2016-04-04T14:36:49Z</time>
      </trkpt>
      <trkpt lat="46.17409" lon="2.49447">
        <ele>412</ele>
        <time>2016-04-04T14:36:53Z</time>
      </trkpt>
      <trkpt lat="46.17413" lon="2.49443">
        <ele>412</ele>
        <time>2016-04-04T14:36:56Z</time>
      </trkpt>
      <trkpt lat="46.17416" lon="2.4944">
        <ele>412</ele>
        <time>2016-04-04T14:36:59Z</time>
      </trkpt>
      <trkpt lat="46.1742" lon="2.49434">
        <ele>412</ele>
        <time>2016-04-04T14:37:03Z</time>
      </trkpt>
      <trkpt lat="46.17424" lon="2.4943">
        <ele>412</ele>
        <time>2016-04-04T14:37:06Z</time>
      </trkpt>
      <trkpt lat="46.17427" lon="2.49426">
        <ele>412</ele>
        <time>2016-04-04T14:37:09Z</time>
      </trkpt>
      <trkpt lat="46.17431" lon="2.49423">
        <ele>412</ele>
        <time>2016-04-04T14:37:12Z</time>
      </trkpt>
      <trkpt lat="46.17435" lon="2.49419">
        <ele>412</ele>
        <time>2016-04-04T14:37:15Z</time>
      </trkpt>
      <trkpt lat="46.17439" lon="2.49415">
        <ele>412</ele>
        <time>2016-04-04T14:37:18Z</time>
      </trkpt>
      <trkpt lat="46.17443" lon="2.49412">
        <ele>412</ele>
        <time>2016-04-04T14:37:21Z</time>
      </trkpt>
      <trkpt lat="46.17446" lon="2.49409">
        <ele>412</ele>
        <time>2016-04-04T14:37:24Z</time>
      </trkpt>
      <trkpt lat="46.1745" lon="2.49406">
        <ele>412</ele>
        <time>2016-04-04T14:37:27Z</time>
      </trkpt>
      <trkpt lat="46.17453" lon="2.49404">
        <ele>412</ele>
        <time>2016-04-04T14:37:30Z</time>
      </trkpt>
      <trkpt lat="46.17457" lon="2.49402">
        <ele>412</ele>
        <time>2016-04-04T14:37:33Z</time>
      </trkpt>
      <trkpt lat="46.17461" lon="2.494">
        <ele>412</ele>
        <time>2016-04-04T14:37:36Z</time>
      </trkpt>
      <trkpt lat="46.17464" lon="2.49397">
        <ele>412</ele>
        <time>2016-04-04T14:37:39Z</time>
      </trkpt>
      <trkpt lat="46.17469" lon="2.49396">
        <ele>412</ele>
        <time>2016-04-04T14:37:42Z</time>
      </trkpt>
      <trkpt lat="46.17472" lon="2.49395">
        <ele>411</ele>
        <time>2016-04-04T14:37:45Z</time>
      </trkpt>
      <trkpt lat="46.17476" lon="2.49394">
        <ele>411</ele>
        <time>2016-04-04T14:37:48Z</time>
      </trkpt>
      <trkpt lat="46.1748" lon="2.49393">
        <ele>410</ele>
        <time>2016-04-04T14:37:51Z</time>
      </trkpt>
      <trkpt lat="46.17485" lon="2.49392">
        <ele>410</ele>
        <time>2016-04-04T14:37:54Z</time>
      </trkpt>
      <trkpt lat="46.17489" lon="2.49392">
        <ele>410</ele>
        <time>2016-04-04T14:37:57Z</time>
      </trkpt>
      <trkpt lat="46.17493" lon="2.4939">
        <ele>410</ele>
        <time>2016-04-04T14:38:00Z</time>
      </trkpt>
      <trkpt lat="46.17497" lon="2.49389">
        <ele>410</ele>
        <time>2016-04-04T14:38:03Z</time>
      </trkpt>
      <trkpt lat="46.17502" lon="2.49388">
        <ele>410</ele>
        <time>2016-04-04T14:38:07Z</time>
      </trkpt>
      <trkpt lat="46.17507" lon="2.49387">
        <ele>410</ele>
        <time>2016-04-04T14:38:10Z</time>
      </trkpt>
      <trkpt lat="46.17511" lon="2.49386">
        <ele>410</ele>
        <time>2016-04-04T14:38:13Z</time>
      </trkpt>
      <trkpt lat="46.17515" lon="2.49384">
        <ele>410</ele>
        <time>2016-04-04T14:38:16Z</time>
      </trkpt>
      <trkpt lat="46.17519" lon="2.49383">
        <ele>410</ele>
        <time>2016-04-04T14:38:19Z</time>
      </trkpt>
      <trkpt lat="46.17524" lon="2.49382">
        <ele>410</ele>
        <time>2016-04-04T14:38:22Z</time>
      </trkpt>
      <trkpt lat="46.17528" lon="2.49381">
        <ele>410</ele>
        <time>2016-04-04T14:38:25Z</time>
      </trkpt>
      <trkpt lat="46.17532" lon="2.49381">
        <ele>410</ele>
        <time>2016-04-04T14:38:28Z</time>
      </trkpt>
      <trkpt lat="46.17536" lon="2.49381">
        <ele>410</ele>
        <time>2016-04-04T14:38:31Z</time>
      </trkpt>
      <trkpt lat="46.1754" lon="2.4938">
        <ele>410</ele>
        <time>2016-04-04T14:38:34Z</time>
      </trkpt>
      <trkpt lat="46.17544" lon="2.49381">
        <ele>410</ele>
        <time>2016-04-04T14:38:37Z</time>
      </trkpt>
      <trkpt lat="46.17548" lon="2.4938">
        <ele>410</ele>
        <time>2016-04-04T14:38:40Z</time>
      </trkpt>
      <trkpt lat="46.17552" lon="2.49381">
        <ele>410</ele>
        <time>2016-04-04T14:38:43Z</time>
      </trkpt>
      <trkpt lat="46.17556" lon="2.49383">
        <ele>410</ele>
        <time>2016-04-04T14:38:46Z</time>
      </trkpt>
      <trkpt lat="46.1756" lon="2.49384">
        <ele>410</ele>
        <time>2016-04-04T14:38:49Z</time>
      </trkpt>
      <trkpt lat="46.17564" lon="2.49386">
        <ele>410</ele>
        <time>2016-04-04T14:38:52Z</time>
      </trkpt>
      <trkpt lat="46.17568" lon="2.49389">
        <ele>410</ele>
        <time>2016-04-04T14:38:55Z</time>
      </trkpt>
      <trkpt lat="46.17572" lon="2.49392">
        <ele>410</ele>
        <time>2016-04-04T14:38:58Z</time>
      </trkpt>
      <trkpt lat="46.17576" lon="2.49395">
        <ele>410</ele>
        <time>2016-04-04T14:39:01Z</time>
      </trkpt>
      <trkpt lat="46.1758" lon="2.49398">
        <ele>410</ele>
        <time>2016-04-04T14:39:04Z</time>
      </trkpt>
      <trkpt lat="46.17584" lon="2.49402">
        <ele>410</ele>
        <time>2016-04-04T14:39:07Z</time>
      </trkpt>
      <trkpt lat="46.17588" lon="2.49405">
        <ele>410</ele>
        <time>2016-04-04T14:39:10Z</time>
      </trkpt>
      <trkpt lat="46.17592" lon="2.49408">
        <ele>410</ele>
        <time>2016-04-04T14:39:13Z</time>
      </trkpt>
      <trkpt lat="46.17596" lon="2.49412">
        <ele>410</ele>
        <time>2016-04-04T14:39:17Z</time>
      </trkpt>
      <trkpt lat="46.176" lon="2.49415">
        <ele>410</ele>
        <time>2016-04-04T14:39:20Z</time>
      </trkpt>
      <trkpt lat="46.17604" lon="2.49418">
        <ele>410</ele>
        <time>2016-04-04T14:39:23Z</time>
      </trkpt>
      <trkpt lat="46.17607" lon="2.49421">
        <ele>410</ele>
        <time>2016-04-04T14:39:26Z</time>
      </trkpt>
      <trkpt lat="46.17611" lon="2.49424">
        <ele>410</ele>
        <time>2016-04-04T14:39:29Z</time>
      </trkpt>
      <trkpt lat="46.17614" lon="2.49426">
        <ele>410</ele>
        <time>2016-04-04T14:39:32Z</time>
      </trkpt>
      <trkpt lat="46.17618" lon="2.49429">
        <ele>410</ele>
        <time>2016-04-04T14:39:35Z</time>
      </trkpt>
      <trkpt lat="46.17621" lon="2.49432">
        <ele>410</ele>
        <time>2016-04-04T14:39:38Z</time>
      </trkpt>
      <trkpt lat="46.17624" lon="2.49433">
        <ele>410</ele>
        <time>2016-04-04T14:39:43Z</time>
      </trkpt>
      <trkpt lat="46.17625" lon="2.49429">
        <ele>410</ele>
        <time>2016-04-04T14:39:47Z</time>
      </trkpt>
      <trkpt lat="46.17624" lon="2.49425">
        <ele>410</ele>
        <time>2016-04-04T14:39:50Z</time>
      </trkpt>
      <trkpt lat="46.17622" lon="2.49421">
        <ele>410</ele>
        <time>2016-04-04T14:39:53Z</time>
      </trkpt>
      <trkpt lat="46.17619" lon="2.49417">
        <ele>410</ele>
        <time>2016-04-04T14:39:57Z</time>
      </trkpt>
      <trkpt lat="46.17617" lon="2.49413">
        <ele>410</ele>
        <time>2016-04-04T14:40:00Z</time>
      </trkpt>
      <trkpt lat="46.17614" lon="2.49408">
        <ele>410</ele>
        <time>2016-04-04T14:40:04Z</time>
      </trkpt>
      <trkpt lat="46.17613" lon="2.49404">
        <ele>410</ele>
        <time>2016-04-04T14:40:07Z</time>
      </trkpt>
      <trkpt lat="46.1761" lon="2.494">
        <ele>410</ele>
        <time>2016-04-04T14:40:11Z</time>
      </trkpt>
      <trkpt lat="46.17607" lon="2.49398">
        <ele>410</ele>
        <time>2016-04-04T14:40:15Z</time>
      </trkpt>
      <trkpt lat="46.17604" lon="2.49395">
        <ele>410</ele>
        <time>2016-04-04T14:40:20Z</time>
      </trkpt>
      <trkpt lat="46.17601" lon="2.49391">
        <ele>411</ele>
        <time>2016-04-04T14:40:24Z</time>
      </trkpt>
      <trkpt lat="46.17598" lon="2.49388">
        <ele>412</ele>
        <time>2016-04-04T14:40:28Z</time>
      </trkpt>
      <trkpt lat="46.17595" lon="2.49384">
        <ele>412</ele>
        <time>2016-04-04T14:40:32Z</time>
      </trkpt>
      <trkpt lat="46.17592" lon="2.4938">
        <ele>413</ele>
        <time>2016-04-04T14:40:36Z</time>
      </trkpt>
      <trkpt lat="46.17589" lon="2.49375">
        <ele>413</ele>
        <time>2016-04-04T14:40:40Z</time>
      </trkpt>
      <trkpt lat="46.17587" lon="2.4937">
        <ele>413</ele>
        <time>2016-04-04T14:40:44Z</time>
      </trkpt>
      <trkpt lat="46.17585" lon="2.49365">
        <ele>413</ele>
        <time>2016-04-04T14:40:48Z</time>
      </trkpt>
      <trkpt lat="46.17583" lon="2.4936">
        <ele>413</ele>
        <time>2016-04-04T14:40:52Z</time>
      </trkpt>
      <trkpt lat="46.17583" lon="2.49355">
        <ele>413</ele>
        <time>2016-04-04T14:40:55Z</time>
      </trkpt>
      <trkpt lat="46.17584" lon="2.49351">
        <ele>413</ele>
        <time>2016-04-04T14:40:58Z</time>
      </trkpt>
      <trkpt lat="46.17584" lon="2.49347">
        <ele>413</ele>
        <time>2016-04-04T14:41:01Z</time>
      </trkpt>
      <trkpt lat="46.17585" lon="2.49343">
        <ele>414</ele>
        <time>2016-04-04T14:41:04Z</time>
      </trkpt>
      <trkpt lat="46.17584" lon="2.49338">
        <ele>414</ele>
        <time>2016-04-04T14:41:07Z</time>
      </trkpt>
      <trkpt lat="46.17584" lon="2.49332">
        <ele>416</ele>
        <time>2016-04-04T14:41:10Z</time>
      </trkpt>
      <trkpt lat="46.17583" lon="2.49325">
        <ele>416</ele>
        <time>2016-04-04T14:41:13Z</time>
      </trkpt>
      <trkpt lat="46.17582" lon="2.49319">
        <ele>416</ele>
        <time>2016-04-04T14:41:16Z</time>
      </trkpt>
      <trkpt lat="46.17583" lon="2.49313">
        <ele>416</ele>
        <time>2016-04-04T14:41:19Z</time>
      </trkpt>
      <trkpt lat="46.17582" lon="2.49309">
        <ele>416</ele>
        <time>2016-04-04T14:41:22Z</time>
      </trkpt>
      <trkpt lat="46.17582" lon="2.49303">
        <ele>415</ele>
        <time>2016-04-04T14:41:26Z</time>
      </trkpt>
      <trkpt lat="46.17582" lon="2.49297">
        <ele>415</ele>
        <time>2016-04-04T14:41:29Z</time>
      </trkpt>
      <trkpt lat="46.17582" lon="2.49293">
        <ele>415</ele>
        <time>2016-04-04T14:41:32Z</time>
      </trkpt>
      <trkpt lat="46.17583" lon="2.49287">
        <ele>414</ele>
        <time>2016-04-04T14:41:35Z</time>
      </trkpt>
      <trkpt lat="46.17584" lon="2.49282">
        <ele>413</ele>
        <time>2016-04-04T14:41:38Z</time>
      </trkpt>
      <trkpt lat="46.17583" lon="2.49276">
        <ele>412</ele>
        <time>2016-04-04T14:41:41Z</time>
      </trkpt>
      <trkpt lat="46.17583" lon="2.49271">
        <ele>412</ele>
        <time>2016-04-04T14:41:44Z</time>
      </trkpt>
      <trkpt lat="46.17582" lon="2.49265">
        <ele>412</ele>
        <time>2016-04-04T14:41:47Z</time>
      </trkpt>
      <trkpt lat="46.17582" lon="2.4926">
        <ele>412</ele>
        <time>2016-04-04T14:41:50Z</time>
      </trkpt>
      <trkpt lat="46.17582" lon="2.49256">
        <ele>412</ele>
        <time>2016-04-04T14:41:53Z</time>
      </trkpt>
      <trkpt lat="46.17584" lon="2.49252">
        <ele>412</ele>
        <time>2016-04-04T14:41:57Z</time>
      </trkpt>
      <trkpt lat="46.17587" lon="2.49249">
        <ele>413</ele>
        <time>2016-04-04T14:42:01Z</time>
      </trkpt>
      <trkpt lat="46.1759" lon="2.49247">
        <ele>414</ele>
        <time>2016-04-04T14:42:05Z</time>
      </trkpt>
      <trkpt lat="46.17592" lon="2.49244">
        <ele>415</ele>
        <time>2016-04-04T14:42:08Z</time>
      </trkpt>
      <trkpt lat="46.17596" lon="2.49243">
        <ele>417</ele>
        <time>2016-04-04T14:42:11Z</time>
      </trkpt>
      <trkpt lat="46.17601" lon="2.49243">
        <ele>420</ele>
        <time>2016-04-04T14:42:15Z</time>
      </trkpt>
      <trkpt lat="46.17603" lon="2.49244">
        <ele>422</ele>
        <time>2016-04-04T14:42:18Z</time>
      </trkpt>
      <trkpt lat="46.17606" lon="2.49243">
        <ele>424</ele>
        <time>2016-04-04T14:42:21Z</time>
      </trkpt>
      <trkpt lat="46.17609" lon="2.49243">
        <ele>425</ele>
        <time>2016-04-04T14:42:24Z</time>
      </trkpt>
      <trkpt lat="46.17613" lon="2.49244">
        <ele>425</ele>
        <time>2016-04-04T14:42:27Z</time>
      </trkpt>
      <trkpt lat="46.17618" lon="2.49244">
        <ele>425</ele>
        <time>2016-04-04T14:42:31Z</time>
      </trkpt>
      <trkpt lat="46.17621" lon="2.49244">
        <ele>427</ele>
        <time>2016-04-04T14:42:34Z</time>
      </trkpt>
      <trkpt lat="46.17626" lon="2.49243">
        <ele>429</ele>
        <time>2016-04-04T14:42:38Z</time>
      </trkpt>
      <trkpt lat="46.17628" lon="2.49242">
        <ele>431</ele>
        <time>2016-04-04T14:42:47Z</time>
      </trkpt>
      <trkpt lat="46.17632" lon="2.49244">
        <ele>432</ele>
        <time>2016-04-04T14:42:51Z</time>
      </trkpt>
      <trkpt lat="46.17636" lon="2.49246">
        <ele>433</ele>
        <time>2016-04-04T14:42:55Z</time>
      </trkpt>
      <trkpt lat="46.17639" lon="2.49246">
        <ele>434</ele>
        <time>2016-04-04T14:42:58Z</time>
      </trkpt>
      <trkpt lat="46.17642" lon="2.49246">
        <ele>435</ele>
        <time>2016-04-04T14:43:02Z</time>
      </trkpt>
      <trkpt lat="46.17646" lon="2.49246">
        <ele>435</ele>
        <time>2016-04-04T14:43:06Z</time>
      </trkpt>
      <trkpt lat="46.17649" lon="2.49247">
        <ele>435</ele>
        <time>2016-04-04T14:43:09Z</time>
      </trkpt>
      <trkpt lat="46.17653" lon="2.49247">
        <ele>435</ele>
        <time>2016-04-04T14:43:12Z</time>
      </trkpt>
      <trkpt lat="46.17656" lon="2.49246">
        <ele>435</ele>
        <time>2016-04-04T14:43:15Z</time>
      </trkpt>
      <trkpt lat="46.17659" lon="2.49246">
        <ele>435</ele>
        <time>2016-04-04T14:43:18Z</time>
      </trkpt>
      <trkpt lat="46.17662" lon="2.49242">
        <ele>435</ele>
        <time>2016-04-04T14:43:22Z</time>
      </trkpt>
      <trkpt lat="46.17665" lon="2.49238">
        <ele>435</ele>
        <time>2016-04-04T14:43:26Z</time>
      </trkpt>
      <trkpt lat="46.17668" lon="2.49234">
        <ele>435</ele>
        <time>2016-04-04T14:43:30Z</time>
      </trkpt>
      <trkpt lat="46.17672" lon="2.49229">
        <ele>435</ele>
        <time>2016-04-04T14:43:34Z</time>
      </trkpt>
      <trkpt lat="46.17674" lon="2.49224">
        <ele>435</ele>
        <time>2016-04-04T14:43:37Z</time>
      </trkpt>
      <trkpt lat="46.17676" lon="2.4922">
        <ele>435</ele>
        <time>2016-04-04T14:43:40Z</time>
      </trkpt>
      <trkpt lat="46.17678" lon="2.49215">
        <ele>435</ele>
        <time>2016-04-04T14:43:43Z</time>
      </trkpt>
      <trkpt lat="46.1768" lon="2.4921">
        <ele>435</ele>
        <time>2016-04-04T14:43:46Z</time>
      </trkpt>
      <trkpt lat="46.17682" lon="2.49205">
        <ele>435</ele>
        <time>2016-04-04T14:43:49Z</time>
      </trkpt>
      <trkpt lat="46.17684" lon="2.492">
        <ele>435</ele>
        <time>2016-04-04T14:43:52Z</time>
      </trkpt>
      <trkpt lat="46.17686" lon="2.49195">
        <ele>435</ele>
        <time>2016-04-04T14:43:55Z</time>
      </trkpt>
      <trkpt lat="46.17688" lon="2.4919">
        <ele>435</ele>
        <time>2016-04-04T14:43:58Z</time>
      </trkpt>
      <trkpt lat="46.17691" lon="2.49185">
        <ele>435</ele>
        <time>2016-04-04T14:44:01Z</time>
      </trkpt>
      <trkpt lat="46.17693" lon="2.4918">
        <ele>435</ele>
        <time>2016-04-04T14:44:04Z</time>
      </trkpt>
      <trkpt lat="46.17695" lon="2.49175">
        <ele>435</ele>
        <time>2016-04-04T14:44:07Z</time>
      </trkpt>
      <trkpt lat="46.17697" lon="2.4917">
        <ele>435</ele>
        <time>2016-04-04T14:44:10Z</time>
      </trkpt>
      <trkpt lat="46.17699" lon="2.49165">
        <ele>435</ele>
        <time>2016-04-04T14:44:13Z</time>
      </trkpt>
      <trkpt lat="46.17701" lon="2.4916">
        <ele>435</ele>
        <time>2016-04-04T14:44:16Z</time>
      </trkpt>
      <trkpt lat="46.17704" lon="2.49155">
        <ele>435</ele>
        <time>2016-04-04T14:44:19Z</time>
      </trkpt>
      <trkpt lat="46.17706" lon="2.4915">
        <ele>435</ele>
        <time>2016-04-04T14:44:22Z</time>
      </trkpt>
      <trkpt lat="46.17709" lon="2.49146">
        <ele>435</ele>
        <time>2016-04-04T14:44:25Z</time>
      </trkpt>
      <trkpt lat="46.17711" lon="2.49139">
        <ele>435</ele>
        <time>2016-04-04T14:44:29Z</time>
      </trkpt>
      <trkpt lat="46.17713" lon="2.49135">
        <ele>435</ele>
        <time>2016-04-04T14:44:32Z</time>
      </trkpt>
      <trkpt lat="46.17715" lon="2.49131">
        <ele>435</ele>
        <time>2016-04-04T14:44:35Z</time>
      </trkpt>
      <trkpt lat="46.17718" lon="2.49126">
        <ele>435</ele>
        <time>2016-04-04T14:44:38Z</time>
      </trkpt>
      <trkpt lat="46.1772" lon="2.49121">
        <ele>435</ele>
        <time>2016-04-04T14:44:41Z</time>
      </trkpt>
      <trkpt lat="46.17723" lon="2.49115">
        <ele>435</ele>
        <time>2016-04-04T14:44:45Z</time>
      </trkpt>
      <trkpt lat="46.17726" lon="2.4911">
        <ele>435</ele>
        <time>2016-04-04T14:44:48Z</time>
      </trkpt>
      <trkpt lat="46.17728" lon="2.49106">
        <ele>436</ele>
        <time>2016-04-04T14:44:51Z</time>
      </trkpt>
      <trkpt lat="46.17731" lon="2.49101">
        <ele>436</ele>
        <time>2016-04-04T14:44:54Z</time>
      </trkpt>
      <trkpt lat="46.17734" lon="2.49097">
        <ele>437</ele>
        <time>2016-04-04T14:44:57Z</time>
      </trkpt>
      <trkpt lat="46.17738" lon="2.49092">
        <ele>438</ele>
        <time>2016-04-04T14:45:01Z</time>
      </trkpt>
      <trkpt lat="46.1774" lon="2.49087">
        <ele>438</ele>
        <time>2016-04-04T14:45:04Z</time>
      </trkpt>
      <trkpt lat="46.17744" lon="2.49083">
        <ele>438</ele>
        <time>2016-04-04T14:45:07Z</time>
      </trkpt>
      <trkpt lat="46.17746" lon="2.49078">
        <ele>438</ele>
        <time>2016-04-04T14:45:11Z</time>
      </trkpt>
      <trkpt lat="46.17749" lon="2.49073">
        <ele>438</ele>
        <time>2016-04-04T14:45:15Z</time>
      </trkpt>
      <trkpt lat="46.17752" lon="2.49067">
        <ele>438</ele>
        <time>2016-04-04T14:45:19Z</time>
      </trkpt>
      <trkpt lat="46.17755" lon="2.49062">
        <ele>438</ele>
        <time>2016-04-04T14:45:22Z</time>
      </trkpt>
      <trkpt lat="46.17758" lon="2.49058">
        <ele>439</ele>
        <time>2016-04-04T14:45:25Z</time>
      </trkpt>
      <trkpt lat="46.17761" lon="2.49052">
        <ele>439</ele>
        <time>2016-04-04T14:45:29Z</time>
      </trkpt>
      <trkpt lat="46.17763" lon="2.49048">
        <ele>439</ele>
        <time>2016-04-04T14:45:32Z</time>
      </trkpt>
      <trkpt lat="46.17765" lon="2.49044">
        <ele>439</ele>
        <time>2016-04-04T14:45:35Z</time>
      </trkpt>
      <trkpt lat="46.17768" lon="2.49039">
        <ele>439</ele>
        <time>2016-04-04T14:45:38Z</time>
      </trkpt>
      <trkpt lat="46.1777" lon="2.49034">
        <ele>440</ele>
        <time>2016-04-04T14:45:41Z</time>
      </trkpt>
      <trkpt lat="46.17772" lon="2.4903">
        <ele>441</ele>
        <time>2016-04-04T14:45:44Z</time>
      </trkpt>
      <trkpt lat="46.17773" lon="2.49025">
        <ele>441</ele>
        <time>2016-04-04T14:45:47Z</time>
      </trkpt>
      <trkpt lat="46.17775" lon="2.49019">
        <ele>441</ele>
        <time>2016-04-04T14:45:50Z</time>
      </trkpt>
      <trkpt lat="46.17776" lon="2.49015">
        <ele>441</ele>
        <time>2016-04-04T14:45:53Z</time>
      </trkpt>
      <trkpt lat="46.17778" lon="2.49009">
        <ele>441</ele>
        <time>2016-04-04T14:45:56Z</time>
      </trkpt>
      <trkpt lat="46.1778" lon="2.49005">
        <ele>441</ele>
        <time>2016-04-04T14:45:59Z</time>
      </trkpt>
      <trkpt lat="46.17781" lon="2.49">
        <ele>441</ele>
        <time>2016-04-04T14:46:02Z</time>
      </trkpt>
      <trkpt lat="46.17783" lon="2.48995">
        <ele>441</ele>
        <time>2016-04-04T14:46:05Z</time>
      </trkpt>
      <trkpt lat="46.17788" lon="2.48991">
        <ele>441</ele>
        <time>2016-04-04T14:46:09Z</time>
      </trkpt>
      <trkpt lat="46.17792" lon="2.48992">
        <ele>441</ele>
        <time>2016-04-04T14:46:12Z</time>
      </trkpt>
      <trkpt lat="46.17796" lon="2.48994">
        <ele>442</ele>
        <time>2016-04-04T14:46:15Z</time>
      </trkpt>
      <trkpt lat="46.17799" lon="2.48997">
        <ele>443</ele>
        <time>2016-04-04T14:46:18Z</time>
      </trkpt>
      <trkpt lat="46.17802" lon="2.49">
        <ele>444</ele>
        <time>2016-04-04T14:46:21Z</time>
      </trkpt>
      <trkpt lat="46.17806" lon="2.49003">
        <ele>444</ele>
        <time>2016-04-04T14:46:24Z</time>
      </trkpt>
      <trkpt lat="46.17809" lon="2.49005">
        <ele>445</ele>
        <time>2016-04-04T14:46:27Z</time>
      </trkpt>
      <trkpt lat="46.17813" lon="2.49008">
        <ele>445</ele>
        <time>2016-04-04T14:46:30Z</time>
      </trkpt>
      <trkpt lat="46.17816" lon="2.4901">
        <ele>445</ele>
        <time>2016-04-04T14:46:33Z</time>
      </trkpt>
      <trkpt lat="46.17819" lon="2.49011">
        <ele>446</ele>
        <time>2016-04-04T14:46:36Z</time>
      </trkpt>
      <trkpt lat="46.17823" lon="2.49012">
        <ele>446</ele>
        <time>2016-04-04T14:46:39Z</time>
      </trkpt>
      <trkpt lat="46.17828" lon="2.49012">
        <ele>447</ele>
        <time>2016-04-04T14:46:43Z</time>
      </trkpt>
      <trkpt lat="46.17833" lon="2.49012">
        <ele>447</ele>
        <time>2016-04-04T14:46:47Z</time>
      </trkpt>
      <trkpt lat="46.17836" lon="2.4901">
        <ele>447</ele>
        <time>2016-04-04T14:46:50Z</time>
      </trkpt>
      <trkpt lat="46.17839" lon="2.49007">
        <ele>447</ele>
        <time>2016-04-04T14:46:53Z</time>
      </trkpt>
      <trkpt lat="46.17843" lon="2.49004">
        <ele>447</ele>
        <time>2016-04-04T14:46:56Z</time>
      </trkpt>
      <trkpt lat="46.17847" lon="2.48999">
        <ele>447</ele>
        <time>2016-04-04T14:47:00Z</time>
      </trkpt>
      <trkpt lat="46.17852" lon="2.48993">
        <ele>447</ele>
        <time>2016-04-04T14:47:04Z</time>
      </trkpt>
      <trkpt lat="46.17856" lon="2.48988">
        <ele>447</ele>
        <time>2016-04-04T14:47:08Z</time>
      </trkpt>
      <trkpt lat="46.17859" lon="2.48983">
        <ele>447</ele>
        <time>2016-04-04T14:47:11Z</time>
      </trkpt>
      <trkpt lat="46.17862" lon="2.48979">
        <ele>447</ele>
        <time>2016-04-04T14:47:14Z</time>
      </trkpt>
      <trkpt lat="46.17864" lon="2.48973">
        <ele>447</ele>
        <time>2016-04-04T14:47:17Z</time>
      </trkpt>
      <trkpt lat="46.17868" lon="2.48966">
        <ele>447</ele>
        <time>2016-04-04T14:47:21Z</time>
      </trkpt>
      <trkpt lat="46.17869" lon="2.48959">
        <ele>447</ele>
        <time>2016-04-04T14:47:25Z</time>
      </trkpt>
      <trkpt lat="46.17868" lon="2.48954">
        <ele>447</ele>
        <time>2016-04-04T14:47:28Z</time>
      </trkpt>
      <trkpt lat="46.17867" lon="2.48949">
        <ele>447</ele>
        <time>2016-04-04T14:47:31Z</time>
      </trkpt>
      <trkpt lat="46.17866" lon="2.48944">
        <ele>447</ele>
        <time>2016-04-04T14:47:34Z</time>
      </trkpt>
      <trkpt lat="46.17865" lon="2.48938">
        <ele>447</ele>
        <time>2016-04-04T14:47:37Z</time>
      </trkpt>
      <trkpt lat="46.17863" lon="2.48931">
        <ele>447</ele>
        <time>2016-04-04T14:47:41Z</time>
      </trkpt>
      <trkpt lat="46.17862" lon="2.48923">
        <ele>447</ele>
        <time>2016-04-04T14:47:45Z</time>
      </trkpt>
      <trkpt lat="46.17862" lon="2.48918">
        <ele>447</ele>
        <time>2016-04-04T14:47:48Z</time>
      </trkpt>
      <trkpt lat="46.17864" lon="2.48912">
        <ele>447</ele>
        <time>2016-04-04T14:47:52Z</time>
      </trkpt>
      <trkpt lat="46.17865" lon="2.48908">
        <ele>447</ele>
        <time>2016-04-04T14:47:55Z</time>
      </trkpt>
      <trkpt lat="46.17868" lon="2.48904">
        <ele>447</ele>
        <time>2016-04-04T14:48:00Z</time>
      </trkpt>
      <trkpt lat="46.1787" lon="2.48901">
        <ele>447</ele>
        <time>2016-04-04T14:48:07Z</time>
      </trkpt>
      <trkpt lat="46.17871" lon="2.48901">
        <ele>447</ele>
        <time>2016-04-04T14:48:24Z</time>
      </trkpt>
      <trkpt lat="46.17873" lon="2.489">
        <ele>447</ele>
        <time>2016-04-04T14:48:33Z</time>
      </trkpt>
      <trkpt lat="46.17873" lon="2.48902">
        <ele>447</ele>
        <time>2016-04-04T14:48:38Z</time>
      </trkpt>
      <trkpt lat="46.17874" lon="2.489">
        <ele>447</ele>
        <time>2016-04-04T14:48:50Z</time>
      </trkpt>
      <trkpt lat="46.17874" lon="2.489">
        <ele>447</ele>
        <time>2016-04-04T14:49:02Z</time>
      </trkpt>
    </trkseg>
  </trk>
</gpx>